<?xml version="1.0" encoding="UTF-8" standalone="no" ?>
<gpx xmlns="http://www.topografix.com/GPX/1/1" xmlns:xsi="http://www.w3.org/2001/XMLSchema-instance" xsi:schemaLocation="http://www.topografix.com/GPX/1/1 http://www.topografix.com/GPX/1/1/gpx.xsd" version="1.1" creator="VisuGPX - https://www.visugpx.com">
  <metadata>
    <name>Reco TransV 2</name>
    <desc><![CDATA[Plan du Var - Pont du Cros - Levens (SP2 puis dragon) - Relais des chasseurs - Col du travail - Colla Bassa (nouvelle boucle) - Plan d\'Arriou (dernière porte horaire) - Aspremont - Chauve (Zongo) - Jungle de Falicon - St Andre]]></desc>
  </metadata>
  <trk>
    <name><![CDATA[Reco TV 2/4]]></name>
    <trkseg>
      <trkpt lat="43.86059" lon="7.19876">
        <ele>209</ele>
        <time>0001-01-01T00:00:00</time>
      </trkpt>
      <trkpt lat="43.86181" lon="7.20116">
        <ele>209</ele>
        <time>0001-01-01T00:00:00</time>
      </trkpt>
      <trkpt lat="43.86163" lon="7.2045">
        <ele>208</ele>
        <time>0001-01-01T00:00:00</time>
      </trkpt>
      <trkpt lat="43.86104" lon="7.20656">
        <ele>209</ele>
        <time>0001-01-01T00:00:00</time>
      </trkpt>
      <trkpt lat="43.86092" lon="7.20934">
        <ele>209</ele>
        <time>0001-01-01T00:00:00</time>
      </trkpt>
      <trkpt lat="43.86167" lon="7.21037">
        <ele>208</ele>
        <time>0001-01-01T00:00:00</time>
      </trkpt>
      <trkpt lat="43.86255" lon="7.21147">
        <ele>208</ele>
        <time>0001-01-01T00:00:00</time>
      </trkpt>
      <trkpt lat="43.86409" lon="7.21172">
        <ele>208</ele>
        <time>0001-01-01T00:00:00</time>
      </trkpt>
      <trkpt lat="43.86568" lon="7.21231">
        <ele>207</ele>
        <time>0001-01-01T00:00:00</time>
      </trkpt>
      <trkpt lat="43.86764" lon="7.21332">
        <ele>206</ele>
        <time>0001-01-01T00:00:00</time>
      </trkpt>
      <trkpt lat="43.86979" lon="7.21495">
        <ele>207</ele>
        <time>0001-01-01T00:00:00</time>
      </trkpt>
      <trkpt lat="43.87098" lon="7.21531">
        <ele>205.88192749023</ele>
        <time>0001-01-01T00:00:00</time>
      </trkpt>
      <trkpt lat="43.8727" lon="7.21664">
        <ele>205.22264099121</ele>
        <time>0001-01-01T00:00:00</time>
      </trkpt>
      <trkpt lat="43.87319" lon="7.21699">
        <ele>205</ele>
        <time>0001-01-01T00:00:00</time>
      </trkpt>
      <trkpt lat="43.87387" lon="7.21811">
        <ele>206</ele>
        <time>0001-01-01T00:00:00</time>
      </trkpt>
      <trkpt lat="43.87416" lon="7.21859">
        <ele>206.03598022461</ele>
        <time>0001-01-01T00:00:00</time>
      </trkpt>
      <trkpt lat="43.87482" lon="7.22069">
        <ele>209</ele>
        <time>0001-01-01T00:00:00</time>
      </trkpt>
      <trkpt lat="43.87518" lon="7.22313">
        <ele>211</ele>
        <time>0001-01-01T00:00:00</time>
      </trkpt>
      <trkpt lat="43.87571" lon="7.22366">
        <ele>210</ele>
        <time>0001-01-01T00:00:00</time>
      </trkpt>
      <trkpt lat="43.87628" lon="7.22501">
        <ele>209.73027038574</ele>
        <time>0001-01-01T00:00:00</time>
      </trkpt>
      <trkpt lat="43.87699" lon="7.22617">
        <ele>209</ele>
        <time>0001-01-01T00:00:00</time>
      </trkpt>
      <trkpt lat="43.87762" lon="7.22736">
        <ele>208</ele>
        <time>0001-01-01T00:00:00</time>
      </trkpt>
      <trkpt lat="43.8785" lon="7.22845">
        <ele>204</ele>
        <time>0001-01-01T00:00:00</time>
      </trkpt>
      <trkpt lat="43.87898" lon="7.22979">
        <ele>206</ele>
        <time>0001-01-01T00:00:00</time>
      </trkpt>
      <trkpt lat="43.87933" lon="7.23137">
        <ele>206</ele>
        <time>0001-01-01T00:00:00</time>
      </trkpt>
      <trkpt lat="43.87941" lon="7.2321">
        <ele>206</ele>
        <time>0001-01-01T00:00:00</time>
      </trkpt>
      <trkpt lat="43.87928" lon="7.23165">
        <ele>199</ele>
        <time>0001-01-01T00:00:00</time>
      </trkpt>
      <trkpt lat="43.87925" lon="7.23155">
        <ele>200</ele>
        <time>0001-01-01T00:00:00</time>
      </trkpt>
      <trkpt lat="43.87917" lon="7.23138">
        <ele>203</ele>
        <time>0001-01-01T00:00:00</time>
      </trkpt>
      <trkpt lat="43.87906" lon="7.23132">
        <ele>197</ele>
        <time>0001-01-01T00:00:00</time>
      </trkpt>
      <trkpt lat="43.87891" lon="7.23129">
        <ele>198</ele>
        <time>0001-01-01T00:00:00</time>
      </trkpt>
      <trkpt lat="43.87878" lon="7.23134">
        <ele>198</ele>
        <time>0001-01-01T00:00:00</time>
      </trkpt>
      <trkpt lat="43.8787" lon="7.23139">
        <ele>199</ele>
        <time>0001-01-01T00:00:00</time>
      </trkpt>
      <trkpt lat="43.87864" lon="7.23142">
        <ele>199</ele>
        <time>0001-01-01T00:00:00</time>
      </trkpt>
      <trkpt lat="43.87857" lon="7.23141">
        <ele>199</ele>
        <time>0001-01-01T00:00:00</time>
      </trkpt>
      <trkpt lat="43.87854" lon="7.23143">
        <ele>200</ele>
        <time>0001-01-01T00:00:00</time>
      </trkpt>
      <trkpt lat="43.87849" lon="7.23139">
        <ele>200</ele>
        <time>0001-01-01T00:00:00</time>
      </trkpt>
      <trkpt lat="43.87846" lon="7.23139">
        <ele>200</ele>
        <time>0001-01-01T00:00:00</time>
      </trkpt>
      <trkpt lat="43.87847" lon="7.23148">
        <ele>200</ele>
        <time>0001-01-01T00:00:00</time>
      </trkpt>
      <trkpt lat="43.87849" lon="7.23153">
        <ele>201</ele>
        <time>0001-01-01T00:00:00</time>
      </trkpt>
      <trkpt lat="43.87849" lon="7.23168">
        <ele>202</ele>
        <time>0001-01-01T00:00:00</time>
      </trkpt>
      <trkpt lat="43.8785" lon="7.23169">
        <ele>202</ele>
        <time>0001-01-01T00:00:00</time>
      </trkpt>
      <trkpt lat="43.87847" lon="7.23174">
        <ele>202</ele>
        <time>0001-01-01T00:00:00</time>
      </trkpt>
      <trkpt lat="43.87845" lon="7.23177">
        <ele>202</ele>
        <time>0001-01-01T00:00:00</time>
      </trkpt>
      <trkpt lat="43.87844" lon="7.23181">
        <ele>202</ele>
        <time>0001-01-01T00:00:00</time>
      </trkpt>
      <trkpt lat="43.87843" lon="7.23186">
        <ele>202</ele>
        <time>0001-01-01T00:00:00</time>
      </trkpt>
      <trkpt lat="43.87841" lon="7.23192">
        <ele>202</ele>
        <time>0001-01-01T00:00:00</time>
      </trkpt>
      <trkpt lat="43.87839" lon="7.23195">
        <ele>202</ele>
        <time>0001-01-01T00:00:00</time>
      </trkpt>
      <trkpt lat="43.8784" lon="7.23192">
        <ele>202</ele>
        <time>0001-01-01T00:00:00</time>
      </trkpt>
      <trkpt lat="43.87842" lon="7.23184">
        <ele>202</ele>
        <time>0001-01-01T00:00:00</time>
      </trkpt>
      <trkpt lat="43.87838" lon="7.23177">
        <ele>203</ele>
        <time>0001-01-01T00:00:00</time>
      </trkpt>
      <trkpt lat="43.87836" lon="7.23171">
        <ele>203</ele>
        <time>0001-01-01T00:00:00</time>
      </trkpt>
      <trkpt lat="43.87834" lon="7.23165">
        <ele>204</ele>
        <time>0001-01-01T00:00:00</time>
      </trkpt>
      <trkpt lat="43.87833" lon="7.23158">
        <ele>211</ele>
        <time>0001-01-01T00:00:00</time>
      </trkpt>
      <trkpt lat="43.8783" lon="7.23148">
        <ele>216</ele>
        <time>0001-01-01T00:00:00</time>
      </trkpt>
      <trkpt lat="43.87827" lon="7.23141">
        <ele>219</ele>
        <time>0001-01-01T00:00:00</time>
      </trkpt>
      <trkpt lat="43.87824" lon="7.23133">
        <ele>220</ele>
        <time>0001-01-01T00:00:00</time>
      </trkpt>
      <trkpt lat="43.87823" lon="7.23124">
        <ele>220</ele>
        <time>0001-01-01T00:00:00</time>
      </trkpt>
      <trkpt lat="43.87822" lon="7.23118">
        <ele>220</ele>
        <time>0001-01-01T00:00:00</time>
      </trkpt>
      <trkpt lat="43.87822" lon="7.23111">
        <ele>219</ele>
        <time>0001-01-01T00:00:00</time>
      </trkpt>
      <trkpt lat="43.87821" lon="7.23108">
        <ele>218</ele>
        <time>0001-01-01T00:00:00</time>
      </trkpt>
      <trkpt lat="43.87821" lon="7.23101">
        <ele>216</ele>
        <time>0001-01-01T00:00:00</time>
      </trkpt>
      <trkpt lat="43.87819" lon="7.23097">
        <ele>215</ele>
        <time>0001-01-01T00:00:00</time>
      </trkpt>
      <trkpt lat="43.87815" lon="7.23089">
        <ele>215</ele>
        <time>0001-01-01T00:00:00</time>
      </trkpt>
      <trkpt lat="43.87815" lon="7.23087">
        <ele>215</ele>
        <time>0001-01-01T00:00:00</time>
      </trkpt>
      <trkpt lat="43.87807" lon="7.23083">
        <ele>212</ele>
        <time>0001-01-01T00:00:00</time>
      </trkpt>
      <trkpt lat="43.878" lon="7.23078">
        <ele>215</ele>
        <time>0001-01-01T00:00:00</time>
      </trkpt>
      <trkpt lat="43.87799" lon="7.23084">
        <ele>224</ele>
        <time>0001-01-01T00:00:00</time>
      </trkpt>
      <trkpt lat="43.87798" lon="7.23088">
        <ele>224</ele>
        <time>0001-01-01T00:00:00</time>
      </trkpt>
      <trkpt lat="43.87794" lon="7.23085">
        <ele>226</ele>
        <time>0001-01-01T00:00:00</time>
      </trkpt>
      <trkpt lat="43.87791" lon="7.23079">
        <ele>218</ele>
        <time>0001-01-01T00:00:00</time>
      </trkpt>
      <trkpt lat="43.87787" lon="7.23075">
        <ele>220</ele>
        <time>0001-01-01T00:00:00</time>
      </trkpt>
      <trkpt lat="43.87786" lon="7.23072">
        <ele>220</ele>
        <time>0001-01-01T00:00:00</time>
      </trkpt>
      <trkpt lat="43.87784" lon="7.23067">
        <ele>220</ele>
        <time>0001-01-01T00:00:00</time>
      </trkpt>
      <trkpt lat="43.8778" lon="7.23063">
        <ele>221</ele>
        <time>0001-01-01T00:00:00</time>
      </trkpt>
      <trkpt lat="43.87774" lon="7.23056">
        <ele>222</ele>
        <time>0001-01-01T00:00:00</time>
      </trkpt>
      <trkpt lat="43.87769" lon="7.23049">
        <ele>222</ele>
        <time>0001-01-01T00:00:00</time>
      </trkpt>
      <trkpt lat="43.87766" lon="7.23047">
        <ele>222</ele>
        <time>0001-01-01T00:00:00</time>
      </trkpt>
      <trkpt lat="43.87763" lon="7.23046">
        <ele>222</ele>
        <time>0001-01-01T00:00:00</time>
      </trkpt>
      <trkpt lat="43.87759" lon="7.23044">
        <ele>222</ele>
        <time>0001-01-01T00:00:00</time>
      </trkpt>
      <trkpt lat="43.87751" lon="7.23042">
        <ele>223</ele>
        <time>0001-01-01T00:00:00</time>
      </trkpt>
      <trkpt lat="43.87745" lon="7.2304">
        <ele>249</ele>
        <time>0001-01-01T00:00:00</time>
      </trkpt>
      <trkpt lat="43.87741" lon="7.23039">
        <ele>249</ele>
        <time>0001-01-01T00:00:00</time>
      </trkpt>
      <trkpt lat="43.87737" lon="7.23037">
        <ele>249</ele>
        <time>0001-01-01T00:00:00</time>
      </trkpt>
      <trkpt lat="43.87737" lon="7.23031">
        <ele>247</ele>
        <time>0001-01-01T00:00:00</time>
      </trkpt>
      <trkpt lat="43.87728" lon="7.23021">
        <ele>247</ele>
        <time>0001-01-01T00:00:00</time>
      </trkpt>
      <trkpt lat="43.87716" lon="7.23015">
        <ele>250</ele>
        <time>0001-01-01T00:00:00</time>
      </trkpt>
      <trkpt lat="43.87714" lon="7.23015">
        <ele>251</ele>
        <time>0001-01-01T00:00:00</time>
      </trkpt>
      <trkpt lat="43.87708" lon="7.23012">
        <ele>253</ele>
        <time>0001-01-01T00:00:00</time>
      </trkpt>
      <trkpt lat="43.87706" lon="7.2301">
        <ele>253</ele>
        <time>0001-01-01T00:00:00</time>
      </trkpt>
      <trkpt lat="43.87698" lon="7.23004">
        <ele>256</ele>
        <time>0001-01-01T00:00:00</time>
      </trkpt>
      <trkpt lat="43.87693" lon="7.23003">
        <ele>257</ele>
        <time>0001-01-01T00:00:00</time>
      </trkpt>
      <trkpt lat="43.87684" lon="7.23001">
        <ele>260</ele>
        <time>0001-01-01T00:00:00</time>
      </trkpt>
      <trkpt lat="43.87677" lon="7.22992">
        <ele>251</ele>
        <time>0001-01-01T00:00:00</time>
      </trkpt>
      <trkpt lat="43.87666" lon="7.22984">
        <ele>270</ele>
        <time>0001-01-01T00:00:00</time>
      </trkpt>
      <trkpt lat="43.87661" lon="7.2298">
        <ele>271</ele>
        <time>0001-01-01T00:00:00</time>
      </trkpt>
      <trkpt lat="43.87656" lon="7.22976">
        <ele>272</ele>
        <time>0001-01-01T00:00:00</time>
      </trkpt>
      <trkpt lat="43.8765" lon="7.22969">
        <ele>273</ele>
        <time>0001-01-01T00:00:00</time>
      </trkpt>
      <trkpt lat="43.87647" lon="7.22961">
        <ele>272</ele>
        <time>0001-01-01T00:00:00</time>
      </trkpt>
      <trkpt lat="43.87648" lon="7.22958">
        <ele>272</ele>
        <time>0001-01-01T00:00:00</time>
      </trkpt>
      <trkpt lat="43.87646" lon="7.22945">
        <ele>269</ele>
        <time>0001-01-01T00:00:00</time>
      </trkpt>
      <trkpt lat="43.87644" lon="7.22937">
        <ele>267</ele>
        <time>0001-01-01T00:00:00</time>
      </trkpt>
      <trkpt lat="43.87635" lon="7.22919">
        <ele>268</ele>
        <time>0001-01-01T00:00:00</time>
      </trkpt>
      <trkpt lat="43.87625" lon="7.22901">
        <ele>255</ele>
        <time>0001-01-01T00:00:00</time>
      </trkpt>
      <trkpt lat="43.87615" lon="7.22887">
        <ele>257</ele>
        <time>0001-01-01T00:00:00</time>
      </trkpt>
      <trkpt lat="43.87611" lon="7.22878">
        <ele>256</ele>
        <time>0001-01-01T00:00:00</time>
      </trkpt>
      <trkpt lat="43.87605" lon="7.22871">
        <ele>257</ele>
        <time>0001-01-01T00:00:00</time>
      </trkpt>
      <trkpt lat="43.87595" lon="7.2286">
        <ele>259</ele>
        <time>0001-01-01T00:00:00</time>
      </trkpt>
      <trkpt lat="43.87578" lon="7.22859">
        <ele>285</ele>
        <time>0001-01-01T00:00:00</time>
      </trkpt>
      <trkpt lat="43.87566" lon="7.22856">
        <ele>287</ele>
        <time>0001-01-01T00:00:00</time>
      </trkpt>
      <trkpt lat="43.87553" lon="7.22849">
        <ele>289</ele>
        <time>0001-01-01T00:00:00</time>
      </trkpt>
      <trkpt lat="43.8755" lon="7.22837">
        <ele>289</ele>
        <time>0001-01-01T00:00:00</time>
      </trkpt>
      <trkpt lat="43.87551" lon="7.22831">
        <ele>285</ele>
        <time>0001-01-01T00:00:00</time>
      </trkpt>
      <trkpt lat="43.87563" lon="7.22815">
        <ele>282</ele>
        <time>0001-01-01T00:00:00</time>
      </trkpt>
      <trkpt lat="43.87564" lon="7.22811">
        <ele>282</ele>
        <time>0001-01-01T00:00:00</time>
      </trkpt>
      <trkpt lat="43.87568" lon="7.22795">
        <ele>283</ele>
        <time>0001-01-01T00:00:00</time>
      </trkpt>
      <trkpt lat="43.87572" lon="7.22786">
        <ele>282</ele>
        <time>0001-01-01T00:00:00</time>
      </trkpt>
      <trkpt lat="43.87573" lon="7.2278">
        <ele>281</ele>
        <time>0001-01-01T00:00:00</time>
      </trkpt>
      <trkpt lat="43.87573" lon="7.22767">
        <ele>278</ele>
        <time>0001-01-01T00:00:00</time>
      </trkpt>
      <trkpt lat="43.87573" lon="7.2276">
        <ele>275</ele>
        <time>0001-01-01T00:00:00</time>
      </trkpt>
      <trkpt lat="43.87569" lon="7.22751">
        <ele>276</ele>
        <time>0001-01-01T00:00:00</time>
      </trkpt>
      <trkpt lat="43.87567" lon="7.22745">
        <ele>275</ele>
        <time>0001-01-01T00:00:00</time>
      </trkpt>
      <trkpt lat="43.87558" lon="7.22729">
        <ele>279</ele>
        <time>0001-01-01T00:00:00</time>
      </trkpt>
      <trkpt lat="43.87557" lon="7.22724">
        <ele>280</ele>
        <time>0001-01-01T00:00:00</time>
      </trkpt>
      <trkpt lat="43.87548" lon="7.22712">
        <ele>282</ele>
        <time>0001-01-01T00:00:00</time>
      </trkpt>
      <trkpt lat="43.87543" lon="7.22704">
        <ele>284</ele>
        <time>0001-01-01T00:00:00</time>
      </trkpt>
      <trkpt lat="43.8754" lon="7.22707">
        <ele>285</ele>
        <time>0001-01-01T00:00:00</time>
      </trkpt>
      <trkpt lat="43.87542" lon="7.22712">
        <ele>285</ele>
        <time>0001-01-01T00:00:00</time>
      </trkpt>
      <trkpt lat="43.87543" lon="7.22717">
        <ele>284</ele>
        <time>0001-01-01T00:00:00</time>
      </trkpt>
      <trkpt lat="43.87543" lon="7.2272">
        <ele>285</ele>
        <time>0001-01-01T00:00:00</time>
      </trkpt>
      <trkpt lat="43.8754" lon="7.22725">
        <ele>287</ele>
        <time>0001-01-01T00:00:00</time>
      </trkpt>
      <trkpt lat="43.87539" lon="7.22733">
        <ele>288</ele>
        <time>0001-01-01T00:00:00</time>
      </trkpt>
      <trkpt lat="43.87537" lon="7.22741">
        <ele>289</ele>
        <time>0001-01-01T00:00:00</time>
      </trkpt>
      <trkpt lat="43.87535" lon="7.22748">
        <ele>291</ele>
        <time>0001-01-01T00:00:00</time>
      </trkpt>
      <trkpt lat="43.87534" lon="7.22755">
        <ele>294</ele>
        <time>0001-01-01T00:00:00</time>
      </trkpt>
      <trkpt lat="43.87532" lon="7.22762">
        <ele>294</ele>
        <time>0001-01-01T00:00:00</time>
      </trkpt>
      <trkpt lat="43.8753" lon="7.22763">
        <ele>295</ele>
        <time>0001-01-01T00:00:00</time>
      </trkpt>
      <trkpt lat="43.8753" lon="7.22757">
        <ele>296</ele>
        <time>0001-01-01T00:00:00</time>
      </trkpt>
      <trkpt lat="43.87529" lon="7.22748">
        <ele>294</ele>
        <time>0001-01-01T00:00:00</time>
      </trkpt>
      <trkpt lat="43.87528" lon="7.22743">
        <ele>294</ele>
        <time>0001-01-01T00:00:00</time>
      </trkpt>
      <trkpt lat="43.87527" lon="7.2274">
        <ele>294</ele>
        <time>0001-01-01T00:00:00</time>
      </trkpt>
      <trkpt lat="43.87527" lon="7.2273">
        <ele>293</ele>
        <time>0001-01-01T00:00:00</time>
      </trkpt>
      <trkpt lat="43.87523" lon="7.22723">
        <ele>293</ele>
        <time>0001-01-01T00:00:00</time>
      </trkpt>
      <trkpt lat="43.87522" lon="7.22729">
        <ele>295</ele>
        <time>0001-01-01T00:00:00</time>
      </trkpt>
      <trkpt lat="43.87519" lon="7.22738">
        <ele>298</ele>
        <time>0001-01-01T00:00:00</time>
      </trkpt>
      <trkpt lat="43.87518" lon="7.22744">
        <ele>301</ele>
        <time>0001-01-01T00:00:00</time>
      </trkpt>
      <trkpt lat="43.87514" lon="7.22748">
        <ele>304</ele>
        <time>0001-01-01T00:00:00</time>
      </trkpt>
      <trkpt lat="43.87513" lon="7.22739">
        <ele>303</ele>
        <time>0001-01-01T00:00:00</time>
      </trkpt>
      <trkpt lat="43.87511" lon="7.2273">
        <ele>300</ele>
        <time>0001-01-01T00:00:00</time>
      </trkpt>
      <trkpt lat="43.87509" lon="7.22722">
        <ele>298</ele>
        <time>0001-01-01T00:00:00</time>
      </trkpt>
      <trkpt lat="43.87507" lon="7.22712">
        <ele>296</ele>
        <time>0001-01-01T00:00:00</time>
      </trkpt>
      <trkpt lat="43.87504" lon="7.22711">
        <ele>297</ele>
        <time>0001-01-01T00:00:00</time>
      </trkpt>
      <trkpt lat="43.87503" lon="7.22719">
        <ele>298</ele>
        <time>0001-01-01T00:00:00</time>
      </trkpt>
      <trkpt lat="43.875" lon="7.22729">
        <ele>332</ele>
        <time>0001-01-01T00:00:00</time>
      </trkpt>
      <trkpt lat="43.87497" lon="7.22737">
        <ele>329</ele>
        <time>0001-01-01T00:00:00</time>
      </trkpt>
      <trkpt lat="43.87492" lon="7.22744">
        <ele>328</ele>
        <time>0001-01-01T00:00:00</time>
      </trkpt>
      <trkpt lat="43.87489" lon="7.22741">
        <ele>330</ele>
        <time>0001-01-01T00:00:00</time>
      </trkpt>
      <trkpt lat="43.87489" lon="7.22737">
        <ele>332</ele>
        <time>0001-01-01T00:00:00</time>
      </trkpt>
      <trkpt lat="43.87489" lon="7.22736">
        <ele>332</ele>
        <time>0001-01-01T00:00:00</time>
      </trkpt>
      <trkpt lat="43.87493" lon="7.22737">
        <ele>330</ele>
        <time>0001-01-01T00:00:00</time>
      </trkpt>
      <trkpt lat="43.87494" lon="7.22732">
        <ele>332</ele>
        <time>0001-01-01T00:00:00</time>
      </trkpt>
      <trkpt lat="43.87492" lon="7.22724">
        <ele>334</ele>
        <time>0001-01-01T00:00:00</time>
      </trkpt>
      <trkpt lat="43.8749" lon="7.22717">
        <ele>336</ele>
        <time>0001-01-01T00:00:00</time>
      </trkpt>
      <trkpt lat="43.87488" lon="7.22707">
        <ele>336</ele>
        <time>0001-01-01T00:00:00</time>
      </trkpt>
      <trkpt lat="43.87488" lon="7.22704">
        <ele>336</ele>
        <time>0001-01-01T00:00:00</time>
      </trkpt>
      <trkpt lat="43.87489" lon="7.22693">
        <ele>334</ele>
        <time>0001-01-01T00:00:00</time>
      </trkpt>
      <trkpt lat="43.87489" lon="7.22691">
        <ele>334</ele>
        <time>0001-01-01T00:00:00</time>
      </trkpt>
      <trkpt lat="43.87486" lon="7.22692">
        <ele>335</ele>
        <time>0001-01-01T00:00:00</time>
      </trkpt>
      <trkpt lat="43.8748" lon="7.22696">
        <ele>337</ele>
        <time>0001-01-01T00:00:00</time>
      </trkpt>
      <trkpt lat="43.87475" lon="7.227">
        <ele>339</ele>
        <time>0001-01-01T00:00:00</time>
      </trkpt>
      <trkpt lat="43.87473" lon="7.22706">
        <ele>340</ele>
        <time>0001-01-01T00:00:00</time>
      </trkpt>
      <trkpt lat="43.87471" lon="7.22713">
        <ele>341</ele>
        <time>0001-01-01T00:00:00</time>
      </trkpt>
      <trkpt lat="43.87469" lon="7.22719">
        <ele>341</ele>
        <time>0001-01-01T00:00:00</time>
      </trkpt>
      <trkpt lat="43.87468" lon="7.22723">
        <ele>342</ele>
        <time>0001-01-01T00:00:00</time>
      </trkpt>
      <trkpt lat="43.87465" lon="7.22725">
        <ele>343</ele>
        <time>0001-01-01T00:00:00</time>
      </trkpt>
      <trkpt lat="43.87464" lon="7.22723">
        <ele>343</ele>
        <time>0001-01-01T00:00:00</time>
      </trkpt>
      <trkpt lat="43.87466" lon="7.22716">
        <ele>342</ele>
        <time>0001-01-01T00:00:00</time>
      </trkpt>
      <trkpt lat="43.87466" lon="7.22709">
        <ele>342</ele>
        <time>0001-01-01T00:00:00</time>
      </trkpt>
      <trkpt lat="43.87464" lon="7.22708">
        <ele>343</ele>
        <time>0001-01-01T00:00:00</time>
      </trkpt>
      <trkpt lat="43.87462" lon="7.22715">
        <ele>344</ele>
        <time>0001-01-01T00:00:00</time>
      </trkpt>
      <trkpt lat="43.87458" lon="7.2272">
        <ele>345</ele>
        <time>0001-01-01T00:00:00</time>
      </trkpt>
      <trkpt lat="43.87457" lon="7.22722">
        <ele>345</ele>
        <time>0001-01-01T00:00:00</time>
      </trkpt>
      <trkpt lat="43.87458" lon="7.22718">
        <ele>345</ele>
        <time>0001-01-01T00:00:00</time>
      </trkpt>
      <trkpt lat="43.87459" lon="7.22711">
        <ele>344</ele>
        <time>0001-01-01T00:00:00</time>
      </trkpt>
      <trkpt lat="43.87457" lon="7.22704">
        <ele>345</ele>
        <time>0001-01-01T00:00:00</time>
      </trkpt>
      <trkpt lat="43.87456" lon="7.22695">
        <ele>345</ele>
        <time>0001-01-01T00:00:00</time>
      </trkpt>
      <trkpt lat="43.87457" lon="7.22688">
        <ele>344</ele>
        <time>0001-01-01T00:00:00</time>
      </trkpt>
      <trkpt lat="43.87458" lon="7.22673">
        <ele>343</ele>
        <time>0001-01-01T00:00:00</time>
      </trkpt>
      <trkpt lat="43.87457" lon="7.22668">
        <ele>344</ele>
        <time>0001-01-01T00:00:00</time>
      </trkpt>
      <trkpt lat="43.87457" lon="7.22661">
        <ele>334</ele>
        <time>0001-01-01T00:00:00</time>
      </trkpt>
      <trkpt lat="43.87457" lon="7.22655">
        <ele>334</ele>
        <time>0001-01-01T00:00:00</time>
      </trkpt>
      <trkpt lat="43.87457" lon="7.22648">
        <ele>333</ele>
        <time>0001-01-01T00:00:00</time>
      </trkpt>
      <trkpt lat="43.87457" lon="7.22643">
        <ele>333</ele>
        <time>0001-01-01T00:00:00</time>
      </trkpt>
      <trkpt lat="43.87453" lon="7.22636">
        <ele>333</ele>
        <time>0001-01-01T00:00:00</time>
      </trkpt>
      <trkpt lat="43.8745" lon="7.22632">
        <ele>333</ele>
        <time>0001-01-01T00:00:00</time>
      </trkpt>
      <trkpt lat="43.87446" lon="7.22632">
        <ele>334</ele>
        <time>0001-01-01T00:00:00</time>
      </trkpt>
      <trkpt lat="43.87445" lon="7.22639">
        <ele>336</ele>
        <time>0001-01-01T00:00:00</time>
      </trkpt>
      <trkpt lat="43.87444" lon="7.22647">
        <ele>338</ele>
        <time>0001-01-01T00:00:00</time>
      </trkpt>
      <trkpt lat="43.87442" lon="7.22643">
        <ele>337</ele>
        <time>0001-01-01T00:00:00</time>
      </trkpt>
      <trkpt lat="43.87438" lon="7.22641">
        <ele>338</ele>
        <time>0001-01-01T00:00:00</time>
      </trkpt>
      <trkpt lat="43.87433" lon="7.22639">
        <ele>339</ele>
        <time>0001-01-01T00:00:00</time>
      </trkpt>
      <trkpt lat="43.87427" lon="7.22634">
        <ele>339</ele>
        <time>0001-01-01T00:00:00</time>
      </trkpt>
      <trkpt lat="43.87424" lon="7.22631">
        <ele>339</ele>
        <time>0001-01-01T00:00:00</time>
      </trkpt>
      <trkpt lat="43.87417" lon="7.22632">
        <ele>340</ele>
        <time>0001-01-01T00:00:00</time>
      </trkpt>
      <trkpt lat="43.87412" lon="7.22631">
        <ele>358</ele>
        <time>0001-01-01T00:00:00</time>
      </trkpt>
      <trkpt lat="43.87406" lon="7.22637">
        <ele>360</ele>
        <time>0001-01-01T00:00:00</time>
      </trkpt>
      <trkpt lat="43.87404" lon="7.2264">
        <ele>360</ele>
        <time>0001-01-01T00:00:00</time>
      </trkpt>
      <trkpt lat="43.87397" lon="7.22645">
        <ele>361</ele>
        <time>0001-01-01T00:00:00</time>
      </trkpt>
      <trkpt lat="43.87388" lon="7.22653">
        <ele>363</ele>
        <time>0001-01-01T00:00:00</time>
      </trkpt>
      <trkpt lat="43.87382" lon="7.22662">
        <ele>364</ele>
        <time>0001-01-01T00:00:00</time>
      </trkpt>
      <trkpt lat="43.87376" lon="7.22669">
        <ele>382</ele>
        <time>0001-01-01T00:00:00</time>
      </trkpt>
      <trkpt lat="43.87368" lon="7.22674">
        <ele>383</ele>
        <time>0001-01-01T00:00:00</time>
      </trkpt>
      <trkpt lat="43.87359" lon="7.22679">
        <ele>385</ele>
        <time>0001-01-01T00:00:00</time>
      </trkpt>
      <trkpt lat="43.87357" lon="7.22679">
        <ele>385</ele>
        <time>0001-01-01T00:00:00</time>
      </trkpt>
      <trkpt lat="43.8735" lon="7.22683">
        <ele>386</ele>
        <time>0001-01-01T00:00:00</time>
      </trkpt>
      <trkpt lat="43.87344" lon="7.22686">
        <ele>387</ele>
        <time>0001-01-01T00:00:00</time>
      </trkpt>
      <trkpt lat="43.87342" lon="7.22687">
        <ele>387</ele>
        <time>0001-01-01T00:00:00</time>
      </trkpt>
      <trkpt lat="43.87334" lon="7.22688">
        <ele>387</ele>
        <time>0001-01-01T00:00:00</time>
      </trkpt>
      <trkpt lat="43.87325" lon="7.22686">
        <ele>407</ele>
        <time>0001-01-01T00:00:00</time>
      </trkpt>
      <trkpt lat="43.87316" lon="7.22681">
        <ele>409</ele>
        <time>0001-01-01T00:00:00</time>
      </trkpt>
      <trkpt lat="43.8731" lon="7.22675">
        <ele>410</ele>
        <time>0001-01-01T00:00:00</time>
      </trkpt>
      <trkpt lat="43.87304" lon="7.22662">
        <ele>395</ele>
        <time>0001-01-01T00:00:00</time>
      </trkpt>
      <trkpt lat="43.87302" lon="7.22659">
        <ele>396</ele>
        <time>0001-01-01T00:00:00</time>
      </trkpt>
      <trkpt lat="43.87295" lon="7.2265">
        <ele>398</ele>
        <time>0001-01-01T00:00:00</time>
      </trkpt>
      <trkpt lat="43.87288" lon="7.22638">
        <ele>399</ele>
        <time>0001-01-01T00:00:00</time>
      </trkpt>
      <trkpt lat="43.8728" lon="7.22626">
        <ele>399</ele>
        <time>0001-01-01T00:00:00</time>
      </trkpt>
      <trkpt lat="43.87277" lon="7.22621">
        <ele>399</ele>
        <time>0001-01-01T00:00:00</time>
      </trkpt>
      <trkpt lat="43.87274" lon="7.22614">
        <ele>399</ele>
        <time>0001-01-01T00:00:00</time>
      </trkpt>
      <trkpt lat="43.87272" lon="7.2261">
        <ele>399</ele>
        <time>0001-01-01T00:00:00</time>
      </trkpt>
      <trkpt lat="43.87268" lon="7.22603">
        <ele>399</ele>
        <time>0001-01-01T00:00:00</time>
      </trkpt>
      <trkpt lat="43.87264" lon="7.22592">
        <ele>401</ele>
        <time>0001-01-01T00:00:00</time>
      </trkpt>
      <trkpt lat="43.87259" lon="7.22581">
        <ele>394</ele>
        <time>0001-01-01T00:00:00</time>
      </trkpt>
      <trkpt lat="43.87257" lon="7.22575">
        <ele>392</ele>
        <time>0001-01-01T00:00:00</time>
      </trkpt>
      <trkpt lat="43.87253" lon="7.22571">
        <ele>390</ele>
        <time>0001-01-01T00:00:00</time>
      </trkpt>
      <trkpt lat="43.87249" lon="7.22564">
        <ele>404</ele>
        <time>0001-01-01T00:00:00</time>
      </trkpt>
      <trkpt lat="43.87246" lon="7.22559">
        <ele>403</ele>
        <time>0001-01-01T00:00:00</time>
      </trkpt>
      <trkpt lat="43.87241" lon="7.22555">
        <ele>403</ele>
        <time>0001-01-01T00:00:00</time>
      </trkpt>
      <trkpt lat="43.87231" lon="7.22545">
        <ele>402</ele>
        <time>0001-01-01T00:00:00</time>
      </trkpt>
      <trkpt lat="43.87225" lon="7.22538">
        <ele>401</ele>
        <time>0001-01-01T00:00:00</time>
      </trkpt>
      <trkpt lat="43.87218" lon="7.22535">
        <ele>401</ele>
        <time>0001-01-01T00:00:00</time>
      </trkpt>
      <trkpt lat="43.87216" lon="7.22528">
        <ele>400</ele>
        <time>0001-01-01T00:00:00</time>
      </trkpt>
      <trkpt lat="43.87214" lon="7.22523">
        <ele>399</ele>
        <time>0001-01-01T00:00:00</time>
      </trkpt>
      <trkpt lat="43.87209" lon="7.22516">
        <ele>399</ele>
        <time>0001-01-01T00:00:00</time>
      </trkpt>
      <trkpt lat="43.87206" lon="7.22511">
        <ele>399</ele>
        <time>0001-01-01T00:00:00</time>
      </trkpt>
      <trkpt lat="43.87202" lon="7.22506">
        <ele>399</ele>
        <time>0001-01-01T00:00:00</time>
      </trkpt>
      <trkpt lat="43.872" lon="7.22503">
        <ele>399</ele>
        <time>0001-01-01T00:00:00</time>
      </trkpt>
      <trkpt lat="43.87193" lon="7.22503">
        <ele>400</ele>
        <time>0001-01-01T00:00:00</time>
      </trkpt>
      <trkpt lat="43.87189" lon="7.22514">
        <ele>401</ele>
        <time>0001-01-01T00:00:00</time>
      </trkpt>
      <trkpt lat="43.87183" lon="7.22526">
        <ele>404</ele>
        <time>0001-01-01T00:00:00</time>
      </trkpt>
      <trkpt lat="43.87175" lon="7.22533">
        <ele>405</ele>
        <time>0001-01-01T00:00:00</time>
      </trkpt>
      <trkpt lat="43.8717" lon="7.22538">
        <ele>407</ele>
        <time>0001-01-01T00:00:00</time>
      </trkpt>
      <trkpt lat="43.87161" lon="7.22546">
        <ele>416</ele>
        <time>0001-01-01T00:00:00</time>
      </trkpt>
      <trkpt lat="43.87153" lon="7.22554">
        <ele>417</ele>
        <time>0001-01-01T00:00:00</time>
      </trkpt>
      <trkpt lat="43.87145" lon="7.22559">
        <ele>418</ele>
        <time>0001-01-01T00:00:00</time>
      </trkpt>
      <trkpt lat="43.87134" lon="7.22573">
        <ele>419</ele>
        <time>0001-01-01T00:00:00</time>
      </trkpt>
      <trkpt lat="43.87124" lon="7.22583">
        <ele>419</ele>
        <time>0001-01-01T00:00:00</time>
      </trkpt>
      <trkpt lat="43.87113" lon="7.22596">
        <ele>436</ele>
        <time>0001-01-01T00:00:00</time>
      </trkpt>
      <trkpt lat="43.87101" lon="7.22612">
        <ele>437</ele>
        <time>0001-01-01T00:00:00</time>
      </trkpt>
      <trkpt lat="43.87086" lon="7.22632">
        <ele>441</ele>
        <time>0001-01-01T00:00:00</time>
      </trkpt>
      <trkpt lat="43.87081" lon="7.22646">
        <ele>446</ele>
        <time>0001-01-01T00:00:00</time>
      </trkpt>
      <trkpt lat="43.8708" lon="7.22651">
        <ele>446</ele>
        <time>0001-01-01T00:00:00</time>
      </trkpt>
      <trkpt lat="43.87074" lon="7.22651">
        <ele>447</ele>
        <time>0001-01-01T00:00:00</time>
      </trkpt>
      <trkpt lat="43.87074" lon="7.22648">
        <ele>446</ele>
        <time>0001-01-01T00:00:00</time>
      </trkpt>
      <trkpt lat="43.87074" lon="7.22639">
        <ele>445</ele>
        <time>0001-01-01T00:00:00</time>
      </trkpt>
      <trkpt lat="43.87073" lon="7.22638">
        <ele>445</ele>
        <time>0001-01-01T00:00:00</time>
      </trkpt>
      <trkpt lat="43.87067" lon="7.22627">
        <ele>444</ele>
        <time>0001-01-01T00:00:00</time>
      </trkpt>
      <trkpt lat="43.87063" lon="7.22616">
        <ele>442</ele>
        <time>0001-01-01T00:00:00</time>
      </trkpt>
      <trkpt lat="43.87065" lon="7.22615">
        <ele>442</ele>
        <time>0001-01-01T00:00:00</time>
      </trkpt>
      <trkpt lat="43.87067" lon="7.22612">
        <ele>441</ele>
        <time>0001-01-01T00:00:00</time>
      </trkpt>
      <trkpt lat="43.87066" lon="7.22608">
        <ele>440</ele>
        <time>0001-01-01T00:00:00</time>
      </trkpt>
      <trkpt lat="43.87058" lon="7.22601">
        <ele>440</ele>
        <time>0001-01-01T00:00:00</time>
      </trkpt>
      <trkpt lat="43.87046" lon="7.22592">
        <ele>441</ele>
        <time>0001-01-01T00:00:00</time>
      </trkpt>
      <trkpt lat="43.87035" lon="7.22582">
        <ele>424</ele>
        <time>0001-01-01T00:00:00</time>
      </trkpt>
      <trkpt lat="43.87024" lon="7.22575">
        <ele>426</ele>
        <time>0001-01-01T00:00:00</time>
      </trkpt>
      <trkpt lat="43.8702" lon="7.22575">
        <ele>427</ele>
        <time>0001-01-01T00:00:00</time>
      </trkpt>
      <trkpt lat="43.87008" lon="7.22579">
        <ele>434</ele>
        <time>0001-01-01T00:00:00</time>
      </trkpt>
      <trkpt lat="43.86998" lon="7.22583">
        <ele>442</ele>
        <time>0001-01-01T00:00:00</time>
      </trkpt>
      <trkpt lat="43.86993" lon="7.22583">
        <ele>444</ele>
        <time>0001-01-01T00:00:00</time>
      </trkpt>
      <trkpt lat="43.86995" lon="7.22587">
        <ele>444</ele>
        <time>0001-01-01T00:00:00</time>
      </trkpt>
      <trkpt lat="43.87001" lon="7.2259">
        <ele>443</ele>
        <time>0001-01-01T00:00:00</time>
      </trkpt>
      <trkpt lat="43.87003" lon="7.22592">
        <ele>443</ele>
        <time>0001-01-01T00:00:00</time>
      </trkpt>
      <trkpt lat="43.87005" lon="7.22598">
        <ele>444</ele>
        <time>0001-01-01T00:00:00</time>
      </trkpt>
      <trkpt lat="43.87006" lon="7.22604">
        <ele>445</ele>
        <time>0001-01-01T00:00:00</time>
      </trkpt>
      <trkpt lat="43.87012" lon="7.22613">
        <ele>447</ele>
        <time>0001-01-01T00:00:00</time>
      </trkpt>
      <trkpt lat="43.87017" lon="7.22622">
        <ele>449</ele>
        <time>0001-01-01T00:00:00</time>
      </trkpt>
      <trkpt lat="43.87016" lon="7.22626">
        <ele>450</ele>
        <time>0001-01-01T00:00:00</time>
      </trkpt>
      <trkpt lat="43.87014" lon="7.22623">
        <ele>449</ele>
        <time>0001-01-01T00:00:00</time>
      </trkpt>
      <trkpt lat="43.87011" lon="7.22618">
        <ele>448</ele>
        <time>0001-01-01T00:00:00</time>
      </trkpt>
      <trkpt lat="43.87006" lon="7.22615">
        <ele>448</ele>
        <time>0001-01-01T00:00:00</time>
      </trkpt>
      <trkpt lat="43.87" lon="7.22611">
        <ele>452</ele>
        <time>0001-01-01T00:00:00</time>
      </trkpt>
      <trkpt lat="43.86997" lon="7.22609">
        <ele>451</ele>
        <time>0001-01-01T00:00:00</time>
      </trkpt>
      <trkpt lat="43.86995" lon="7.22609">
        <ele>451</ele>
        <time>0001-01-01T00:00:00</time>
      </trkpt>
      <trkpt lat="43.86987" lon="7.22611">
        <ele>452</ele>
        <time>0001-01-01T00:00:00</time>
      </trkpt>
      <trkpt lat="43.86981" lon="7.22613">
        <ele>453</ele>
        <time>0001-01-01T00:00:00</time>
      </trkpt>
      <trkpt lat="43.86975" lon="7.22615">
        <ele>453</ele>
        <time>0001-01-01T00:00:00</time>
      </trkpt>
      <trkpt lat="43.86974" lon="7.22615">
        <ele>453</ele>
        <time>0001-01-01T00:00:00</time>
      </trkpt>
      <trkpt lat="43.86968" lon="7.22618">
        <ele>454</ele>
        <time>0001-01-01T00:00:00</time>
      </trkpt>
      <trkpt lat="43.86961" lon="7.22619">
        <ele>454</ele>
        <time>0001-01-01T00:00:00</time>
      </trkpt>
      <trkpt lat="43.86955" lon="7.22622">
        <ele>455</ele>
        <time>0001-01-01T00:00:00</time>
      </trkpt>
      <trkpt lat="43.8695" lon="7.22625">
        <ele>455</ele>
        <time>0001-01-01T00:00:00</time>
      </trkpt>
      <trkpt lat="43.86948" lon="7.22625">
        <ele>455</ele>
        <time>0001-01-01T00:00:00</time>
      </trkpt>
      <trkpt lat="43.86939" lon="7.22627">
        <ele>455</ele>
        <time>0001-01-01T00:00:00</time>
      </trkpt>
      <trkpt lat="43.86935" lon="7.22631">
        <ele>456</ele>
        <time>0001-01-01T00:00:00</time>
      </trkpt>
      <trkpt lat="43.86932" lon="7.22632">
        <ele>457</ele>
        <time>0001-01-01T00:00:00</time>
      </trkpt>
      <trkpt lat="43.86929" lon="7.22635">
        <ele>458</ele>
        <time>0001-01-01T00:00:00</time>
      </trkpt>
      <trkpt lat="43.86923" lon="7.22641">
        <ele>460</ele>
        <time>0001-01-01T00:00:00</time>
      </trkpt>
      <trkpt lat="43.86921" lon="7.22643">
        <ele>460</ele>
        <time>0001-01-01T00:00:00</time>
      </trkpt>
      <trkpt lat="43.86911" lon="7.22653">
        <ele>464</ele>
        <time>0001-01-01T00:00:00</time>
      </trkpt>
      <trkpt lat="43.86905" lon="7.22659">
        <ele>465</ele>
        <time>0001-01-01T00:00:00</time>
      </trkpt>
      <trkpt lat="43.86904" lon="7.22662">
        <ele>465</ele>
        <time>0001-01-01T00:00:00</time>
      </trkpt>
      <trkpt lat="43.86903" lon="7.22664">
        <ele>465</ele>
        <time>0001-01-01T00:00:00</time>
      </trkpt>
      <trkpt lat="43.86899" lon="7.2267">
        <ele>475</ele>
        <time>0001-01-01T00:00:00</time>
      </trkpt>
      <trkpt lat="43.86896" lon="7.22672">
        <ele>475</ele>
        <time>0001-01-01T00:00:00</time>
      </trkpt>
      <trkpt lat="43.86893" lon="7.22675">
        <ele>475</ele>
        <time>0001-01-01T00:00:00</time>
      </trkpt>
      <trkpt lat="43.8689" lon="7.2268">
        <ele>476</ele>
        <time>0001-01-01T00:00:00</time>
      </trkpt>
      <trkpt lat="43.86885" lon="7.22684">
        <ele>476</ele>
        <time>0001-01-01T00:00:00</time>
      </trkpt>
      <trkpt lat="43.86881" lon="7.22688">
        <ele>476</ele>
        <time>0001-01-01T00:00:00</time>
      </trkpt>
      <trkpt lat="43.86874" lon="7.22692">
        <ele>476</ele>
        <time>0001-01-01T00:00:00</time>
      </trkpt>
      <trkpt lat="43.86869" lon="7.22696">
        <ele>477</ele>
        <time>0001-01-01T00:00:00</time>
      </trkpt>
      <trkpt lat="43.86866" lon="7.22697">
        <ele>477</ele>
        <time>0001-01-01T00:00:00</time>
      </trkpt>
      <trkpt lat="43.8686" lon="7.22705">
        <ele>477</ele>
        <time>0001-01-01T00:00:00</time>
      </trkpt>
      <trkpt lat="43.86859" lon="7.22706">
        <ele>477</ele>
        <time>0001-01-01T00:00:00</time>
      </trkpt>
      <trkpt lat="43.86854" lon="7.22719">
        <ele>478</ele>
        <time>0001-01-01T00:00:00</time>
      </trkpt>
      <trkpt lat="43.86855" lon="7.22722">
        <ele>479</ele>
        <time>0001-01-01T00:00:00</time>
      </trkpt>
      <trkpt lat="43.86855" lon="7.22736">
        <ele>480</ele>
        <time>0001-01-01T00:00:00</time>
      </trkpt>
      <trkpt lat="43.86854" lon="7.2274">
        <ele>480</ele>
        <time>0001-01-01T00:00:00</time>
      </trkpt>
      <trkpt lat="43.86847" lon="7.22751">
        <ele>490</ele>
        <time>0001-01-01T00:00:00</time>
      </trkpt>
      <trkpt lat="43.86833" lon="7.22758">
        <ele>485</ele>
        <time>0001-01-01T00:00:00</time>
      </trkpt>
      <trkpt lat="43.86829" lon="7.22769">
        <ele>490</ele>
        <time>0001-01-01T00:00:00</time>
      </trkpt>
      <trkpt lat="43.86823" lon="7.2278">
        <ele>493</ele>
        <time>0001-01-01T00:00:00</time>
      </trkpt>
      <trkpt lat="43.86817" lon="7.22787">
        <ele>495</ele>
        <time>0001-01-01T00:00:00</time>
      </trkpt>
      <trkpt lat="43.86816" lon="7.22791">
        <ele>496</ele>
        <time>0001-01-01T00:00:00</time>
      </trkpt>
      <trkpt lat="43.86816" lon="7.22796">
        <ele>497</ele>
        <time>0001-01-01T00:00:00</time>
      </trkpt>
      <trkpt lat="43.86815" lon="7.22797">
        <ele>497</ele>
        <time>0001-01-01T00:00:00</time>
      </trkpt>
      <trkpt lat="43.86809" lon="7.22806">
        <ele>499</ele>
        <time>0001-01-01T00:00:00</time>
      </trkpt>
      <trkpt lat="43.86801" lon="7.22814">
        <ele>500</ele>
        <time>0001-01-01T00:00:00</time>
      </trkpt>
      <trkpt lat="43.868" lon="7.22814">
        <ele>500</ele>
        <time>0001-01-01T00:00:00</time>
      </trkpt>
      <trkpt lat="43.86792" lon="7.22821">
        <ele>501</ele>
        <time>0001-01-01T00:00:00</time>
      </trkpt>
      <trkpt lat="43.86785" lon="7.22822">
        <ele>501</ele>
        <time>0001-01-01T00:00:00</time>
      </trkpt>
      <trkpt lat="43.86777" lon="7.22821">
        <ele>501</ele>
        <time>0001-01-01T00:00:00</time>
      </trkpt>
      <trkpt lat="43.86774" lon="7.22819">
        <ele>501</ele>
        <time>0001-01-01T00:00:00</time>
      </trkpt>
      <trkpt lat="43.86764" lon="7.22823">
        <ele>503</ele>
        <time>0001-01-01T00:00:00</time>
      </trkpt>
      <trkpt lat="43.86752" lon="7.22827">
        <ele>505</ele>
        <time>0001-01-01T00:00:00</time>
      </trkpt>
      <trkpt lat="43.86739" lon="7.22834">
        <ele>513</ele>
        <time>0001-01-01T00:00:00</time>
      </trkpt>
      <trkpt lat="43.86729" lon="7.22843">
        <ele>517</ele>
        <time>0001-01-01T00:00:00</time>
      </trkpt>
      <trkpt lat="43.8672" lon="7.22846">
        <ele>518</ele>
        <time>0001-01-01T00:00:00</time>
      </trkpt>
      <trkpt lat="43.86714" lon="7.22846">
        <ele>519</ele>
        <time>0001-01-01T00:00:00</time>
      </trkpt>
      <trkpt lat="43.86702" lon="7.22832">
        <ele>507</ele>
        <time>0001-01-01T00:00:00</time>
      </trkpt>
      <trkpt lat="43.86692" lon="7.22823">
        <ele>508</ele>
        <time>0001-01-01T00:00:00</time>
      </trkpt>
      <trkpt lat="43.86683" lon="7.22819">
        <ele>508</ele>
        <time>0001-01-01T00:00:00</time>
      </trkpt>
      <trkpt lat="43.86676" lon="7.22824">
        <ele>509</ele>
        <time>0001-01-01T00:00:00</time>
      </trkpt>
      <trkpt lat="43.86662" lon="7.22832">
        <ele>513</ele>
        <time>0001-01-01T00:00:00</time>
      </trkpt>
      <trkpt lat="43.86649" lon="7.22842">
        <ele>520</ele>
        <time>0001-01-01T00:00:00</time>
      </trkpt>
      <trkpt lat="43.86636" lon="7.22851">
        <ele>524</ele>
        <time>0001-01-01T00:00:00</time>
      </trkpt>
      <trkpt lat="43.86626" lon="7.22861">
        <ele>525</ele>
        <time>0001-01-01T00:00:00</time>
      </trkpt>
      <trkpt lat="43.86618" lon="7.22869">
        <ele>527</ele>
        <time>0001-01-01T00:00:00</time>
      </trkpt>
      <trkpt lat="43.86617" lon="7.2287">
        <ele>527</ele>
        <time>0001-01-01T00:00:00</time>
      </trkpt>
      <trkpt lat="43.86616" lon="7.22873">
        <ele>527</ele>
        <time>0001-01-01T00:00:00</time>
      </trkpt>
      <trkpt lat="43.86616" lon="7.22877">
        <ele>527</ele>
        <time>0001-01-01T00:00:00</time>
      </trkpt>
      <trkpt lat="43.86618" lon="7.22882">
        <ele>527</ele>
        <time>0001-01-01T00:00:00</time>
      </trkpt>
      <trkpt lat="43.86617" lon="7.22888">
        <ele>528</ele>
        <time>0001-01-01T00:00:00</time>
      </trkpt>
      <trkpt lat="43.86616" lon="7.22889">
        <ele>528</ele>
        <time>0001-01-01T00:00:00</time>
      </trkpt>
      <trkpt lat="43.86615" lon="7.22889">
        <ele>528</ele>
        <time>0001-01-01T00:00:00</time>
      </trkpt>
      <trkpt lat="43.86612" lon="7.22889">
        <ele>528</ele>
        <time>0001-01-01T00:00:00</time>
      </trkpt>
      <trkpt lat="43.86611" lon="7.2289">
        <ele>528</ele>
        <time>0001-01-01T00:00:00</time>
      </trkpt>
      <trkpt lat="43.86612" lon="7.22896">
        <ele>528</ele>
        <time>0001-01-01T00:00:00</time>
      </trkpt>
      <trkpt lat="43.86613" lon="7.22894">
        <ele>528</ele>
        <time>0001-01-01T00:00:00</time>
      </trkpt>
      <trkpt lat="43.86613" lon="7.22894">
        <ele>528</ele>
        <time>0001-01-01T00:00:00</time>
      </trkpt>
      <trkpt lat="43.86612" lon="7.22898">
        <ele>528</ele>
        <time>0001-01-01T00:00:00</time>
      </trkpt>
      <trkpt lat="43.86612" lon="7.22896">
        <ele>528</ele>
        <time>0001-01-01T00:00:00</time>
      </trkpt>
      <trkpt lat="43.86612" lon="7.229">
        <ele>529</ele>
        <time>0001-01-01T00:00:00</time>
      </trkpt>
      <trkpt lat="43.86615" lon="7.22902">
        <ele>529</ele>
        <time>0001-01-01T00:00:00</time>
      </trkpt>
      <trkpt lat="43.86618" lon="7.22899">
        <ele>528</ele>
        <time>0001-01-01T00:00:00</time>
      </trkpt>
      <trkpt lat="43.86624" lon="7.22895">
        <ele>528</ele>
        <time>0001-01-01T00:00:00</time>
      </trkpt>
      <trkpt lat="43.86626" lon="7.22892">
        <ele>528</ele>
        <time>0001-01-01T00:00:00</time>
      </trkpt>
      <trkpt lat="43.86632" lon="7.22892">
        <ele>527</ele>
        <time>0001-01-01T00:00:00</time>
      </trkpt>
      <trkpt lat="43.86637" lon="7.2289">
        <ele>527</ele>
        <time>0001-01-01T00:00:00</time>
      </trkpt>
      <trkpt lat="43.86639" lon="7.22888">
        <ele>527</ele>
        <time>0001-01-01T00:00:00</time>
      </trkpt>
      <trkpt lat="43.86651" lon="7.22888">
        <ele>527</ele>
        <time>0001-01-01T00:00:00</time>
      </trkpt>
      <trkpt lat="43.8666" lon="7.22891">
        <ele>528</ele>
        <time>0001-01-01T00:00:00</time>
      </trkpt>
      <trkpt lat="43.86672" lon="7.22898">
        <ele>528</ele>
        <time>0001-01-01T00:00:00</time>
      </trkpt>
      <trkpt lat="43.86674" lon="7.22903">
        <ele>529</ele>
        <time>0001-01-01T00:00:00</time>
      </trkpt>
      <trkpt lat="43.86679" lon="7.22914">
        <ele>530</ele>
        <time>0001-01-01T00:00:00</time>
      </trkpt>
      <trkpt lat="43.86679" lon="7.22915">
        <ele>530</ele>
        <time>0001-01-01T00:00:00</time>
      </trkpt>
      <trkpt lat="43.86686" lon="7.22927">
        <ele>545</ele>
        <time>0001-01-01T00:00:00</time>
      </trkpt>
      <trkpt lat="43.86689" lon="7.22931">
        <ele>546</ele>
        <time>0001-01-01T00:00:00</time>
      </trkpt>
      <trkpt lat="43.86698" lon="7.22943">
        <ele>550</ele>
        <time>0001-01-01T00:00:00</time>
      </trkpt>
      <trkpt lat="43.86704" lon="7.22944">
        <ele>551</ele>
        <time>0001-01-01T00:00:00</time>
      </trkpt>
      <trkpt lat="43.86708" lon="7.22941">
        <ele>551</ele>
        <time>0001-01-01T00:00:00</time>
      </trkpt>
      <trkpt lat="43.86719" lon="7.22928">
        <ele>549</ele>
        <time>0001-01-01T00:00:00</time>
      </trkpt>
      <trkpt lat="43.86725" lon="7.22923">
        <ele>548</ele>
        <time>0001-01-01T00:00:00</time>
      </trkpt>
      <trkpt lat="43.86732" lon="7.2292">
        <ele>547</ele>
        <time>0001-01-01T00:00:00</time>
      </trkpt>
      <trkpt lat="43.86739" lon="7.2292">
        <ele>545</ele>
        <time>0001-01-01T00:00:00</time>
      </trkpt>
      <trkpt lat="43.86744" lon="7.22923">
        <ele>545</ele>
        <time>0001-01-01T00:00:00</time>
      </trkpt>
      <trkpt lat="43.86747" lon="7.22925">
        <ele>545</ele>
        <time>0001-01-01T00:00:00</time>
      </trkpt>
      <trkpt lat="43.86753" lon="7.22922">
        <ele>546</ele>
        <time>0001-01-01T00:00:00</time>
      </trkpt>
      <trkpt lat="43.86759" lon="7.2292">
        <ele>548</ele>
        <time>0001-01-01T00:00:00</time>
      </trkpt>
      <trkpt lat="43.86767" lon="7.2292">
        <ele>552</ele>
        <time>0001-01-01T00:00:00</time>
      </trkpt>
      <trkpt lat="43.86777" lon="7.22915">
        <ele>535</ele>
        <time>0001-01-01T00:00:00</time>
      </trkpt>
      <trkpt lat="43.86787" lon="7.2292">
        <ele>557</ele>
        <time>0001-01-01T00:00:00</time>
      </trkpt>
      <trkpt lat="43.86795" lon="7.22923">
        <ele>558</ele>
        <time>0001-01-01T00:00:00</time>
      </trkpt>
      <trkpt lat="43.86803" lon="7.22928">
        <ele>559</ele>
        <time>0001-01-01T00:00:00</time>
      </trkpt>
      <trkpt lat="43.86809" lon="7.22929">
        <ele>559</ele>
        <time>0001-01-01T00:00:00</time>
      </trkpt>
      <trkpt lat="43.86813" lon="7.22926">
        <ele>559</ele>
        <time>0001-01-01T00:00:00</time>
      </trkpt>
      <trkpt lat="43.86817" lon="7.22928">
        <ele>559</ele>
        <time>0001-01-01T00:00:00</time>
      </trkpt>
      <trkpt lat="43.86824" lon="7.22928">
        <ele>558</ele>
        <time>0001-01-01T00:00:00</time>
      </trkpt>
      <trkpt lat="43.86834" lon="7.22928">
        <ele>560</ele>
        <time>0001-01-01T00:00:00</time>
      </trkpt>
      <trkpt lat="43.86836" lon="7.22929">
        <ele>561</ele>
        <time>0001-01-01T00:00:00</time>
      </trkpt>
      <trkpt lat="43.86842" lon="7.22925">
        <ele>560</ele>
        <time>0001-01-01T00:00:00</time>
      </trkpt>
      <trkpt lat="43.86852" lon="7.2292">
        <ele>563</ele>
        <time>0001-01-01T00:00:00</time>
      </trkpt>
      <trkpt lat="43.86861" lon="7.2292">
        <ele>565</ele>
        <time>0001-01-01T00:00:00</time>
      </trkpt>
      <trkpt lat="43.86862" lon="7.2292">
        <ele>565</ele>
        <time>0001-01-01T00:00:00</time>
      </trkpt>
      <trkpt lat="43.86869" lon="7.22919">
        <ele>566</ele>
        <time>0001-01-01T00:00:00</time>
      </trkpt>
      <trkpt lat="43.86873" lon="7.22922">
        <ele>566</ele>
        <time>0001-01-01T00:00:00</time>
      </trkpt>
      <trkpt lat="43.86877" lon="7.22922">
        <ele>567</ele>
        <time>0001-01-01T00:00:00</time>
      </trkpt>
      <trkpt lat="43.86885" lon="7.22925">
        <ele>567</ele>
        <time>0001-01-01T00:00:00</time>
      </trkpt>
      <trkpt lat="43.8689" lon="7.22929">
        <ele>567</ele>
        <time>0001-01-01T00:00:00</time>
      </trkpt>
      <trkpt lat="43.86899" lon="7.22931">
        <ele>567</ele>
        <time>0001-01-01T00:00:00</time>
      </trkpt>
      <trkpt lat="43.86909" lon="7.2293">
        <ele>566</ele>
        <time>0001-01-01T00:00:00</time>
      </trkpt>
      <trkpt lat="43.86915" lon="7.22927">
        <ele>564</ele>
        <time>0001-01-01T00:00:00</time>
      </trkpt>
      <trkpt lat="43.86922" lon="7.22927">
        <ele>566</ele>
        <time>0001-01-01T00:00:00</time>
      </trkpt>
      <trkpt lat="43.86922" lon="7.22928">
        <ele>566</ele>
        <time>0001-01-01T00:00:00</time>
      </trkpt>
      <trkpt lat="43.86927" lon="7.2293">
        <ele>568</ele>
        <time>0001-01-01T00:00:00</time>
      </trkpt>
      <trkpt lat="43.8693" lon="7.22929">
        <ele>568</ele>
        <time>0001-01-01T00:00:00</time>
      </trkpt>
      <trkpt lat="43.86941" lon="7.22919">
        <ele>569</ele>
        <time>0001-01-01T00:00:00</time>
      </trkpt>
      <trkpt lat="43.86948" lon="7.22907">
        <ele>553</ele>
        <time>0001-01-01T00:00:00</time>
      </trkpt>
      <trkpt lat="43.86958" lon="7.22905">
        <ele>552</ele>
        <time>0001-01-01T00:00:00</time>
      </trkpt>
      <trkpt lat="43.86959" lon="7.22906">
        <ele>553</ele>
        <time>0001-01-01T00:00:00</time>
      </trkpt>
      <trkpt lat="43.86958" lon="7.22917">
        <ele>570</ele>
        <time>0001-01-01T00:00:00</time>
      </trkpt>
      <trkpt lat="43.86956" lon="7.2292">
        <ele>570</ele>
        <time>0001-01-01T00:00:00</time>
      </trkpt>
      <trkpt lat="43.86953" lon="7.22927">
        <ele>571</ele>
        <time>0001-01-01T00:00:00</time>
      </trkpt>
      <trkpt lat="43.86951" lon="7.2294">
        <ele>572</ele>
        <time>0001-01-01T00:00:00</time>
      </trkpt>
      <trkpt lat="43.86946" lon="7.22953">
        <ele>575</ele>
        <time>0001-01-01T00:00:00</time>
      </trkpt>
      <trkpt lat="43.86945" lon="7.22955">
        <ele>575</ele>
        <time>0001-01-01T00:00:00</time>
      </trkpt>
      <trkpt lat="43.86935" lon="7.22961">
        <ele>576</ele>
        <time>0001-01-01T00:00:00</time>
      </trkpt>
      <trkpt lat="43.86926" lon="7.22959">
        <ele>576</ele>
        <time>0001-01-01T00:00:00</time>
      </trkpt>
      <trkpt lat="43.86913" lon="7.22962">
        <ele>574</ele>
        <time>0001-01-01T00:00:00</time>
      </trkpt>
      <trkpt lat="43.869" lon="7.22964">
        <ele>574</ele>
        <time>0001-01-01T00:00:00</time>
      </trkpt>
      <trkpt lat="43.86889" lon="7.22963">
        <ele>574</ele>
        <time>0001-01-01T00:00:00</time>
      </trkpt>
      <trkpt lat="43.86881" lon="7.22965">
        <ele>574</ele>
        <time>0001-01-01T00:00:00</time>
      </trkpt>
      <trkpt lat="43.86869" lon="7.22968">
        <ele>574</ele>
        <time>0001-01-01T00:00:00</time>
      </trkpt>
      <trkpt lat="43.86864" lon="7.22971">
        <ele>574</ele>
        <time>0001-01-01T00:00:00</time>
      </trkpt>
      <trkpt lat="43.86852" lon="7.22977">
        <ele>576</ele>
        <time>0001-01-01T00:00:00</time>
      </trkpt>
      <trkpt lat="43.86843" lon="7.22981">
        <ele>577</ele>
        <time>0001-01-01T00:00:00</time>
      </trkpt>
      <trkpt lat="43.86835" lon="7.22984">
        <ele>579</ele>
        <time>0001-01-01T00:00:00</time>
      </trkpt>
      <trkpt lat="43.86824" lon="7.22993">
        <ele>577</ele>
        <time>0001-01-01T00:00:00</time>
      </trkpt>
      <trkpt lat="43.86813" lon="7.22995">
        <ele>574</ele>
        <time>0001-01-01T00:00:00</time>
      </trkpt>
      <trkpt lat="43.86802" lon="7.22996">
        <ele>571</ele>
        <time>0001-01-01T00:00:00</time>
      </trkpt>
      <trkpt lat="43.86795" lon="7.22999">
        <ele>571</ele>
        <time>0001-01-01T00:00:00</time>
      </trkpt>
      <trkpt lat="43.86783" lon="7.23006">
        <ele>590</ele>
        <time>0001-01-01T00:00:00</time>
      </trkpt>
      <trkpt lat="43.86777" lon="7.23011">
        <ele>589</ele>
        <time>0001-01-01T00:00:00</time>
      </trkpt>
      <trkpt lat="43.86775" lon="7.23017">
        <ele>590</ele>
        <time>0001-01-01T00:00:00</time>
      </trkpt>
      <trkpt lat="43.86764" lon="7.23029">
        <ele>591</ele>
        <time>0001-01-01T00:00:00</time>
      </trkpt>
      <trkpt lat="43.86757" lon="7.23037">
        <ele>592</ele>
        <time>0001-01-01T00:00:00</time>
      </trkpt>
      <trkpt lat="43.86749" lon="7.23047">
        <ele>586</ele>
        <time>0001-01-01T00:00:00</time>
      </trkpt>
      <trkpt lat="43.86742" lon="7.23056">
        <ele>587</ele>
        <time>0001-01-01T00:00:00</time>
      </trkpt>
      <trkpt lat="43.86733" lon="7.23066">
        <ele>589</ele>
        <time>0001-01-01T00:00:00</time>
      </trkpt>
      <trkpt lat="43.8673" lon="7.2307">
        <ele>589</ele>
        <time>0001-01-01T00:00:00</time>
      </trkpt>
      <trkpt lat="43.86722" lon="7.23077">
        <ele>588</ele>
        <time>0001-01-01T00:00:00</time>
      </trkpt>
      <trkpt lat="43.8672" lon="7.23078">
        <ele>587</ele>
        <time>0001-01-01T00:00:00</time>
      </trkpt>
      <trkpt lat="43.86709" lon="7.23084">
        <ele>600</ele>
        <time>0001-01-01T00:00:00</time>
      </trkpt>
      <trkpt lat="43.86697" lon="7.2309">
        <ele>598</ele>
        <time>0001-01-01T00:00:00</time>
      </trkpt>
      <trkpt lat="43.86687" lon="7.23096">
        <ele>596</ele>
        <time>0001-01-01T00:00:00</time>
      </trkpt>
      <trkpt lat="43.86681" lon="7.23103">
        <ele>596</ele>
        <time>0001-01-01T00:00:00</time>
      </trkpt>
      <trkpt lat="43.8668" lon="7.23106">
        <ele>596</ele>
        <time>0001-01-01T00:00:00</time>
      </trkpt>
      <trkpt lat="43.86679" lon="7.23107">
        <ele>597</ele>
        <time>0001-01-01T00:00:00</time>
      </trkpt>
      <trkpt lat="43.86675" lon="7.23106">
        <ele>596</ele>
        <time>0001-01-01T00:00:00</time>
      </trkpt>
      <trkpt lat="43.86671" lon="7.23108">
        <ele>596</ele>
        <time>0001-01-01T00:00:00</time>
      </trkpt>
      <trkpt lat="43.86663" lon="7.23132">
        <ele>591</ele>
        <time>0001-01-01T00:00:00</time>
      </trkpt>
      <trkpt lat="43.86658" lon="7.23148">
        <ele>594</ele>
        <time>0001-01-01T00:00:00</time>
      </trkpt>
      <trkpt lat="43.86651" lon="7.23161">
        <ele>595</ele>
        <time>0001-01-01T00:00:00</time>
      </trkpt>
      <trkpt lat="43.86644" lon="7.23178">
        <ele>606</ele>
        <time>0001-01-01T00:00:00</time>
      </trkpt>
      <trkpt lat="43.86637" lon="7.23189">
        <ele>608</ele>
        <time>0001-01-01T00:00:00</time>
      </trkpt>
      <trkpt lat="43.86629" lon="7.232">
        <ele>609</ele>
        <time>0001-01-01T00:00:00</time>
      </trkpt>
      <trkpt lat="43.86623" lon="7.23209">
        <ele>610</ele>
        <time>0001-01-01T00:00:00</time>
      </trkpt>
      <trkpt lat="43.86621" lon="7.23214">
        <ele>611</ele>
        <time>0001-01-01T00:00:00</time>
      </trkpt>
      <trkpt lat="43.8662" lon="7.23216">
        <ele>611</ele>
        <time>0001-01-01T00:00:00</time>
      </trkpt>
      <trkpt lat="43.86617" lon="7.23217">
        <ele>611</ele>
        <time>0001-01-01T00:00:00</time>
      </trkpt>
      <trkpt lat="43.86609" lon="7.23215">
        <ele>610</ele>
        <time>0001-01-01T00:00:00</time>
      </trkpt>
      <trkpt lat="43.86601" lon="7.23212">
        <ele>609</ele>
        <time>0001-01-01T00:00:00</time>
      </trkpt>
      <trkpt lat="43.86593" lon="7.23211">
        <ele>609</ele>
        <time>0001-01-01T00:00:00</time>
      </trkpt>
      <trkpt lat="43.8659" lon="7.23212">
        <ele>609</ele>
        <time>0001-01-01T00:00:00</time>
      </trkpt>
      <trkpt lat="43.86579" lon="7.23215">
        <ele>606</ele>
        <time>0001-01-01T00:00:00</time>
      </trkpt>
      <trkpt lat="43.86565" lon="7.23218">
        <ele>606</ele>
        <time>0001-01-01T00:00:00</time>
      </trkpt>
      <trkpt lat="43.86555" lon="7.23222">
        <ele>606</ele>
        <time>0001-01-01T00:00:00</time>
      </trkpt>
      <trkpt lat="43.86551" lon="7.23224">
        <ele>606</ele>
        <time>0001-01-01T00:00:00</time>
      </trkpt>
      <trkpt lat="43.86547" lon="7.23226">
        <ele>606</ele>
        <time>0001-01-01T00:00:00</time>
      </trkpt>
      <trkpt lat="43.86544" lon="7.23231">
        <ele>606</ele>
        <time>0001-01-01T00:00:00</time>
      </trkpt>
      <trkpt lat="43.86551" lon="7.23235">
        <ele>607</ele>
        <time>0001-01-01T00:00:00</time>
      </trkpt>
      <trkpt lat="43.86555" lon="7.2324">
        <ele>608</ele>
        <time>0001-01-01T00:00:00</time>
      </trkpt>
      <trkpt lat="43.8656" lon="7.23244">
        <ele>609</ele>
        <time>0001-01-01T00:00:00</time>
      </trkpt>
      <trkpt lat="43.86565" lon="7.23247">
        <ele>609</ele>
        <time>0001-01-01T00:00:00</time>
      </trkpt>
      <trkpt lat="43.86569" lon="7.23255">
        <ele>617</ele>
        <time>0001-01-01T00:00:00</time>
      </trkpt>
      <trkpt lat="43.86569" lon="7.23259">
        <ele>618</ele>
        <time>0001-01-01T00:00:00</time>
      </trkpt>
      <trkpt lat="43.86572" lon="7.23265">
        <ele>618</ele>
        <time>0001-01-01T00:00:00</time>
      </trkpt>
      <trkpt lat="43.86576" lon="7.23271">
        <ele>619</ele>
        <time>0001-01-01T00:00:00</time>
      </trkpt>
      <trkpt lat="43.8658" lon="7.23275">
        <ele>620</ele>
        <time>0001-01-01T00:00:00</time>
      </trkpt>
      <trkpt lat="43.86585" lon="7.2328">
        <ele>630</ele>
        <time>0001-01-01T00:00:00</time>
      </trkpt>
      <trkpt lat="43.8659" lon="7.23284">
        <ele>631</ele>
        <time>0001-01-01T00:00:00</time>
      </trkpt>
      <trkpt lat="43.86594" lon="7.23287">
        <ele>632</ele>
        <time>0001-01-01T00:00:00</time>
      </trkpt>
      <trkpt lat="43.866" lon="7.23292">
        <ele>634</ele>
        <time>0001-01-01T00:00:00</time>
      </trkpt>
      <trkpt lat="43.86604" lon="7.23297">
        <ele>635</ele>
        <time>0001-01-01T00:00:00</time>
      </trkpt>
      <trkpt lat="43.86606" lon="7.233">
        <ele>636</ele>
        <time>0001-01-01T00:00:00</time>
      </trkpt>
      <trkpt lat="43.8661" lon="7.23303">
        <ele>636</ele>
        <time>0001-01-01T00:00:00</time>
      </trkpt>
      <trkpt lat="43.86616" lon="7.23304">
        <ele>637</ele>
        <time>0001-01-01T00:00:00</time>
      </trkpt>
      <trkpt lat="43.86612" lon="7.23306">
        <ele>637</ele>
        <time>0001-01-01T00:00:00</time>
      </trkpt>
      <trkpt lat="43.8661" lon="7.23307">
        <ele>637</ele>
        <time>0001-01-01T00:00:00</time>
      </trkpt>
      <trkpt lat="43.86613" lon="7.2331">
        <ele>638</ele>
        <time>0001-01-01T00:00:00</time>
      </trkpt>
      <trkpt lat="43.86619" lon="7.23311">
        <ele>638</ele>
        <time>0001-01-01T00:00:00</time>
      </trkpt>
      <trkpt lat="43.86623" lon="7.23313">
        <ele>639</ele>
        <time>0001-01-01T00:00:00</time>
      </trkpt>
      <trkpt lat="43.8663" lon="7.23314">
        <ele>640</ele>
        <time>0001-01-01T00:00:00</time>
      </trkpt>
      <trkpt lat="43.86637" lon="7.23316">
        <ele>641</ele>
        <time>0001-01-01T00:00:00</time>
      </trkpt>
      <trkpt lat="43.86646" lon="7.23313">
        <ele>642</ele>
        <time>0001-01-01T00:00:00</time>
      </trkpt>
      <trkpt lat="43.86654" lon="7.23311">
        <ele>643</ele>
        <time>0001-01-01T00:00:00</time>
      </trkpt>
      <trkpt lat="43.86663" lon="7.23309">
        <ele>643</ele>
        <time>0001-01-01T00:00:00</time>
      </trkpt>
      <trkpt lat="43.86669" lon="7.23306">
        <ele>652</ele>
        <time>0001-01-01T00:00:00</time>
      </trkpt>
      <trkpt lat="43.86675" lon="7.23305">
        <ele>652</ele>
        <time>0001-01-01T00:00:00</time>
      </trkpt>
      <trkpt lat="43.86681" lon="7.23303">
        <ele>652</ele>
        <time>0001-01-01T00:00:00</time>
      </trkpt>
      <trkpt lat="43.86687" lon="7.23303">
        <ele>652</ele>
        <time>0001-01-01T00:00:00</time>
      </trkpt>
      <trkpt lat="43.86692" lon="7.23303">
        <ele>653</ele>
        <time>0001-01-01T00:00:00</time>
      </trkpt>
      <trkpt lat="43.86696" lon="7.233">
        <ele>653</ele>
        <time>0001-01-01T00:00:00</time>
      </trkpt>
      <trkpt lat="43.86701" lon="7.23295">
        <ele>652</ele>
        <time>0001-01-01T00:00:00</time>
      </trkpt>
      <trkpt lat="43.86706" lon="7.23293">
        <ele>653</ele>
        <time>0001-01-01T00:00:00</time>
      </trkpt>
      <trkpt lat="43.86712" lon="7.23292">
        <ele>654</ele>
        <time>0001-01-01T00:00:00</time>
      </trkpt>
      <trkpt lat="43.86718" lon="7.2329">
        <ele>654</ele>
        <time>0001-01-01T00:00:00</time>
      </trkpt>
      <trkpt lat="43.86723" lon="7.23287">
        <ele>654</ele>
        <time>0001-01-01T00:00:00</time>
      </trkpt>
      <trkpt lat="43.8673" lon="7.23286">
        <ele>655</ele>
        <time>0001-01-01T00:00:00</time>
      </trkpt>
      <trkpt lat="43.86733" lon="7.23285">
        <ele>655</ele>
        <time>0001-01-01T00:00:00</time>
      </trkpt>
      <trkpt lat="43.86739" lon="7.23281">
        <ele>655</ele>
        <time>0001-01-01T00:00:00</time>
      </trkpt>
      <trkpt lat="43.86746" lon="7.23279">
        <ele>656</ele>
        <time>0001-01-01T00:00:00</time>
      </trkpt>
      <trkpt lat="43.86749" lon="7.23281">
        <ele>656</ele>
        <time>0001-01-01T00:00:00</time>
      </trkpt>
      <trkpt lat="43.86749" lon="7.23281">
        <ele>656</ele>
        <time>0001-01-01T00:00:00</time>
      </trkpt>
      <trkpt lat="43.86748" lon="7.2328">
        <ele>656</ele>
        <time>0001-01-01T00:00:00</time>
      </trkpt>
      <trkpt lat="43.86749" lon="7.23278">
        <ele>656</ele>
        <time>0001-01-01T00:00:00</time>
      </trkpt>
      <trkpt lat="43.8675" lon="7.23278">
        <ele>656</ele>
        <time>0001-01-01T00:00:00</time>
      </trkpt>
      <trkpt lat="43.86753" lon="7.23282">
        <ele>664</ele>
        <time>0001-01-01T00:00:00</time>
      </trkpt>
      <trkpt lat="43.86755" lon="7.23289">
        <ele>665</ele>
        <time>0001-01-01T00:00:00</time>
      </trkpt>
      <trkpt lat="43.86752" lon="7.23297">
        <ele>665</ele>
        <time>0001-01-01T00:00:00</time>
      </trkpt>
      <trkpt lat="43.86755" lon="7.23303">
        <ele>666</ele>
        <time>0001-01-01T00:00:00</time>
      </trkpt>
      <trkpt lat="43.86758" lon="7.23307">
        <ele>666</ele>
        <time>0001-01-01T00:00:00</time>
      </trkpt>
      <trkpt lat="43.86756" lon="7.23316">
        <ele>667</ele>
        <time>0001-01-01T00:00:00</time>
      </trkpt>
      <trkpt lat="43.86752" lon="7.23322">
        <ele>668</ele>
        <time>0001-01-01T00:00:00</time>
      </trkpt>
      <trkpt lat="43.86746" lon="7.23327">
        <ele>666</ele>
        <time>0001-01-01T00:00:00</time>
      </trkpt>
      <trkpt lat="43.86742" lon="7.2333">
        <ele>665</ele>
        <time>0001-01-01T00:00:00</time>
      </trkpt>
      <trkpt lat="43.86742" lon="7.23339">
        <ele>670</ele>
        <time>0001-01-01T00:00:00</time>
      </trkpt>
      <trkpt lat="43.8674" lon="7.23347">
        <ele>669</ele>
        <time>0001-01-01T00:00:00</time>
      </trkpt>
      <trkpt lat="43.8674" lon="7.23349">
        <ele>669</ele>
        <time>0001-01-01T00:00:00</time>
      </trkpt>
      <trkpt lat="43.86733" lon="7.23361">
        <ele>670</ele>
        <time>0001-01-01T00:00:00</time>
      </trkpt>
      <trkpt lat="43.86728" lon="7.23369">
        <ele>670</ele>
        <time>0001-01-01T00:00:00</time>
      </trkpt>
      <trkpt lat="43.86721" lon="7.23376">
        <ele>670</ele>
        <time>0001-01-01T00:00:00</time>
      </trkpt>
      <trkpt lat="43.86714" lon="7.23381">
        <ele>670</ele>
        <time>0001-01-01T00:00:00</time>
      </trkpt>
      <trkpt lat="43.8671" lon="7.23394">
        <ele>671</ele>
        <time>0001-01-01T00:00:00</time>
      </trkpt>
      <trkpt lat="43.8671" lon="7.23396">
        <ele>671</ele>
        <time>0001-01-01T00:00:00</time>
      </trkpt>
      <trkpt lat="43.86705" lon="7.23407">
        <ele>672</ele>
        <time>0001-01-01T00:00:00</time>
      </trkpt>
      <trkpt lat="43.86705" lon="7.23409">
        <ele>672</ele>
        <time>0001-01-01T00:00:00</time>
      </trkpt>
      <trkpt lat="43.867" lon="7.23418">
        <ele>678</ele>
        <time>0001-01-01T00:00:00</time>
      </trkpt>
      <trkpt lat="43.86692" lon="7.23428">
        <ele>679</ele>
        <time>0001-01-01T00:00:00</time>
      </trkpt>
      <trkpt lat="43.86691" lon="7.23432">
        <ele>679</ele>
        <time>0001-01-01T00:00:00</time>
      </trkpt>
      <trkpt lat="43.86686" lon="7.23442">
        <ele>679</ele>
        <time>0001-01-01T00:00:00</time>
      </trkpt>
      <trkpt lat="43.86679" lon="7.23451">
        <ele>680</ele>
        <time>0001-01-01T00:00:00</time>
      </trkpt>
      <trkpt lat="43.86678" lon="7.23451">
        <ele>680</ele>
        <time>0001-01-01T00:00:00</time>
      </trkpt>
      <trkpt lat="43.86671" lon="7.23452">
        <ele>680</ele>
        <time>0001-01-01T00:00:00</time>
      </trkpt>
      <trkpt lat="43.8667" lon="7.23454">
        <ele>680</ele>
        <time>0001-01-01T00:00:00</time>
      </trkpt>
      <trkpt lat="43.8666" lon="7.23461">
        <ele>685</ele>
        <time>0001-01-01T00:00:00</time>
      </trkpt>
      <trkpt lat="43.86655" lon="7.23469">
        <ele>686</ele>
        <time>0001-01-01T00:00:00</time>
      </trkpt>
      <trkpt lat="43.86648" lon="7.23475">
        <ele>686</ele>
        <time>0001-01-01T00:00:00</time>
      </trkpt>
      <trkpt lat="43.86641" lon="7.23473">
        <ele>686</ele>
        <time>0001-01-01T00:00:00</time>
      </trkpt>
      <trkpt lat="43.86633" lon="7.23475">
        <ele>686</ele>
        <time>0001-01-01T00:00:00</time>
      </trkpt>
      <trkpt lat="43.86631" lon="7.23476">
        <ele>686</ele>
        <time>0001-01-01T00:00:00</time>
      </trkpt>
      <trkpt lat="43.86628" lon="7.23478">
        <ele>686</ele>
        <time>0001-01-01T00:00:00</time>
      </trkpt>
      <trkpt lat="43.86621" lon="7.23488">
        <ele>687</ele>
        <time>0001-01-01T00:00:00</time>
      </trkpt>
      <trkpt lat="43.8662" lon="7.23496">
        <ele>687</ele>
        <time>0001-01-01T00:00:00</time>
      </trkpt>
      <trkpt lat="43.86617" lon="7.23505">
        <ele>692</ele>
        <time>0001-01-01T00:00:00</time>
      </trkpt>
      <trkpt lat="43.86613" lon="7.2352">
        <ele>692</ele>
        <time>0001-01-01T00:00:00</time>
      </trkpt>
      <trkpt lat="43.86605" lon="7.23535">
        <ele>692</ele>
        <time>0001-01-01T00:00:00</time>
      </trkpt>
      <trkpt lat="43.86598" lon="7.23549">
        <ele>693</ele>
        <time>0001-01-01T00:00:00</time>
      </trkpt>
      <trkpt lat="43.86597" lon="7.2356">
        <ele>693</ele>
        <time>0001-01-01T00:00:00</time>
      </trkpt>
      <trkpt lat="43.86593" lon="7.23569">
        <ele>694</ele>
        <time>0001-01-01T00:00:00</time>
      </trkpt>
      <trkpt lat="43.86588" lon="7.23582">
        <ele>697</ele>
        <time>0001-01-01T00:00:00</time>
      </trkpt>
      <trkpt lat="43.86586" lon="7.23602">
        <ele>694</ele>
        <time>0001-01-01T00:00:00</time>
      </trkpt>
      <trkpt lat="43.86589" lon="7.23622">
        <ele>692</ele>
        <time>0001-01-01T00:00:00</time>
      </trkpt>
      <trkpt lat="43.86594" lon="7.23641">
        <ele>692</ele>
        <time>0001-01-01T00:00:00</time>
      </trkpt>
      <trkpt lat="43.86596" lon="7.23663">
        <ele>693</ele>
        <time>0001-01-01T00:00:00</time>
      </trkpt>
      <trkpt lat="43.86593" lon="7.23684">
        <ele>693</ele>
        <time>0001-01-01T00:00:00</time>
      </trkpt>
      <trkpt lat="43.86589" lon="7.23702">
        <ele>692</ele>
        <time>0001-01-01T00:00:00</time>
      </trkpt>
      <trkpt lat="43.86591" lon="7.2372">
        <ele>693</ele>
        <time>0001-01-01T00:00:00</time>
      </trkpt>
      <trkpt lat="43.86591" lon="7.23723">
        <ele>693</ele>
        <time>0001-01-01T00:00:00</time>
      </trkpt>
      <trkpt lat="43.86588" lon="7.23731">
        <ele>694</ele>
        <time>0001-01-01T00:00:00</time>
      </trkpt>
      <trkpt lat="43.86584" lon="7.23736">
        <ele>695</ele>
        <time>0001-01-01T00:00:00</time>
      </trkpt>
      <trkpt lat="43.86587" lon="7.2374">
        <ele>695</ele>
        <time>0001-01-01T00:00:00</time>
      </trkpt>
      <trkpt lat="43.86589" lon="7.23749">
        <ele>696</ele>
        <time>0001-01-01T00:00:00</time>
      </trkpt>
      <trkpt lat="43.86595" lon="7.23758">
        <ele>699</ele>
        <time>0001-01-01T00:00:00</time>
      </trkpt>
      <trkpt lat="43.86598" lon="7.23763">
        <ele>699</ele>
        <time>0001-01-01T00:00:00</time>
      </trkpt>
      <trkpt lat="43.86602" lon="7.23779">
        <ele>700</ele>
        <time>0001-01-01T00:00:00</time>
      </trkpt>
      <trkpt lat="43.86605" lon="7.23786">
        <ele>701</ele>
        <time>0001-01-01T00:00:00</time>
      </trkpt>
      <trkpt lat="43.86616" lon="7.23792">
        <ele>701</ele>
        <time>0001-01-01T00:00:00</time>
      </trkpt>
      <trkpt lat="43.86621" lon="7.23799">
        <ele>701</ele>
        <time>0001-01-01T00:00:00</time>
      </trkpt>
      <trkpt lat="43.86623" lon="7.23802">
        <ele>702</ele>
        <time>0001-01-01T00:00:00</time>
      </trkpt>
      <trkpt lat="43.86624" lon="7.23809">
        <ele>702</ele>
        <time>0001-01-01T00:00:00</time>
      </trkpt>
      <trkpt lat="43.86624" lon="7.23811">
        <ele>702</ele>
        <time>0001-01-01T00:00:00</time>
      </trkpt>
      <trkpt lat="43.86628" lon="7.23819">
        <ele>703</ele>
        <time>0001-01-01T00:00:00</time>
      </trkpt>
      <trkpt lat="43.86631" lon="7.23822">
        <ele>703</ele>
        <time>0001-01-01T00:00:00</time>
      </trkpt>
      <trkpt lat="43.86635" lon="7.23826">
        <ele>703</ele>
        <time>0001-01-01T00:00:00</time>
      </trkpt>
      <trkpt lat="43.86641" lon="7.23835">
        <ele>710</ele>
        <time>0001-01-01T00:00:00</time>
      </trkpt>
      <trkpt lat="43.86641" lon="7.23837">
        <ele>710</ele>
        <time>0001-01-01T00:00:00</time>
      </trkpt>
      <trkpt lat="43.86645" lon="7.23845">
        <ele>711</ele>
        <time>0001-01-01T00:00:00</time>
      </trkpt>
      <trkpt lat="43.86648" lon="7.23853">
        <ele>711</ele>
        <time>0001-01-01T00:00:00</time>
      </trkpt>
      <trkpt lat="43.86649" lon="7.23857">
        <ele>711</ele>
        <time>0001-01-01T00:00:00</time>
      </trkpt>
      <trkpt lat="43.8665" lon="7.23864">
        <ele>712</ele>
        <time>0001-01-01T00:00:00</time>
      </trkpt>
      <trkpt lat="43.86652" lon="7.23871">
        <ele>713</ele>
        <time>0001-01-01T00:00:00</time>
      </trkpt>
      <trkpt lat="43.86652" lon="7.23878">
        <ele>713</ele>
        <time>0001-01-01T00:00:00</time>
      </trkpt>
      <trkpt lat="43.86651" lon="7.2388">
        <ele>714</ele>
        <time>0001-01-01T00:00:00</time>
      </trkpt>
      <trkpt lat="43.86654" lon="7.23879">
        <ele>713</ele>
        <time>0001-01-01T00:00:00</time>
      </trkpt>
      <trkpt lat="43.86658" lon="7.23884">
        <ele>714</ele>
        <time>0001-01-01T00:00:00</time>
      </trkpt>
      <trkpt lat="43.86665" lon="7.23882">
        <ele>714</ele>
        <time>0001-01-01T00:00:00</time>
      </trkpt>
      <trkpt lat="43.86665" lon="7.23881">
        <ele>714</ele>
        <time>0001-01-01T00:00:00</time>
      </trkpt>
      <trkpt lat="43.8667" lon="7.23884">
        <ele>707</ele>
        <time>0001-01-01T00:00:00</time>
      </trkpt>
      <trkpt lat="43.86675" lon="7.23898">
        <ele>710</ele>
        <time>0001-01-01T00:00:00</time>
      </trkpt>
      <trkpt lat="43.86675" lon="7.23902">
        <ele>711</ele>
        <time>0001-01-01T00:00:00</time>
      </trkpt>
      <trkpt lat="43.86669" lon="7.23912">
        <ele>715</ele>
        <time>0001-01-01T00:00:00</time>
      </trkpt>
      <trkpt lat="43.86667" lon="7.23915">
        <ele>717</ele>
        <time>0001-01-01T00:00:00</time>
      </trkpt>
      <trkpt lat="43.86671" lon="7.23926">
        <ele>718</ele>
        <time>0001-01-01T00:00:00</time>
      </trkpt>
      <trkpt lat="43.86677" lon="7.23936">
        <ele>718</ele>
        <time>0001-01-01T00:00:00</time>
      </trkpt>
      <trkpt lat="43.86679" lon="7.23941">
        <ele>718</ele>
        <time>0001-01-01T00:00:00</time>
      </trkpt>
      <trkpt lat="43.86688" lon="7.23943">
        <ele>717</ele>
        <time>0001-01-01T00:00:00</time>
      </trkpt>
      <trkpt lat="43.86694" lon="7.23945">
        <ele>717</ele>
        <time>0001-01-01T00:00:00</time>
      </trkpt>
      <trkpt lat="43.86708" lon="7.23963">
        <ele>717</ele>
        <time>0001-01-01T00:00:00</time>
      </trkpt>
      <trkpt lat="43.86714" lon="7.23972">
        <ele>717</ele>
        <time>0001-01-01T00:00:00</time>
      </trkpt>
      <trkpt lat="43.86723" lon="7.23986">
        <ele>717</ele>
        <time>0001-01-01T00:00:00</time>
      </trkpt>
      <trkpt lat="43.86727" lon="7.23992">
        <ele>717</ele>
        <time>0001-01-01T00:00:00</time>
      </trkpt>
      <trkpt lat="43.86729" lon="7.24003">
        <ele>721</ele>
        <time>0001-01-01T00:00:00</time>
      </trkpt>
      <trkpt lat="43.86734" lon="7.24021">
        <ele>722</ele>
        <time>0001-01-01T00:00:00</time>
      </trkpt>
      <trkpt lat="43.86735" lon="7.24037">
        <ele>723</ele>
        <time>0001-01-01T00:00:00</time>
      </trkpt>
      <trkpt lat="43.86736" lon="7.24051">
        <ele>723</ele>
        <time>0001-01-01T00:00:00</time>
      </trkpt>
      <trkpt lat="43.86735" lon="7.24069">
        <ele>723</ele>
        <time>0001-01-01T00:00:00</time>
      </trkpt>
      <trkpt lat="43.86734" lon="7.24075">
        <ele>723</ele>
        <time>0001-01-01T00:00:00</time>
      </trkpt>
      <trkpt lat="43.86731" lon="7.24083">
        <ele>723</ele>
        <time>0001-01-01T00:00:00</time>
      </trkpt>
      <trkpt lat="43.86723" lon="7.24091">
        <ele>728</ele>
        <time>0001-01-01T00:00:00</time>
      </trkpt>
      <trkpt lat="43.86719" lon="7.24099">
        <ele>728</ele>
        <time>0001-01-01T00:00:00</time>
      </trkpt>
      <trkpt lat="43.86712" lon="7.24117">
        <ele>730</ele>
        <time>0001-01-01T00:00:00</time>
      </trkpt>
      <trkpt lat="43.867" lon="7.24128">
        <ele>731</ele>
        <time>0001-01-01T00:00:00</time>
      </trkpt>
      <trkpt lat="43.86699" lon="7.24131">
        <ele>731</ele>
        <time>0001-01-01T00:00:00</time>
      </trkpt>
      <trkpt lat="43.86695" lon="7.24136">
        <ele>732</ele>
        <time>0001-01-01T00:00:00</time>
      </trkpt>
      <trkpt lat="43.86693" lon="7.24139">
        <ele>732</ele>
        <time>0001-01-01T00:00:00</time>
      </trkpt>
      <trkpt lat="43.86683" lon="7.24136">
        <ele>733</ele>
        <time>0001-01-01T00:00:00</time>
      </trkpt>
      <trkpt lat="43.8667" lon="7.24136">
        <ele>733</ele>
        <time>0001-01-01T00:00:00</time>
      </trkpt>
      <trkpt lat="43.86662" lon="7.24136">
        <ele>738</ele>
        <time>0001-01-01T00:00:00</time>
      </trkpt>
      <trkpt lat="43.86654" lon="7.24139">
        <ele>738</ele>
        <time>0001-01-01T00:00:00</time>
      </trkpt>
      <trkpt lat="43.86651" lon="7.2415">
        <ele>738</ele>
        <time>0001-01-01T00:00:00</time>
      </trkpt>
      <trkpt lat="43.86649" lon="7.24155">
        <ele>738</ele>
        <time>0001-01-01T00:00:00</time>
      </trkpt>
      <trkpt lat="43.86646" lon="7.24158">
        <ele>738</ele>
        <time>0001-01-01T00:00:00</time>
      </trkpt>
      <trkpt lat="43.86642" lon="7.24157">
        <ele>738</ele>
        <time>0001-01-01T00:00:00</time>
      </trkpt>
      <trkpt lat="43.86635" lon="7.24155">
        <ele>738</ele>
        <time>0001-01-01T00:00:00</time>
      </trkpt>
      <trkpt lat="43.86633" lon="7.24153">
        <ele>739</ele>
        <time>0001-01-01T00:00:00</time>
      </trkpt>
      <trkpt lat="43.86627" lon="7.24145">
        <ele>739</ele>
        <time>0001-01-01T00:00:00</time>
      </trkpt>
      <trkpt lat="43.86625" lon="7.24144">
        <ele>739</ele>
        <time>0001-01-01T00:00:00</time>
      </trkpt>
      <trkpt lat="43.86621" lon="7.24147">
        <ele>739</ele>
        <time>0001-01-01T00:00:00</time>
      </trkpt>
      <trkpt lat="43.86624" lon="7.24145">
        <ele>739</ele>
        <time>0001-01-01T00:00:00</time>
      </trkpt>
      <trkpt lat="43.86623" lon="7.24144">
        <ele>739</ele>
        <time>0001-01-01T00:00:00</time>
      </trkpt>
      <trkpt lat="43.86619" lon="7.24145">
        <ele>739</ele>
        <time>0001-01-01T00:00:00</time>
      </trkpt>
      <trkpt lat="43.86616" lon="7.24146">
        <ele>739</ele>
        <time>0001-01-01T00:00:00</time>
      </trkpt>
      <trkpt lat="43.86603" lon="7.24152">
        <ele>740</ele>
        <time>0001-01-01T00:00:00</time>
      </trkpt>
      <trkpt lat="43.86596" lon="7.2416">
        <ele>741</ele>
        <time>0001-01-01T00:00:00</time>
      </trkpt>
      <trkpt lat="43.86584" lon="7.24169">
        <ele>744</ele>
        <time>0001-01-01T00:00:00</time>
      </trkpt>
      <trkpt lat="43.86573" lon="7.24177">
        <ele>747</ele>
        <time>0001-01-01T00:00:00</time>
      </trkpt>
      <trkpt lat="43.86558" lon="7.2418">
        <ele>749</ele>
        <time>0001-01-01T00:00:00</time>
      </trkpt>
      <trkpt lat="43.86545" lon="7.24186">
        <ele>750</ele>
        <time>0001-01-01T00:00:00</time>
      </trkpt>
      <trkpt lat="43.86533" lon="7.24191">
        <ele>750</ele>
        <time>0001-01-01T00:00:00</time>
      </trkpt>
      <trkpt lat="43.86511" lon="7.24196">
        <ele>750</ele>
        <time>0001-01-01T00:00:00</time>
      </trkpt>
      <trkpt lat="43.86493" lon="7.242">
        <ele>746</ele>
        <time>0001-01-01T00:00:00</time>
      </trkpt>
      <trkpt lat="43.86477" lon="7.2421">
        <ele>747</ele>
        <time>0001-01-01T00:00:00</time>
      </trkpt>
      <trkpt lat="43.86468" lon="7.24226">
        <ele>748</ele>
        <time>0001-01-01T00:00:00</time>
      </trkpt>
      <trkpt lat="43.86454" lon="7.24247">
        <ele>747</ele>
        <time>0001-01-01T00:00:00</time>
      </trkpt>
      <trkpt lat="43.86441" lon="7.24269">
        <ele>757</ele>
        <time>0001-01-01T00:00:00</time>
      </trkpt>
      <trkpt lat="43.86433" lon="7.24295">
        <ele>759</ele>
        <time>0001-01-01T00:00:00</time>
      </trkpt>
      <trkpt lat="43.8643" lon="7.24314">
        <ele>760</ele>
        <time>0001-01-01T00:00:00</time>
      </trkpt>
      <trkpt lat="43.86425" lon="7.2433">
        <ele>760</ele>
        <time>0001-01-01T00:00:00</time>
      </trkpt>
      <trkpt lat="43.86415" lon="7.24346">
        <ele>757</ele>
        <time>0001-01-01T00:00:00</time>
      </trkpt>
      <trkpt lat="43.86403" lon="7.24362">
        <ele>756</ele>
        <time>0001-01-01T00:00:00</time>
      </trkpt>
      <trkpt lat="43.86395" lon="7.24377">
        <ele>757</ele>
        <time>0001-01-01T00:00:00</time>
      </trkpt>
      <trkpt lat="43.86386" lon="7.24397">
        <ele>758</ele>
        <time>0001-01-01T00:00:00</time>
      </trkpt>
      <trkpt lat="43.8638" lon="7.24425">
        <ele>761</ele>
        <time>0001-01-01T00:00:00</time>
      </trkpt>
      <trkpt lat="43.86384" lon="7.24443">
        <ele>762</ele>
        <time>0001-01-01T00:00:00</time>
      </trkpt>
      <trkpt lat="43.8639" lon="7.24462">
        <ele>763</ele>
        <time>0001-01-01T00:00:00</time>
      </trkpt>
      <trkpt lat="43.86396" lon="7.24483">
        <ele>766</ele>
        <time>0001-01-01T00:00:00</time>
      </trkpt>
      <trkpt lat="43.86406" lon="7.24508">
        <ele>769</ele>
        <time>0001-01-01T00:00:00</time>
      </trkpt>
      <trkpt lat="43.86416" lon="7.2453">
        <ele>765</ele>
        <time>0001-01-01T00:00:00</time>
      </trkpt>
      <trkpt lat="43.86431" lon="7.24551">
        <ele>787</ele>
        <time>0001-01-01T00:00:00</time>
      </trkpt>
      <trkpt lat="43.86438" lon="7.24566">
        <ele>786</ele>
        <time>0001-01-01T00:00:00</time>
      </trkpt>
      <trkpt lat="43.86442" lon="7.24589">
        <ele>788</ele>
        <time>0001-01-01T00:00:00</time>
      </trkpt>
      <trkpt lat="43.8644" lon="7.24608">
        <ele>790</ele>
        <time>0001-01-01T00:00:00</time>
      </trkpt>
      <trkpt lat="43.86436" lon="7.24633">
        <ele>791</ele>
        <time>0001-01-01T00:00:00</time>
      </trkpt>
      <trkpt lat="43.86431" lon="7.24658">
        <ele>789</ele>
        <time>0001-01-01T00:00:00</time>
      </trkpt>
      <trkpt lat="43.86422" lon="7.24684">
        <ele>796</ele>
        <time>0001-01-01T00:00:00</time>
      </trkpt>
      <trkpt lat="43.86414" lon="7.24707">
        <ele>780</ele>
        <time>0001-01-01T00:00:00</time>
      </trkpt>
      <trkpt lat="43.86402" lon="7.24739">
        <ele>787</ele>
        <time>0001-01-01T00:00:00</time>
      </trkpt>
      <trkpt lat="43.86396" lon="7.24757">
        <ele>794</ele>
        <time>0001-01-01T00:00:00</time>
      </trkpt>
      <trkpt lat="43.86389" lon="7.24779">
        <ele>792</ele>
        <time>0001-01-01T00:00:00</time>
      </trkpt>
      <trkpt lat="43.86381" lon="7.24812">
        <ele>794</ele>
        <time>0001-01-01T00:00:00</time>
      </trkpt>
      <trkpt lat="43.86375" lon="7.24839">
        <ele>802</ele>
        <time>0001-01-01T00:00:00</time>
      </trkpt>
      <trkpt lat="43.86368" lon="7.24866">
        <ele>802</ele>
        <time>0001-01-01T00:00:00</time>
      </trkpt>
      <trkpt lat="43.86365" lon="7.24894">
        <ele>803</ele>
        <time>0001-01-01T00:00:00</time>
      </trkpt>
      <trkpt lat="43.86361" lon="7.24917">
        <ele>807</ele>
        <time>0001-01-01T00:00:00</time>
      </trkpt>
      <trkpt lat="43.86359" lon="7.24939">
        <ele>808</ele>
        <time>0001-01-01T00:00:00</time>
      </trkpt>
      <trkpt lat="43.86359" lon="7.24961">
        <ele>810</ele>
        <time>0001-01-01T00:00:00</time>
      </trkpt>
      <trkpt lat="43.8636" lon="7.24994">
        <ele>809</ele>
        <time>0001-01-01T00:00:00</time>
      </trkpt>
      <trkpt lat="43.86362" lon="7.25016">
        <ele>811</ele>
        <time>0001-01-01T00:00:00</time>
      </trkpt>
      <trkpt lat="43.86367" lon="7.2504">
        <ele>813</ele>
        <time>0001-01-01T00:00:00</time>
      </trkpt>
      <trkpt lat="43.86373" lon="7.25067">
        <ele>814</ele>
        <time>0001-01-01T00:00:00</time>
      </trkpt>
      <trkpt lat="43.86381" lon="7.25093">
        <ele>815</ele>
        <time>0001-01-01T00:00:00</time>
      </trkpt>
      <trkpt lat="43.86389" lon="7.25115">
        <ele>816</ele>
        <time>0001-01-01T00:00:00</time>
      </trkpt>
      <trkpt lat="43.86396" lon="7.25137">
        <ele>817</ele>
        <time>0001-01-01T00:00:00</time>
      </trkpt>
      <trkpt lat="43.86402" lon="7.2516">
        <ele>823</ele>
        <time>0001-01-01T00:00:00</time>
      </trkpt>
      <trkpt lat="43.86408" lon="7.25184">
        <ele>819</ele>
        <time>0001-01-01T00:00:00</time>
      </trkpt>
      <trkpt lat="43.86415" lon="7.25204">
        <ele>814</ele>
        <time>0001-01-01T00:00:00</time>
      </trkpt>
      <trkpt lat="43.8642" lon="7.25224">
        <ele>846</ele>
        <time>0001-01-01T00:00:00</time>
      </trkpt>
      <trkpt lat="43.86425" lon="7.25246">
        <ele>836</ele>
        <time>0001-01-01T00:00:00</time>
      </trkpt>
      <trkpt lat="43.86431" lon="7.25273">
        <ele>843</ele>
        <time>0001-01-01T00:00:00</time>
      </trkpt>
      <trkpt lat="43.86434" lon="7.25296">
        <ele>845</ele>
        <time>0001-01-01T00:00:00</time>
      </trkpt>
      <trkpt lat="43.8644" lon="7.25321">
        <ele>844</ele>
        <time>0001-01-01T00:00:00</time>
      </trkpt>
      <trkpt lat="43.86444" lon="7.25345">
        <ele>843</ele>
        <time>0001-01-01T00:00:00</time>
      </trkpt>
      <trkpt lat="43.86449" lon="7.25366">
        <ele>846</ele>
        <time>0001-01-01T00:00:00</time>
      </trkpt>
      <trkpt lat="43.86453" lon="7.25389">
        <ele>847</ele>
        <time>0001-01-01T00:00:00</time>
      </trkpt>
      <trkpt lat="43.86453" lon="7.25415">
        <ele>846</ele>
        <time>0001-01-01T00:00:00</time>
      </trkpt>
      <trkpt lat="43.86459" lon="7.25438">
        <ele>845</ele>
        <time>0001-01-01T00:00:00</time>
      </trkpt>
      <trkpt lat="43.86467" lon="7.25462">
        <ele>847</ele>
        <time>0001-01-01T00:00:00</time>
      </trkpt>
      <trkpt lat="43.86471" lon="7.25482">
        <ele>848</ele>
        <time>0001-01-01T00:00:00</time>
      </trkpt>
      <trkpt lat="43.86476" lon="7.25515">
        <ele>846</ele>
        <time>0001-01-01T00:00:00</time>
      </trkpt>
      <trkpt lat="43.8648" lon="7.25536">
        <ele>844</ele>
        <time>0001-01-01T00:00:00</time>
      </trkpt>
      <trkpt lat="43.86484" lon="7.25554">
        <ele>844</ele>
        <time>0001-01-01T00:00:00</time>
      </trkpt>
      <trkpt lat="43.8649" lon="7.25577">
        <ele>850</ele>
        <time>0001-01-01T00:00:00</time>
      </trkpt>
      <trkpt lat="43.86498" lon="7.25595">
        <ele>846</ele>
        <time>0001-01-01T00:00:00</time>
      </trkpt>
      <trkpt lat="43.8651" lon="7.25613">
        <ele>865</ele>
        <time>0001-01-01T00:00:00</time>
      </trkpt>
      <trkpt lat="43.86523" lon="7.2563">
        <ele>866</ele>
        <time>0001-01-01T00:00:00</time>
      </trkpt>
      <trkpt lat="43.86535" lon="7.25644">
        <ele>868</ele>
        <time>0001-01-01T00:00:00</time>
      </trkpt>
      <trkpt lat="43.86548" lon="7.25662">
        <ele>871</ele>
        <time>0001-01-01T00:00:00</time>
      </trkpt>
      <trkpt lat="43.86555" lon="7.25683">
        <ele>864</ele>
        <time>0001-01-01T00:00:00</time>
      </trkpt>
      <trkpt lat="43.86561" lon="7.25713">
        <ele>861</ele>
        <time>0001-01-01T00:00:00</time>
      </trkpt>
      <trkpt lat="43.86562" lon="7.25715">
        <ele>862</ele>
        <time>0001-01-01T00:00:00</time>
      </trkpt>
      <trkpt lat="43.8657" lon="7.25713">
        <ele>863</ele>
        <time>0001-01-01T00:00:00</time>
      </trkpt>
      <trkpt lat="43.86569" lon="7.25697">
        <ele>865</ele>
        <time>0001-01-01T00:00:00</time>
      </trkpt>
      <trkpt lat="43.86568" lon="7.25677">
        <ele>870</ele>
        <time>0001-01-01T00:00:00</time>
      </trkpt>
      <trkpt lat="43.86563" lon="7.25652">
        <ele>876</ele>
        <time>0001-01-01T00:00:00</time>
      </trkpt>
      <trkpt lat="43.86554" lon="7.25634">
        <ele>874</ele>
        <time>0001-01-01T00:00:00</time>
      </trkpt>
      <trkpt lat="43.86548" lon="7.25618">
        <ele>874</ele>
        <time>0001-01-01T00:00:00</time>
      </trkpt>
      <trkpt lat="43.86543" lon="7.256">
        <ele>875</ele>
        <time>0001-01-01T00:00:00</time>
      </trkpt>
      <trkpt lat="43.86543" lon="7.25581">
        <ele>883</ele>
        <time>0001-01-01T00:00:00</time>
      </trkpt>
      <trkpt lat="43.86544" lon="7.25561">
        <ele>884</ele>
        <time>0001-01-01T00:00:00</time>
      </trkpt>
      <trkpt lat="43.86544" lon="7.25548">
        <ele>884</ele>
        <time>0001-01-01T00:00:00</time>
      </trkpt>
      <trkpt lat="43.86545" lon="7.25544">
        <ele>884</ele>
        <time>0001-01-01T00:00:00</time>
      </trkpt>
      <trkpt lat="43.86551" lon="7.25548">
        <ele>886</ele>
        <time>0001-01-01T00:00:00</time>
      </trkpt>
      <trkpt lat="43.86553" lon="7.25563">
        <ele>887</ele>
        <time>0001-01-01T00:00:00</time>
      </trkpt>
      <trkpt lat="43.86558" lon="7.25578">
        <ele>889</ele>
        <time>0001-01-01T00:00:00</time>
      </trkpt>
      <trkpt lat="43.86559" lon="7.25592">
        <ele>882</ele>
        <time>0001-01-01T00:00:00</time>
      </trkpt>
      <trkpt lat="43.86564" lon="7.25602">
        <ele>882</ele>
        <time>0001-01-01T00:00:00</time>
      </trkpt>
      <trkpt lat="43.86571" lon="7.25612">
        <ele>881</ele>
        <time>0001-01-01T00:00:00</time>
      </trkpt>
      <trkpt lat="43.86578" lon="7.25621">
        <ele>880</ele>
        <time>0001-01-01T00:00:00</time>
      </trkpt>
      <trkpt lat="43.86585" lon="7.25632">
        <ele>907</ele>
        <time>0001-01-01T00:00:00</time>
      </trkpt>
      <trkpt lat="43.86596" lon="7.25645">
        <ele>905</ele>
        <time>0001-01-01T00:00:00</time>
      </trkpt>
      <trkpt lat="43.86605" lon="7.25653">
        <ele>907</ele>
        <time>0001-01-01T00:00:00</time>
      </trkpt>
      <trkpt lat="43.86613" lon="7.25661">
        <ele>909</ele>
        <time>0001-01-01T00:00:00</time>
      </trkpt>
      <trkpt lat="43.86622" lon="7.2567">
        <ele>904</ele>
        <time>0001-01-01T00:00:00</time>
      </trkpt>
      <trkpt lat="43.86628" lon="7.25681">
        <ele>906</ele>
        <time>0001-01-01T00:00:00</time>
      </trkpt>
      <trkpt lat="43.86637" lon="7.25691">
        <ele>908</ele>
        <time>0001-01-01T00:00:00</time>
      </trkpt>
      <trkpt lat="43.86645" lon="7.25699">
        <ele>909</ele>
        <time>0001-01-01T00:00:00</time>
      </trkpt>
      <trkpt lat="43.86654" lon="7.25709">
        <ele>909</ele>
        <time>0001-01-01T00:00:00</time>
      </trkpt>
      <trkpt lat="43.8666" lon="7.25719">
        <ele>909</ele>
        <time>0001-01-01T00:00:00</time>
      </trkpt>
      <trkpt lat="43.86667" lon="7.2573">
        <ele>933</ele>
        <time>0001-01-01T00:00:00</time>
      </trkpt>
      <trkpt lat="43.86674" lon="7.25739">
        <ele>929</ele>
        <time>0001-01-01T00:00:00</time>
      </trkpt>
      <trkpt lat="43.86679" lon="7.25752">
        <ele>922</ele>
        <time>0001-01-01T00:00:00</time>
      </trkpt>
      <trkpt lat="43.86683" lon="7.25761">
        <ele>925</ele>
        <time>0001-01-01T00:00:00</time>
      </trkpt>
      <trkpt lat="43.86682" lon="7.25763">
        <ele>924</ele>
        <time>0001-01-01T00:00:00</time>
      </trkpt>
      <trkpt lat="43.86679" lon="7.25765">
        <ele>924</ele>
        <time>0001-01-01T00:00:00</time>
      </trkpt>
      <trkpt lat="43.8668" lon="7.25764">
        <ele>924</ele>
        <time>0001-01-01T00:00:00</time>
      </trkpt>
      <trkpt lat="43.86678" lon="7.25769">
        <ele>924</ele>
        <time>0001-01-01T00:00:00</time>
      </trkpt>
      <trkpt lat="43.86679" lon="7.25778">
        <ele>925</ele>
        <time>0001-01-01T00:00:00</time>
      </trkpt>
      <trkpt lat="43.86676" lon="7.25795">
        <ele>924</ele>
        <time>0001-01-01T00:00:00</time>
      </trkpt>
      <trkpt lat="43.86667" lon="7.25801">
        <ele>922</ele>
        <time>0001-01-01T00:00:00</time>
      </trkpt>
      <trkpt lat="43.86662" lon="7.25813">
        <ele>897</ele>
        <time>0001-01-01T00:00:00</time>
      </trkpt>
      <trkpt lat="43.86662" lon="7.25818">
        <ele>898</ele>
        <time>0001-01-01T00:00:00</time>
      </trkpt>
      <trkpt lat="43.86665" lon="7.25843">
        <ele>895</ele>
        <time>0001-01-01T00:00:00</time>
      </trkpt>
      <trkpt lat="43.86669" lon="7.25854">
        <ele>908</ele>
        <time>0001-01-01T00:00:00</time>
      </trkpt>
      <trkpt lat="43.86678" lon="7.25866">
        <ele>909</ele>
        <time>0001-01-01T00:00:00</time>
      </trkpt>
      <trkpt lat="43.86684" lon="7.25878">
        <ele>908</ele>
        <time>0001-01-01T00:00:00</time>
      </trkpt>
      <trkpt lat="43.86694" lon="7.25903">
        <ele>906</ele>
        <time>0001-01-01T00:00:00</time>
      </trkpt>
      <trkpt lat="43.86706" lon="7.25917">
        <ele>901</ele>
        <time>0001-01-01T00:00:00</time>
      </trkpt>
      <trkpt lat="43.86713" lon="7.2593">
        <ele>903</ele>
        <time>0001-01-01T00:00:00</time>
      </trkpt>
      <trkpt lat="43.86711" lon="7.25942">
        <ele>902</ele>
        <time>0001-01-01T00:00:00</time>
      </trkpt>
      <trkpt lat="43.86693" lon="7.25948">
        <ele>897</ele>
        <time>0001-01-01T00:00:00</time>
      </trkpt>
      <trkpt lat="43.8669" lon="7.25949">
        <ele>896</ele>
        <time>0001-01-01T00:00:00</time>
      </trkpt>
      <trkpt lat="43.86683" lon="7.25965">
        <ele>894</ele>
        <time>0001-01-01T00:00:00</time>
      </trkpt>
      <trkpt lat="43.86674" lon="7.25987">
        <ele>886</ele>
        <time>0001-01-01T00:00:00</time>
      </trkpt>
      <trkpt lat="43.86666" lon="7.26001">
        <ele>873</ele>
        <time>0001-01-01T00:00:00</time>
      </trkpt>
      <trkpt lat="43.86662" lon="7.26014">
        <ele>866</ele>
        <time>0001-01-01T00:00:00</time>
      </trkpt>
      <trkpt lat="43.86654" lon="7.26024">
        <ele>863</ele>
        <time>0001-01-01T00:00:00</time>
      </trkpt>
      <trkpt lat="43.86644" lon="7.2602">
        <ele>861</ele>
        <time>0001-01-01T00:00:00</time>
      </trkpt>
      <trkpt lat="43.86643" lon="7.26021">
        <ele>861</ele>
        <time>0001-01-01T00:00:00</time>
      </trkpt>
      <trkpt lat="43.86637" lon="7.26018">
        <ele>860</ele>
        <time>0001-01-01T00:00:00</time>
      </trkpt>
      <trkpt lat="43.86641" lon="7.26022">
        <ele>861</ele>
        <time>0001-01-01T00:00:00</time>
      </trkpt>
      <trkpt lat="43.86641" lon="7.26024">
        <ele>861</ele>
        <time>0001-01-01T00:00:00</time>
      </trkpt>
      <trkpt lat="43.86635" lon="7.26033">
        <ele>859</ele>
        <time>0001-01-01T00:00:00</time>
      </trkpt>
      <trkpt lat="43.86633" lon="7.26036">
        <ele>859</ele>
        <time>0001-01-01T00:00:00</time>
      </trkpt>
      <trkpt lat="43.86622" lon="7.26039">
        <ele>857</ele>
        <time>0001-01-01T00:00:00</time>
      </trkpt>
      <trkpt lat="43.8662" lon="7.26038">
        <ele>856</ele>
        <time>0001-01-01T00:00:00</time>
      </trkpt>
      <trkpt lat="43.86616" lon="7.26042">
        <ele>856</ele>
        <time>0001-01-01T00:00:00</time>
      </trkpt>
      <trkpt lat="43.86616" lon="7.26047">
        <ele>856</ele>
        <time>0001-01-01T00:00:00</time>
      </trkpt>
      <trkpt lat="43.86615" lon="7.26068">
        <ele>856</ele>
        <time>0001-01-01T00:00:00</time>
      </trkpt>
      <trkpt lat="43.86605" lon="7.26073">
        <ele>854</ele>
        <time>0001-01-01T00:00:00</time>
      </trkpt>
      <trkpt lat="43.86594" lon="7.26076">
        <ele>852</ele>
        <time>0001-01-01T00:00:00</time>
      </trkpt>
      <trkpt lat="43.86585" lon="7.26076">
        <ele>851</ele>
        <time>0001-01-01T00:00:00</time>
      </trkpt>
      <trkpt lat="43.86579" lon="7.26073">
        <ele>847</ele>
        <time>0001-01-01T00:00:00</time>
      </trkpt>
      <trkpt lat="43.86573" lon="7.2607">
        <ele>846</ele>
        <time>0001-01-01T00:00:00</time>
      </trkpt>
      <trkpt lat="43.86571" lon="7.26069">
        <ele>846</ele>
        <time>0001-01-01T00:00:00</time>
      </trkpt>
      <trkpt lat="43.86566" lon="7.26073">
        <ele>846</ele>
        <time>0001-01-01T00:00:00</time>
      </trkpt>
      <trkpt lat="43.8656" lon="7.26072">
        <ele>846</ele>
        <time>0001-01-01T00:00:00</time>
      </trkpt>
      <trkpt lat="43.86555" lon="7.26073">
        <ele>846</ele>
        <time>0001-01-01T00:00:00</time>
      </trkpt>
      <trkpt lat="43.86552" lon="7.26074">
        <ele>846</ele>
        <time>0001-01-01T00:00:00</time>
      </trkpt>
      <trkpt lat="43.86552" lon="7.26071">
        <ele>846</ele>
        <time>0001-01-01T00:00:00</time>
      </trkpt>
      <trkpt lat="43.86547" lon="7.26074">
        <ele>846</ele>
        <time>0001-01-01T00:00:00</time>
      </trkpt>
      <trkpt lat="43.86541" lon="7.26075">
        <ele>847</ele>
        <time>0001-01-01T00:00:00</time>
      </trkpt>
      <trkpt lat="43.8653" lon="7.26068">
        <ele>847</ele>
        <time>0001-01-01T00:00:00</time>
      </trkpt>
      <trkpt lat="43.8652" lon="7.26059">
        <ele>847</ele>
        <time>0001-01-01T00:00:00</time>
      </trkpt>
      <trkpt lat="43.86508" lon="7.26056">
        <ele>847</ele>
        <time>0001-01-01T00:00:00</time>
      </trkpt>
      <trkpt lat="43.86502" lon="7.26057">
        <ele>848</ele>
        <time>0001-01-01T00:00:00</time>
      </trkpt>
      <trkpt lat="43.8649" lon="7.26054">
        <ele>854</ele>
        <time>0001-01-01T00:00:00</time>
      </trkpt>
      <trkpt lat="43.86482" lon="7.26049">
        <ele>853</ele>
        <time>0001-01-01T00:00:00</time>
      </trkpt>
      <trkpt lat="43.8647" lon="7.26048">
        <ele>854</ele>
        <time>0001-01-01T00:00:00</time>
      </trkpt>
      <trkpt lat="43.86464" lon="7.2605">
        <ele>855</ele>
        <time>0001-01-01T00:00:00</time>
      </trkpt>
      <trkpt lat="43.86462" lon="7.26053">
        <ele>856</ele>
        <time>0001-01-01T00:00:00</time>
      </trkpt>
      <trkpt lat="43.86456" lon="7.26054">
        <ele>857</ele>
        <time>0001-01-01T00:00:00</time>
      </trkpt>
      <trkpt lat="43.86454" lon="7.26045">
        <ele>856</ele>
        <time>0001-01-01T00:00:00</time>
      </trkpt>
      <trkpt lat="43.8645" lon="7.2604">
        <ele>855</ele>
        <time>0001-01-01T00:00:00</time>
      </trkpt>
      <trkpt lat="43.86436" lon="7.26024">
        <ele>853</ele>
        <time>0001-01-01T00:00:00</time>
      </trkpt>
      <trkpt lat="43.86427" lon="7.26015">
        <ele>851</ele>
        <time>0001-01-01T00:00:00</time>
      </trkpt>
      <trkpt lat="43.86413" lon="7.26004">
        <ele>854</ele>
        <time>0001-01-01T00:00:00</time>
      </trkpt>
      <trkpt lat="43.86401" lon="7.25993">
        <ele>845</ele>
        <time>0001-01-01T00:00:00</time>
      </trkpt>
      <trkpt lat="43.8639" lon="7.25988">
        <ele>845</ele>
        <time>0001-01-01T00:00:00</time>
      </trkpt>
      <trkpt lat="43.86379" lon="7.25978">
        <ele>845</ele>
        <time>0001-01-01T00:00:00</time>
      </trkpt>
      <trkpt lat="43.86366" lon="7.25972">
        <ele>846</ele>
        <time>0001-01-01T00:00:00</time>
      </trkpt>
      <trkpt lat="43.86349" lon="7.25966">
        <ele>847</ele>
        <time>0001-01-01T00:00:00</time>
      </trkpt>
      <trkpt lat="43.86332" lon="7.25959">
        <ele>862</ele>
        <time>0001-01-01T00:00:00</time>
      </trkpt>
      <trkpt lat="43.86325" lon="7.25957">
        <ele>862</ele>
        <time>0001-01-01T00:00:00</time>
      </trkpt>
      <trkpt lat="43.86316" lon="7.25956">
        <ele>862</ele>
        <time>0001-01-01T00:00:00</time>
      </trkpt>
      <trkpt lat="43.86311" lon="7.25949">
        <ele>861</ele>
        <time>0001-01-01T00:00:00</time>
      </trkpt>
      <trkpt lat="43.86296" lon="7.25935">
        <ele>861</ele>
        <time>0001-01-01T00:00:00</time>
      </trkpt>
      <trkpt lat="43.86287" lon="7.2592">
        <ele>862</ele>
        <time>0001-01-01T00:00:00</time>
      </trkpt>
      <trkpt lat="43.86271" lon="7.25907">
        <ele>846</ele>
        <time>0001-01-01T00:00:00</time>
      </trkpt>
      <trkpt lat="43.86258" lon="7.25891">
        <ele>844</ele>
        <time>0001-01-01T00:00:00</time>
      </trkpt>
      <trkpt lat="43.86253" lon="7.25886">
        <ele>843</ele>
        <time>0001-01-01T00:00:00</time>
      </trkpt>
      <trkpt lat="43.86244" lon="7.25882">
        <ele>859</ele>
        <time>0001-01-01T00:00:00</time>
      </trkpt>
      <trkpt lat="43.86241" lon="7.25873">
        <ele>857</ele>
        <time>0001-01-01T00:00:00</time>
      </trkpt>
      <trkpt lat="43.86238" lon="7.25853">
        <ele>851</ele>
        <time>0001-01-01T00:00:00</time>
      </trkpt>
      <trkpt lat="43.86229" lon="7.25836">
        <ele>850</ele>
        <time>0001-01-01T00:00:00</time>
      </trkpt>
      <trkpt lat="43.86213" lon="7.25807">
        <ele>834</ele>
        <time>0001-01-01T00:00:00</time>
      </trkpt>
      <trkpt lat="43.8621" lon="7.25802">
        <ele>834</ele>
        <time>0001-01-01T00:00:00</time>
      </trkpt>
      <trkpt lat="43.86203" lon="7.25789">
        <ele>832</ele>
        <time>0001-01-01T00:00:00</time>
      </trkpt>
      <trkpt lat="43.86199" lon="7.25784">
        <ele>832</ele>
        <time>0001-01-01T00:00:00</time>
      </trkpt>
      <trkpt lat="43.86181" lon="7.25762">
        <ele>831</ele>
        <time>0001-01-01T00:00:00</time>
      </trkpt>
      <trkpt lat="43.86165" lon="7.25732">
        <ele>826</ele>
        <time>0001-01-01T00:00:00</time>
      </trkpt>
      <trkpt lat="43.86156" lon="7.25718">
        <ele>823</ele>
        <time>0001-01-01T00:00:00</time>
      </trkpt>
      <trkpt lat="43.8614" lon="7.25705">
        <ele>821</ele>
        <time>0001-01-01T00:00:00</time>
      </trkpt>
      <trkpt lat="43.86122" lon="7.25699">
        <ele>821</ele>
        <time>0001-01-01T00:00:00</time>
      </trkpt>
      <trkpt lat="43.86105" lon="7.25697">
        <ele>821</ele>
        <time>0001-01-01T00:00:00</time>
      </trkpt>
      <trkpt lat="43.86095" lon="7.25682">
        <ele>818</ele>
        <time>0001-01-01T00:00:00</time>
      </trkpt>
      <trkpt lat="43.86088" lon="7.25674">
        <ele>816</ele>
        <time>0001-01-01T00:00:00</time>
      </trkpt>
      <trkpt lat="43.86071" lon="7.25649">
        <ele>805</ele>
        <time>0001-01-01T00:00:00</time>
      </trkpt>
      <trkpt lat="43.86052" lon="7.2564">
        <ele>802</ele>
        <time>0001-01-01T00:00:00</time>
      </trkpt>
      <trkpt lat="43.86041" lon="7.25637">
        <ele>802</ele>
        <time>0001-01-01T00:00:00</time>
      </trkpt>
      <trkpt lat="43.86014" lon="7.2563">
        <ele>802</ele>
        <time>0001-01-01T00:00:00</time>
      </trkpt>
      <trkpt lat="43.85996" lon="7.25618">
        <ele>806</ele>
        <time>0001-01-01T00:00:00</time>
      </trkpt>
      <trkpt lat="43.85977" lon="7.25609">
        <ele>805</ele>
        <time>0001-01-01T00:00:00</time>
      </trkpt>
      <trkpt lat="43.85973" lon="7.25595">
        <ele>804</ele>
        <time>0001-01-01T00:00:00</time>
      </trkpt>
      <trkpt lat="43.85975" lon="7.2559">
        <ele>802</ele>
        <time>0001-01-01T00:00:00</time>
      </trkpt>
      <trkpt lat="43.85984" lon="7.25581">
        <ele>788</ele>
        <time>0001-01-01T00:00:00</time>
      </trkpt>
      <trkpt lat="43.85983" lon="7.25585">
        <ele>799</ele>
        <time>0001-01-01T00:00:00</time>
      </trkpt>
      <trkpt lat="43.85979" lon="7.25593">
        <ele>802</ele>
        <time>0001-01-01T00:00:00</time>
      </trkpt>
      <trkpt lat="43.85977" lon="7.2559">
        <ele>802</ele>
        <time>0001-01-01T00:00:00</time>
      </trkpt>
      <trkpt lat="43.85962" lon="7.25579">
        <ele>790</ele>
        <time>0001-01-01T00:00:00</time>
      </trkpt>
      <trkpt lat="43.85943" lon="7.25569">
        <ele>793</ele>
        <time>0001-01-01T00:00:00</time>
      </trkpt>
      <trkpt lat="43.85939" lon="7.25563">
        <ele>793</ele>
        <time>0001-01-01T00:00:00</time>
      </trkpt>
      <trkpt lat="43.8594" lon="7.25533">
        <ele>789</ele>
        <time>0001-01-01T00:00:00</time>
      </trkpt>
      <trkpt lat="43.85931" lon="7.25514">
        <ele>788</ele>
        <time>0001-01-01T00:00:00</time>
      </trkpt>
      <trkpt lat="43.85926" lon="7.25512">
        <ele>788</ele>
        <time>0001-01-01T00:00:00</time>
      </trkpt>
      <trkpt lat="43.85918" lon="7.25506">
        <ele>788</ele>
        <time>0001-01-01T00:00:00</time>
      </trkpt>
      <trkpt lat="43.85905" lon="7.25494">
        <ele>787</ele>
        <time>0001-01-01T00:00:00</time>
      </trkpt>
      <trkpt lat="43.85892" lon="7.25476">
        <ele>786</ele>
        <time>0001-01-01T00:00:00</time>
      </trkpt>
      <trkpt lat="43.85883" lon="7.25461">
        <ele>785</ele>
        <time>0001-01-01T00:00:00</time>
      </trkpt>
      <trkpt lat="43.85867" lon="7.25443">
        <ele>785</ele>
        <time>0001-01-01T00:00:00</time>
      </trkpt>
      <trkpt lat="43.85857" lon="7.25435">
        <ele>785</ele>
        <time>0001-01-01T00:00:00</time>
      </trkpt>
      <trkpt lat="43.85843" lon="7.2542">
        <ele>785</ele>
        <time>0001-01-01T00:00:00</time>
      </trkpt>
      <trkpt lat="43.85835" lon="7.25407">
        <ele>779</ele>
        <time>0001-01-01T00:00:00</time>
      </trkpt>
      <trkpt lat="43.85817" lon="7.25392">
        <ele>782</ele>
        <time>0001-01-01T00:00:00</time>
      </trkpt>
      <trkpt lat="43.85793" lon="7.25392">
        <ele>782</ele>
        <time>0001-01-01T00:00:00</time>
      </trkpt>
      <trkpt lat="43.85789" lon="7.25392">
        <ele>782</ele>
        <time>0001-01-01T00:00:00</time>
      </trkpt>
      <trkpt lat="43.85782" lon="7.25401">
        <ele>783</ele>
        <time>0001-01-01T00:00:00</time>
      </trkpt>
      <trkpt lat="43.85773" lon="7.25411">
        <ele>784</ele>
        <time>0001-01-01T00:00:00</time>
      </trkpt>
      <trkpt lat="43.85763" lon="7.25418">
        <ele>790</ele>
        <time>0001-01-01T00:00:00</time>
      </trkpt>
      <trkpt lat="43.85762" lon="7.2542">
        <ele>790</ele>
        <time>0001-01-01T00:00:00</time>
      </trkpt>
      <trkpt lat="43.85749" lon="7.25424">
        <ele>790</ele>
        <time>0001-01-01T00:00:00</time>
      </trkpt>
      <trkpt lat="43.8574" lon="7.25421">
        <ele>790</ele>
        <time>0001-01-01T00:00:00</time>
      </trkpt>
      <trkpt lat="43.85734" lon="7.25414">
        <ele>784</ele>
        <time>0001-01-01T00:00:00</time>
      </trkpt>
      <trkpt lat="43.8572" lon="7.25409">
        <ele>782</ele>
        <time>0001-01-01T00:00:00</time>
      </trkpt>
      <trkpt lat="43.85697" lon="7.254">
        <ele>781</ele>
        <time>0001-01-01T00:00:00</time>
      </trkpt>
      <trkpt lat="43.85692" lon="7.25397">
        <ele>781</ele>
        <time>0001-01-01T00:00:00</time>
      </trkpt>
      <trkpt lat="43.85666" lon="7.25395">
        <ele>778</ele>
        <time>0001-01-01T00:00:00</time>
      </trkpt>
      <trkpt lat="43.85647" lon="7.25394">
        <ele>778</ele>
        <time>0001-01-01T00:00:00</time>
      </trkpt>
      <trkpt lat="43.85639" lon="7.2539">
        <ele>777</ele>
        <time>0001-01-01T00:00:00</time>
      </trkpt>
      <trkpt lat="43.85619" lon="7.25388">
        <ele>777</ele>
        <time>0001-01-01T00:00:00</time>
      </trkpt>
      <trkpt lat="43.856" lon="7.25383">
        <ele>777</ele>
        <time>0001-01-01T00:00:00</time>
      </trkpt>
      <trkpt lat="43.85576" lon="7.25375">
        <ele>777</ele>
        <time>0001-01-01T00:00:00</time>
      </trkpt>
      <trkpt lat="43.8556" lon="7.25371">
        <ele>776</ele>
        <time>0001-01-01T00:00:00</time>
      </trkpt>
      <trkpt lat="43.8555" lon="7.25364">
        <ele>775</ele>
        <time>0001-01-01T00:00:00</time>
      </trkpt>
      <trkpt lat="43.85538" lon="7.2536">
        <ele>775</ele>
        <time>0001-01-01T00:00:00</time>
      </trkpt>
      <trkpt lat="43.85517" lon="7.25357">
        <ele>773</ele>
        <time>0001-01-01T00:00:00</time>
      </trkpt>
      <trkpt lat="43.85514" lon="7.2535">
        <ele>772</ele>
        <time>0001-01-01T00:00:00</time>
      </trkpt>
      <trkpt lat="43.85484" lon="7.25335">
        <ele>771</ele>
        <time>0001-01-01T00:00:00</time>
      </trkpt>
      <trkpt lat="43.85468" lon="7.25345">
        <ele>775</ele>
        <time>0001-01-01T00:00:00</time>
      </trkpt>
      <trkpt lat="43.85461" lon="7.2534">
        <ele>775</ele>
        <time>0001-01-01T00:00:00</time>
      </trkpt>
      <trkpt lat="43.85452" lon="7.25331">
        <ele>755</ele>
        <time>0001-01-01T00:00:00</time>
      </trkpt>
      <trkpt lat="43.85437" lon="7.25332">
        <ele>757</ele>
        <time>0001-01-01T00:00:00</time>
      </trkpt>
      <trkpt lat="43.85413" lon="7.25326">
        <ele>761</ele>
        <time>0001-01-01T00:00:00</time>
      </trkpt>
      <trkpt lat="43.85407" lon="7.25323">
        <ele>759</ele>
        <time>0001-01-01T00:00:00</time>
      </trkpt>
      <trkpt lat="43.8537" lon="7.25308">
        <ele>752</ele>
        <time>0001-01-01T00:00:00</time>
      </trkpt>
      <trkpt lat="43.85362" lon="7.25306">
        <ele>752</ele>
        <time>0001-01-01T00:00:00</time>
      </trkpt>
      <trkpt lat="43.85328" lon="7.25304">
        <ele>749</ele>
        <time>0001-01-01T00:00:00</time>
      </trkpt>
      <trkpt lat="43.85272" lon="7.25319">
        <ele>747</ele>
        <time>0001-01-01T00:00:00</time>
      </trkpt>
      <trkpt lat="43.85222" lon="7.25331">
        <ele>741</ele>
        <time>0001-01-01T00:00:00</time>
      </trkpt>
      <trkpt lat="43.85192" lon="7.2534">
        <ele>744</ele>
        <time>0001-01-01T00:00:00</time>
      </trkpt>
      <trkpt lat="43.8518" lon="7.25328">
        <ele>739</ele>
        <time>0001-01-01T00:00:00</time>
      </trkpt>
      <trkpt lat="43.85178" lon="7.25319">
        <ele>738</ele>
        <time>0001-01-01T00:00:00</time>
      </trkpt>
      <trkpt lat="43.8518" lon="7.25317">
        <ele>738</ele>
        <time>0001-01-01T00:00:00</time>
      </trkpt>
      <trkpt lat="43.85179" lon="7.2531">
        <ele>738</ele>
        <time>0001-01-01T00:00:00</time>
      </trkpt>
      <trkpt lat="43.8517" lon="7.253">
        <ele>736</ele>
        <time>0001-01-01T00:00:00</time>
      </trkpt>
      <trkpt lat="43.85149" lon="7.25286">
        <ele>734</ele>
        <time>0001-01-01T00:00:00</time>
      </trkpt>
      <trkpt lat="43.85144" lon="7.2528">
        <ele>734</ele>
        <time>0001-01-01T00:00:00</time>
      </trkpt>
      <trkpt lat="43.85126" lon="7.25256">
        <ele>732</ele>
        <time>0001-01-01T00:00:00</time>
      </trkpt>
      <trkpt lat="43.85119" lon="7.2525">
        <ele>722</ele>
        <time>0001-01-01T00:00:00</time>
      </trkpt>
      <trkpt lat="43.85105" lon="7.25243">
        <ele>722</ele>
        <time>0001-01-01T00:00:00</time>
      </trkpt>
      <trkpt lat="43.85088" lon="7.25232">
        <ele>722</ele>
        <time>0001-01-01T00:00:00</time>
      </trkpt>
      <trkpt lat="43.85062" lon="7.25214">
        <ele>715</ele>
        <time>0001-01-01T00:00:00</time>
      </trkpt>
      <trkpt lat="43.85044" lon="7.25212">
        <ele>714</ele>
        <time>0001-01-01T00:00:00</time>
      </trkpt>
      <trkpt lat="43.85032" lon="7.2521">
        <ele>713</ele>
        <time>0001-01-01T00:00:00</time>
      </trkpt>
      <trkpt lat="43.8502" lon="7.25203">
        <ele>711</ele>
        <time>0001-01-01T00:00:00</time>
      </trkpt>
      <trkpt lat="43.85014" lon="7.252">
        <ele>710</ele>
        <time>0001-01-01T00:00:00</time>
      </trkpt>
      <trkpt lat="43.84989" lon="7.25192">
        <ele>709</ele>
        <time>0001-01-01T00:00:00</time>
      </trkpt>
      <trkpt lat="43.84963" lon="7.25188">
        <ele>710</ele>
        <time>0001-01-01T00:00:00</time>
      </trkpt>
      <trkpt lat="43.84949" lon="7.2518">
        <ele>710</ele>
        <time>0001-01-01T00:00:00</time>
      </trkpt>
      <trkpt lat="43.84924" lon="7.25176">
        <ele>707</ele>
        <time>0001-01-01T00:00:00</time>
      </trkpt>
      <trkpt lat="43.84915" lon="7.25172">
        <ele>705</ele>
        <time>0001-01-01T00:00:00</time>
      </trkpt>
      <trkpt lat="43.84902" lon="7.25168">
        <ele>707</ele>
        <time>0001-01-01T00:00:00</time>
      </trkpt>
      <trkpt lat="43.84885" lon="7.25146">
        <ele>691</ele>
        <time>0001-01-01T00:00:00</time>
      </trkpt>
      <trkpt lat="43.84883" lon="7.25141">
        <ele>690</ele>
        <time>0001-01-01T00:00:00</time>
      </trkpt>
      <trkpt lat="43.84886" lon="7.25138">
        <ele>690</ele>
        <time>0001-01-01T00:00:00</time>
      </trkpt>
      <trkpt lat="43.84887" lon="7.2514">
        <ele>690</ele>
        <time>0001-01-01T00:00:00</time>
      </trkpt>
      <trkpt lat="43.84888" lon="7.25135">
        <ele>690</ele>
        <time>0001-01-01T00:00:00</time>
      </trkpt>
      <trkpt lat="43.84883" lon="7.25124">
        <ele>688</ele>
        <time>0001-01-01T00:00:00</time>
      </trkpt>
      <trkpt lat="43.84881" lon="7.25118">
        <ele>687</ele>
        <time>0001-01-01T00:00:00</time>
      </trkpt>
      <trkpt lat="43.84867" lon="7.25107">
        <ele>685</ele>
        <time>0001-01-01T00:00:00</time>
      </trkpt>
      <trkpt lat="43.84866" lon="7.25104">
        <ele>685</ele>
        <time>0001-01-01T00:00:00</time>
      </trkpt>
      <trkpt lat="43.84856" lon="7.25082">
        <ele>669</ele>
        <time>0001-01-01T00:00:00</time>
      </trkpt>
      <trkpt lat="43.84841" lon="7.25079">
        <ele>672</ele>
        <time>0001-01-01T00:00:00</time>
      </trkpt>
      <trkpt lat="43.84831" lon="7.25081">
        <ele>674</ele>
        <time>0001-01-01T00:00:00</time>
      </trkpt>
      <trkpt lat="43.84816" lon="7.25077">
        <ele>669</ele>
        <time>0001-01-01T00:00:00</time>
      </trkpt>
      <trkpt lat="43.84801" lon="7.25067">
        <ele>666</ele>
        <time>0001-01-01T00:00:00</time>
      </trkpt>
      <trkpt lat="43.84788" lon="7.25055">
        <ele>664</ele>
        <time>0001-01-01T00:00:00</time>
      </trkpt>
      <trkpt lat="43.84775" lon="7.25044">
        <ele>663</ele>
        <time>0001-01-01T00:00:00</time>
      </trkpt>
      <trkpt lat="43.84772" lon="7.25048">
        <ele>664</ele>
        <time>0001-01-01T00:00:00</time>
      </trkpt>
      <trkpt lat="43.84774" lon="7.2505">
        <ele>664</ele>
        <time>0001-01-01T00:00:00</time>
      </trkpt>
      <trkpt lat="43.84777" lon="7.25051">
        <ele>664</ele>
        <time>0001-01-01T00:00:00</time>
      </trkpt>
      <trkpt lat="43.84777" lon="7.25053">
        <ele>664</ele>
        <time>0001-01-01T00:00:00</time>
      </trkpt>
      <trkpt lat="43.84776" lon="7.25054">
        <ele>664</ele>
        <time>0001-01-01T00:00:00</time>
      </trkpt>
      <trkpt lat="43.84776" lon="7.25053">
        <ele>664</ele>
        <time>0001-01-01T00:00:00</time>
      </trkpt>
      <trkpt lat="43.84775" lon="7.25054">
        <ele>664</ele>
        <time>0001-01-01T00:00:00</time>
      </trkpt>
      <trkpt lat="43.84771" lon="7.25068">
        <ele>665</ele>
        <time>0001-01-01T00:00:00</time>
      </trkpt>
      <trkpt lat="43.84766" lon="7.25075">
        <ele>665</ele>
        <time>0001-01-01T00:00:00</time>
      </trkpt>
      <trkpt lat="43.84765" lon="7.25076">
        <ele>665</ele>
        <time>0001-01-01T00:00:00</time>
      </trkpt>
      <trkpt lat="43.84761" lon="7.25076">
        <ele>665</ele>
        <time>0001-01-01T00:00:00</time>
      </trkpt>
      <trkpt lat="43.84757" lon="7.25081">
        <ele>665</ele>
        <time>0001-01-01T00:00:00</time>
      </trkpt>
      <trkpt lat="43.84766" lon="7.25076">
        <ele>665</ele>
        <time>0001-01-01T00:00:00</time>
      </trkpt>
      <trkpt lat="43.84766" lon="7.25079">
        <ele>665</ele>
        <time>0001-01-01T00:00:00</time>
      </trkpt>
      <trkpt lat="43.84759" lon="7.25089">
        <ele>670</ele>
        <time>0001-01-01T00:00:00</time>
      </trkpt>
      <trkpt lat="43.84745" lon="7.25099">
        <ele>666</ele>
        <time>0001-01-01T00:00:00</time>
      </trkpt>
      <trkpt lat="43.84741" lon="7.25102">
        <ele>666</ele>
        <time>0001-01-01T00:00:00</time>
      </trkpt>
      <trkpt lat="43.84725" lon="7.25112">
        <ele>667</ele>
        <time>0001-01-01T00:00:00</time>
      </trkpt>
      <trkpt lat="43.84716" lon="7.25124">
        <ele>667</ele>
        <time>0001-01-01T00:00:00</time>
      </trkpt>
      <trkpt lat="43.84708" lon="7.25132">
        <ele>668</ele>
        <time>0001-01-01T00:00:00</time>
      </trkpt>
      <trkpt lat="43.8469" lon="7.25129">
        <ele>666</ele>
        <time>0001-01-01T00:00:00</time>
      </trkpt>
      <trkpt lat="43.8468" lon="7.25131">
        <ele>666</ele>
        <time>0001-01-01T00:00:00</time>
      </trkpt>
      <trkpt lat="43.84669" lon="7.25132">
        <ele>666</ele>
        <time>0001-01-01T00:00:00</time>
      </trkpt>
      <trkpt lat="43.84653" lon="7.25135">
        <ele>660</ele>
        <time>0001-01-01T00:00:00</time>
      </trkpt>
      <trkpt lat="43.84649" lon="7.25137">
        <ele>660</ele>
        <time>0001-01-01T00:00:00</time>
      </trkpt>
      <trkpt lat="43.84636" lon="7.25139">
        <ele>659</ele>
        <time>0001-01-01T00:00:00</time>
      </trkpt>
      <trkpt lat="43.84621" lon="7.25144">
        <ele>659</ele>
        <time>0001-01-01T00:00:00</time>
      </trkpt>
      <trkpt lat="43.84612" lon="7.25148">
        <ele>659</ele>
        <time>0001-01-01T00:00:00</time>
      </trkpt>
      <trkpt lat="43.8461" lon="7.2515">
        <ele>659</ele>
        <time>0001-01-01T00:00:00</time>
      </trkpt>
      <trkpt lat="43.84598" lon="7.25154">
        <ele>659</ele>
        <time>0001-01-01T00:00:00</time>
      </trkpt>
      <trkpt lat="43.84591" lon="7.25157">
        <ele>660</ele>
        <time>0001-01-01T00:00:00</time>
      </trkpt>
      <trkpt lat="43.84587" lon="7.25172">
        <ele>665</ele>
        <time>0001-01-01T00:00:00</time>
      </trkpt>
      <trkpt lat="43.84581" lon="7.25186">
        <ele>662</ele>
        <time>0001-01-01T00:00:00</time>
      </trkpt>
      <trkpt lat="43.84572" lon="7.25199">
        <ele>663</ele>
        <time>0001-01-01T00:00:00</time>
      </trkpt>
      <trkpt lat="43.84558" lon="7.25207">
        <ele>663</ele>
        <time>0001-01-01T00:00:00</time>
      </trkpt>
      <trkpt lat="43.84546" lon="7.25215">
        <ele>662</ele>
        <time>0001-01-01T00:00:00</time>
      </trkpt>
      <trkpt lat="43.84534" lon="7.2522">
        <ele>661</ele>
        <time>0001-01-01T00:00:00</time>
      </trkpt>
      <trkpt lat="43.84518" lon="7.25227">
        <ele>659</ele>
        <time>0001-01-01T00:00:00</time>
      </trkpt>
      <trkpt lat="43.84509" lon="7.2523">
        <ele>658</ele>
        <time>0001-01-01T00:00:00</time>
      </trkpt>
      <trkpt lat="43.84512" lon="7.25238">
        <ele>658</ele>
        <time>0001-01-01T00:00:00</time>
      </trkpt>
      <trkpt lat="43.84523" lon="7.25242">
        <ele>660</ele>
        <time>0001-01-01T00:00:00</time>
      </trkpt>
      <trkpt lat="43.84531" lon="7.25244">
        <ele>661</ele>
        <time>0001-01-01T00:00:00</time>
      </trkpt>
      <trkpt lat="43.84544" lon="7.25252">
        <ele>659</ele>
        <time>0001-01-01T00:00:00</time>
      </trkpt>
      <trkpt lat="43.84551" lon="7.25256">
        <ele>661</ele>
        <time>0001-01-01T00:00:00</time>
      </trkpt>
      <trkpt lat="43.84563" lon="7.2526">
        <ele>663</ele>
        <time>0001-01-01T00:00:00</time>
      </trkpt>
      <trkpt lat="43.84573" lon="7.25261">
        <ele>667</ele>
        <time>0001-01-01T00:00:00</time>
      </trkpt>
      <trkpt lat="43.84583" lon="7.2526">
        <ele>669</ele>
        <time>0001-01-01T00:00:00</time>
      </trkpt>
      <trkpt lat="43.84594" lon="7.2526">
        <ele>675</ele>
        <time>0001-01-01T00:00:00</time>
      </trkpt>
      <trkpt lat="43.84605" lon="7.25261">
        <ele>675</ele>
        <time>0001-01-01T00:00:00</time>
      </trkpt>
      <trkpt lat="43.84616" lon="7.25263">
        <ele>675</ele>
        <time>0001-01-01T00:00:00</time>
      </trkpt>
      <trkpt lat="43.84627" lon="7.25264">
        <ele>676</ele>
        <time>0001-01-01T00:00:00</time>
      </trkpt>
      <trkpt lat="43.84641" lon="7.25264">
        <ele>678</ele>
        <time>0001-01-01T00:00:00</time>
      </trkpt>
      <trkpt lat="43.84652" lon="7.25266">
        <ele>679</ele>
        <time>0001-01-01T00:00:00</time>
      </trkpt>
      <trkpt lat="43.84668" lon="7.25268">
        <ele>687</ele>
        <time>0001-01-01T00:00:00</time>
      </trkpt>
      <trkpt lat="43.84683" lon="7.25271">
        <ele>686</ele>
        <time>0001-01-01T00:00:00</time>
      </trkpt>
      <trkpt lat="43.84694" lon="7.25276">
        <ele>686</ele>
        <time>0001-01-01T00:00:00</time>
      </trkpt>
      <trkpt lat="43.84696" lon="7.25276">
        <ele>686</ele>
        <time>0001-01-01T00:00:00</time>
      </trkpt>
      <trkpt lat="43.84698" lon="7.25277">
        <ele>686</ele>
        <time>0001-01-01T00:00:00</time>
      </trkpt>
      <trkpt lat="43.84699" lon="7.25277">
        <ele>686</ele>
        <time>0001-01-01T00:00:00</time>
      </trkpt>
      <trkpt lat="43.84701" lon="7.25277">
        <ele>686</ele>
        <time>0001-01-01T00:00:00</time>
      </trkpt>
      <trkpt lat="43.84705" lon="7.25276">
        <ele>687</ele>
        <time>0001-01-01T00:00:00</time>
      </trkpt>
      <trkpt lat="43.8471" lon="7.25279">
        <ele>687</ele>
        <time>0001-01-01T00:00:00</time>
      </trkpt>
      <trkpt lat="43.84727" lon="7.2529">
        <ele>687</ele>
        <time>0001-01-01T00:00:00</time>
      </trkpt>
      <trkpt lat="43.84747" lon="7.25303">
        <ele>687</ele>
        <time>0001-01-01T00:00:00</time>
      </trkpt>
      <trkpt lat="43.8477" lon="7.25317">
        <ele>697</ele>
        <time>0001-01-01T00:00:00</time>
      </trkpt>
      <trkpt lat="43.84795" lon="7.25337">
        <ele>687</ele>
        <time>0001-01-01T00:00:00</time>
      </trkpt>
      <trkpt lat="43.8483" lon="7.25366">
        <ele>688</ele>
        <time>0001-01-01T00:00:00</time>
      </trkpt>
      <trkpt lat="43.84871" lon="7.25403">
        <ele>697</ele>
        <time>0001-01-01T00:00:00</time>
      </trkpt>
      <trkpt lat="43.84906" lon="7.25431">
        <ele>681</ele>
        <time>0001-01-01T00:00:00</time>
      </trkpt>
      <trkpt lat="43.84913" lon="7.25436">
        <ele>680</ele>
        <time>0001-01-01T00:00:00</time>
      </trkpt>
      <trkpt lat="43.84936" lon="7.25447">
        <ele>687</ele>
        <time>0001-01-01T00:00:00</time>
      </trkpt>
      <trkpt lat="43.84966" lon="7.25462">
        <ele>686</ele>
        <time>0001-01-01T00:00:00</time>
      </trkpt>
      <trkpt lat="43.85007" lon="7.25494">
        <ele>687</ele>
        <time>0001-01-01T00:00:00</time>
      </trkpt>
      <trkpt lat="43.85041" lon="7.25529">
        <ele>680</ele>
        <time>0001-01-01T00:00:00</time>
      </trkpt>
      <trkpt lat="43.85059" lon="7.25546">
        <ele>681</ele>
        <time>0001-01-01T00:00:00</time>
      </trkpt>
      <trkpt lat="43.85073" lon="7.25561">
        <ele>681</ele>
        <time>0001-01-01T00:00:00</time>
      </trkpt>
      <trkpt lat="43.85074" lon="7.25563">
        <ele>681</ele>
        <time>0001-01-01T00:00:00</time>
      </trkpt>
      <trkpt lat="43.85076" lon="7.25571">
        <ele>681</ele>
        <time>0001-01-01T00:00:00</time>
      </trkpt>
      <trkpt lat="43.85068" lon="7.25582">
        <ele>680</ele>
        <time>0001-01-01T00:00:00</time>
      </trkpt>
      <trkpt lat="43.85061" lon="7.25594">
        <ele>672</ele>
        <time>0001-01-01T00:00:00</time>
      </trkpt>
      <trkpt lat="43.85053" lon="7.25612">
        <ele>669</ele>
        <time>0001-01-01T00:00:00</time>
      </trkpt>
      <trkpt lat="43.85052" lon="7.25636">
        <ele>668</ele>
        <time>0001-01-01T00:00:00</time>
      </trkpt>
      <trkpt lat="43.85055" lon="7.25673">
        <ele>669</ele>
        <time>0001-01-01T00:00:00</time>
      </trkpt>
      <trkpt lat="43.85054" lon="7.25682">
        <ele>669</ele>
        <time>0001-01-01T00:00:00</time>
      </trkpt>
      <trkpt lat="43.8506" lon="7.25729">
        <ele>670</ele>
        <time>0001-01-01T00:00:00</time>
      </trkpt>
      <trkpt lat="43.85065" lon="7.25745">
        <ele>672</ele>
        <time>0001-01-01T00:00:00</time>
      </trkpt>
      <trkpt lat="43.85067" lon="7.25769">
        <ele>674</ele>
        <time>0001-01-01T00:00:00</time>
      </trkpt>
      <trkpt lat="43.85066" lon="7.25781">
        <ele>674</ele>
        <time>0001-01-01T00:00:00</time>
      </trkpt>
      <trkpt lat="43.8507" lon="7.25803">
        <ele>674</ele>
        <time>0001-01-01T00:00:00</time>
      </trkpt>
      <trkpt lat="43.85083" lon="7.25826">
        <ele>675</ele>
        <time>0001-01-01T00:00:00</time>
      </trkpt>
      <trkpt lat="43.85086" lon="7.25837">
        <ele>679</ele>
        <time>0001-01-01T00:00:00</time>
      </trkpt>
      <trkpt lat="43.85084" lon="7.25854">
        <ele>687</ele>
        <time>0001-01-01T00:00:00</time>
      </trkpt>
      <trkpt lat="43.85075" lon="7.25855">
        <ele>681</ele>
        <time>0001-01-01T00:00:00</time>
      </trkpt>
      <trkpt lat="43.85059" lon="7.25863">
        <ele>682</ele>
        <time>0001-01-01T00:00:00</time>
      </trkpt>
      <trkpt lat="43.85049" lon="7.25864">
        <ele>683</ele>
        <time>0001-01-01T00:00:00</time>
      </trkpt>
      <trkpt lat="43.8504" lon="7.25858">
        <ele>683</ele>
        <time>0001-01-01T00:00:00</time>
      </trkpt>
      <trkpt lat="43.85035" lon="7.25857">
        <ele>683</ele>
        <time>0001-01-01T00:00:00</time>
      </trkpt>
      <trkpt lat="43.85025" lon="7.25845">
        <ele>681</ele>
        <time>0001-01-01T00:00:00</time>
      </trkpt>
      <trkpt lat="43.85018" lon="7.25842">
        <ele>681</ele>
        <time>0001-01-01T00:00:00</time>
      </trkpt>
      <trkpt lat="43.85013" lon="7.25845">
        <ele>680</ele>
        <time>0001-01-01T00:00:00</time>
      </trkpt>
      <trkpt lat="43.85011" lon="7.25854">
        <ele>682</ele>
        <time>0001-01-01T00:00:00</time>
      </trkpt>
      <trkpt lat="43.85007" lon="7.25861">
        <ele>683</ele>
        <time>0001-01-01T00:00:00</time>
      </trkpt>
      <trkpt lat="43.85002" lon="7.25868">
        <ele>684</ele>
        <time>0001-01-01T00:00:00</time>
      </trkpt>
      <trkpt lat="43.84999" lon="7.25871">
        <ele>691</ele>
        <time>0001-01-01T00:00:00</time>
      </trkpt>
      <trkpt lat="43.84995" lon="7.25881">
        <ele>693</ele>
        <time>0001-01-01T00:00:00</time>
      </trkpt>
      <trkpt lat="43.84989" lon="7.25877">
        <ele>693</ele>
        <time>0001-01-01T00:00:00</time>
      </trkpt>
      <trkpt lat="43.84987" lon="7.25879">
        <ele>693</ele>
        <time>0001-01-01T00:00:00</time>
      </trkpt>
      <trkpt lat="43.84989" lon="7.25886">
        <ele>694</ele>
        <time>0001-01-01T00:00:00</time>
      </trkpt>
      <trkpt lat="43.8499" lon="7.25891">
        <ele>695</ele>
        <time>0001-01-01T00:00:00</time>
      </trkpt>
      <trkpt lat="43.84988" lon="7.25895">
        <ele>695</ele>
        <time>0001-01-01T00:00:00</time>
      </trkpt>
      <trkpt lat="43.84983" lon="7.25891">
        <ele>695</ele>
        <time>0001-01-01T00:00:00</time>
      </trkpt>
      <trkpt lat="43.84979" lon="7.25885">
        <ele>694</ele>
        <time>0001-01-01T00:00:00</time>
      </trkpt>
      <trkpt lat="43.84974" lon="7.25882">
        <ele>694</ele>
        <time>0001-01-01T00:00:00</time>
      </trkpt>
      <trkpt lat="43.84969" lon="7.25878">
        <ele>694</ele>
        <time>0001-01-01T00:00:00</time>
      </trkpt>
      <trkpt lat="43.84966" lon="7.25873">
        <ele>694</ele>
        <time>0001-01-01T00:00:00</time>
      </trkpt>
      <trkpt lat="43.84963" lon="7.25869">
        <ele>693</ele>
        <time>0001-01-01T00:00:00</time>
      </trkpt>
      <trkpt lat="43.8496" lon="7.25866">
        <ele>693</ele>
        <time>0001-01-01T00:00:00</time>
      </trkpt>
      <trkpt lat="43.84958" lon="7.25874">
        <ele>694</ele>
        <time>0001-01-01T00:00:00</time>
      </trkpt>
      <trkpt lat="43.84954" lon="7.25878">
        <ele>695</ele>
        <time>0001-01-01T00:00:00</time>
      </trkpt>
      <trkpt lat="43.84949" lon="7.25873">
        <ele>695</ele>
        <time>0001-01-01T00:00:00</time>
      </trkpt>
      <trkpt lat="43.84945" lon="7.25879">
        <ele>696</ele>
        <time>0001-01-01T00:00:00</time>
      </trkpt>
      <trkpt lat="43.84941" lon="7.25886">
        <ele>697</ele>
        <time>0001-01-01T00:00:00</time>
      </trkpt>
      <trkpt lat="43.84935" lon="7.25888">
        <ele>698</ele>
        <time>0001-01-01T00:00:00</time>
      </trkpt>
      <trkpt lat="43.84929" lon="7.25887">
        <ele>698</ele>
        <time>0001-01-01T00:00:00</time>
      </trkpt>
      <trkpt lat="43.84925" lon="7.25886">
        <ele>698</ele>
        <time>0001-01-01T00:00:00</time>
      </trkpt>
      <trkpt lat="43.84918" lon="7.25886">
        <ele>699</ele>
        <time>0001-01-01T00:00:00</time>
      </trkpt>
      <trkpt lat="43.8491" lon="7.2589">
        <ele>699</ele>
        <time>0001-01-01T00:00:00</time>
      </trkpt>
      <trkpt lat="43.84905" lon="7.25893">
        <ele>699</ele>
        <time>0001-01-01T00:00:00</time>
      </trkpt>
      <trkpt lat="43.84899" lon="7.25899">
        <ele>699</ele>
        <time>0001-01-01T00:00:00</time>
      </trkpt>
      <trkpt lat="43.84892" lon="7.25911">
        <ele>699</ele>
        <time>0001-01-01T00:00:00</time>
      </trkpt>
      <trkpt lat="43.84887" lon="7.25923">
        <ele>707</ele>
        <time>0001-01-01T00:00:00</time>
      </trkpt>
      <trkpt lat="43.84881" lon="7.25936">
        <ele>708</ele>
        <time>0001-01-01T00:00:00</time>
      </trkpt>
      <trkpt lat="43.84876" lon="7.2595">
        <ele>709</ele>
        <time>0001-01-01T00:00:00</time>
      </trkpt>
      <trkpt lat="43.84872" lon="7.25968">
        <ele>711</ele>
        <time>0001-01-01T00:00:00</time>
      </trkpt>
      <trkpt lat="43.84866" lon="7.25987">
        <ele>712</ele>
        <time>0001-01-01T00:00:00</time>
      </trkpt>
      <trkpt lat="43.8486" lon="7.26001">
        <ele>725</ele>
        <time>0001-01-01T00:00:00</time>
      </trkpt>
      <trkpt lat="43.84853" lon="7.26014">
        <ele>726</ele>
        <time>0001-01-01T00:00:00</time>
      </trkpt>
      <trkpt lat="43.84851" lon="7.26019">
        <ele>726</ele>
        <time>0001-01-01T00:00:00</time>
      </trkpt>
      <trkpt lat="43.84845" lon="7.26022">
        <ele>726</ele>
        <time>0001-01-01T00:00:00</time>
      </trkpt>
      <trkpt lat="43.84832" lon="7.26022">
        <ele>724</ele>
        <time>0001-01-01T00:00:00</time>
      </trkpt>
      <trkpt lat="43.84826" lon="7.26023">
        <ele>724</ele>
        <time>0001-01-01T00:00:00</time>
      </trkpt>
      <trkpt lat="43.84821" lon="7.26025">
        <ele>725</ele>
        <time>0001-01-01T00:00:00</time>
      </trkpt>
      <trkpt lat="43.84819" lon="7.26025">
        <ele>725</ele>
        <time>0001-01-01T00:00:00</time>
      </trkpt>
      <trkpt lat="43.84814" lon="7.26023">
        <ele>725</ele>
        <time>0001-01-01T00:00:00</time>
      </trkpt>
      <trkpt lat="43.8481" lon="7.26023">
        <ele>725</ele>
        <time>0001-01-01T00:00:00</time>
      </trkpt>
      <trkpt lat="43.84806" lon="7.26024">
        <ele>725</ele>
        <time>0001-01-01T00:00:00</time>
      </trkpt>
      <trkpt lat="43.84797" lon="7.26028">
        <ele>726</ele>
        <time>0001-01-01T00:00:00</time>
      </trkpt>
      <trkpt lat="43.84795" lon="7.26031">
        <ele>726</ele>
        <time>0001-01-01T00:00:00</time>
      </trkpt>
      <trkpt lat="43.84786" lon="7.26039">
        <ele>727</ele>
        <time>0001-01-01T00:00:00</time>
      </trkpt>
      <trkpt lat="43.84773" lon="7.26051">
        <ele>728</ele>
        <time>0001-01-01T00:00:00</time>
      </trkpt>
      <trkpt lat="43.84767" lon="7.26057">
        <ele>729</ele>
        <time>0001-01-01T00:00:00</time>
      </trkpt>
      <trkpt lat="43.84763" lon="7.26059">
        <ele>729</ele>
        <time>0001-01-01T00:00:00</time>
      </trkpt>
      <trkpt lat="43.84757" lon="7.26065">
        <ele>730</ele>
        <time>0001-01-01T00:00:00</time>
      </trkpt>
      <trkpt lat="43.84754" lon="7.26066">
        <ele>730</ele>
        <time>0001-01-01T00:00:00</time>
      </trkpt>
      <trkpt lat="43.84741" lon="7.26071">
        <ele>732</ele>
        <time>0001-01-01T00:00:00</time>
      </trkpt>
      <trkpt lat="43.84733" lon="7.26077">
        <ele>733</ele>
        <time>0001-01-01T00:00:00</time>
      </trkpt>
      <trkpt lat="43.84726" lon="7.26082">
        <ele>733</ele>
        <time>0001-01-01T00:00:00</time>
      </trkpt>
      <trkpt lat="43.84718" lon="7.26086">
        <ele>744</ele>
        <time>0001-01-01T00:00:00</time>
      </trkpt>
      <trkpt lat="43.84708" lon="7.26097">
        <ele>746</ele>
        <time>0001-01-01T00:00:00</time>
      </trkpt>
      <trkpt lat="43.84699" lon="7.26101">
        <ele>747</ele>
        <time>0001-01-01T00:00:00</time>
      </trkpt>
      <trkpt lat="43.84697" lon="7.26103">
        <ele>747</ele>
        <time>0001-01-01T00:00:00</time>
      </trkpt>
      <trkpt lat="43.84686" lon="7.26108">
        <ele>747</ele>
        <time>0001-01-01T00:00:00</time>
      </trkpt>
      <trkpt lat="43.84679" lon="7.26122">
        <ele>749</ele>
        <time>0001-01-01T00:00:00</time>
      </trkpt>
      <trkpt lat="43.84674" lon="7.26131">
        <ele>751</ele>
        <time>0001-01-01T00:00:00</time>
      </trkpt>
      <trkpt lat="43.84665" lon="7.26134">
        <ele>755</ele>
        <time>0001-01-01T00:00:00</time>
      </trkpt>
      <trkpt lat="43.8466" lon="7.26142">
        <ele>756</ele>
        <time>0001-01-01T00:00:00</time>
      </trkpt>
      <trkpt lat="43.84659" lon="7.26143">
        <ele>756</ele>
        <time>0001-01-01T00:00:00</time>
      </trkpt>
      <trkpt lat="43.8465" lon="7.26148">
        <ele>757</ele>
        <time>0001-01-01T00:00:00</time>
      </trkpt>
      <trkpt lat="43.84649" lon="7.26148">
        <ele>757</ele>
        <time>0001-01-01T00:00:00</time>
      </trkpt>
      <trkpt lat="43.84637" lon="7.26148">
        <ele>756</ele>
        <time>0001-01-01T00:00:00</time>
      </trkpt>
      <trkpt lat="43.84627" lon="7.26148">
        <ele>757</ele>
        <time>0001-01-01T00:00:00</time>
      </trkpt>
      <trkpt lat="43.84612" lon="7.26149">
        <ele>757</ele>
        <time>0001-01-01T00:00:00</time>
      </trkpt>
      <trkpt lat="43.8461" lon="7.26149">
        <ele>757</ele>
        <time>0001-01-01T00:00:00</time>
      </trkpt>
      <trkpt lat="43.84603" lon="7.26145">
        <ele>757</ele>
        <time>0001-01-01T00:00:00</time>
      </trkpt>
      <trkpt lat="43.84602" lon="7.26152">
        <ele>757</ele>
        <time>0001-01-01T00:00:00</time>
      </trkpt>
      <trkpt lat="43.84602" lon="7.26157">
        <ele>757</ele>
        <time>0001-01-01T00:00:00</time>
      </trkpt>
      <trkpt lat="43.84602" lon="7.26158">
        <ele>757</ele>
        <time>0001-01-01T00:00:00</time>
      </trkpt>
      <trkpt lat="43.84604" lon="7.26163">
        <ele>757</ele>
        <time>0001-01-01T00:00:00</time>
      </trkpt>
      <trkpt lat="43.84604" lon="7.26162">
        <ele>757</ele>
        <time>0001-01-01T00:00:00</time>
      </trkpt>
      <trkpt lat="43.84604" lon="7.26163">
        <ele>757</ele>
        <time>0001-01-01T00:00:00</time>
      </trkpt>
      <trkpt lat="43.84603" lon="7.26164">
        <ele>757</ele>
        <time>0001-01-01T00:00:00</time>
      </trkpt>
      <trkpt lat="43.84601" lon="7.26163">
        <ele>757</ele>
        <time>0001-01-01T00:00:00</time>
      </trkpt>
      <trkpt lat="43.846" lon="7.26166">
        <ele>757</ele>
        <time>0001-01-01T00:00:00</time>
      </trkpt>
      <trkpt lat="43.84598" lon="7.26172">
        <ele>761</ele>
        <time>0001-01-01T00:00:00</time>
      </trkpt>
      <trkpt lat="43.84591" lon="7.26182">
        <ele>762</ele>
        <time>0001-01-01T00:00:00</time>
      </trkpt>
      <trkpt lat="43.84589" lon="7.26193">
        <ele>763</ele>
        <time>0001-01-01T00:00:00</time>
      </trkpt>
      <trkpt lat="43.84586" lon="7.26205">
        <ele>764</ele>
        <time>0001-01-01T00:00:00</time>
      </trkpt>
      <trkpt lat="43.84586" lon="7.26207">
        <ele>765</ele>
        <time>0001-01-01T00:00:00</time>
      </trkpt>
      <trkpt lat="43.84579" lon="7.26226">
        <ele>757</ele>
        <time>0001-01-01T00:00:00</time>
      </trkpt>
      <trkpt lat="43.84575" lon="7.26241">
        <ele>760</ele>
        <time>0001-01-01T00:00:00</time>
      </trkpt>
      <trkpt lat="43.84569" lon="7.26255">
        <ele>765</ele>
        <time>0001-01-01T00:00:00</time>
      </trkpt>
      <trkpt lat="43.84565" lon="7.2627">
        <ele>766</ele>
        <time>0001-01-01T00:00:00</time>
      </trkpt>
      <trkpt lat="43.84565" lon="7.26272">
        <ele>766</ele>
        <time>0001-01-01T00:00:00</time>
      </trkpt>
      <trkpt lat="43.84563" lon="7.26287">
        <ele>768</ele>
        <time>0001-01-01T00:00:00</time>
      </trkpt>
      <trkpt lat="43.84554" lon="7.26298">
        <ele>768</ele>
        <time>0001-01-01T00:00:00</time>
      </trkpt>
      <trkpt lat="43.84545" lon="7.26309">
        <ele>768</ele>
        <time>0001-01-01T00:00:00</time>
      </trkpt>
      <trkpt lat="43.8454" lon="7.26313">
        <ele>768</ele>
        <time>0001-01-01T00:00:00</time>
      </trkpt>
      <trkpt lat="43.84537" lon="7.26317">
        <ele>768</ele>
        <time>0001-01-01T00:00:00</time>
      </trkpt>
      <trkpt lat="43.84531" lon="7.26325">
        <ele>767</ele>
        <time>0001-01-01T00:00:00</time>
      </trkpt>
      <trkpt lat="43.84525" lon="7.2633">
        <ele>766</ele>
        <time>0001-01-01T00:00:00</time>
      </trkpt>
      <trkpt lat="43.84522" lon="7.2633">
        <ele>766</ele>
        <time>0001-01-01T00:00:00</time>
      </trkpt>
      <trkpt lat="43.84516" lon="7.26338">
        <ele>778</ele>
        <time>0001-01-01T00:00:00</time>
      </trkpt>
      <trkpt lat="43.84509" lon="7.26352">
        <ele>781</ele>
        <time>0001-01-01T00:00:00</time>
      </trkpt>
      <trkpt lat="43.84501" lon="7.26364">
        <ele>785</ele>
        <time>0001-01-01T00:00:00</time>
      </trkpt>
      <trkpt lat="43.84481" lon="7.26373">
        <ele>766</ele>
        <time>0001-01-01T00:00:00</time>
      </trkpt>
      <trkpt lat="43.8447" lon="7.26388">
        <ele>767</ele>
        <time>0001-01-01T00:00:00</time>
      </trkpt>
      <trkpt lat="43.84462" lon="7.26403">
        <ele>768</ele>
        <time>0001-01-01T00:00:00</time>
      </trkpt>
      <trkpt lat="43.84457" lon="7.26409">
        <ele>767</ele>
        <time>0001-01-01T00:00:00</time>
      </trkpt>
      <trkpt lat="43.84453" lon="7.26412">
        <ele>767</ele>
        <time>0001-01-01T00:00:00</time>
      </trkpt>
      <trkpt lat="43.84446" lon="7.26418">
        <ele>785</ele>
        <time>0001-01-01T00:00:00</time>
      </trkpt>
      <trkpt lat="43.84443" lon="7.26425">
        <ele>784</ele>
        <time>0001-01-01T00:00:00</time>
      </trkpt>
      <trkpt lat="43.84439" lon="7.26429">
        <ele>784</ele>
        <time>0001-01-01T00:00:00</time>
      </trkpt>
      <trkpt lat="43.84436" lon="7.26433">
        <ele>784</ele>
        <time>0001-01-01T00:00:00</time>
      </trkpt>
      <trkpt lat="43.84433" lon="7.26438">
        <ele>784</ele>
        <time>0001-01-01T00:00:00</time>
      </trkpt>
      <trkpt lat="43.84427" lon="7.26439">
        <ele>783</ele>
        <time>0001-01-01T00:00:00</time>
      </trkpt>
      <trkpt lat="43.84424" lon="7.2644">
        <ele>783</ele>
        <time>0001-01-01T00:00:00</time>
      </trkpt>
      <trkpt lat="43.8442" lon="7.2644">
        <ele>782</ele>
        <time>0001-01-01T00:00:00</time>
      </trkpt>
      <trkpt lat="43.84418" lon="7.26444">
        <ele>784</ele>
        <time>0001-01-01T00:00:00</time>
      </trkpt>
      <trkpt lat="43.84411" lon="7.26448">
        <ele>765</ele>
        <time>0001-01-01T00:00:00</time>
      </trkpt>
      <trkpt lat="43.84401" lon="7.26457">
        <ele>767</ele>
        <time>0001-01-01T00:00:00</time>
      </trkpt>
      <trkpt lat="43.84395" lon="7.2647">
        <ele>769</ele>
        <time>0001-01-01T00:00:00</time>
      </trkpt>
      <trkpt lat="43.84393" lon="7.26476">
        <ele>770</ele>
        <time>0001-01-01T00:00:00</time>
      </trkpt>
      <trkpt lat="43.84389" lon="7.2648">
        <ele>770</ele>
        <time>0001-01-01T00:00:00</time>
      </trkpt>
      <trkpt lat="43.84387" lon="7.26484">
        <ele>771</ele>
        <time>0001-01-01T00:00:00</time>
      </trkpt>
      <trkpt lat="43.84385" lon="7.26485">
        <ele>770</ele>
        <time>0001-01-01T00:00:00</time>
      </trkpt>
      <trkpt lat="43.84382" lon="7.26488">
        <ele>770</ele>
        <time>0001-01-01T00:00:00</time>
      </trkpt>
      <trkpt lat="43.84376" lon="7.26494">
        <ele>768</ele>
        <time>0001-01-01T00:00:00</time>
      </trkpt>
      <trkpt lat="43.84373" lon="7.26496">
        <ele>768</ele>
        <time>0001-01-01T00:00:00</time>
      </trkpt>
      <trkpt lat="43.84368" lon="7.26504">
        <ele>783</ele>
        <time>0001-01-01T00:00:00</time>
      </trkpt>
      <trkpt lat="43.84364" lon="7.26508">
        <ele>781</ele>
        <time>0001-01-01T00:00:00</time>
      </trkpt>
      <trkpt lat="43.84357" lon="7.26519">
        <ele>781</ele>
        <time>0001-01-01T00:00:00</time>
      </trkpt>
      <trkpt lat="43.84355" lon="7.26528">
        <ele>782</ele>
        <time>0001-01-01T00:00:00</time>
      </trkpt>
      <trkpt lat="43.84357" lon="7.2654">
        <ele>784</ele>
        <time>0001-01-01T00:00:00</time>
      </trkpt>
      <trkpt lat="43.84358" lon="7.26547">
        <ele>785</ele>
        <time>0001-01-01T00:00:00</time>
      </trkpt>
      <trkpt lat="43.84361" lon="7.26551">
        <ele>786</ele>
        <time>0001-01-01T00:00:00</time>
      </trkpt>
      <trkpt lat="43.84362" lon="7.26555">
        <ele>787</ele>
        <time>0001-01-01T00:00:00</time>
      </trkpt>
      <trkpt lat="43.84366" lon="7.26565">
        <ele>788</ele>
        <time>0001-01-01T00:00:00</time>
      </trkpt>
      <trkpt lat="43.84367" lon="7.26571">
        <ele>788</ele>
        <time>0001-01-01T00:00:00</time>
      </trkpt>
      <trkpt lat="43.84373" lon="7.26586">
        <ele>801</ele>
        <time>0001-01-01T00:00:00</time>
      </trkpt>
      <trkpt lat="43.84381" lon="7.26597">
        <ele>804</ele>
        <time>0001-01-01T00:00:00</time>
      </trkpt>
      <trkpt lat="43.84388" lon="7.26609">
        <ele>806</ele>
        <time>0001-01-01T00:00:00</time>
      </trkpt>
      <trkpt lat="43.84394" lon="7.26619">
        <ele>807</ele>
        <time>0001-01-01T00:00:00</time>
      </trkpt>
      <trkpt lat="43.84396" lon="7.26626">
        <ele>808</ele>
        <time>0001-01-01T00:00:00</time>
      </trkpt>
      <trkpt lat="43.84396" lon="7.26637">
        <ele>809</ele>
        <time>0001-01-01T00:00:00</time>
      </trkpt>
      <trkpt lat="43.84395" lon="7.2664">
        <ele>809</ele>
        <time>0001-01-01T00:00:00</time>
      </trkpt>
      <trkpt lat="43.84387" lon="7.26646">
        <ele>808</ele>
        <time>0001-01-01T00:00:00</time>
      </trkpt>
      <trkpt lat="43.84375" lon="7.26652">
        <ele>807</ele>
        <time>0001-01-01T00:00:00</time>
      </trkpt>
      <trkpt lat="43.84373" lon="7.26653">
        <ele>806</ele>
        <time>0001-01-01T00:00:00</time>
      </trkpt>
      <trkpt lat="43.8437" lon="7.26657">
        <ele>806</ele>
        <time>0001-01-01T00:00:00</time>
      </trkpt>
      <trkpt lat="43.84366" lon="7.26658">
        <ele>806</ele>
        <time>0001-01-01T00:00:00</time>
      </trkpt>
      <trkpt lat="43.84363" lon="7.26659">
        <ele>805</ele>
        <time>0001-01-01T00:00:00</time>
      </trkpt>
      <trkpt lat="43.84357" lon="7.26666">
        <ele>805</ele>
        <time>0001-01-01T00:00:00</time>
      </trkpt>
      <trkpt lat="43.84351" lon="7.26665">
        <ele>804</ele>
        <time>0001-01-01T00:00:00</time>
      </trkpt>
      <trkpt lat="43.84339" lon="7.26666">
        <ele>803</ele>
        <time>0001-01-01T00:00:00</time>
      </trkpt>
      <trkpt lat="43.8433" lon="7.2667">
        <ele>805</ele>
        <time>0001-01-01T00:00:00</time>
      </trkpt>
      <trkpt lat="43.84319" lon="7.26675">
        <ele>807</ele>
        <time>0001-01-01T00:00:00</time>
      </trkpt>
      <trkpt lat="43.84312" lon="7.26678">
        <ele>808</ele>
        <time>0001-01-01T00:00:00</time>
      </trkpt>
      <trkpt lat="43.84305" lon="7.26679">
        <ele>808</ele>
        <time>0001-01-01T00:00:00</time>
      </trkpt>
      <trkpt lat="43.84294" lon="7.26684">
        <ele>808</ele>
        <time>0001-01-01T00:00:00</time>
      </trkpt>
      <trkpt lat="43.84286" lon="7.26691">
        <ele>808</ele>
        <time>0001-01-01T00:00:00</time>
      </trkpt>
      <trkpt lat="43.84281" lon="7.26695">
        <ele>809</ele>
        <time>0001-01-01T00:00:00</time>
      </trkpt>
      <trkpt lat="43.84273" lon="7.267">
        <ele>809</ele>
        <time>0001-01-01T00:00:00</time>
      </trkpt>
      <trkpt lat="43.8427" lon="7.26703">
        <ele>809</ele>
        <time>0001-01-01T00:00:00</time>
      </trkpt>
      <trkpt lat="43.84262" lon="7.26706">
        <ele>810</ele>
        <time>0001-01-01T00:00:00</time>
      </trkpt>
      <trkpt lat="43.84253" lon="7.26712">
        <ele>811</ele>
        <time>0001-01-01T00:00:00</time>
      </trkpt>
      <trkpt lat="43.84246" lon="7.26717">
        <ele>804</ele>
        <time>0001-01-01T00:00:00</time>
      </trkpt>
      <trkpt lat="43.84246" lon="7.26719">
        <ele>804</ele>
        <time>0001-01-01T00:00:00</time>
      </trkpt>
      <trkpt lat="43.84241" lon="7.26722">
        <ele>805</ele>
        <time>0001-01-01T00:00:00</time>
      </trkpt>
      <trkpt lat="43.84238" lon="7.26724">
        <ele>806</ele>
        <time>0001-01-01T00:00:00</time>
      </trkpt>
      <trkpt lat="43.84235" lon="7.26727">
        <ele>806</ele>
        <time>0001-01-01T00:00:00</time>
      </trkpt>
      <trkpt lat="43.8423" lon="7.2673">
        <ele>806</ele>
        <time>0001-01-01T00:00:00</time>
      </trkpt>
      <trkpt lat="43.84227" lon="7.26732">
        <ele>806</ele>
        <time>0001-01-01T00:00:00</time>
      </trkpt>
      <trkpt lat="43.84224" lon="7.26738">
        <ele>807</ele>
        <time>0001-01-01T00:00:00</time>
      </trkpt>
      <trkpt lat="43.84222" lon="7.26739">
        <ele>806</ele>
        <time>0001-01-01T00:00:00</time>
      </trkpt>
      <trkpt lat="43.84215" lon="7.26746">
        <ele>805</ele>
        <time>0001-01-01T00:00:00</time>
      </trkpt>
      <trkpt lat="43.84209" lon="7.26756">
        <ele>826</ele>
        <time>0001-01-01T00:00:00</time>
      </trkpt>
      <trkpt lat="43.84208" lon="7.26758">
        <ele>826</ele>
        <time>0001-01-01T00:00:00</time>
      </trkpt>
      <trkpt lat="43.84203" lon="7.26762">
        <ele>826</ele>
        <time>0001-01-01T00:00:00</time>
      </trkpt>
      <trkpt lat="43.84196" lon="7.2677">
        <ele>826</ele>
        <time>0001-01-01T00:00:00</time>
      </trkpt>
      <trkpt lat="43.84192" lon="7.26776">
        <ele>826</ele>
        <time>0001-01-01T00:00:00</time>
      </trkpt>
      <trkpt lat="43.84187" lon="7.26783">
        <ele>828</ele>
        <time>0001-01-01T00:00:00</time>
      </trkpt>
      <trkpt lat="43.84183" lon="7.26788">
        <ele>828</ele>
        <time>0001-01-01T00:00:00</time>
      </trkpt>
      <trkpt lat="43.84179" lon="7.26791">
        <ele>829</ele>
        <time>0001-01-01T00:00:00</time>
      </trkpt>
      <trkpt lat="43.84171" lon="7.26801">
        <ele>831</ele>
        <time>0001-01-01T00:00:00</time>
      </trkpt>
      <trkpt lat="43.84163" lon="7.2681">
        <ele>822</ele>
        <time>0001-01-01T00:00:00</time>
      </trkpt>
      <trkpt lat="43.84161" lon="7.26812">
        <ele>823</ele>
        <time>0001-01-01T00:00:00</time>
      </trkpt>
      <trkpt lat="43.84156" lon="7.26819">
        <ele>825</ele>
        <time>0001-01-01T00:00:00</time>
      </trkpt>
      <trkpt lat="43.8415" lon="7.26829">
        <ele>826</ele>
        <time>0001-01-01T00:00:00</time>
      </trkpt>
      <trkpt lat="43.84146" lon="7.26836">
        <ele>840</ele>
        <time>0001-01-01T00:00:00</time>
      </trkpt>
      <trkpt lat="43.84142" lon="7.26842">
        <ele>841</ele>
        <time>0001-01-01T00:00:00</time>
      </trkpt>
      <trkpt lat="43.84138" lon="7.26843">
        <ele>840</ele>
        <time>0001-01-01T00:00:00</time>
      </trkpt>
      <trkpt lat="43.84134" lon="7.26846">
        <ele>840</ele>
        <time>0001-01-01T00:00:00</time>
      </trkpt>
      <trkpt lat="43.84129" lon="7.26854">
        <ele>840</ele>
        <time>0001-01-01T00:00:00</time>
      </trkpt>
      <trkpt lat="43.84124" lon="7.2686">
        <ele>841</ele>
        <time>0001-01-01T00:00:00</time>
      </trkpt>
      <trkpt lat="43.84118" lon="7.26864">
        <ele>841</ele>
        <time>0001-01-01T00:00:00</time>
      </trkpt>
      <trkpt lat="43.84118" lon="7.26865">
        <ele>841</ele>
        <time>0001-01-01T00:00:00</time>
      </trkpt>
      <trkpt lat="43.84113" lon="7.26868">
        <ele>841</ele>
        <time>0001-01-01T00:00:00</time>
      </trkpt>
      <trkpt lat="43.84106" lon="7.26874">
        <ele>841</ele>
        <time>0001-01-01T00:00:00</time>
      </trkpt>
      <trkpt lat="43.84101" lon="7.26876">
        <ele>841</ele>
        <time>0001-01-01T00:00:00</time>
      </trkpt>
      <trkpt lat="43.84096" lon="7.26881">
        <ele>842</ele>
        <time>0001-01-01T00:00:00</time>
      </trkpt>
      <trkpt lat="43.84092" lon="7.26887">
        <ele>843</ele>
        <time>0001-01-01T00:00:00</time>
      </trkpt>
      <trkpt lat="43.84089" lon="7.26891">
        <ele>844</ele>
        <time>0001-01-01T00:00:00</time>
      </trkpt>
      <trkpt lat="43.84082" lon="7.26895">
        <ele>834</ele>
        <time>0001-01-01T00:00:00</time>
      </trkpt>
      <trkpt lat="43.84077" lon="7.26897">
        <ele>834</ele>
        <time>0001-01-01T00:00:00</time>
      </trkpt>
      <trkpt lat="43.84073" lon="7.26899">
        <ele>834</ele>
        <time>0001-01-01T00:00:00</time>
      </trkpt>
      <trkpt lat="43.84068" lon="7.26907">
        <ele>835</ele>
        <time>0001-01-01T00:00:00</time>
      </trkpt>
      <trkpt lat="43.84067" lon="7.26913">
        <ele>836</ele>
        <time>0001-01-01T00:00:00</time>
      </trkpt>
      <trkpt lat="43.8406" lon="7.26922">
        <ele>849</ele>
        <time>0001-01-01T00:00:00</time>
      </trkpt>
      <trkpt lat="43.84058" lon="7.26923">
        <ele>849</ele>
        <time>0001-01-01T00:00:00</time>
      </trkpt>
      <trkpt lat="43.84053" lon="7.26935">
        <ele>850</ele>
        <time>0001-01-01T00:00:00</time>
      </trkpt>
      <trkpt lat="43.84048" lon="7.26943">
        <ele>851</ele>
        <time>0001-01-01T00:00:00</time>
      </trkpt>
      <trkpt lat="43.84043" lon="7.2695">
        <ele>851</ele>
        <time>0001-01-01T00:00:00</time>
      </trkpt>
      <trkpt lat="43.84037" lon="7.26955">
        <ele>851</ele>
        <time>0001-01-01T00:00:00</time>
      </trkpt>
      <trkpt lat="43.84032" lon="7.26962">
        <ele>852</ele>
        <time>0001-01-01T00:00:00</time>
      </trkpt>
      <trkpt lat="43.84029" lon="7.26968">
        <ele>852</ele>
        <time>0001-01-01T00:00:00</time>
      </trkpt>
      <trkpt lat="43.84029" lon="7.26976">
        <ele>853</ele>
        <time>0001-01-01T00:00:00</time>
      </trkpt>
      <trkpt lat="43.84025" lon="7.26982">
        <ele>854</ele>
        <time>0001-01-01T00:00:00</time>
      </trkpt>
      <trkpt lat="43.84019" lon="7.26989">
        <ele>854</ele>
        <time>0001-01-01T00:00:00</time>
      </trkpt>
      <trkpt lat="43.84016" lon="7.26993">
        <ele>854</ele>
        <time>0001-01-01T00:00:00</time>
      </trkpt>
      <trkpt lat="43.84014" lon="7.26994">
        <ele>854</ele>
        <time>0001-01-01T00:00:00</time>
      </trkpt>
      <trkpt lat="43.8401" lon="7.27">
        <ele>854</ele>
        <time>0001-01-01T00:00:00</time>
      </trkpt>
      <trkpt lat="43.84008" lon="7.27003">
        <ele>861</ele>
        <time>0001-01-01T00:00:00</time>
      </trkpt>
      <trkpt lat="43.84007" lon="7.2701">
        <ele>864</ele>
        <time>0001-01-01T00:00:00</time>
      </trkpt>
      <trkpt lat="43.83998" lon="7.27018">
        <ele>858</ele>
        <time>0001-01-01T00:00:00</time>
      </trkpt>
      <trkpt lat="43.83993" lon="7.27029">
        <ele>860</ele>
        <time>0001-01-01T00:00:00</time>
      </trkpt>
      <trkpt lat="43.83987" lon="7.27042">
        <ele>862</ele>
        <time>0001-01-01T00:00:00</time>
      </trkpt>
      <trkpt lat="43.83986" lon="7.27045">
        <ele>863</ele>
        <time>0001-01-01T00:00:00</time>
      </trkpt>
      <trkpt lat="43.83979" lon="7.27055">
        <ele>864</ele>
        <time>0001-01-01T00:00:00</time>
      </trkpt>
      <trkpt lat="43.83973" lon="7.27059">
        <ele>864</ele>
        <time>0001-01-01T00:00:00</time>
      </trkpt>
      <trkpt lat="43.83967" lon="7.27061">
        <ele>864</ele>
        <time>0001-01-01T00:00:00</time>
      </trkpt>
      <trkpt lat="43.83965" lon="7.27063">
        <ele>864</ele>
        <time>0001-01-01T00:00:00</time>
      </trkpt>
      <trkpt lat="43.83961" lon="7.27065">
        <ele>863</ele>
        <time>0001-01-01T00:00:00</time>
      </trkpt>
      <trkpt lat="43.83955" lon="7.27068">
        <ele>863</ele>
        <time>0001-01-01T00:00:00</time>
      </trkpt>
      <trkpt lat="43.83946" lon="7.27077">
        <ele>863</ele>
        <time>0001-01-01T00:00:00</time>
      </trkpt>
      <trkpt lat="43.83943" lon="7.27077">
        <ele>863</ele>
        <time>0001-01-01T00:00:00</time>
      </trkpt>
      <trkpt lat="43.83939" lon="7.27076">
        <ele>863</ele>
        <time>0001-01-01T00:00:00</time>
      </trkpt>
      <trkpt lat="43.83938" lon="7.27078">
        <ele>863</ele>
        <time>0001-01-01T00:00:00</time>
      </trkpt>
      <trkpt lat="43.83945" lon="7.27089">
        <ele>878</ele>
        <time>0001-01-01T00:00:00</time>
      </trkpt>
      <trkpt lat="43.83943" lon="7.27088">
        <ele>877</ele>
        <time>0001-01-01T00:00:00</time>
      </trkpt>
      <trkpt lat="43.83938" lon="7.27092">
        <ele>876</ele>
        <time>0001-01-01T00:00:00</time>
      </trkpt>
      <trkpt lat="43.83937" lon="7.27092">
        <ele>876</ele>
        <time>0001-01-01T00:00:00</time>
      </trkpt>
      <trkpt lat="43.83926" lon="7.27094">
        <ele>873</ele>
        <time>0001-01-01T00:00:00</time>
      </trkpt>
      <trkpt lat="43.83916" lon="7.27096">
        <ele>868</ele>
        <time>0001-01-01T00:00:00</time>
      </trkpt>
      <trkpt lat="43.839" lon="7.27101">
        <ele>870</ele>
        <time>0001-01-01T00:00:00</time>
      </trkpt>
      <trkpt lat="43.83885" lon="7.27109">
        <ele>871</ele>
        <time>0001-01-01T00:00:00</time>
      </trkpt>
      <trkpt lat="43.83871" lon="7.27113">
        <ele>871</ele>
        <time>0001-01-01T00:00:00</time>
      </trkpt>
      <trkpt lat="43.83852" lon="7.27124">
        <ele>871</ele>
        <time>0001-01-01T00:00:00</time>
      </trkpt>
      <trkpt lat="43.83833" lon="7.27122">
        <ele>872</ele>
        <time>0001-01-01T00:00:00</time>
      </trkpt>
      <trkpt lat="43.83826" lon="7.27121">
        <ele>872</ele>
        <time>0001-01-01T00:00:00</time>
      </trkpt>
      <trkpt lat="43.83819" lon="7.27111">
        <ele>871</ele>
        <time>0001-01-01T00:00:00</time>
      </trkpt>
      <trkpt lat="43.83815" lon="7.27102">
        <ele>870</ele>
        <time>0001-01-01T00:00:00</time>
      </trkpt>
      <trkpt lat="43.83807" lon="7.27097">
        <ele>870</ele>
        <time>0001-01-01T00:00:00</time>
      </trkpt>
      <trkpt lat="43.83799" lon="7.27091">
        <ele>871</ele>
        <time>0001-01-01T00:00:00</time>
      </trkpt>
      <trkpt lat="43.83791" lon="7.27088">
        <ele>871</ele>
        <time>0001-01-01T00:00:00</time>
      </trkpt>
      <trkpt lat="43.83783" lon="7.27082">
        <ele>859</ele>
        <time>0001-01-01T00:00:00</time>
      </trkpt>
      <trkpt lat="43.83779" lon="7.27081">
        <ele>860</ele>
        <time>0001-01-01T00:00:00</time>
      </trkpt>
      <trkpt lat="43.83762" lon="7.2708">
        <ele>863</ele>
        <time>0001-01-01T00:00:00</time>
      </trkpt>
      <trkpt lat="43.8376" lon="7.2708">
        <ele>864</ele>
        <time>0001-01-01T00:00:00</time>
      </trkpt>
      <trkpt lat="43.83752" lon="7.27084">
        <ele>870</ele>
        <time>0001-01-01T00:00:00</time>
      </trkpt>
      <trkpt lat="43.8375" lon="7.27083">
        <ele>869</ele>
        <time>0001-01-01T00:00:00</time>
      </trkpt>
      <trkpt lat="43.83741" lon="7.27083">
        <ele>867</ele>
        <time>0001-01-01T00:00:00</time>
      </trkpt>
      <trkpt lat="43.83728" lon="7.27086">
        <ele>876</ele>
        <time>0001-01-01T00:00:00</time>
      </trkpt>
      <trkpt lat="43.8372" lon="7.27084">
        <ele>877</ele>
        <time>0001-01-01T00:00:00</time>
      </trkpt>
      <trkpt lat="43.83714" lon="7.27085">
        <ele>877</ele>
        <time>0001-01-01T00:00:00</time>
      </trkpt>
      <trkpt lat="43.83708" lon="7.27089">
        <ele>878</ele>
        <time>0001-01-01T00:00:00</time>
      </trkpt>
      <trkpt lat="43.83698" lon="7.271">
        <ele>878</ele>
        <time>0001-01-01T00:00:00</time>
      </trkpt>
      <trkpt lat="43.83691" lon="7.271">
        <ele>878</ele>
        <time>0001-01-01T00:00:00</time>
      </trkpt>
      <trkpt lat="43.83679" lon="7.27101">
        <ele>878</ele>
        <time>0001-01-01T00:00:00</time>
      </trkpt>
      <trkpt lat="43.83664" lon="7.27103">
        <ele>877</ele>
        <time>0001-01-01T00:00:00</time>
      </trkpt>
      <trkpt lat="43.83659" lon="7.27106">
        <ele>878</ele>
        <time>0001-01-01T00:00:00</time>
      </trkpt>
      <trkpt lat="43.83652" lon="7.2711">
        <ele>879</ele>
        <time>0001-01-01T00:00:00</time>
      </trkpt>
      <trkpt lat="43.83644" lon="7.27114">
        <ele>880</ele>
        <time>0001-01-01T00:00:00</time>
      </trkpt>
      <trkpt lat="43.8364" lon="7.27117">
        <ele>880</ele>
        <time>0001-01-01T00:00:00</time>
      </trkpt>
      <trkpt lat="43.83634" lon="7.27123">
        <ele>881</ele>
        <time>0001-01-01T00:00:00</time>
      </trkpt>
      <trkpt lat="43.83624" lon="7.27133">
        <ele>882</ele>
        <time>0001-01-01T00:00:00</time>
      </trkpt>
      <trkpt lat="43.83611" lon="7.27139">
        <ele>883</ele>
        <time>0001-01-01T00:00:00</time>
      </trkpt>
      <trkpt lat="43.83603" lon="7.27147">
        <ele>884</ele>
        <time>0001-01-01T00:00:00</time>
      </trkpt>
      <trkpt lat="43.83586" lon="7.2715">
        <ele>885</ele>
        <time>0001-01-01T00:00:00</time>
      </trkpt>
      <trkpt lat="43.83582" lon="7.27151">
        <ele>885</ele>
        <time>0001-01-01T00:00:00</time>
      </trkpt>
      <trkpt lat="43.83567" lon="7.27149">
        <ele>883</ele>
        <time>0001-01-01T00:00:00</time>
      </trkpt>
      <trkpt lat="43.83553" lon="7.2715">
        <ele>882</ele>
        <time>0001-01-01T00:00:00</time>
      </trkpt>
      <trkpt lat="43.83537" lon="7.27149">
        <ele>882</ele>
        <time>0001-01-01T00:00:00</time>
      </trkpt>
      <trkpt lat="43.83524" lon="7.2715">
        <ele>883</ele>
        <time>0001-01-01T00:00:00</time>
      </trkpt>
      <trkpt lat="43.83512" lon="7.27153">
        <ele>884</ele>
        <time>0001-01-01T00:00:00</time>
      </trkpt>
      <trkpt lat="43.83507" lon="7.27157">
        <ele>886</ele>
        <time>0001-01-01T00:00:00</time>
      </trkpt>
      <trkpt lat="43.83495" lon="7.27163">
        <ele>886</ele>
        <time>0001-01-01T00:00:00</time>
      </trkpt>
      <trkpt lat="43.83488" lon="7.27167">
        <ele>891</ele>
        <time>0001-01-01T00:00:00</time>
      </trkpt>
      <trkpt lat="43.83474" lon="7.27172">
        <ele>891</ele>
        <time>0001-01-01T00:00:00</time>
      </trkpt>
      <trkpt lat="43.83464" lon="7.27176">
        <ele>890</ele>
        <time>0001-01-01T00:00:00</time>
      </trkpt>
      <trkpt lat="43.83459" lon="7.27181">
        <ele>890</ele>
        <time>0001-01-01T00:00:00</time>
      </trkpt>
      <trkpt lat="43.83445" lon="7.27187">
        <ele>889</ele>
        <time>0001-01-01T00:00:00</time>
      </trkpt>
      <trkpt lat="43.83434" lon="7.27194">
        <ele>888</ele>
        <time>0001-01-01T00:00:00</time>
      </trkpt>
      <trkpt lat="43.83426" lon="7.27202">
        <ele>889</ele>
        <time>0001-01-01T00:00:00</time>
      </trkpt>
      <trkpt lat="43.83421" lon="7.27208">
        <ele>890</ele>
        <time>0001-01-01T00:00:00</time>
      </trkpt>
      <trkpt lat="43.83414" lon="7.27219">
        <ele>876</ele>
        <time>0001-01-01T00:00:00</time>
      </trkpt>
      <trkpt lat="43.83406" lon="7.27228">
        <ele>877</ele>
        <time>0001-01-01T00:00:00</time>
      </trkpt>
      <trkpt lat="43.83397" lon="7.27243">
        <ele>879</ele>
        <time>0001-01-01T00:00:00</time>
      </trkpt>
      <trkpt lat="43.83392" lon="7.27253">
        <ele>886</ele>
        <time>0001-01-01T00:00:00</time>
      </trkpt>
      <trkpt lat="43.83374" lon="7.27273">
        <ele>882</ele>
        <time>0001-01-01T00:00:00</time>
      </trkpt>
      <trkpt lat="43.83366" lon="7.2729">
        <ele>882</ele>
        <time>0001-01-01T00:00:00</time>
      </trkpt>
      <trkpt lat="43.8336" lon="7.27312">
        <ele>883</ele>
        <time>0001-01-01T00:00:00</time>
      </trkpt>
      <trkpt lat="43.83351" lon="7.27326">
        <ele>882</ele>
        <time>0001-01-01T00:00:00</time>
      </trkpt>
      <trkpt lat="43.83342" lon="7.27336">
        <ele>880</ele>
        <time>0001-01-01T00:00:00</time>
      </trkpt>
      <trkpt lat="43.83335" lon="7.27356">
        <ele>879</ele>
        <time>0001-01-01T00:00:00</time>
      </trkpt>
      <trkpt lat="43.83333" lon="7.27376">
        <ele>871</ele>
        <time>0001-01-01T00:00:00</time>
      </trkpt>
      <trkpt lat="43.83332" lon="7.27388">
        <ele>870</ele>
        <time>0001-01-01T00:00:00</time>
      </trkpt>
      <trkpt lat="43.83331" lon="7.27392">
        <ele>870</ele>
        <time>0001-01-01T00:00:00</time>
      </trkpt>
      <trkpt lat="43.83332" lon="7.27396">
        <ele>870</ele>
        <time>0001-01-01T00:00:00</time>
      </trkpt>
      <trkpt lat="43.83332" lon="7.27396">
        <ele>870</ele>
        <time>0001-01-01T00:00:00</time>
      </trkpt>
      <trkpt lat="43.83333" lon="7.27397">
        <ele>870</ele>
        <time>0001-01-01T00:00:00</time>
      </trkpt>
      <trkpt lat="43.83334" lon="7.27398">
        <ele>874</ele>
        <time>0001-01-01T00:00:00</time>
      </trkpt>
      <trkpt lat="43.83346" lon="7.27397">
        <ele>875</ele>
        <time>0001-01-01T00:00:00</time>
      </trkpt>
      <trkpt lat="43.83362" lon="7.27394">
        <ele>877</ele>
        <time>0001-01-01T00:00:00</time>
      </trkpt>
      <trkpt lat="43.83373" lon="7.27394">
        <ele>878</ele>
        <time>0001-01-01T00:00:00</time>
      </trkpt>
      <trkpt lat="43.83384" lon="7.27395">
        <ele>878</ele>
        <time>0001-01-01T00:00:00</time>
      </trkpt>
      <trkpt lat="43.83393" lon="7.27395">
        <ele>878</ele>
        <time>0001-01-01T00:00:00</time>
      </trkpt>
      <trkpt lat="43.83408" lon="7.2739">
        <ele>879</ele>
        <time>0001-01-01T00:00:00</time>
      </trkpt>
      <trkpt lat="43.83418" lon="7.27394">
        <ele>885</ele>
        <time>0001-01-01T00:00:00</time>
      </trkpt>
      <trkpt lat="43.83419" lon="7.27398">
        <ele>883</ele>
        <time>0001-01-01T00:00:00</time>
      </trkpt>
      <trkpt lat="43.83416" lon="7.27399">
        <ele>876</ele>
        <time>0001-01-01T00:00:00</time>
      </trkpt>
      <trkpt lat="43.83415" lon="7.27401">
        <ele>876</ele>
        <time>0001-01-01T00:00:00</time>
      </trkpt>
      <trkpt lat="43.83404" lon="7.27409">
        <ele>875</ele>
        <time>0001-01-01T00:00:00</time>
      </trkpt>
      <trkpt lat="43.83406" lon="7.27418">
        <ele>866</ele>
        <time>0001-01-01T00:00:00</time>
      </trkpt>
      <trkpt lat="43.83411" lon="7.27428">
        <ele>864</ele>
        <time>0001-01-01T00:00:00</time>
      </trkpt>
      <trkpt lat="43.83412" lon="7.27431">
        <ele>863</ele>
        <time>0001-01-01T00:00:00</time>
      </trkpt>
      <trkpt lat="43.83413" lon="7.27432">
        <ele>863</ele>
        <time>0001-01-01T00:00:00</time>
      </trkpt>
      <trkpt lat="43.83413" lon="7.27433">
        <ele>863</ele>
        <time>0001-01-01T00:00:00</time>
      </trkpt>
      <trkpt lat="43.83413" lon="7.27432">
        <ele>863</ele>
        <time>0001-01-01T00:00:00</time>
      </trkpt>
      <trkpt lat="43.83414" lon="7.27431">
        <ele>864</ele>
        <time>0001-01-01T00:00:00</time>
      </trkpt>
      <trkpt lat="43.8342" lon="7.27434">
        <ele>866</ele>
        <time>0001-01-01T00:00:00</time>
      </trkpt>
      <trkpt lat="43.8342" lon="7.27435">
        <ele>866</ele>
        <time>0001-01-01T00:00:00</time>
      </trkpt>
      <trkpt lat="43.83418" lon="7.27435">
        <ele>866</ele>
        <time>0001-01-01T00:00:00</time>
      </trkpt>
      <trkpt lat="43.83416" lon="7.27434">
        <ele>863</ele>
        <time>0001-01-01T00:00:00</time>
      </trkpt>
      <trkpt lat="43.8342" lon="7.27432">
        <ele>867</ele>
        <time>0001-01-01T00:00:00</time>
      </trkpt>
      <trkpt lat="43.83421" lon="7.27433">
        <ele>867</ele>
        <time>0001-01-01T00:00:00</time>
      </trkpt>
      <trkpt lat="43.83424" lon="7.27437">
        <ele>866</ele>
        <time>0001-01-01T00:00:00</time>
      </trkpt>
      <trkpt lat="43.83423" lon="7.27441">
        <ele>865</ele>
        <time>0001-01-01T00:00:00</time>
      </trkpt>
      <trkpt lat="43.8342" lon="7.27445">
        <ele>864</ele>
        <time>0001-01-01T00:00:00</time>
      </trkpt>
      <trkpt lat="43.83419" lon="7.2746">
        <ele>860</ele>
        <time>0001-01-01T00:00:00</time>
      </trkpt>
      <trkpt lat="43.83418" lon="7.27474">
        <ele>856</ele>
        <time>0001-01-01T00:00:00</time>
      </trkpt>
      <trkpt lat="43.8343" lon="7.27497">
        <ele>851</ele>
        <time>0001-01-01T00:00:00</time>
      </trkpt>
      <trkpt lat="43.83447" lon="7.27502">
        <ele>840</ele>
        <time>0001-01-01T00:00:00</time>
      </trkpt>
      <trkpt lat="43.83446" lon="7.27509">
        <ele>840</ele>
        <time>0001-01-01T00:00:00</time>
      </trkpt>
      <trkpt lat="43.83445" lon="7.2751">
        <ele>840</ele>
        <time>0001-01-01T00:00:00</time>
      </trkpt>
      <trkpt lat="43.83443" lon="7.2751">
        <ele>840</ele>
        <time>0001-01-01T00:00:00</time>
      </trkpt>
      <trkpt lat="43.83445" lon="7.27514">
        <ele>839</ele>
        <time>0001-01-01T00:00:00</time>
      </trkpt>
      <trkpt lat="43.83448" lon="7.27515">
        <ele>839</ele>
        <time>0001-01-01T00:00:00</time>
      </trkpt>
      <trkpt lat="43.83457" lon="7.27527">
        <ele>838</ele>
        <time>0001-01-01T00:00:00</time>
      </trkpt>
      <trkpt lat="43.8347" lon="7.27537">
        <ele>838</ele>
        <time>0001-01-01T00:00:00</time>
      </trkpt>
      <trkpt lat="43.83484" lon="7.27545">
        <ele>837</ele>
        <time>0001-01-01T00:00:00</time>
      </trkpt>
      <trkpt lat="43.83496" lon="7.27549">
        <ele>836</ele>
        <time>0001-01-01T00:00:00</time>
      </trkpt>
      <trkpt lat="43.8351" lon="7.27567">
        <ele>835</ele>
        <time>0001-01-01T00:00:00</time>
      </trkpt>
      <trkpt lat="43.83524" lon="7.27587">
        <ele>822</ele>
        <time>0001-01-01T00:00:00</time>
      </trkpt>
      <trkpt lat="43.83536" lon="7.27599">
        <ele>820</ele>
        <time>0001-01-01T00:00:00</time>
      </trkpt>
      <trkpt lat="43.83551" lon="7.27618">
        <ele>818</ele>
        <time>0001-01-01T00:00:00</time>
      </trkpt>
      <trkpt lat="43.83562" lon="7.27635">
        <ele>816</ele>
        <time>0001-01-01T00:00:00</time>
      </trkpt>
      <trkpt lat="43.83568" lon="7.27642">
        <ele>815</ele>
        <time>0001-01-01T00:00:00</time>
      </trkpt>
      <trkpt lat="43.83576" lon="7.27646">
        <ele>815</ele>
        <time>0001-01-01T00:00:00</time>
      </trkpt>
      <trkpt lat="43.83581" lon="7.27654">
        <ele>814</ele>
        <time>0001-01-01T00:00:00</time>
      </trkpt>
      <trkpt lat="43.83583" lon="7.27656">
        <ele>813</ele>
        <time>0001-01-01T00:00:00</time>
      </trkpt>
      <trkpt lat="43.83585" lon="7.27658">
        <ele>814</ele>
        <time>0001-01-01T00:00:00</time>
      </trkpt>
      <trkpt lat="43.83586" lon="7.27664">
        <ele>812</ele>
        <time>0001-01-01T00:00:00</time>
      </trkpt>
      <trkpt lat="43.83578" lon="7.27669">
        <ele>807</ele>
        <time>0001-01-01T00:00:00</time>
      </trkpt>
      <trkpt lat="43.83569" lon="7.27668">
        <ele>803</ele>
        <time>0001-01-01T00:00:00</time>
      </trkpt>
      <trkpt lat="43.8357" lon="7.27673">
        <ele>803</ele>
        <time>0001-01-01T00:00:00</time>
      </trkpt>
      <trkpt lat="43.83575" lon="7.27682">
        <ele>801</ele>
        <time>0001-01-01T00:00:00</time>
      </trkpt>
      <trkpt lat="43.83574" lon="7.2769">
        <ele>798</ele>
        <time>0001-01-01T00:00:00</time>
      </trkpt>
      <trkpt lat="43.83572" lon="7.27698">
        <ele>796</ele>
        <time>0001-01-01T00:00:00</time>
      </trkpt>
      <trkpt lat="43.83578" lon="7.27709">
        <ele>793</ele>
        <time>0001-01-01T00:00:00</time>
      </trkpt>
      <trkpt lat="43.83577" lon="7.27713">
        <ele>792</ele>
        <time>0001-01-01T00:00:00</time>
      </trkpt>
      <trkpt lat="43.83572" lon="7.27715">
        <ele>791</ele>
        <time>0001-01-01T00:00:00</time>
      </trkpt>
      <trkpt lat="43.83568" lon="7.27716">
        <ele>791</ele>
        <time>0001-01-01T00:00:00</time>
      </trkpt>
      <trkpt lat="43.83567" lon="7.27714">
        <ele>792</ele>
        <time>0001-01-01T00:00:00</time>
      </trkpt>
      <trkpt lat="43.8357" lon="7.27717">
        <ele>791</ele>
        <time>0001-01-01T00:00:00</time>
      </trkpt>
      <trkpt lat="43.83576" lon="7.27722">
        <ele>790</ele>
        <time>0001-01-01T00:00:00</time>
      </trkpt>
      <trkpt lat="43.83575" lon="7.27726">
        <ele>788</ele>
        <time>0001-01-01T00:00:00</time>
      </trkpt>
      <trkpt lat="43.83566" lon="7.27729">
        <ele>788</ele>
        <time>0001-01-01T00:00:00</time>
      </trkpt>
      <trkpt lat="43.83559" lon="7.27733">
        <ele>788</ele>
        <time>0001-01-01T00:00:00</time>
      </trkpt>
      <trkpt lat="43.83546" lon="7.27743">
        <ele>787</ele>
        <time>0001-01-01T00:00:00</time>
      </trkpt>
      <trkpt lat="43.83544" lon="7.27748">
        <ele>787</ele>
        <time>0001-01-01T00:00:00</time>
      </trkpt>
      <trkpt lat="43.83548" lon="7.27754">
        <ele>768</ele>
        <time>0001-01-01T00:00:00</time>
      </trkpt>
      <trkpt lat="43.83541" lon="7.27756">
        <ele>767</ele>
        <time>0001-01-01T00:00:00</time>
      </trkpt>
      <trkpt lat="43.83537" lon="7.27762">
        <ele>767</ele>
        <time>0001-01-01T00:00:00</time>
      </trkpt>
      <trkpt lat="43.83533" lon="7.27766">
        <ele>766</ele>
        <time>0001-01-01T00:00:00</time>
      </trkpt>
      <trkpt lat="43.83525" lon="7.27766">
        <ele>767</ele>
        <time>0001-01-01T00:00:00</time>
      </trkpt>
      <trkpt lat="43.83523" lon="7.27765">
        <ele>767</ele>
        <time>0001-01-01T00:00:00</time>
      </trkpt>
      <trkpt lat="43.83505" lon="7.27766">
        <ele>769</ele>
        <time>0001-01-01T00:00:00</time>
      </trkpt>
      <trkpt lat="43.83493" lon="7.27763">
        <ele>773</ele>
        <time>0001-01-01T00:00:00</time>
      </trkpt>
      <trkpt lat="43.8349" lon="7.27759">
        <ele>773</ele>
        <time>0001-01-01T00:00:00</time>
      </trkpt>
      <trkpt lat="43.83482" lon="7.27757">
        <ele>772</ele>
        <time>0001-01-01T00:00:00</time>
      </trkpt>
      <trkpt lat="43.83477" lon="7.27759">
        <ele>772</ele>
        <time>0001-01-01T00:00:00</time>
      </trkpt>
      <trkpt lat="43.8346" lon="7.27762">
        <ele>772</ele>
        <time>0001-01-01T00:00:00</time>
      </trkpt>
      <trkpt lat="43.83449" lon="7.27759">
        <ele>773</ele>
        <time>0001-01-01T00:00:00</time>
      </trkpt>
      <trkpt lat="43.83443" lon="7.2776">
        <ele>774</ele>
        <time>0001-01-01T00:00:00</time>
      </trkpt>
      <trkpt lat="43.8344" lon="7.27751">
        <ele>775</ele>
        <time>0001-01-01T00:00:00</time>
      </trkpt>
      <trkpt lat="43.8344" lon="7.27741">
        <ele>787</ele>
        <time>0001-01-01T00:00:00</time>
      </trkpt>
      <trkpt lat="43.83436" lon="7.27744">
        <ele>787</ele>
        <time>0001-01-01T00:00:00</time>
      </trkpt>
      <trkpt lat="43.83435" lon="7.27745">
        <ele>787</ele>
        <time>0001-01-01T00:00:00</time>
      </trkpt>
      <trkpt lat="43.83432" lon="7.27748">
        <ele>786</ele>
        <time>0001-01-01T00:00:00</time>
      </trkpt>
      <trkpt lat="43.83429" lon="7.27746">
        <ele>786</ele>
        <time>0001-01-01T00:00:00</time>
      </trkpt>
      <trkpt lat="43.83425" lon="7.27747">
        <ele>785</ele>
        <time>0001-01-01T00:00:00</time>
      </trkpt>
      <trkpt lat="43.8342" lon="7.27748">
        <ele>784</ele>
        <time>0001-01-01T00:00:00</time>
      </trkpt>
      <trkpt lat="43.83415" lon="7.2775">
        <ele>782</ele>
        <time>0001-01-01T00:00:00</time>
      </trkpt>
      <trkpt lat="43.83408" lon="7.27753">
        <ele>781</ele>
        <time>0001-01-01T00:00:00</time>
      </trkpt>
      <trkpt lat="43.83403" lon="7.27754">
        <ele>780</ele>
        <time>0001-01-01T00:00:00</time>
      </trkpt>
      <trkpt lat="43.83403" lon="7.27752">
        <ele>780</ele>
        <time>0001-01-01T00:00:00</time>
      </trkpt>
      <trkpt lat="43.83402" lon="7.27741">
        <ele>786</ele>
        <time>0001-01-01T00:00:00</time>
      </trkpt>
      <trkpt lat="43.83402" lon="7.27735">
        <ele>787</ele>
        <time>0001-01-01T00:00:00</time>
      </trkpt>
      <trkpt lat="43.83402" lon="7.27722">
        <ele>789</ele>
        <time>0001-01-01T00:00:00</time>
      </trkpt>
      <trkpt lat="43.83397" lon="7.27698">
        <ele>792</ele>
        <time>0001-01-01T00:00:00</time>
      </trkpt>
      <trkpt lat="43.83392" lon="7.27678">
        <ele>794</ele>
        <time>0001-01-01T00:00:00</time>
      </trkpt>
      <trkpt lat="43.83389" lon="7.27663">
        <ele>804</ele>
        <time>0001-01-01T00:00:00</time>
      </trkpt>
      <trkpt lat="43.83387" lon="7.27656">
        <ele>805</ele>
        <time>0001-01-01T00:00:00</time>
      </trkpt>
      <trkpt lat="43.83381" lon="7.27643">
        <ele>806</ele>
        <time>0001-01-01T00:00:00</time>
      </trkpt>
      <trkpt lat="43.83371" lon="7.27634">
        <ele>806</ele>
        <time>0001-01-01T00:00:00</time>
      </trkpt>
      <trkpt lat="43.83363" lon="7.27624">
        <ele>807</ele>
        <time>0001-01-01T00:00:00</time>
      </trkpt>
      <trkpt lat="43.8335" lon="7.2761">
        <ele>808</ele>
        <time>0001-01-01T00:00:00</time>
      </trkpt>
      <trkpt lat="43.83338" lon="7.27603">
        <ele>809</ele>
        <time>0001-01-01T00:00:00</time>
      </trkpt>
      <trkpt lat="43.83322" lon="7.276">
        <ele>808</ele>
        <time>0001-01-01T00:00:00</time>
      </trkpt>
      <trkpt lat="43.83308" lon="7.27609">
        <ele>807</ele>
        <time>0001-01-01T00:00:00</time>
      </trkpt>
      <trkpt lat="43.83297" lon="7.27613">
        <ele>807</ele>
        <time>0001-01-01T00:00:00</time>
      </trkpt>
      <trkpt lat="43.83294" lon="7.27611">
        <ele>807</ele>
        <time>0001-01-01T00:00:00</time>
      </trkpt>
      <trkpt lat="43.83288" lon="7.27612">
        <ele>807</ele>
        <time>0001-01-01T00:00:00</time>
      </trkpt>
      <trkpt lat="43.83283" lon="7.2761">
        <ele>808</ele>
        <time>0001-01-01T00:00:00</time>
      </trkpt>
      <trkpt lat="43.8328" lon="7.27608">
        <ele>808</ele>
        <time>0001-01-01T00:00:00</time>
      </trkpt>
      <trkpt lat="43.83276" lon="7.27605">
        <ele>809</ele>
        <time>0001-01-01T00:00:00</time>
      </trkpt>
      <trkpt lat="43.8327" lon="7.27602">
        <ele>810</ele>
        <time>0001-01-01T00:00:00</time>
      </trkpt>
      <trkpt lat="43.83268" lon="7.27602">
        <ele>810</ele>
        <time>0001-01-01T00:00:00</time>
      </trkpt>
      <trkpt lat="43.83262" lon="7.27602">
        <ele>811</ele>
        <time>0001-01-01T00:00:00</time>
      </trkpt>
      <trkpt lat="43.83251" lon="7.27603">
        <ele>812</ele>
        <time>0001-01-01T00:00:00</time>
      </trkpt>
      <trkpt lat="43.8324" lon="7.27603">
        <ele>823</ele>
        <time>0001-01-01T00:00:00</time>
      </trkpt>
      <trkpt lat="43.83231" lon="7.27602">
        <ele>824</ele>
        <time>0001-01-01T00:00:00</time>
      </trkpt>
      <trkpt lat="43.83221" lon="7.276">
        <ele>826</ele>
        <time>0001-01-01T00:00:00</time>
      </trkpt>
      <trkpt lat="43.83211" lon="7.27596">
        <ele>828</ele>
        <time>0001-01-01T00:00:00</time>
      </trkpt>
      <trkpt lat="43.83205" lon="7.27596">
        <ele>830</ele>
        <time>0001-01-01T00:00:00</time>
      </trkpt>
      <trkpt lat="43.83203" lon="7.27595">
        <ele>831</ele>
        <time>0001-01-01T00:00:00</time>
      </trkpt>
      <trkpt lat="43.83199" lon="7.27597">
        <ele>832</ele>
        <time>0001-01-01T00:00:00</time>
      </trkpt>
      <trkpt lat="43.83195" lon="7.27598">
        <ele>833</ele>
        <time>0001-01-01T00:00:00</time>
      </trkpt>
      <trkpt lat="43.83191" lon="7.276">
        <ele>834</ele>
        <time>0001-01-01T00:00:00</time>
      </trkpt>
      <trkpt lat="43.83188" lon="7.27607">
        <ele>833</ele>
        <time>0001-01-01T00:00:00</time>
      </trkpt>
      <trkpt lat="43.83186" lon="7.27613">
        <ele>832</ele>
        <time>0001-01-01T00:00:00</time>
      </trkpt>
      <trkpt lat="43.83183" lon="7.2762">
        <ele>832</ele>
        <time>0001-01-01T00:00:00</time>
      </trkpt>
      <trkpt lat="43.83179" lon="7.27629">
        <ele>831</ele>
        <time>0001-01-01T00:00:00</time>
      </trkpt>
      <trkpt lat="43.83178" lon="7.27633">
        <ele>831</ele>
        <time>0001-01-01T00:00:00</time>
      </trkpt>
      <trkpt lat="43.83177" lon="7.27643">
        <ele>831</ele>
        <time>0001-01-01T00:00:00</time>
      </trkpt>
      <trkpt lat="43.83176" lon="7.27649">
        <ele>831</ele>
        <time>0001-01-01T00:00:00</time>
      </trkpt>
      <trkpt lat="43.83173" lon="7.27659">
        <ele>833</ele>
        <time>0001-01-01T00:00:00</time>
      </trkpt>
      <trkpt lat="43.83171" lon="7.27667">
        <ele>832</ele>
        <time>0001-01-01T00:00:00</time>
      </trkpt>
      <trkpt lat="43.83168" lon="7.27671">
        <ele>831</ele>
        <time>0001-01-01T00:00:00</time>
      </trkpt>
      <trkpt lat="43.83164" lon="7.27676">
        <ele>836</ele>
        <time>0001-01-01T00:00:00</time>
      </trkpt>
      <trkpt lat="43.83161" lon="7.27682">
        <ele>836</ele>
        <time>0001-01-01T00:00:00</time>
      </trkpt>
      <trkpt lat="43.8316" lon="7.27685">
        <ele>836</ele>
        <time>0001-01-01T00:00:00</time>
      </trkpt>
      <trkpt lat="43.83156" lon="7.27689">
        <ele>836</ele>
        <time>0001-01-01T00:00:00</time>
      </trkpt>
      <trkpt lat="43.83153" lon="7.27693">
        <ele>836</ele>
        <time>0001-01-01T00:00:00</time>
      </trkpt>
      <trkpt lat="43.83149" lon="7.277">
        <ele>836</ele>
        <time>0001-01-01T00:00:00</time>
      </trkpt>
      <trkpt lat="43.83146" lon="7.27703">
        <ele>836</ele>
        <time>0001-01-01T00:00:00</time>
      </trkpt>
      <trkpt lat="43.83144" lon="7.27704">
        <ele>836</ele>
        <time>0001-01-01T00:00:00</time>
      </trkpt>
      <trkpt lat="43.83143" lon="7.27705">
        <ele>836</ele>
        <time>0001-01-01T00:00:00</time>
      </trkpt>
      <trkpt lat="43.83143" lon="7.27707">
        <ele>836</ele>
        <time>0001-01-01T00:00:00</time>
      </trkpt>
      <trkpt lat="43.83146" lon="7.27713">
        <ele>835</ele>
        <time>0001-01-01T00:00:00</time>
      </trkpt>
      <trkpt lat="43.83146" lon="7.27713">
        <ele>835</ele>
        <time>0001-01-01T00:00:00</time>
      </trkpt>
      <trkpt lat="43.83143" lon="7.27716">
        <ele>835</ele>
        <time>0001-01-01T00:00:00</time>
      </trkpt>
      <trkpt lat="43.83133" lon="7.27722">
        <ele>836</ele>
        <time>0001-01-01T00:00:00</time>
      </trkpt>
      <trkpt lat="43.83126" lon="7.27728">
        <ele>836</ele>
        <time>0001-01-01T00:00:00</time>
      </trkpt>
      <trkpt lat="43.83115" lon="7.27741">
        <ele>837</ele>
        <time>0001-01-01T00:00:00</time>
      </trkpt>
      <trkpt lat="43.83096" lon="7.27759">
        <ele>834</ele>
        <time>0001-01-01T00:00:00</time>
      </trkpt>
      <trkpt lat="43.83076" lon="7.27761">
        <ele>842</ele>
        <time>0001-01-01T00:00:00</time>
      </trkpt>
      <trkpt lat="43.83065" lon="7.27758">
        <ele>842</ele>
        <time>0001-01-01T00:00:00</time>
      </trkpt>
      <trkpt lat="43.83044" lon="7.27761">
        <ele>844</ele>
        <time>0001-01-01T00:00:00</time>
      </trkpt>
      <trkpt lat="43.8304" lon="7.2776">
        <ele>844</ele>
        <time>0001-01-01T00:00:00</time>
      </trkpt>
      <trkpt lat="43.8302" lon="7.27764">
        <ele>846</ele>
        <time>0001-01-01T00:00:00</time>
      </trkpt>
      <trkpt lat="43.83014" lon="7.27769">
        <ele>846</ele>
        <time>0001-01-01T00:00:00</time>
      </trkpt>
      <trkpt lat="43.83012" lon="7.2777">
        <ele>846</ele>
        <time>0001-01-01T00:00:00</time>
      </trkpt>
      <trkpt lat="43.83009" lon="7.27774">
        <ele>846</ele>
        <time>0001-01-01T00:00:00</time>
      </trkpt>
      <trkpt lat="43.83003" lon="7.27777">
        <ele>846</ele>
        <time>0001-01-01T00:00:00</time>
      </trkpt>
      <trkpt lat="43.82998" lon="7.27781">
        <ele>852</ele>
        <time>0001-01-01T00:00:00</time>
      </trkpt>
      <trkpt lat="43.82995" lon="7.27782">
        <ele>852</ele>
        <time>0001-01-01T00:00:00</time>
      </trkpt>
      <trkpt lat="43.82994" lon="7.27783">
        <ele>852</ele>
        <time>0001-01-01T00:00:00</time>
      </trkpt>
      <trkpt lat="43.82981" lon="7.2779">
        <ele>852</ele>
        <time>0001-01-01T00:00:00</time>
      </trkpt>
      <trkpt lat="43.82966" lon="7.27802">
        <ele>852</ele>
        <time>0001-01-01T00:00:00</time>
      </trkpt>
      <trkpt lat="43.82948" lon="7.27808">
        <ele>853</ele>
        <time>0001-01-01T00:00:00</time>
      </trkpt>
      <trkpt lat="43.82938" lon="7.27818">
        <ele>853</ele>
        <time>0001-01-01T00:00:00</time>
      </trkpt>
      <trkpt lat="43.82924" lon="7.27829">
        <ele>853</ele>
        <time>0001-01-01T00:00:00</time>
      </trkpt>
      <trkpt lat="43.82911" lon="7.27829">
        <ele>855</ele>
        <time>0001-01-01T00:00:00</time>
      </trkpt>
      <trkpt lat="43.82891" lon="7.27837">
        <ele>849</ele>
        <time>0001-01-01T00:00:00</time>
      </trkpt>
      <trkpt lat="43.82869" lon="7.2784">
        <ele>849</ele>
        <time>0001-01-01T00:00:00</time>
      </trkpt>
      <trkpt lat="43.82851" lon="7.27842">
        <ele>851</ele>
        <time>0001-01-01T00:00:00</time>
      </trkpt>
      <trkpt lat="43.82838" lon="7.27847">
        <ele>852</ele>
        <time>0001-01-01T00:00:00</time>
      </trkpt>
      <trkpt lat="43.82824" lon="7.27848">
        <ele>853</ele>
        <time>0001-01-01T00:00:00</time>
      </trkpt>
      <trkpt lat="43.82804" lon="7.27848">
        <ele>852</ele>
        <time>0001-01-01T00:00:00</time>
      </trkpt>
      <trkpt lat="43.82783" lon="7.27851">
        <ele>851</ele>
        <time>0001-01-01T00:00:00</time>
      </trkpt>
      <trkpt lat="43.82763" lon="7.27857">
        <ele>851</ele>
        <time>0001-01-01T00:00:00</time>
      </trkpt>
      <trkpt lat="43.82742" lon="7.27857">
        <ele>851</ele>
        <time>0001-01-01T00:00:00</time>
      </trkpt>
      <trkpt lat="43.82739" lon="7.27848">
        <ele>851</ele>
        <time>0001-01-01T00:00:00</time>
      </trkpt>
      <trkpt lat="43.82734" lon="7.27834">
        <ele>851</ele>
        <time>0001-01-01T00:00:00</time>
      </trkpt>
      <trkpt lat="43.82732" lon="7.27828">
        <ele>853</ele>
        <time>0001-01-01T00:00:00</time>
      </trkpt>
      <trkpt lat="43.8273" lon="7.27813">
        <ele>853</ele>
        <time>0001-01-01T00:00:00</time>
      </trkpt>
      <trkpt lat="43.82726" lon="7.27792">
        <ele>853</ele>
        <time>0001-01-01T00:00:00</time>
      </trkpt>
      <trkpt lat="43.82721" lon="7.2777">
        <ele>854</ele>
        <time>0001-01-01T00:00:00</time>
      </trkpt>
      <trkpt lat="43.82719" lon="7.27748">
        <ele>859</ele>
        <time>0001-01-01T00:00:00</time>
      </trkpt>
      <trkpt lat="43.82717" lon="7.2773">
        <ele>860</ele>
        <time>0001-01-01T00:00:00</time>
      </trkpt>
      <trkpt lat="43.82719" lon="7.27716">
        <ele>861</ele>
        <time>0001-01-01T00:00:00</time>
      </trkpt>
      <trkpt lat="43.82717" lon="7.27706">
        <ele>862</ele>
        <time>0001-01-01T00:00:00</time>
      </trkpt>
      <trkpt lat="43.82707" lon="7.27698">
        <ele>863</ele>
        <time>0001-01-01T00:00:00</time>
      </trkpt>
      <trkpt lat="43.82703" lon="7.27698">
        <ele>863</ele>
        <time>0001-01-01T00:00:00</time>
      </trkpt>
      <trkpt lat="43.82688" lon="7.277">
        <ele>863</ele>
        <time>0001-01-01T00:00:00</time>
      </trkpt>
      <trkpt lat="43.82675" lon="7.27704">
        <ele>863</ele>
        <time>0001-01-01T00:00:00</time>
      </trkpt>
      <trkpt lat="43.82667" lon="7.27704">
        <ele>863</ele>
        <time>0001-01-01T00:00:00</time>
      </trkpt>
      <trkpt lat="43.82658" lon="7.27708">
        <ele>865</ele>
        <time>0001-01-01T00:00:00</time>
      </trkpt>
      <trkpt lat="43.82655" lon="7.27708">
        <ele>865</ele>
        <time>0001-01-01T00:00:00</time>
      </trkpt>
      <trkpt lat="43.8265" lon="7.27707">
        <ele>865</ele>
        <time>0001-01-01T00:00:00</time>
      </trkpt>
      <trkpt lat="43.82645" lon="7.27707">
        <ele>866</ele>
        <time>0001-01-01T00:00:00</time>
      </trkpt>
      <trkpt lat="43.8264" lon="7.27711">
        <ele>865</ele>
        <time>0001-01-01T00:00:00</time>
      </trkpt>
      <trkpt lat="43.82635" lon="7.27712">
        <ele>865</ele>
        <time>0001-01-01T00:00:00</time>
      </trkpt>
      <trkpt lat="43.82628" lon="7.27709">
        <ele>866</ele>
        <time>0001-01-01T00:00:00</time>
      </trkpt>
      <trkpt lat="43.82626" lon="7.27707">
        <ele>866</ele>
        <time>0001-01-01T00:00:00</time>
      </trkpt>
      <trkpt lat="43.82623" lon="7.27707">
        <ele>866</ele>
        <time>0001-01-01T00:00:00</time>
      </trkpt>
      <trkpt lat="43.8262" lon="7.27705">
        <ele>867</ele>
        <time>0001-01-01T00:00:00</time>
      </trkpt>
      <trkpt lat="43.82618" lon="7.27702">
        <ele>867</ele>
        <time>0001-01-01T00:00:00</time>
      </trkpt>
      <trkpt lat="43.82616" lon="7.27702">
        <ele>867</ele>
        <time>0001-01-01T00:00:00</time>
      </trkpt>
      <trkpt lat="43.82611" lon="7.27702">
        <ele>868</ele>
        <time>0001-01-01T00:00:00</time>
      </trkpt>
      <trkpt lat="43.82611" lon="7.27702">
        <ele>868</ele>
        <time>0001-01-01T00:00:00</time>
      </trkpt>
      <trkpt lat="43.82608" lon="7.27699">
        <ele>868</ele>
        <time>0001-01-01T00:00:00</time>
      </trkpt>
      <trkpt lat="43.82606" lon="7.27697">
        <ele>868</ele>
        <time>0001-01-01T00:00:00</time>
      </trkpt>
      <trkpt lat="43.82596" lon="7.27694">
        <ele>870</ele>
        <time>0001-01-01T00:00:00</time>
      </trkpt>
      <trkpt lat="43.8259" lon="7.27689">
        <ele>871</ele>
        <time>0001-01-01T00:00:00</time>
      </trkpt>
      <trkpt lat="43.82587" lon="7.27685">
        <ele>872</ele>
        <time>0001-01-01T00:00:00</time>
      </trkpt>
      <trkpt lat="43.82584" lon="7.27684">
        <ele>872</ele>
        <time>0001-01-01T00:00:00</time>
      </trkpt>
      <trkpt lat="43.82578" lon="7.27686">
        <ele>878</ele>
        <time>0001-01-01T00:00:00</time>
      </trkpt>
      <trkpt lat="43.82574" lon="7.27684">
        <ele>878</ele>
        <time>0001-01-01T00:00:00</time>
      </trkpt>
      <trkpt lat="43.82568" lon="7.27683">
        <ele>878</ele>
        <time>0001-01-01T00:00:00</time>
      </trkpt>
      <trkpt lat="43.82563" lon="7.27685">
        <ele>878</ele>
        <time>0001-01-01T00:00:00</time>
      </trkpt>
      <trkpt lat="43.8256" lon="7.27684">
        <ele>879</ele>
        <time>0001-01-01T00:00:00</time>
      </trkpt>
      <trkpt lat="43.82558" lon="7.27684">
        <ele>879</ele>
        <time>0001-01-01T00:00:00</time>
      </trkpt>
      <trkpt lat="43.82555" lon="7.27684">
        <ele>879</ele>
        <time>0001-01-01T00:00:00</time>
      </trkpt>
      <trkpt lat="43.82553" lon="7.27688">
        <ele>879</ele>
        <time>0001-01-01T00:00:00</time>
      </trkpt>
      <trkpt lat="43.8255" lon="7.27695">
        <ele>879</ele>
        <time>0001-01-01T00:00:00</time>
      </trkpt>
      <trkpt lat="43.82548" lon="7.27697">
        <ele>879</ele>
        <time>0001-01-01T00:00:00</time>
      </trkpt>
      <trkpt lat="43.82545" lon="7.27699">
        <ele>879</ele>
        <time>0001-01-01T00:00:00</time>
      </trkpt>
      <trkpt lat="43.82541" lon="7.27703">
        <ele>879</ele>
        <time>0001-01-01T00:00:00</time>
      </trkpt>
      <trkpt lat="43.82536" lon="7.27709">
        <ele>879</ele>
        <time>0001-01-01T00:00:00</time>
      </trkpt>
      <trkpt lat="43.82531" lon="7.27714">
        <ele>879</ele>
        <time>0001-01-01T00:00:00</time>
      </trkpt>
      <trkpt lat="43.82528" lon="7.27716">
        <ele>879</ele>
        <time>0001-01-01T00:00:00</time>
      </trkpt>
      <trkpt lat="43.82525" lon="7.27719">
        <ele>879</ele>
        <time>0001-01-01T00:00:00</time>
      </trkpt>
      <trkpt lat="43.82521" lon="7.27723">
        <ele>879</ele>
        <time>0001-01-01T00:00:00</time>
      </trkpt>
      <trkpt lat="43.82517" lon="7.27727">
        <ele>880</ele>
        <time>0001-01-01T00:00:00</time>
      </trkpt>
      <trkpt lat="43.82513" lon="7.27731">
        <ele>880</ele>
        <time>0001-01-01T00:00:00</time>
      </trkpt>
      <trkpt lat="43.82506" lon="7.27736">
        <ele>880</ele>
        <time>0001-01-01T00:00:00</time>
      </trkpt>
      <trkpt lat="43.82504" lon="7.27738">
        <ele>881</ele>
        <time>0001-01-01T00:00:00</time>
      </trkpt>
      <trkpt lat="43.82495" lon="7.2774">
        <ele>884</ele>
        <time>0001-01-01T00:00:00</time>
      </trkpt>
      <trkpt lat="43.82493" lon="7.27742">
        <ele>884</ele>
        <time>0001-01-01T00:00:00</time>
      </trkpt>
      <trkpt lat="43.82484" lon="7.2775">
        <ele>879</ele>
        <time>0001-01-01T00:00:00</time>
      </trkpt>
      <trkpt lat="43.82472" lon="7.2776">
        <ele>878</ele>
        <time>0001-01-01T00:00:00</time>
      </trkpt>
      <trkpt lat="43.82465" lon="7.27766">
        <ele>877</ele>
        <time>0001-01-01T00:00:00</time>
      </trkpt>
      <trkpt lat="43.82455" lon="7.27772">
        <ele>877</ele>
        <time>0001-01-01T00:00:00</time>
      </trkpt>
      <trkpt lat="43.82445" lon="7.27775">
        <ele>878</ele>
        <time>0001-01-01T00:00:00</time>
      </trkpt>
      <trkpt lat="43.82441" lon="7.27777">
        <ele>878</ele>
        <time>0001-01-01T00:00:00</time>
      </trkpt>
      <trkpt lat="43.82433" lon="7.27784">
        <ele>877</ele>
        <time>0001-01-01T00:00:00</time>
      </trkpt>
      <trkpt lat="43.82432" lon="7.27783">
        <ele>878</ele>
        <time>0001-01-01T00:00:00</time>
      </trkpt>
      <trkpt lat="43.82425" lon="7.27773">
        <ele>880</ele>
        <time>0001-01-01T00:00:00</time>
      </trkpt>
      <trkpt lat="43.82414" lon="7.27775">
        <ele>883</ele>
        <time>0001-01-01T00:00:00</time>
      </trkpt>
      <trkpt lat="43.82397" lon="7.27782">
        <ele>882</ele>
        <time>0001-01-01T00:00:00</time>
      </trkpt>
      <trkpt lat="43.82394" lon="7.27783">
        <ele>882</ele>
        <time>0001-01-01T00:00:00</time>
      </trkpt>
      <trkpt lat="43.82387" lon="7.27778">
        <ele>882</ele>
        <time>0001-01-01T00:00:00</time>
      </trkpt>
      <trkpt lat="43.82376" lon="7.27765">
        <ele>882</ele>
        <time>0001-01-01T00:00:00</time>
      </trkpt>
      <trkpt lat="43.82362" lon="7.27763">
        <ele>882</ele>
        <time>0001-01-01T00:00:00</time>
      </trkpt>
      <trkpt lat="43.82347" lon="7.27776">
        <ele>881</ele>
        <time>0001-01-01T00:00:00</time>
      </trkpt>
      <trkpt lat="43.82333" lon="7.27777">
        <ele>880</ele>
        <time>0001-01-01T00:00:00</time>
      </trkpt>
      <trkpt lat="43.8232" lon="7.27776">
        <ele>880</ele>
        <time>0001-01-01T00:00:00</time>
      </trkpt>
      <trkpt lat="43.82314" lon="7.27777">
        <ele>880</ele>
        <time>0001-01-01T00:00:00</time>
      </trkpt>
      <trkpt lat="43.82305" lon="7.27776">
        <ele>880</ele>
        <time>0001-01-01T00:00:00</time>
      </trkpt>
      <trkpt lat="43.82295" lon="7.27771">
        <ele>879</ele>
        <time>0001-01-01T00:00:00</time>
      </trkpt>
      <trkpt lat="43.82278" lon="7.27769">
        <ele>879</ele>
        <time>0001-01-01T00:00:00</time>
      </trkpt>
      <trkpt lat="43.82269" lon="7.27766">
        <ele>878</ele>
        <time>0001-01-01T00:00:00</time>
      </trkpt>
      <trkpt lat="43.82249" lon="7.27776">
        <ele>874</ele>
        <time>0001-01-01T00:00:00</time>
      </trkpt>
      <trkpt lat="43.8224" lon="7.27779">
        <ele>874</ele>
        <time>0001-01-01T00:00:00</time>
      </trkpt>
      <trkpt lat="43.82232" lon="7.27784">
        <ele>874</ele>
        <time>0001-01-01T00:00:00</time>
      </trkpt>
      <trkpt lat="43.82227" lon="7.27786">
        <ele>874</ele>
        <time>0001-01-01T00:00:00</time>
      </trkpt>
      <trkpt lat="43.82214" lon="7.27793">
        <ele>873</ele>
        <time>0001-01-01T00:00:00</time>
      </trkpt>
      <trkpt lat="43.82203" lon="7.27797">
        <ele>873</ele>
        <time>0001-01-01T00:00:00</time>
      </trkpt>
      <trkpt lat="43.8219" lon="7.27797">
        <ele>872</ele>
        <time>0001-01-01T00:00:00</time>
      </trkpt>
      <trkpt lat="43.82171" lon="7.27804">
        <ele>872</ele>
        <time>0001-01-01T00:00:00</time>
      </trkpt>
      <trkpt lat="43.82168" lon="7.27803">
        <ele>872</ele>
        <time>0001-01-01T00:00:00</time>
      </trkpt>
      <trkpt lat="43.82152" lon="7.27814">
        <ele>867</ele>
        <time>0001-01-01T00:00:00</time>
      </trkpt>
      <trkpt lat="43.8214" lon="7.27827">
        <ele>867</ele>
        <time>0001-01-01T00:00:00</time>
      </trkpt>
      <trkpt lat="43.82125" lon="7.27837">
        <ele>872</ele>
        <time>0001-01-01T00:00:00</time>
      </trkpt>
      <trkpt lat="43.82115" lon="7.27857">
        <ele>873</ele>
        <time>0001-01-01T00:00:00</time>
      </trkpt>
      <trkpt lat="43.821" lon="7.2787">
        <ele>873</ele>
        <time>0001-01-01T00:00:00</time>
      </trkpt>
      <trkpt lat="43.82082" lon="7.27881">
        <ele>870</ele>
        <time>0001-01-01T00:00:00</time>
      </trkpt>
      <trkpt lat="43.8208" lon="7.27883">
        <ele>870</ele>
        <time>0001-01-01T00:00:00</time>
      </trkpt>
      <trkpt lat="43.82074" lon="7.2789">
        <ele>870</ele>
        <time>0001-01-01T00:00:00</time>
      </trkpt>
      <trkpt lat="43.82061" lon="7.27908">
        <ele>871</ele>
        <time>0001-01-01T00:00:00</time>
      </trkpt>
      <trkpt lat="43.82059" lon="7.27911">
        <ele>871</ele>
        <time>0001-01-01T00:00:00</time>
      </trkpt>
      <trkpt lat="43.82053" lon="7.27919">
        <ele>875</ele>
        <time>0001-01-01T00:00:00</time>
      </trkpt>
      <trkpt lat="43.82048" lon="7.27921">
        <ele>875</ele>
        <time>0001-01-01T00:00:00</time>
      </trkpt>
      <trkpt lat="43.82042" lon="7.27924">
        <ele>875</ele>
        <time>0001-01-01T00:00:00</time>
      </trkpt>
      <trkpt lat="43.8203" lon="7.27931">
        <ele>874</ele>
        <time>0001-01-01T00:00:00</time>
      </trkpt>
      <trkpt lat="43.82028" lon="7.27932">
        <ele>874</ele>
        <time>0001-01-01T00:00:00</time>
      </trkpt>
      <trkpt lat="43.82021" lon="7.27939">
        <ele>874</ele>
        <time>0001-01-01T00:00:00</time>
      </trkpt>
      <trkpt lat="43.82014" lon="7.27942">
        <ele>874</ele>
        <time>0001-01-01T00:00:00</time>
      </trkpt>
      <trkpt lat="43.82012" lon="7.27942">
        <ele>874</ele>
        <time>0001-01-01T00:00:00</time>
      </trkpt>
      <trkpt lat="43.82005" lon="7.27952">
        <ele>875</ele>
        <time>0001-01-01T00:00:00</time>
      </trkpt>
      <trkpt lat="43.81999" lon="7.27966">
        <ele>875</ele>
        <time>0001-01-01T00:00:00</time>
      </trkpt>
      <trkpt lat="43.81993" lon="7.27976">
        <ele>875</ele>
        <time>0001-01-01T00:00:00</time>
      </trkpt>
      <trkpt lat="43.81985" lon="7.27986">
        <ele>876</ele>
        <time>0001-01-01T00:00:00</time>
      </trkpt>
      <trkpt lat="43.81982" lon="7.27992">
        <ele>876</ele>
        <time>0001-01-01T00:00:00</time>
      </trkpt>
      <trkpt lat="43.81978" lon="7.28007">
        <ele>880</ele>
        <time>0001-01-01T00:00:00</time>
      </trkpt>
      <trkpt lat="43.81974" lon="7.28012">
        <ele>881</ele>
        <time>0001-01-01T00:00:00</time>
      </trkpt>
      <trkpt lat="43.81972" lon="7.28018">
        <ele>881</ele>
        <time>0001-01-01T00:00:00</time>
      </trkpt>
      <trkpt lat="43.81971" lon="7.28021">
        <ele>881</ele>
        <time>0001-01-01T00:00:00</time>
      </trkpt>
      <trkpt lat="43.81969" lon="7.28023">
        <ele>881</ele>
        <time>0001-01-01T00:00:00</time>
      </trkpt>
      <trkpt lat="43.81965" lon="7.28026">
        <ele>882</ele>
        <time>0001-01-01T00:00:00</time>
      </trkpt>
      <trkpt lat="43.81963" lon="7.28033">
        <ele>882</ele>
        <time>0001-01-01T00:00:00</time>
      </trkpt>
      <trkpt lat="43.81961" lon="7.28035">
        <ele>882</ele>
        <time>0001-01-01T00:00:00</time>
      </trkpt>
      <trkpt lat="43.81956" lon="7.28038">
        <ele>882</ele>
        <time>0001-01-01T00:00:00</time>
      </trkpt>
      <trkpt lat="43.81948" lon="7.28047">
        <ele>883</ele>
        <time>0001-01-01T00:00:00</time>
      </trkpt>
      <trkpt lat="43.81947" lon="7.28048">
        <ele>883</ele>
        <time>0001-01-01T00:00:00</time>
      </trkpt>
      <trkpt lat="43.81936" lon="7.28063">
        <ele>884</ele>
        <time>0001-01-01T00:00:00</time>
      </trkpt>
      <trkpt lat="43.81925" lon="7.28072">
        <ele>884</ele>
        <time>0001-01-01T00:00:00</time>
      </trkpt>
      <trkpt lat="43.81912" lon="7.28086">
        <ele>886</ele>
        <time>0001-01-01T00:00:00</time>
      </trkpt>
      <trkpt lat="43.81895" lon="7.28105">
        <ele>887</ele>
        <time>0001-01-01T00:00:00</time>
      </trkpt>
      <trkpt lat="43.81878" lon="7.28116">
        <ele>888</ele>
        <time>0001-01-01T00:00:00</time>
      </trkpt>
      <trkpt lat="43.81866" lon="7.28132">
        <ele>888</ele>
        <time>0001-01-01T00:00:00</time>
      </trkpt>
      <trkpt lat="43.81852" lon="7.28141">
        <ele>888</ele>
        <time>0001-01-01T00:00:00</time>
      </trkpt>
      <trkpt lat="43.81839" lon="7.28142">
        <ele>889</ele>
        <time>0001-01-01T00:00:00</time>
      </trkpt>
      <trkpt lat="43.81821" lon="7.28145">
        <ele>890</ele>
        <time>0001-01-01T00:00:00</time>
      </trkpt>
      <trkpt lat="43.81812" lon="7.2815">
        <ele>891</ele>
        <time>0001-01-01T00:00:00</time>
      </trkpt>
      <trkpt lat="43.81798" lon="7.28149">
        <ele>891</ele>
        <time>0001-01-01T00:00:00</time>
      </trkpt>
      <trkpt lat="43.81796" lon="7.28149">
        <ele>891</ele>
        <time>0001-01-01T00:00:00</time>
      </trkpt>
      <trkpt lat="43.81794" lon="7.28147">
        <ele>891</ele>
        <time>0001-01-01T00:00:00</time>
      </trkpt>
      <trkpt lat="43.81793" lon="7.28147">
        <ele>891</ele>
        <time>0001-01-01T00:00:00</time>
      </trkpt>
      <trkpt lat="43.81789" lon="7.28146">
        <ele>891</ele>
        <time>0001-01-01T00:00:00</time>
      </trkpt>
      <trkpt lat="43.81777" lon="7.28143">
        <ele>891</ele>
        <time>0001-01-01T00:00:00</time>
      </trkpt>
      <trkpt lat="43.81769" lon="7.28144">
        <ele>891</ele>
        <time>0001-01-01T00:00:00</time>
      </trkpt>
      <trkpt lat="43.81767" lon="7.28144">
        <ele>892</ele>
        <time>0001-01-01T00:00:00</time>
      </trkpt>
      <trkpt lat="43.81758" lon="7.28146">
        <ele>892</ele>
        <time>0001-01-01T00:00:00</time>
      </trkpt>
      <trkpt lat="43.8175" lon="7.28149">
        <ele>892</ele>
        <time>0001-01-01T00:00:00</time>
      </trkpt>
      <trkpt lat="43.81748" lon="7.28149">
        <ele>891</ele>
        <time>0001-01-01T00:00:00</time>
      </trkpt>
      <trkpt lat="43.81747" lon="7.2815">
        <ele>891</ele>
        <time>0001-01-01T00:00:00</time>
      </trkpt>
      <trkpt lat="43.81746" lon="7.2815">
        <ele>891</ele>
        <time>0001-01-01T00:00:00</time>
      </trkpt>
      <trkpt lat="43.81745" lon="7.28151">
        <ele>891</ele>
        <time>0001-01-01T00:00:00</time>
      </trkpt>
      <trkpt lat="43.81734" lon="7.28151">
        <ele>891</ele>
        <time>0001-01-01T00:00:00</time>
      </trkpt>
      <trkpt lat="43.81723" lon="7.2815">
        <ele>890</ele>
        <time>0001-01-01T00:00:00</time>
      </trkpt>
      <trkpt lat="43.81716" lon="7.2815">
        <ele>890</ele>
        <time>0001-01-01T00:00:00</time>
      </trkpt>
      <trkpt lat="43.81707" lon="7.28154">
        <ele>889</ele>
        <time>0001-01-01T00:00:00</time>
      </trkpt>
      <trkpt lat="43.81696" lon="7.28154">
        <ele>888</ele>
        <time>0001-01-01T00:00:00</time>
      </trkpt>
      <trkpt lat="43.81682" lon="7.28166">
        <ele>887</ele>
        <time>0001-01-01T00:00:00</time>
      </trkpt>
      <trkpt lat="43.8167" lon="7.28172">
        <ele>886</ele>
        <time>0001-01-01T00:00:00</time>
      </trkpt>
      <trkpt lat="43.81666" lon="7.28172">
        <ele>885</ele>
        <time>0001-01-01T00:00:00</time>
      </trkpt>
      <trkpt lat="43.81664" lon="7.28171">
        <ele>885</ele>
        <time>0001-01-01T00:00:00</time>
      </trkpt>
      <trkpt lat="43.81652" lon="7.28179">
        <ele>885</ele>
        <time>0001-01-01T00:00:00</time>
      </trkpt>
      <trkpt lat="43.81639" lon="7.28181">
        <ele>885</ele>
        <time>0001-01-01T00:00:00</time>
      </trkpt>
      <trkpt lat="43.81633" lon="7.28179">
        <ele>885</ele>
        <time>0001-01-01T00:00:00</time>
      </trkpt>
      <trkpt lat="43.81619" lon="7.28185">
        <ele>885</ele>
        <time>0001-01-01T00:00:00</time>
      </trkpt>
      <trkpt lat="43.81601" lon="7.28192">
        <ele>884</ele>
        <time>0001-01-01T00:00:00</time>
      </trkpt>
      <trkpt lat="43.81579" lon="7.28203">
        <ele>882</ele>
        <time>0001-01-01T00:00:00</time>
      </trkpt>
      <trkpt lat="43.81571" lon="7.2821">
        <ele>882</ele>
        <time>0001-01-01T00:00:00</time>
      </trkpt>
      <trkpt lat="43.81544" lon="7.28228">
        <ele>881</ele>
        <time>0001-01-01T00:00:00</time>
      </trkpt>
      <trkpt lat="43.81532" lon="7.28237">
        <ele>880</ele>
        <time>0001-01-01T00:00:00</time>
      </trkpt>
      <trkpt lat="43.81519" lon="7.28251">
        <ele>880</ele>
        <time>0001-01-01T00:00:00</time>
      </trkpt>
      <trkpt lat="43.81507" lon="7.28251">
        <ele>878</ele>
        <time>0001-01-01T00:00:00</time>
      </trkpt>
      <trkpt lat="43.81495" lon="7.28257">
        <ele>876</ele>
        <time>0001-01-01T00:00:00</time>
      </trkpt>
      <trkpt lat="43.81487" lon="7.28256">
        <ele>876</ele>
        <time>0001-01-01T00:00:00</time>
      </trkpt>
      <trkpt lat="43.81457" lon="7.28251">
        <ele>875</ele>
        <time>0001-01-01T00:00:00</time>
      </trkpt>
      <trkpt lat="43.81454" lon="7.28251">
        <ele>875</ele>
        <time>0001-01-01T00:00:00</time>
      </trkpt>
      <trkpt lat="43.81437" lon="7.28256">
        <ele>874</ele>
        <time>0001-01-01T00:00:00</time>
      </trkpt>
      <trkpt lat="43.81427" lon="7.28258">
        <ele>873</ele>
        <time>0001-01-01T00:00:00</time>
      </trkpt>
      <trkpt lat="43.81424" lon="7.28259">
        <ele>873</ele>
        <time>0001-01-01T00:00:00</time>
      </trkpt>
      <trkpt lat="43.81419" lon="7.28259">
        <ele>873</ele>
        <time>0001-01-01T00:00:00</time>
      </trkpt>
      <trkpt lat="43.81416" lon="7.28258">
        <ele>870</ele>
        <time>0001-01-01T00:00:00</time>
      </trkpt>
      <trkpt lat="43.8141" lon="7.2826">
        <ele>870</ele>
        <time>0001-01-01T00:00:00</time>
      </trkpt>
      <trkpt lat="43.81407" lon="7.28262">
        <ele>870</ele>
        <time>0001-01-01T00:00:00</time>
      </trkpt>
      <trkpt lat="43.81403" lon="7.2826">
        <ele>870</ele>
        <time>0001-01-01T00:00:00</time>
      </trkpt>
      <trkpt lat="43.81399" lon="7.28259">
        <ele>869</ele>
        <time>0001-01-01T00:00:00</time>
      </trkpt>
      <trkpt lat="43.81398" lon="7.28255">
        <ele>869</ele>
        <time>0001-01-01T00:00:00</time>
      </trkpt>
      <trkpt lat="43.81397" lon="7.28252">
        <ele>869</ele>
        <time>0001-01-01T00:00:00</time>
      </trkpt>
      <trkpt lat="43.81396" lon="7.28248">
        <ele>868</ele>
        <time>0001-01-01T00:00:00</time>
      </trkpt>
      <trkpt lat="43.81393" lon="7.28246">
        <ele>867</ele>
        <time>0001-01-01T00:00:00</time>
      </trkpt>
      <trkpt lat="43.81393" lon="7.28243">
        <ele>867</ele>
        <time>0001-01-01T00:00:00</time>
      </trkpt>
      <trkpt lat="43.81393" lon="7.2824">
        <ele>867</ele>
        <time>0001-01-01T00:00:00</time>
      </trkpt>
      <trkpt lat="43.81392" lon="7.28234">
        <ele>867</ele>
        <time>0001-01-01T00:00:00</time>
      </trkpt>
      <trkpt lat="43.81392" lon="7.28231">
        <ele>867</ele>
        <time>0001-01-01T00:00:00</time>
      </trkpt>
      <trkpt lat="43.81392" lon="7.2823">
        <ele>867</ele>
        <time>0001-01-01T00:00:00</time>
      </trkpt>
      <trkpt lat="43.81382" lon="7.28224">
        <ele>866</ele>
        <time>0001-01-01T00:00:00</time>
      </trkpt>
      <trkpt lat="43.81381" lon="7.28223">
        <ele>866</ele>
        <time>0001-01-01T00:00:00</time>
      </trkpt>
      <trkpt lat="43.81381" lon="7.28223">
        <ele>866</ele>
        <time>0001-01-01T00:00:00</time>
      </trkpt>
      <trkpt lat="43.81373" lon="7.2822">
        <ele>865</ele>
        <time>0001-01-01T00:00:00</time>
      </trkpt>
      <trkpt lat="43.81367" lon="7.28216">
        <ele>865</ele>
        <time>0001-01-01T00:00:00</time>
      </trkpt>
      <trkpt lat="43.81361" lon="7.28206">
        <ele>864</ele>
        <time>0001-01-01T00:00:00</time>
      </trkpt>
      <trkpt lat="43.81346" lon="7.28198">
        <ele>862</ele>
        <time>0001-01-01T00:00:00</time>
      </trkpt>
      <trkpt lat="43.81342" lon="7.28187">
        <ele>861</ele>
        <time>0001-01-01T00:00:00</time>
      </trkpt>
      <trkpt lat="43.81336" lon="7.28168">
        <ele>856</ele>
        <time>0001-01-01T00:00:00</time>
      </trkpt>
      <trkpt lat="43.81332" lon="7.2815">
        <ele>850</ele>
        <time>0001-01-01T00:00:00</time>
      </trkpt>
      <trkpt lat="43.81332" lon="7.28147">
        <ele>850</ele>
        <time>0001-01-01T00:00:00</time>
      </trkpt>
      <trkpt lat="43.8133" lon="7.28145">
        <ele>849</ele>
        <time>0001-01-01T00:00:00</time>
      </trkpt>
      <trkpt lat="43.81325" lon="7.28142">
        <ele>848</ele>
        <time>0001-01-01T00:00:00</time>
      </trkpt>
      <trkpt lat="43.81321" lon="7.2814">
        <ele>848</ele>
        <time>0001-01-01T00:00:00</time>
      </trkpt>
      <trkpt lat="43.81316" lon="7.2814">
        <ele>847</ele>
        <time>0001-01-01T00:00:00</time>
      </trkpt>
      <trkpt lat="43.81311" lon="7.28134">
        <ele>847</ele>
        <time>0001-01-01T00:00:00</time>
      </trkpt>
      <trkpt lat="43.81314" lon="7.28108">
        <ele>846</ele>
        <time>0001-01-01T00:00:00</time>
      </trkpt>
      <trkpt lat="43.81313" lon="7.28104">
        <ele>846</ele>
        <time>0001-01-01T00:00:00</time>
      </trkpt>
      <trkpt lat="43.81316" lon="7.28092">
        <ele>846</ele>
        <time>0001-01-01T00:00:00</time>
      </trkpt>
      <trkpt lat="43.81324" lon="7.28079">
        <ele>847</ele>
        <time>0001-01-01T00:00:00</time>
      </trkpt>
      <trkpt lat="43.81326" lon="7.28072">
        <ele>847</ele>
        <time>0001-01-01T00:00:00</time>
      </trkpt>
      <trkpt lat="43.81334" lon="7.28039">
        <ele>850</ele>
        <time>0001-01-01T00:00:00</time>
      </trkpt>
      <trkpt lat="43.81342" lon="7.28019">
        <ele>849</ele>
        <time>0001-01-01T00:00:00</time>
      </trkpt>
      <trkpt lat="43.81342" lon="7.28017">
        <ele>848</ele>
        <time>0001-01-01T00:00:00</time>
      </trkpt>
      <trkpt lat="43.8134" lon="7.28013">
        <ele>848</ele>
        <time>0001-01-01T00:00:00</time>
      </trkpt>
      <trkpt lat="43.81336" lon="7.28003">
        <ele>847</ele>
        <time>0001-01-01T00:00:00</time>
      </trkpt>
      <trkpt lat="43.81333" lon="7.27989">
        <ele>845</ele>
        <time>0001-01-01T00:00:00</time>
      </trkpt>
      <trkpt lat="43.81333" lon="7.27977">
        <ele>845</ele>
        <time>0001-01-01T00:00:00</time>
      </trkpt>
      <trkpt lat="43.81335" lon="7.2796">
        <ele>840</ele>
        <time>0001-01-01T00:00:00</time>
      </trkpt>
      <trkpt lat="43.8134" lon="7.27948">
        <ele>840</ele>
        <time>0001-01-01T00:00:00</time>
      </trkpt>
      <trkpt lat="43.81341" lon="7.27944">
        <ele>839</ele>
        <time>0001-01-01T00:00:00</time>
      </trkpt>
      <trkpt lat="43.81343" lon="7.27932">
        <ele>839</ele>
        <time>0001-01-01T00:00:00</time>
      </trkpt>
      <trkpt lat="43.81341" lon="7.27931">
        <ele>840</ele>
        <time>0001-01-01T00:00:00</time>
      </trkpt>
      <trkpt lat="43.81339" lon="7.2793">
        <ele>840</ele>
        <time>0001-01-01T00:00:00</time>
      </trkpt>
      <trkpt lat="43.81341" lon="7.27926">
        <ele>840</ele>
        <time>0001-01-01T00:00:00</time>
      </trkpt>
      <trkpt lat="43.81341" lon="7.27926">
        <ele>840</ele>
        <time>0001-01-01T00:00:00</time>
      </trkpt>
      <trkpt lat="43.81342" lon="7.27931">
        <ele>839</ele>
        <time>0001-01-01T00:00:00</time>
      </trkpt>
      <trkpt lat="43.81343" lon="7.27932">
        <ele>839</ele>
        <time>0001-01-01T00:00:00</time>
      </trkpt>
      <trkpt lat="43.81347" lon="7.2793">
        <ele>839</ele>
        <time>0001-01-01T00:00:00</time>
      </trkpt>
      <trkpt lat="43.81349" lon="7.2792">
        <ele>839</ele>
        <time>0001-01-01T00:00:00</time>
      </trkpt>
      <trkpt lat="43.81356" lon="7.27913">
        <ele>829</ele>
        <time>0001-01-01T00:00:00</time>
      </trkpt>
      <trkpt lat="43.81363" lon="7.279">
        <ele>826</ele>
        <time>0001-01-01T00:00:00</time>
      </trkpt>
      <trkpt lat="43.8138" lon="7.27879">
        <ele>821</ele>
        <time>0001-01-01T00:00:00</time>
      </trkpt>
      <trkpt lat="43.8139" lon="7.27867">
        <ele>819</ele>
        <time>0001-01-01T00:00:00</time>
      </trkpt>
      <trkpt lat="43.81403" lon="7.2785">
        <ele>816</ele>
        <time>0001-01-01T00:00:00</time>
      </trkpt>
      <trkpt lat="43.81404" lon="7.27843">
        <ele>815</ele>
        <time>0001-01-01T00:00:00</time>
      </trkpt>
      <trkpt lat="43.81411" lon="7.27835">
        <ele>812</ele>
        <time>0001-01-01T00:00:00</time>
      </trkpt>
      <trkpt lat="43.8141" lon="7.27821">
        <ele>805</ele>
        <time>0001-01-01T00:00:00</time>
      </trkpt>
      <trkpt lat="43.81411" lon="7.27807">
        <ele>802</ele>
        <time>0001-01-01T00:00:00</time>
      </trkpt>
      <trkpt lat="43.81416" lon="7.27789">
        <ele>800</ele>
        <time>0001-01-01T00:00:00</time>
      </trkpt>
      <trkpt lat="43.81424" lon="7.27772">
        <ele>796</ele>
        <time>0001-01-01T00:00:00</time>
      </trkpt>
      <trkpt lat="43.81434" lon="7.27767">
        <ele>795</ele>
        <time>0001-01-01T00:00:00</time>
      </trkpt>
      <trkpt lat="43.81445" lon="7.27754">
        <ele>794</ele>
        <time>0001-01-01T00:00:00</time>
      </trkpt>
      <trkpt lat="43.81453" lon="7.27738">
        <ele>785</ele>
        <time>0001-01-01T00:00:00</time>
      </trkpt>
      <trkpt lat="43.81461" lon="7.27719">
        <ele>784</ele>
        <time>0001-01-01T00:00:00</time>
      </trkpt>
      <trkpt lat="43.81469" lon="7.27698">
        <ele>783</ele>
        <time>0001-01-01T00:00:00</time>
      </trkpt>
      <trkpt lat="43.8148" lon="7.27671">
        <ele>783</ele>
        <time>0001-01-01T00:00:00</time>
      </trkpt>
      <trkpt lat="43.81482" lon="7.27666">
        <ele>780</ele>
        <time>0001-01-01T00:00:00</time>
      </trkpt>
      <trkpt lat="43.81488" lon="7.27642">
        <ele>779</ele>
        <time>0001-01-01T00:00:00</time>
      </trkpt>
      <trkpt lat="43.8149" lon="7.27639">
        <ele>779</ele>
        <time>0001-01-01T00:00:00</time>
      </trkpt>
      <trkpt lat="43.81491" lon="7.27634">
        <ele>778</ele>
        <time>0001-01-01T00:00:00</time>
      </trkpt>
      <trkpt lat="43.81496" lon="7.27624">
        <ele>778</ele>
        <time>0001-01-01T00:00:00</time>
      </trkpt>
      <trkpt lat="43.815" lon="7.27613">
        <ele>779</ele>
        <time>0001-01-01T00:00:00</time>
      </trkpt>
      <trkpt lat="43.815" lon="7.27614">
        <ele>775</ele>
        <time>0001-01-01T00:00:00</time>
      </trkpt>
      <trkpt lat="43.81501" lon="7.27616">
        <ele>775</ele>
        <time>0001-01-01T00:00:00</time>
      </trkpt>
      <trkpt lat="43.81503" lon="7.27616">
        <ele>774</ele>
        <time>0001-01-01T00:00:00</time>
      </trkpt>
      <trkpt lat="43.81507" lon="7.2761">
        <ele>775</ele>
        <time>0001-01-01T00:00:00</time>
      </trkpt>
      <trkpt lat="43.81514" lon="7.27607">
        <ele>774</ele>
        <time>0001-01-01T00:00:00</time>
      </trkpt>
      <trkpt lat="43.8152" lon="7.27599">
        <ele>774</ele>
        <time>0001-01-01T00:00:00</time>
      </trkpt>
      <trkpt lat="43.81533" lon="7.27577">
        <ele>771</ele>
        <time>0001-01-01T00:00:00</time>
      </trkpt>
      <trkpt lat="43.81535" lon="7.27573">
        <ele>770</ele>
        <time>0001-01-01T00:00:00</time>
      </trkpt>
      <trkpt lat="43.81553" lon="7.27565">
        <ele>766</ele>
        <time>0001-01-01T00:00:00</time>
      </trkpt>
      <trkpt lat="43.81567" lon="7.27549">
        <ele>765</ele>
        <time>0001-01-01T00:00:00</time>
      </trkpt>
      <trkpt lat="43.81575" lon="7.27541">
        <ele>764</ele>
        <time>0001-01-01T00:00:00</time>
      </trkpt>
      <trkpt lat="43.81584" lon="7.27527">
        <ele>749</ele>
        <time>0001-01-01T00:00:00</time>
      </trkpt>
      <trkpt lat="43.8159" lon="7.27526">
        <ele>749</ele>
        <time>0001-01-01T00:00:00</time>
      </trkpt>
      <trkpt lat="43.816" lon="7.27515">
        <ele>749</ele>
        <time>0001-01-01T00:00:00</time>
      </trkpt>
      <trkpt lat="43.81615" lon="7.27495">
        <ele>744</ele>
        <time>0001-01-01T00:00:00</time>
      </trkpt>
      <trkpt lat="43.81628" lon="7.27485">
        <ele>741</ele>
        <time>0001-01-01T00:00:00</time>
      </trkpt>
      <trkpt lat="43.81639" lon="7.27473">
        <ele>739</ele>
        <time>0001-01-01T00:00:00</time>
      </trkpt>
      <trkpt lat="43.81643" lon="7.27463">
        <ele>739</ele>
        <time>0001-01-01T00:00:00</time>
      </trkpt>
      <trkpt lat="43.8166" lon="7.27449">
        <ele>738</ele>
        <time>0001-01-01T00:00:00</time>
      </trkpt>
      <trkpt lat="43.81669" lon="7.2744">
        <ele>728</ele>
        <time>0001-01-01T00:00:00</time>
      </trkpt>
      <trkpt lat="43.81677" lon="7.27429">
        <ele>729</ele>
        <time>0001-01-01T00:00:00</time>
      </trkpt>
      <trkpt lat="43.81694" lon="7.27405">
        <ele>729</ele>
        <time>0001-01-01T00:00:00</time>
      </trkpt>
      <trkpt lat="43.81696" lon="7.27401">
        <ele>728</ele>
        <time>0001-01-01T00:00:00</time>
      </trkpt>
      <trkpt lat="43.81702" lon="7.27394">
        <ele>727</ele>
        <time>0001-01-01T00:00:00</time>
      </trkpt>
      <trkpt lat="43.81707" lon="7.27387">
        <ele>727</ele>
        <time>0001-01-01T00:00:00</time>
      </trkpt>
      <trkpt lat="43.81721" lon="7.27365">
        <ele>728</ele>
        <time>0001-01-01T00:00:00</time>
      </trkpt>
      <trkpt lat="43.81731" lon="7.27345">
        <ele>729</ele>
        <time>0001-01-01T00:00:00</time>
      </trkpt>
      <trkpt lat="43.81733" lon="7.27344">
        <ele>730</ele>
        <time>0001-01-01T00:00:00</time>
      </trkpt>
      <trkpt lat="43.81734" lon="7.27342">
        <ele>730</ele>
        <time>0001-01-01T00:00:00</time>
      </trkpt>
      <trkpt lat="43.81739" lon="7.2733">
        <ele>730</ele>
        <time>0001-01-01T00:00:00</time>
      </trkpt>
      <trkpt lat="43.81746" lon="7.27315">
        <ele>729</ele>
        <time>0001-01-01T00:00:00</time>
      </trkpt>
      <trkpt lat="43.81757" lon="7.27294">
        <ele>722</ele>
        <time>0001-01-01T00:00:00</time>
      </trkpt>
      <trkpt lat="43.8177" lon="7.27273">
        <ele>721</ele>
        <time>0001-01-01T00:00:00</time>
      </trkpt>
      <trkpt lat="43.8178" lon="7.27255">
        <ele>720</ele>
        <time>0001-01-01T00:00:00</time>
      </trkpt>
      <trkpt lat="43.8179" lon="7.27237">
        <ele>715</ele>
        <time>0001-01-01T00:00:00</time>
      </trkpt>
      <trkpt lat="43.81802" lon="7.27219">
        <ele>713</ele>
        <time>0001-01-01T00:00:00</time>
      </trkpt>
      <trkpt lat="43.81813" lon="7.27202">
        <ele>711</ele>
        <time>0001-01-01T00:00:00</time>
      </trkpt>
      <trkpt lat="43.81841" lon="7.27165">
        <ele>700</ele>
        <time>0001-01-01T00:00:00</time>
      </trkpt>
      <trkpt lat="43.81856" lon="7.27148">
        <ele>692</ele>
        <time>0001-01-01T00:00:00</time>
      </trkpt>
      <trkpt lat="43.8188" lon="7.27109">
        <ele>686</ele>
        <time>0001-01-01T00:00:00</time>
      </trkpt>
      <trkpt lat="43.81894" lon="7.27089">
        <ele>685</ele>
        <time>0001-01-01T00:00:00</time>
      </trkpt>
      <trkpt lat="43.81899" lon="7.27082">
        <ele>679</ele>
        <time>0001-01-01T00:00:00</time>
      </trkpt>
      <trkpt lat="43.81916" lon="7.27062">
        <ele>678</ele>
        <time>0001-01-01T00:00:00</time>
      </trkpt>
      <trkpt lat="43.81932" lon="7.27042">
        <ele>673</ele>
        <time>0001-01-01T00:00:00</time>
      </trkpt>
      <trkpt lat="43.8195" lon="7.27029">
        <ele>671</ele>
        <time>0001-01-01T00:00:00</time>
      </trkpt>
      <trkpt lat="43.81949" lon="7.27028">
        <ele>671</ele>
        <time>0001-01-01T00:00:00</time>
      </trkpt>
      <trkpt lat="43.81947" lon="7.27029">
        <ele>671</ele>
        <time>0001-01-01T00:00:00</time>
      </trkpt>
      <trkpt lat="43.81942" lon="7.27028">
        <ele>672</ele>
        <time>0001-01-01T00:00:00</time>
      </trkpt>
      <trkpt lat="43.81942" lon="7.27025">
        <ele>672</ele>
        <time>0001-01-01T00:00:00</time>
      </trkpt>
      <trkpt lat="43.81943" lon="7.27025">
        <ele>672</ele>
        <time>0001-01-01T00:00:00</time>
      </trkpt>
      <trkpt lat="43.81946" lon="7.27022">
        <ele>671</ele>
        <time>0001-01-01T00:00:00</time>
      </trkpt>
      <trkpt lat="43.81948" lon="7.27018">
        <ele>671</ele>
        <time>0001-01-01T00:00:00</time>
      </trkpt>
      <trkpt lat="43.81955" lon="7.27009">
        <ele>671</ele>
        <time>0001-01-01T00:00:00</time>
      </trkpt>
      <trkpt lat="43.81967" lon="7.26999">
        <ele>665</ele>
        <time>0001-01-01T00:00:00</time>
      </trkpt>
      <trkpt lat="43.81973" lon="7.26998">
        <ele>665</ele>
        <time>0001-01-01T00:00:00</time>
      </trkpt>
      <trkpt lat="43.81977" lon="7.26996">
        <ele>665</ele>
        <time>0001-01-01T00:00:00</time>
      </trkpt>
      <trkpt lat="43.81981" lon="7.26985">
        <ele>664</ele>
        <time>0001-01-01T00:00:00</time>
      </trkpt>
      <trkpt lat="43.81989" lon="7.26974">
        <ele>663</ele>
        <time>0001-01-01T00:00:00</time>
      </trkpt>
      <trkpt lat="43.81996" lon="7.26969">
        <ele>663</ele>
        <time>0001-01-01T00:00:00</time>
      </trkpt>
      <trkpt lat="43.82004" lon="7.26954">
        <ele>654</ele>
        <time>0001-01-01T00:00:00</time>
      </trkpt>
      <trkpt lat="43.82012" lon="7.26953">
        <ele>653</ele>
        <time>0001-01-01T00:00:00</time>
      </trkpt>
      <trkpt lat="43.82016" lon="7.26959">
        <ele>652</ele>
        <time>0001-01-01T00:00:00</time>
      </trkpt>
      <trkpt lat="43.82022" lon="7.26954">
        <ele>651</ele>
        <time>0001-01-01T00:00:00</time>
      </trkpt>
      <trkpt lat="43.82034" lon="7.26948">
        <ele>650</ele>
        <time>0001-01-01T00:00:00</time>
      </trkpt>
      <trkpt lat="43.82038" lon="7.26936">
        <ele>649</ele>
        <time>0001-01-01T00:00:00</time>
      </trkpt>
      <trkpt lat="43.82047" lon="7.26936">
        <ele>647</ele>
        <time>0001-01-01T00:00:00</time>
      </trkpt>
      <trkpt lat="43.82049" lon="7.26937">
        <ele>646</ele>
        <time>0001-01-01T00:00:00</time>
      </trkpt>
      <trkpt lat="43.82054" lon="7.2693">
        <ele>645</ele>
        <time>0001-01-01T00:00:00</time>
      </trkpt>
      <trkpt lat="43.82055" lon="7.26903">
        <ele>637</ele>
        <time>0001-01-01T00:00:00</time>
      </trkpt>
      <trkpt lat="43.82051" lon="7.26879">
        <ele>636</ele>
        <time>0001-01-01T00:00:00</time>
      </trkpt>
      <trkpt lat="43.82045" lon="7.26866">
        <ele>635</ele>
        <time>0001-01-01T00:00:00</time>
      </trkpt>
      <trkpt lat="43.82049" lon="7.2686">
        <ele>634</ele>
        <time>0001-01-01T00:00:00</time>
      </trkpt>
      <trkpt lat="43.82048" lon="7.2685">
        <ele>633</ele>
        <time>0001-01-01T00:00:00</time>
      </trkpt>
      <trkpt lat="43.8204" lon="7.26834">
        <ele>633</ele>
        <time>0001-01-01T00:00:00</time>
      </trkpt>
      <trkpt lat="43.82037" lon="7.2683">
        <ele>618</ele>
        <time>0001-01-01T00:00:00</time>
      </trkpt>
      <trkpt lat="43.82032" lon="7.26822">
        <ele>619</ele>
        <time>0001-01-01T00:00:00</time>
      </trkpt>
      <trkpt lat="43.8204" lon="7.26816">
        <ele>617</ele>
        <time>0001-01-01T00:00:00</time>
      </trkpt>
      <trkpt lat="43.82053" lon="7.26812">
        <ele>615</ele>
        <time>0001-01-01T00:00:00</time>
      </trkpt>
      <trkpt lat="43.82059" lon="7.26812">
        <ele>614</ele>
        <time>0001-01-01T00:00:00</time>
      </trkpt>
      <trkpt lat="43.82057" lon="7.26807">
        <ele>614</ele>
        <time>0001-01-01T00:00:00</time>
      </trkpt>
      <trkpt lat="43.82043" lon="7.26784">
        <ele>612</ele>
        <time>0001-01-01T00:00:00</time>
      </trkpt>
      <trkpt lat="43.8204" lon="7.26781">
        <ele>611</ele>
        <time>0001-01-01T00:00:00</time>
      </trkpt>
      <trkpt lat="43.82045" lon="7.26777">
        <ele>610</ele>
        <time>0001-01-01T00:00:00</time>
      </trkpt>
      <trkpt lat="43.82054" lon="7.26774">
        <ele>609</ele>
        <time>0001-01-01T00:00:00</time>
      </trkpt>
      <trkpt lat="43.82065" lon="7.2677">
        <ele>607</ele>
        <time>0001-01-01T00:00:00</time>
      </trkpt>
      <trkpt lat="43.82076" lon="7.26763">
        <ele>604</ele>
        <time>0001-01-01T00:00:00</time>
      </trkpt>
      <trkpt lat="43.82082" lon="7.26762">
        <ele>603</ele>
        <time>0001-01-01T00:00:00</time>
      </trkpt>
      <trkpt lat="43.82078" lon="7.26749">
        <ele>595</ele>
        <time>0001-01-01T00:00:00</time>
      </trkpt>
      <trkpt lat="43.82076" lon="7.26739">
        <ele>592</ele>
        <time>0001-01-01T00:00:00</time>
      </trkpt>
      <trkpt lat="43.8207" lon="7.26731">
        <ele>590</ele>
        <time>0001-01-01T00:00:00</time>
      </trkpt>
      <trkpt lat="43.82066" lon="7.26725">
        <ele>588</ele>
        <time>0001-01-01T00:00:00</time>
      </trkpt>
      <trkpt lat="43.82066" lon="7.26714">
        <ele>586</ele>
        <time>0001-01-01T00:00:00</time>
      </trkpt>
      <trkpt lat="43.82066" lon="7.26703">
        <ele>584</ele>
        <time>0001-01-01T00:00:00</time>
      </trkpt>
      <trkpt lat="43.8207" lon="7.26696">
        <ele>583</ele>
        <time>0001-01-01T00:00:00</time>
      </trkpt>
      <trkpt lat="43.82081" lon="7.26692">
        <ele>582</ele>
        <time>0001-01-01T00:00:00</time>
      </trkpt>
      <trkpt lat="43.82096" lon="7.26691">
        <ele>571</ele>
        <time>0001-01-01T00:00:00</time>
      </trkpt>
      <trkpt lat="43.821" lon="7.26692">
        <ele>571</ele>
        <time>0001-01-01T00:00:00</time>
      </trkpt>
      <trkpt lat="43.82111" lon="7.26693">
        <ele>569</ele>
        <time>0001-01-01T00:00:00</time>
      </trkpt>
      <trkpt lat="43.82114" lon="7.26692">
        <ele>568</ele>
        <time>0001-01-01T00:00:00</time>
      </trkpt>
      <trkpt lat="43.82112" lon="7.26687">
        <ele>569</ele>
        <time>0001-01-01T00:00:00</time>
      </trkpt>
      <trkpt lat="43.82113" lon="7.26685">
        <ele>568</ele>
        <time>0001-01-01T00:00:00</time>
      </trkpt>
      <trkpt lat="43.82111" lon="7.26682">
        <ele>569</ele>
        <time>0001-01-01T00:00:00</time>
      </trkpt>
      <trkpt lat="43.82112" lon="7.26681">
        <ele>568</ele>
        <time>0001-01-01T00:00:00</time>
      </trkpt>
      <trkpt lat="43.82124" lon="7.26682">
        <ele>566</ele>
        <time>0001-01-01T00:00:00</time>
      </trkpt>
      <trkpt lat="43.82127" lon="7.26677">
        <ele>565</ele>
        <time>0001-01-01T00:00:00</time>
      </trkpt>
      <trkpt lat="43.82102" lon="7.26654">
        <ele>557</ele>
        <time>0001-01-01T00:00:00</time>
      </trkpt>
      <trkpt lat="43.82084" lon="7.2664">
        <ele>555</ele>
        <time>0001-01-01T00:00:00</time>
      </trkpt>
      <trkpt lat="43.82059" lon="7.26631">
        <ele>555</ele>
        <time>0001-01-01T00:00:00</time>
      </trkpt>
      <trkpt lat="43.82048" lon="7.26626">
        <ele>553</ele>
        <time>0001-01-01T00:00:00</time>
      </trkpt>
      <trkpt lat="43.82037" lon="7.26622">
        <ele>552</ele>
        <time>0001-01-01T00:00:00</time>
      </trkpt>
      <trkpt lat="43.82027" lon="7.26619">
        <ele>550</ele>
        <time>0001-01-01T00:00:00</time>
      </trkpt>
      <trkpt lat="43.8201" lon="7.26616">
        <ele>548</ele>
        <time>0001-01-01T00:00:00</time>
      </trkpt>
      <trkpt lat="43.81998" lon="7.26617">
        <ele>539</ele>
        <time>0001-01-01T00:00:00</time>
      </trkpt>
      <trkpt lat="43.8199" lon="7.26618">
        <ele>538</ele>
        <time>0001-01-01T00:00:00</time>
      </trkpt>
      <trkpt lat="43.81981" lon="7.2662">
        <ele>538</ele>
        <time>0001-01-01T00:00:00</time>
      </trkpt>
      <trkpt lat="43.81955" lon="7.26624">
        <ele>536</ele>
        <time>0001-01-01T00:00:00</time>
      </trkpt>
      <trkpt lat="43.8195" lon="7.26627">
        <ele>536</ele>
        <time>0001-01-01T00:00:00</time>
      </trkpt>
      <trkpt lat="43.81931" lon="7.26632">
        <ele>535</ele>
        <time>0001-01-01T00:00:00</time>
      </trkpt>
      <trkpt lat="43.8191" lon="7.26638">
        <ele>520</ele>
        <time>0001-01-01T00:00:00</time>
      </trkpt>
      <trkpt lat="43.81902" lon="7.26641">
        <ele>520</ele>
        <time>0001-01-01T00:00:00</time>
      </trkpt>
      <trkpt lat="43.81899" lon="7.26643">
        <ele>520</ele>
        <time>0001-01-01T00:00:00</time>
      </trkpt>
      <trkpt lat="43.81897" lon="7.26642">
        <ele>519</ele>
        <time>0001-01-01T00:00:00</time>
      </trkpt>
      <trkpt lat="43.81885" lon="7.26649">
        <ele>518</ele>
        <time>0001-01-01T00:00:00</time>
      </trkpt>
      <trkpt lat="43.81858" lon="7.26665">
        <ele>514</ele>
        <time>0001-01-01T00:00:00</time>
      </trkpt>
      <trkpt lat="43.8185" lon="7.26671">
        <ele>528</ele>
        <time>0001-01-01T00:00:00</time>
      </trkpt>
      <trkpt lat="43.81831" lon="7.26683">
        <ele>513</ele>
        <time>0001-01-01T00:00:00</time>
      </trkpt>
      <trkpt lat="43.81822" lon="7.26693">
        <ele>514</ele>
        <time>0001-01-01T00:00:00</time>
      </trkpt>
      <trkpt lat="43.81808" lon="7.26705">
        <ele>515</ele>
        <time>0001-01-01T00:00:00</time>
      </trkpt>
      <trkpt lat="43.81791" lon="7.26723">
        <ele>515</ele>
        <time>0001-01-01T00:00:00</time>
      </trkpt>
      <trkpt lat="43.81771" lon="7.26732">
        <ele>512</ele>
        <time>0001-01-01T00:00:00</time>
      </trkpt>
      <trkpt lat="43.81756" lon="7.26738">
        <ele>511</ele>
        <time>0001-01-01T00:00:00</time>
      </trkpt>
      <trkpt lat="43.81737" lon="7.26753">
        <ele>514</ele>
        <time>0001-01-01T00:00:00</time>
      </trkpt>
      <trkpt lat="43.81716" lon="7.26762">
        <ele>515</ele>
        <time>0001-01-01T00:00:00</time>
      </trkpt>
      <trkpt lat="43.81709" lon="7.26764">
        <ele>515</ele>
        <time>0001-01-01T00:00:00</time>
      </trkpt>
      <trkpt lat="43.81702" lon="7.26764">
        <ele>514</ele>
        <time>0001-01-01T00:00:00</time>
      </trkpt>
      <trkpt lat="43.81681" lon="7.26767">
        <ele>509</ele>
        <time>0001-01-01T00:00:00</time>
      </trkpt>
      <trkpt lat="43.81664" lon="7.26777">
        <ele>500</ele>
        <time>0001-01-01T00:00:00</time>
      </trkpt>
      <trkpt lat="43.81637" lon="7.2679">
        <ele>502</ele>
        <time>0001-01-01T00:00:00</time>
      </trkpt>
      <trkpt lat="43.81632" lon="7.26791">
        <ele>502</ele>
        <time>0001-01-01T00:00:00</time>
      </trkpt>
      <trkpt lat="43.81604" lon="7.26796">
        <ele>500</ele>
        <time>0001-01-01T00:00:00</time>
      </trkpt>
      <trkpt lat="43.81594" lon="7.26791">
        <ele>498</ele>
        <time>0001-01-01T00:00:00</time>
      </trkpt>
      <trkpt lat="43.81581" lon="7.2679">
        <ele>490</ele>
        <time>0001-01-01T00:00:00</time>
      </trkpt>
      <trkpt lat="43.81562" lon="7.26782">
        <ele>487</ele>
        <time>0001-01-01T00:00:00</time>
      </trkpt>
      <trkpt lat="43.81538" lon="7.2679">
        <ele>488</ele>
        <time>0001-01-01T00:00:00</time>
      </trkpt>
      <trkpt lat="43.81507" lon="7.26805">
        <ele>491</ele>
        <time>0001-01-01T00:00:00</time>
      </trkpt>
      <trkpt lat="43.81507" lon="7.26793">
        <ele>488</ele>
        <time>0001-01-01T00:00:00</time>
      </trkpt>
      <trkpt lat="43.81501" lon="7.26777">
        <ele>483</ele>
        <time>0001-01-01T00:00:00</time>
      </trkpt>
      <trkpt lat="43.81494" lon="7.26766">
        <ele>478</ele>
        <time>0001-01-01T00:00:00</time>
      </trkpt>
      <trkpt lat="43.81467" lon="7.26765">
        <ele>481</ele>
        <time>0001-01-01T00:00:00</time>
      </trkpt>
      <trkpt lat="43.81451" lon="7.26768">
        <ele>482</ele>
        <time>0001-01-01T00:00:00</time>
      </trkpt>
      <trkpt lat="43.81409" lon="7.26763">
        <ele>477</ele>
        <time>0001-01-01T00:00:00</time>
      </trkpt>
      <trkpt lat="43.81366" lon="7.26741">
        <ele>461</ele>
        <time>0001-01-01T00:00:00</time>
      </trkpt>
      <trkpt lat="43.81325" lon="7.26737">
        <ele>459</ele>
        <time>0001-01-01T00:00:00</time>
      </trkpt>
      <trkpt lat="43.81305" lon="7.26745">
        <ele>456</ele>
        <time>0001-01-01T00:00:00</time>
      </trkpt>
      <trkpt lat="43.81264" lon="7.2677">
        <ele>467</ele>
        <time>0001-01-01T00:00:00</time>
      </trkpt>
      <trkpt lat="43.81218" lon="7.26775">
        <ele>463</ele>
        <time>0001-01-01T00:00:00</time>
      </trkpt>
      <trkpt lat="43.81207" lon="7.26773">
        <ele>462</ele>
        <time>0001-01-01T00:00:00</time>
      </trkpt>
      <trkpt lat="43.81161" lon="7.26764">
        <ele>455</ele>
        <time>0001-01-01T00:00:00</time>
      </trkpt>
      <trkpt lat="43.81117" lon="7.26779">
        <ele>456</ele>
        <time>0001-01-01T00:00:00</time>
      </trkpt>
      <trkpt lat="43.81105" lon="7.26786">
        <ele>456</ele>
        <time>0001-01-01T00:00:00</time>
      </trkpt>
      <trkpt lat="43.8106" lon="7.26788">
        <ele>451</ele>
        <time>0001-01-01T00:00:00</time>
      </trkpt>
      <trkpt lat="43.80992" lon="7.26786">
        <ele>443</ele>
        <time>0001-01-01T00:00:00</time>
      </trkpt>
      <trkpt lat="43.80934" lon="7.26804">
        <ele>442</ele>
        <time>0001-01-01T00:00:00</time>
      </trkpt>
      <trkpt lat="43.80877" lon="7.26821">
        <ele>436</ele>
        <time>0001-01-01T00:00:00</time>
      </trkpt>
      <trkpt lat="43.80831" lon="7.26811">
        <ele>431</ele>
        <time>0001-01-01T00:00:00</time>
      </trkpt>
      <trkpt lat="43.80808" lon="7.26802">
        <ele>428</ele>
        <time>0001-01-01T00:00:00</time>
      </trkpt>
      <trkpt lat="43.80762" lon="7.26807">
        <ele>427</ele>
        <time>0001-01-01T00:00:00</time>
      </trkpt>
      <trkpt lat="43.80705" lon="7.26837">
        <ele>429</ele>
        <time>0001-01-01T00:00:00</time>
      </trkpt>
      <trkpt lat="43.80664" lon="7.2687">
        <ele>420</ele>
        <time>0001-01-01T00:00:00</time>
      </trkpt>
      <trkpt lat="43.80608" lon="7.26895">
        <ele>422</ele>
        <time>0001-01-01T00:00:00</time>
      </trkpt>
      <trkpt lat="43.80537" lon="7.2692">
        <ele>430</ele>
        <time>0001-01-01T00:00:00</time>
      </trkpt>
      <trkpt lat="43.80482" lon="7.26919">
        <ele>418</ele>
        <time>0001-01-01T00:00:00</time>
      </trkpt>
      <trkpt lat="43.80442" lon="7.26916">
        <ele>404</ele>
        <time>0001-01-01T00:00:00</time>
      </trkpt>
      <trkpt lat="43.80423" lon="7.26911">
        <ele>405</ele>
        <time>0001-01-01T00:00:00</time>
      </trkpt>
      <trkpt lat="43.80423" lon="7.26898">
        <ele>404</ele>
        <time>0001-01-01T00:00:00</time>
      </trkpt>
      <trkpt lat="43.80431" lon="7.26884">
        <ele>402</ele>
        <time>0001-01-01T00:00:00</time>
      </trkpt>
      <trkpt lat="43.80445" lon="7.26865">
        <ele>400</ele>
        <time>0001-01-01T00:00:00</time>
      </trkpt>
      <trkpt lat="43.80446" lon="7.26858">
        <ele>400</ele>
        <time>0001-01-01T00:00:00</time>
      </trkpt>
      <trkpt lat="43.80445" lon="7.26853">
        <ele>399</ele>
        <time>0001-01-01T00:00:00</time>
      </trkpt>
      <trkpt lat="43.80445" lon="7.2684">
        <ele>398</ele>
        <time>0001-01-01T00:00:00</time>
      </trkpt>
      <trkpt lat="43.80449" lon="7.26834">
        <ele>398</ele>
        <time>0001-01-01T00:00:00</time>
      </trkpt>
      <trkpt lat="43.80441" lon="7.26825">
        <ele>395</ele>
        <time>0001-01-01T00:00:00</time>
      </trkpt>
      <trkpt lat="43.80441" lon="7.26806">
        <ele>395</ele>
        <time>0001-01-01T00:00:00</time>
      </trkpt>
      <trkpt lat="43.80446" lon="7.2678">
        <ele>396</ele>
        <time>0001-01-01T00:00:00</time>
      </trkpt>
      <trkpt lat="43.80457" lon="7.26768">
        <ele>396</ele>
        <time>0001-01-01T00:00:00</time>
      </trkpt>
      <trkpt lat="43.80462" lon="7.26754">
        <ele>397</ele>
        <time>0001-01-01T00:00:00</time>
      </trkpt>
      <trkpt lat="43.8046" lon="7.26731">
        <ele>401</ele>
        <time>0001-01-01T00:00:00</time>
      </trkpt>
      <trkpt lat="43.80457" lon="7.26711">
        <ele>402</ele>
        <time>0001-01-01T00:00:00</time>
      </trkpt>
      <trkpt lat="43.8045" lon="7.26704">
        <ele>402</ele>
        <time>0001-01-01T00:00:00</time>
      </trkpt>
      <trkpt lat="43.80449" lon="7.26714">
        <ele>401</ele>
        <time>0001-01-01T00:00:00</time>
      </trkpt>
      <trkpt lat="43.80449" lon="7.26718">
        <ele>401</ele>
        <time>0001-01-01T00:00:00</time>
      </trkpt>
      <trkpt lat="43.80447" lon="7.26744">
        <ele>401</ele>
        <time>0001-01-01T00:00:00</time>
      </trkpt>
      <trkpt lat="43.80438" lon="7.2675">
        <ele>397</ele>
        <time>0001-01-01T00:00:00</time>
      </trkpt>
      <trkpt lat="43.80423" lon="7.26748">
        <ele>399</ele>
        <time>0001-01-01T00:00:00</time>
      </trkpt>
      <trkpt lat="43.80412" lon="7.26736">
        <ele>398</ele>
        <time>0001-01-01T00:00:00</time>
      </trkpt>
      <trkpt lat="43.80404" lon="7.26725">
        <ele>398</ele>
        <time>0001-01-01T00:00:00</time>
      </trkpt>
      <trkpt lat="43.80399" lon="7.2671">
        <ele>398</ele>
        <time>0001-01-01T00:00:00</time>
      </trkpt>
      <trkpt lat="43.80396" lon="7.2669">
        <ele>399</ele>
        <time>0001-01-01T00:00:00</time>
      </trkpt>
      <trkpt lat="43.80392" lon="7.26662">
        <ele>400</ele>
        <time>0001-01-01T00:00:00</time>
      </trkpt>
      <trkpt lat="43.80387" lon="7.26639">
        <ele>400</ele>
        <time>0001-01-01T00:00:00</time>
      </trkpt>
      <trkpt lat="43.80388" lon="7.26612">
        <ele>401</ele>
        <time>0001-01-01T00:00:00</time>
      </trkpt>
      <trkpt lat="43.80394" lon="7.26592">
        <ele>401</ele>
        <time>0001-01-01T00:00:00</time>
      </trkpt>
      <trkpt lat="43.80398" lon="7.26572">
        <ele>404</ele>
        <time>0001-01-01T00:00:00</time>
      </trkpt>
      <trkpt lat="43.80401" lon="7.26556">
        <ele>404</ele>
        <time>0001-01-01T00:00:00</time>
      </trkpt>
      <trkpt lat="43.80405" lon="7.26527">
        <ele>405</ele>
        <time>0001-01-01T00:00:00</time>
      </trkpt>
      <trkpt lat="43.80407" lon="7.26505">
        <ele>407</ele>
        <time>0001-01-01T00:00:00</time>
      </trkpt>
      <trkpt lat="43.80408" lon="7.26479">
        <ele>409</ele>
        <time>0001-01-01T00:00:00</time>
      </trkpt>
      <trkpt lat="43.80408" lon="7.26458">
        <ele>410</ele>
        <time>0001-01-01T00:00:00</time>
      </trkpt>
      <trkpt lat="43.80413" lon="7.26444">
        <ele>411</ele>
        <time>0001-01-01T00:00:00</time>
      </trkpt>
      <trkpt lat="43.8042" lon="7.2642">
        <ele>414</ele>
        <time>0001-01-01T00:00:00</time>
      </trkpt>
      <trkpt lat="43.80426" lon="7.26405">
        <ele>416</ele>
        <time>0001-01-01T00:00:00</time>
      </trkpt>
      <trkpt lat="43.80429" lon="7.26387">
        <ele>418</ele>
        <time>0001-01-01T00:00:00</time>
      </trkpt>
      <trkpt lat="43.8043" lon="7.26373">
        <ele>418</ele>
        <time>0001-01-01T00:00:00</time>
      </trkpt>
      <trkpt lat="43.80433" lon="7.26353">
        <ele>420</ele>
        <time>0001-01-01T00:00:00</time>
      </trkpt>
      <trkpt lat="43.80439" lon="7.26341">
        <ele>420</ele>
        <time>0001-01-01T00:00:00</time>
      </trkpt>
      <trkpt lat="43.80441" lon="7.26324">
        <ele>424</ele>
        <time>0001-01-01T00:00:00</time>
      </trkpt>
      <trkpt lat="43.80437" lon="7.26306">
        <ele>425</ele>
        <time>0001-01-01T00:00:00</time>
      </trkpt>
      <trkpt lat="43.80443" lon="7.26294">
        <ele>425</ele>
        <time>0001-01-01T00:00:00</time>
      </trkpt>
      <trkpt lat="43.80454" lon="7.26286">
        <ele>426</ele>
        <time>0001-01-01T00:00:00</time>
      </trkpt>
      <trkpt lat="43.80456" lon="7.26283">
        <ele>426</ele>
        <time>0001-01-01T00:00:00</time>
      </trkpt>
      <trkpt lat="43.8046" lon="7.26263">
        <ele>427</ele>
        <time>0001-01-01T00:00:00</time>
      </trkpt>
      <trkpt lat="43.80462" lon="7.26252">
        <ele>428</ele>
        <time>0001-01-01T00:00:00</time>
      </trkpt>
      <trkpt lat="43.80462" lon="7.26232">
        <ele>432</ele>
        <time>0001-01-01T00:00:00</time>
      </trkpt>
      <trkpt lat="43.80462" lon="7.262">
        <ele>433</ele>
        <time>0001-01-01T00:00:00</time>
      </trkpt>
      <trkpt lat="43.80464" lon="7.26176">
        <ele>434</ele>
        <time>0001-01-01T00:00:00</time>
      </trkpt>
      <trkpt lat="43.80466" lon="7.26172">
        <ele>435</ele>
        <time>0001-01-01T00:00:00</time>
      </trkpt>
      <trkpt lat="43.80462" lon="7.26164">
        <ele>443</ele>
        <time>0001-01-01T00:00:00</time>
      </trkpt>
      <trkpt lat="43.80451" lon="7.26166">
        <ele>442</ele>
        <time>0001-01-01T00:00:00</time>
      </trkpt>
      <trkpt lat="43.80447" lon="7.26166">
        <ele>441</ele>
        <time>0001-01-01T00:00:00</time>
      </trkpt>
      <trkpt lat="43.80433" lon="7.26165">
        <ele>438</ele>
        <time>0001-01-01T00:00:00</time>
      </trkpt>
      <trkpt lat="43.80422" lon="7.2616">
        <ele>436</ele>
        <time>0001-01-01T00:00:00</time>
      </trkpt>
      <trkpt lat="43.80418" lon="7.26155">
        <ele>437</ele>
        <time>0001-01-01T00:00:00</time>
      </trkpt>
      <trkpt lat="43.80406" lon="7.26149">
        <ele>437</ele>
        <time>0001-01-01T00:00:00</time>
      </trkpt>
      <trkpt lat="43.80396" lon="7.26142">
        <ele>438</ele>
        <time>0001-01-01T00:00:00</time>
      </trkpt>
      <trkpt lat="43.80389" lon="7.26132">
        <ele>440</ele>
        <time>0001-01-01T00:00:00</time>
      </trkpt>
      <trkpt lat="43.80379" lon="7.26121">
        <ele>441</ele>
        <time>0001-01-01T00:00:00</time>
      </trkpt>
      <trkpt lat="43.80373" lon="7.26114">
        <ele>442</ele>
        <time>0001-01-01T00:00:00</time>
      </trkpt>
      <trkpt lat="43.8037" lon="7.26112">
        <ele>442</ele>
        <time>0001-01-01T00:00:00</time>
      </trkpt>
      <trkpt lat="43.80368" lon="7.26105">
        <ele>443</ele>
        <time>0001-01-01T00:00:00</time>
      </trkpt>
      <trkpt lat="43.80355" lon="7.26101">
        <ele>443</ele>
        <time>0001-01-01T00:00:00</time>
      </trkpt>
      <trkpt lat="43.80344" lon="7.26096">
        <ele>444</ele>
        <time>0001-01-01T00:00:00</time>
      </trkpt>
      <trkpt lat="43.80328" lon="7.26081">
        <ele>450</ele>
        <time>0001-01-01T00:00:00</time>
      </trkpt>
      <trkpt lat="43.8032" lon="7.26074">
        <ele>453</ele>
        <time>0001-01-01T00:00:00</time>
      </trkpt>
      <trkpt lat="43.80319" lon="7.26073">
        <ele>453</ele>
        <time>0001-01-01T00:00:00</time>
      </trkpt>
      <trkpt lat="43.80317" lon="7.26065">
        <ele>454</ele>
        <time>0001-01-01T00:00:00</time>
      </trkpt>
      <trkpt lat="43.80312" lon="7.26056">
        <ele>456</ele>
        <time>0001-01-01T00:00:00</time>
      </trkpt>
      <trkpt lat="43.80309" lon="7.26053">
        <ele>457</ele>
        <time>0001-01-01T00:00:00</time>
      </trkpt>
      <trkpt lat="43.80299" lon="7.26048">
        <ele>457</ele>
        <time>0001-01-01T00:00:00</time>
      </trkpt>
      <trkpt lat="43.80298" lon="7.26047">
        <ele>458</ele>
        <time>0001-01-01T00:00:00</time>
      </trkpt>
      <trkpt lat="43.80288" lon="7.26041">
        <ele>458</ele>
        <time>0001-01-01T00:00:00</time>
      </trkpt>
      <trkpt lat="43.80285" lon="7.26039">
        <ele>459</ele>
        <time>0001-01-01T00:00:00</time>
      </trkpt>
      <trkpt lat="43.80275" lon="7.26036">
        <ele>459</ele>
        <time>0001-01-01T00:00:00</time>
      </trkpt>
      <trkpt lat="43.80268" lon="7.2603">
        <ele>460</ele>
        <time>0001-01-01T00:00:00</time>
      </trkpt>
      <trkpt lat="43.80263" lon="7.26025">
        <ele>461</ele>
        <time>0001-01-01T00:00:00</time>
      </trkpt>
      <trkpt lat="43.80257" lon="7.26019">
        <ele>463</ele>
        <time>0001-01-01T00:00:00</time>
      </trkpt>
      <trkpt lat="43.80254" lon="7.26016">
        <ele>464</ele>
        <time>0001-01-01T00:00:00</time>
      </trkpt>
      <trkpt lat="43.80244" lon="7.2601">
        <ele>463</ele>
        <time>0001-01-01T00:00:00</time>
      </trkpt>
      <trkpt lat="43.80239" lon="7.26007">
        <ele>462</ele>
        <time>0001-01-01T00:00:00</time>
      </trkpt>
      <trkpt lat="43.80236" lon="7.26008">
        <ele>461</ele>
        <time>0001-01-01T00:00:00</time>
      </trkpt>
      <trkpt lat="43.8023" lon="7.26004">
        <ele>460</ele>
        <time>0001-01-01T00:00:00</time>
      </trkpt>
      <trkpt lat="43.80228" lon="7.26002">
        <ele>460</ele>
        <time>0001-01-01T00:00:00</time>
      </trkpt>
      <trkpt lat="43.80223" lon="7.25999">
        <ele>474</ele>
        <time>0001-01-01T00:00:00</time>
      </trkpt>
      <trkpt lat="43.80219" lon="7.25995">
        <ele>474</ele>
        <time>0001-01-01T00:00:00</time>
      </trkpt>
      <trkpt lat="43.80216" lon="7.25987">
        <ele>475</ele>
        <time>0001-01-01T00:00:00</time>
      </trkpt>
      <trkpt lat="43.80213" lon="7.25982">
        <ele>475</ele>
        <time>0001-01-01T00:00:00</time>
      </trkpt>
      <trkpt lat="43.80209" lon="7.2598">
        <ele>475</ele>
        <time>0001-01-01T00:00:00</time>
      </trkpt>
      <trkpt lat="43.80205" lon="7.25974">
        <ele>476</ele>
        <time>0001-01-01T00:00:00</time>
      </trkpt>
      <trkpt lat="43.80202" lon="7.25969">
        <ele>476</ele>
        <time>0001-01-01T00:00:00</time>
      </trkpt>
      <trkpt lat="43.80198" lon="7.25964">
        <ele>477</ele>
        <time>0001-01-01T00:00:00</time>
      </trkpt>
      <trkpt lat="43.80196" lon="7.25963">
        <ele>477</ele>
        <time>0001-01-01T00:00:00</time>
      </trkpt>
      <trkpt lat="43.8019" lon="7.25954">
        <ele>478</ele>
        <time>0001-01-01T00:00:00</time>
      </trkpt>
      <trkpt lat="43.80185" lon="7.25949">
        <ele>479</ele>
        <time>0001-01-01T00:00:00</time>
      </trkpt>
      <trkpt lat="43.80182" lon="7.25942">
        <ele>480</ele>
        <time>0001-01-01T00:00:00</time>
      </trkpt>
      <trkpt lat="43.80164" lon="7.25932">
        <ele>477</ele>
        <time>0001-01-01T00:00:00</time>
      </trkpt>
      <trkpt lat="43.80156" lon="7.25927">
        <ele>477</ele>
        <time>0001-01-01T00:00:00</time>
      </trkpt>
      <trkpt lat="43.80148" lon="7.25924">
        <ele>476</ele>
        <time>0001-01-01T00:00:00</time>
      </trkpt>
      <trkpt lat="43.80139" lon="7.25913">
        <ele>487</ele>
        <time>0001-01-01T00:00:00</time>
      </trkpt>
      <trkpt lat="43.8013" lon="7.25904">
        <ele>487</ele>
        <time>0001-01-01T00:00:00</time>
      </trkpt>
      <trkpt lat="43.80125" lon="7.25896">
        <ele>487</ele>
        <time>0001-01-01T00:00:00</time>
      </trkpt>
      <trkpt lat="43.80121" lon="7.25888">
        <ele>487</ele>
        <time>0001-01-01T00:00:00</time>
      </trkpt>
      <trkpt lat="43.80119" lon="7.25883">
        <ele>488</ele>
        <time>0001-01-01T00:00:00</time>
      </trkpt>
      <trkpt lat="43.80116" lon="7.25876">
        <ele>488</ele>
        <time>0001-01-01T00:00:00</time>
      </trkpt>
      <trkpt lat="43.80113" lon="7.25866">
        <ele>489</ele>
        <time>0001-01-01T00:00:00</time>
      </trkpt>
      <trkpt lat="43.80111" lon="7.25859">
        <ele>490</ele>
        <time>0001-01-01T00:00:00</time>
      </trkpt>
      <trkpt lat="43.8011" lon="7.25856">
        <ele>490</ele>
        <time>0001-01-01T00:00:00</time>
      </trkpt>
      <trkpt lat="43.80106" lon="7.25842">
        <ele>491</ele>
        <time>0001-01-01T00:00:00</time>
      </trkpt>
      <trkpt lat="43.801" lon="7.25833">
        <ele>499</ele>
        <time>0001-01-01T00:00:00</time>
      </trkpt>
      <trkpt lat="43.80093" lon="7.25831">
        <ele>497</ele>
        <time>0001-01-01T00:00:00</time>
      </trkpt>
      <trkpt lat="43.80083" lon="7.25836">
        <ele>492</ele>
        <time>0001-01-01T00:00:00</time>
      </trkpt>
      <trkpt lat="43.8008" lon="7.25838">
        <ele>490</ele>
        <time>0001-01-01T00:00:00</time>
      </trkpt>
      <trkpt lat="43.80071" lon="7.25851">
        <ele>486</ele>
        <time>0001-01-01T00:00:00</time>
      </trkpt>
      <trkpt lat="43.80061" lon="7.25868">
        <ele>482</ele>
        <time>0001-01-01T00:00:00</time>
      </trkpt>
      <trkpt lat="43.80046" lon="7.25887">
        <ele>480</ele>
        <time>0001-01-01T00:00:00</time>
      </trkpt>
      <trkpt lat="43.8003" lon="7.25894">
        <ele>478</ele>
        <time>0001-01-01T00:00:00</time>
      </trkpt>
      <trkpt lat="43.80006" lon="7.25884">
        <ele>479</ele>
        <time>0001-01-01T00:00:00</time>
      </trkpt>
      <trkpt lat="43.7999" lon="7.25864">
        <ele>485</ele>
        <time>0001-01-01T00:00:00</time>
      </trkpt>
      <trkpt lat="43.79984" lon="7.25853">
        <ele>486</ele>
        <time>0001-01-01T00:00:00</time>
      </trkpt>
      <trkpt lat="43.79975" lon="7.25839">
        <ele>487</ele>
        <time>0001-01-01T00:00:00</time>
      </trkpt>
      <trkpt lat="43.79972" lon="7.2584">
        <ele>487</ele>
        <time>0001-01-01T00:00:00</time>
      </trkpt>
      <trkpt lat="43.79969" lon="7.25847">
        <ele>487</ele>
        <time>0001-01-01T00:00:00</time>
      </trkpt>
      <trkpt lat="43.79967" lon="7.25851">
        <ele>488</ele>
        <time>0001-01-01T00:00:00</time>
      </trkpt>
      <trkpt lat="43.79963" lon="7.25858">
        <ele>487</ele>
        <time>0001-01-01T00:00:00</time>
      </trkpt>
      <trkpt lat="43.79961" lon="7.25871">
        <ele>487</ele>
        <time>0001-01-01T00:00:00</time>
      </trkpt>
      <trkpt lat="43.7996" lon="7.25881">
        <ele>486</ele>
        <time>0001-01-01T00:00:00</time>
      </trkpt>
      <trkpt lat="43.79958" lon="7.25899">
        <ele>485</ele>
        <time>0001-01-01T00:00:00</time>
      </trkpt>
      <trkpt lat="43.79956" lon="7.25909">
        <ele>485</ele>
        <time>0001-01-01T00:00:00</time>
      </trkpt>
      <trkpt lat="43.79955" lon="7.25914">
        <ele>485</ele>
        <time>0001-01-01T00:00:00</time>
      </trkpt>
      <trkpt lat="43.79955" lon="7.25922">
        <ele>479</ele>
        <time>0001-01-01T00:00:00</time>
      </trkpt>
      <trkpt lat="43.79955" lon="7.25927">
        <ele>479</ele>
        <time>0001-01-01T00:00:00</time>
      </trkpt>
      <trkpt lat="43.79954" lon="7.2594">
        <ele>479</ele>
        <time>0001-01-01T00:00:00</time>
      </trkpt>
      <trkpt lat="43.79955" lon="7.25949">
        <ele>479</ele>
        <time>0001-01-01T00:00:00</time>
      </trkpt>
      <trkpt lat="43.79956" lon="7.25957">
        <ele>478</ele>
        <time>0001-01-01T00:00:00</time>
      </trkpt>
      <trkpt lat="43.79953" lon="7.25971">
        <ele>478</ele>
        <time>0001-01-01T00:00:00</time>
      </trkpt>
      <trkpt lat="43.7995" lon="7.25978">
        <ele>479</ele>
        <time>0001-01-01T00:00:00</time>
      </trkpt>
      <trkpt lat="43.79946" lon="7.25988">
        <ele>479</ele>
        <time>0001-01-01T00:00:00</time>
      </trkpt>
      <trkpt lat="43.79937" lon="7.25999">
        <ele>481</ele>
        <time>0001-01-01T00:00:00</time>
      </trkpt>
      <trkpt lat="43.79927" lon="7.26013">
        <ele>481</ele>
        <time>0001-01-01T00:00:00</time>
      </trkpt>
      <trkpt lat="43.79915" lon="7.26024">
        <ele>481</ele>
        <time>0001-01-01T00:00:00</time>
      </trkpt>
      <trkpt lat="43.79898" lon="7.2604">
        <ele>479</ele>
        <time>0001-01-01T00:00:00</time>
      </trkpt>
      <trkpt lat="43.79873" lon="7.26063">
        <ele>478</ele>
        <time>0001-01-01T00:00:00</time>
      </trkpt>
      <trkpt lat="43.79858" lon="7.26079">
        <ele>476</ele>
        <time>0001-01-01T00:00:00</time>
      </trkpt>
      <trkpt lat="43.79836" lon="7.26105">
        <ele>473</ele>
        <time>0001-01-01T00:00:00</time>
      </trkpt>
      <trkpt lat="43.79818" lon="7.2613">
        <ele>464</ele>
        <time>0001-01-01T00:00:00</time>
      </trkpt>
      <trkpt lat="43.7981" lon="7.26127">
        <ele>464</ele>
        <time>0001-01-01T00:00:00</time>
      </trkpt>
      <trkpt lat="43.7979" lon="7.2611">
        <ele>463</ele>
        <time>0001-01-01T00:00:00</time>
      </trkpt>
      <trkpt lat="43.79773" lon="7.26084">
        <ele>462</ele>
        <time>0001-01-01T00:00:00</time>
      </trkpt>
      <trkpt lat="43.79749" lon="7.26029">
        <ele>461</ele>
        <time>0001-01-01T00:00:00</time>
      </trkpt>
      <trkpt lat="43.79731" lon="7.25988">
        <ele>463</ele>
        <time>0001-01-01T00:00:00</time>
      </trkpt>
      <trkpt lat="43.79713" lon="7.25944">
        <ele>463</ele>
        <time>0001-01-01T00:00:00</time>
      </trkpt>
      <trkpt lat="43.79711" lon="7.25939">
        <ele>463</ele>
        <time>0001-01-01T00:00:00</time>
      </trkpt>
      <trkpt lat="43.79702" lon="7.25893">
        <ele>465</ele>
        <time>0001-01-01T00:00:00</time>
      </trkpt>
      <trkpt lat="43.79704" lon="7.25857">
        <ele>465</ele>
        <time>0001-01-01T00:00:00</time>
      </trkpt>
      <trkpt lat="43.79713" lon="7.2582">
        <ele>468</ele>
        <time>0001-01-01T00:00:00</time>
      </trkpt>
      <trkpt lat="43.79725" lon="7.25775">
        <ele>470</ele>
        <time>0001-01-01T00:00:00</time>
      </trkpt>
      <trkpt lat="43.79732" lon="7.25753">
        <ele>474</ele>
        <time>0001-01-01T00:00:00</time>
      </trkpt>
      <trkpt lat="43.79741" lon="7.25719">
        <ele>475</ele>
        <time>0001-01-01T00:00:00</time>
      </trkpt>
      <trkpt lat="43.79749" lon="7.25686">
        <ele>476</ele>
        <time>0001-01-01T00:00:00</time>
      </trkpt>
      <trkpt lat="43.79745" lon="7.25649">
        <ele>483</ele>
        <time>0001-01-01T00:00:00</time>
      </trkpt>
      <trkpt lat="43.7974" lon="7.25635">
        <ele>484</ele>
        <time>0001-01-01T00:00:00</time>
      </trkpt>
      <trkpt lat="43.79734" lon="7.25622">
        <ele>486</ele>
        <time>0001-01-01T00:00:00</time>
      </trkpt>
      <trkpt lat="43.79713" lon="7.25603">
        <ele>488</ele>
        <time>0001-01-01T00:00:00</time>
      </trkpt>
      <trkpt lat="43.79691" lon="7.25604">
        <ele>489</ele>
        <time>0001-01-01T00:00:00</time>
      </trkpt>
      <trkpt lat="43.79683" lon="7.25608">
        <ele>489</ele>
        <time>0001-01-01T00:00:00</time>
      </trkpt>
      <trkpt lat="43.79655" lon="7.25633">
        <ele>483</ele>
        <time>0001-01-01T00:00:00</time>
      </trkpt>
      <trkpt lat="43.7963" lon="7.25654">
        <ele>480</ele>
        <time>0001-01-01T00:00:00</time>
      </trkpt>
      <trkpt lat="43.79613" lon="7.25663">
        <ele>480</ele>
        <time>0001-01-01T00:00:00</time>
      </trkpt>
      <trkpt lat="43.79589" lon="7.25663">
        <ele>476</ele>
        <time>0001-01-01T00:00:00</time>
      </trkpt>
      <trkpt lat="43.79576" lon="7.25656">
        <ele>473</ele>
        <time>0001-01-01T00:00:00</time>
      </trkpt>
      <trkpt lat="43.79564" lon="7.25639">
        <ele>473</ele>
        <time>0001-01-01T00:00:00</time>
      </trkpt>
      <trkpt lat="43.7955" lon="7.25589">
        <ele>479</ele>
        <time>0001-01-01T00:00:00</time>
      </trkpt>
      <trkpt lat="43.79549" lon="7.25583">
        <ele>492</ele>
        <time>0001-01-01T00:00:00</time>
      </trkpt>
      <trkpt lat="43.7954" lon="7.25553">
        <ele>492</ele>
        <time>0001-01-01T00:00:00</time>
      </trkpt>
      <trkpt lat="43.79534" lon="7.25535">
        <ele>493</ele>
        <time>0001-01-01T00:00:00</time>
      </trkpt>
      <trkpt lat="43.79512" lon="7.2552">
        <ele>493</ele>
        <time>0001-01-01T00:00:00</time>
      </trkpt>
      <trkpt lat="43.79492" lon="7.25523">
        <ele>489</ele>
        <time>0001-01-01T00:00:00</time>
      </trkpt>
      <trkpt lat="43.79479" lon="7.25528">
        <ele>487</ele>
        <time>0001-01-01T00:00:00</time>
      </trkpt>
      <trkpt lat="43.79465" lon="7.25537">
        <ele>486</ele>
        <time>0001-01-01T00:00:00</time>
      </trkpt>
      <trkpt lat="43.79456" lon="7.25541">
        <ele>486</ele>
        <time>0001-01-01T00:00:00</time>
      </trkpt>
      <trkpt lat="43.79433" lon="7.25548">
        <ele>485</ele>
        <time>0001-01-01T00:00:00</time>
      </trkpt>
      <trkpt lat="43.79406" lon="7.2554">
        <ele>482</ele>
        <time>0001-01-01T00:00:00</time>
      </trkpt>
      <trkpt lat="43.79384" lon="7.25521">
        <ele>484</ele>
        <time>0001-01-01T00:00:00</time>
      </trkpt>
      <trkpt lat="43.79366" lon="7.25507">
        <ele>483</ele>
        <time>0001-01-01T00:00:00</time>
      </trkpt>
      <trkpt lat="43.79358" lon="7.25502">
        <ele>483</ele>
        <time>0001-01-01T00:00:00</time>
      </trkpt>
      <trkpt lat="43.79333" lon="7.25474">
        <ele>484</ele>
        <time>0001-01-01T00:00:00</time>
      </trkpt>
      <trkpt lat="43.79327" lon="7.25464">
        <ele>485</ele>
        <time>0001-01-01T00:00:00</time>
      </trkpt>
      <trkpt lat="43.79316" lon="7.25441">
        <ele>488</ele>
        <time>0001-01-01T00:00:00</time>
      </trkpt>
      <trkpt lat="43.79311" lon="7.25424">
        <ele>490</ele>
        <time>0001-01-01T00:00:00</time>
      </trkpt>
      <trkpt lat="43.79307" lon="7.2538">
        <ele>498</ele>
        <time>0001-01-01T00:00:00</time>
      </trkpt>
      <trkpt lat="43.79304" lon="7.25351">
        <ele>501</ele>
        <time>0001-01-01T00:00:00</time>
      </trkpt>
      <trkpt lat="43.79292" lon="7.25316">
        <ele>511</ele>
        <time>0001-01-01T00:00:00</time>
      </trkpt>
      <trkpt lat="43.7929" lon="7.2531">
        <ele>511</ele>
        <time>0001-01-01T00:00:00</time>
      </trkpt>
      <trkpt lat="43.79266" lon="7.25291">
        <ele>512</ele>
        <time>0001-01-01T00:00:00</time>
      </trkpt>
      <trkpt lat="43.79251" lon="7.25293">
        <ele>511</ele>
        <time>0001-01-01T00:00:00</time>
      </trkpt>
      <trkpt lat="43.7921" lon="7.25315">
        <ele>515</ele>
        <time>0001-01-01T00:00:00</time>
      </trkpt>
      <trkpt lat="43.79177" lon="7.25333">
        <ele>504</ele>
        <time>0001-01-01T00:00:00</time>
      </trkpt>
      <trkpt lat="43.79144" lon="7.2535">
        <ele>507</ele>
        <time>0001-01-01T00:00:00</time>
      </trkpt>
      <trkpt lat="43.7911" lon="7.25357">
        <ele>510</ele>
        <time>0001-01-01T00:00:00</time>
      </trkpt>
      <trkpt lat="43.79071" lon="7.2536">
        <ele>516</ele>
        <time>0001-01-01T00:00:00</time>
      </trkpt>
      <trkpt lat="43.79053" lon="7.25359">
        <ele>514</ele>
        <time>0001-01-01T00:00:00</time>
      </trkpt>
      <trkpt lat="43.79014" lon="7.2536">
        <ele>514</ele>
        <time>0001-01-01T00:00:00</time>
      </trkpt>
      <trkpt lat="43.78981" lon="7.25353">
        <ele>505</ele>
        <time>0001-01-01T00:00:00</time>
      </trkpt>
      <trkpt lat="43.78973" lon="7.2535">
        <ele>503</ele>
        <time>0001-01-01T00:00:00</time>
      </trkpt>
      <trkpt lat="43.78949" lon="7.25328">
        <ele>517</ele>
        <time>0001-01-01T00:00:00</time>
      </trkpt>
      <trkpt lat="43.78931" lon="7.25293">
        <ele>519</ele>
        <time>0001-01-01T00:00:00</time>
      </trkpt>
      <trkpt lat="43.78917" lon="7.25255">
        <ele>514</ele>
        <time>0001-01-01T00:00:00</time>
      </trkpt>
      <trkpt lat="43.78905" lon="7.25239">
        <ele>522</ele>
        <time>0001-01-01T00:00:00</time>
      </trkpt>
      <trkpt lat="43.78899" lon="7.25234">
        <ele>523</ele>
        <time>0001-01-01T00:00:00</time>
      </trkpt>
      <trkpt lat="43.78886" lon="7.25229">
        <ele>524</ele>
        <time>0001-01-01T00:00:00</time>
      </trkpt>
      <trkpt lat="43.78859" lon="7.25228">
        <ele>523</ele>
        <time>0001-01-01T00:00:00</time>
      </trkpt>
      <trkpt lat="43.78839" lon="7.25225">
        <ele>521</ele>
        <time>0001-01-01T00:00:00</time>
      </trkpt>
      <trkpt lat="43.78828" lon="7.25221">
        <ele>521</ele>
        <time>0001-01-01T00:00:00</time>
      </trkpt>
      <trkpt lat="43.78794" lon="7.25201">
        <ele>527</ele>
        <time>0001-01-01T00:00:00</time>
      </trkpt>
      <trkpt lat="43.78783" lon="7.25198">
        <ele>528</ele>
        <time>0001-01-01T00:00:00</time>
      </trkpt>
      <trkpt lat="43.78767" lon="7.25201">
        <ele>528</ele>
        <time>0001-01-01T00:00:00</time>
      </trkpt>
      <trkpt lat="43.78759" lon="7.25207">
        <ele>526</ele>
        <time>0001-01-01T00:00:00</time>
      </trkpt>
      <trkpt lat="43.78736" lon="7.25232">
        <ele>524</ele>
        <time>0001-01-01T00:00:00</time>
      </trkpt>
      <trkpt lat="43.787" lon="7.25253">
        <ele>509</ele>
        <time>0001-01-01T00:00:00</time>
      </trkpt>
      <trkpt lat="43.78687" lon="7.25256">
        <ele>512</ele>
        <time>0001-01-01T00:00:00</time>
      </trkpt>
      <trkpt lat="43.78643" lon="7.25249">
        <ele>533</ele>
        <time>0001-01-01T00:00:00</time>
      </trkpt>
      <trkpt lat="43.78638" lon="7.25247">
        <ele>534</ele>
        <time>0001-01-01T00:00:00</time>
      </trkpt>
      <trkpt lat="43.7863" lon="7.25245">
        <ele>534</ele>
        <time>0001-01-01T00:00:00</time>
      </trkpt>
      <trkpt lat="43.78589" lon="7.25245">
        <ele>529</ele>
        <time>0001-01-01T00:00:00</time>
      </trkpt>
      <trkpt lat="43.7854" lon="7.25252">
        <ele>518</ele>
        <time>0001-01-01T00:00:00</time>
      </trkpt>
      <trkpt lat="43.78536" lon="7.25252">
        <ele>518</ele>
        <time>0001-01-01T00:00:00</time>
      </trkpt>
      <trkpt lat="43.78502" lon="7.25257">
        <ele>527</ele>
        <time>0001-01-01T00:00:00</time>
      </trkpt>
      <trkpt lat="43.78494" lon="7.25258">
        <ele>529</ele>
        <time>0001-01-01T00:00:00</time>
      </trkpt>
      <trkpt lat="43.78473" lon="7.25261">
        <ele>526</ele>
        <time>0001-01-01T00:00:00</time>
      </trkpt>
      <trkpt lat="43.78453" lon="7.25265">
        <ele>527</ele>
        <time>0001-01-01T00:00:00</time>
      </trkpt>
      <trkpt lat="43.78419" lon="7.25281">
        <ele>527</ele>
        <time>0001-01-01T00:00:00</time>
      </trkpt>
      <trkpt lat="43.78384" lon="7.25299">
        <ele>532</ele>
        <time>0001-01-01T00:00:00</time>
      </trkpt>
      <trkpt lat="43.78349" lon="7.25321">
        <ele>533</ele>
        <time>0001-01-01T00:00:00</time>
      </trkpt>
      <trkpt lat="43.78341" lon="7.25326">
        <ele>533</ele>
        <time>0001-01-01T00:00:00</time>
      </trkpt>
      <trkpt lat="43.78307" lon="7.25352">
        <ele>525</ele>
        <time>0001-01-01T00:00:00</time>
      </trkpt>
      <trkpt lat="43.78276" lon="7.25375">
        <ele>523</ele>
        <time>0001-01-01T00:00:00</time>
      </trkpt>
      <trkpt lat="43.78252" lon="7.2539">
        <ele>521</ele>
        <time>0001-01-01T00:00:00</time>
      </trkpt>
      <trkpt lat="43.78234" lon="7.25389">
        <ele>524</ele>
        <time>0001-01-01T00:00:00</time>
      </trkpt>
      <trkpt lat="43.7822" lon="7.25372">
        <ele>526</ele>
        <time>0001-01-01T00:00:00</time>
      </trkpt>
      <trkpt lat="43.7821" lon="7.25344">
        <ele>528</ele>
        <time>0001-01-01T00:00:00</time>
      </trkpt>
      <trkpt lat="43.78202" lon="7.25309">
        <ele>535</ele>
        <time>0001-01-01T00:00:00</time>
      </trkpt>
      <trkpt lat="43.78198" lon="7.25286">
        <ele>535</ele>
        <time>0001-01-01T00:00:00</time>
      </trkpt>
      <trkpt lat="43.78183" lon="7.2527">
        <ele>535</ele>
        <time>0001-01-01T00:00:00</time>
      </trkpt>
      <trkpt lat="43.78164" lon="7.25251">
        <ele>534</ele>
        <time>0001-01-01T00:00:00</time>
      </trkpt>
      <trkpt lat="43.78157" lon="7.25238">
        <ele>544</ele>
        <time>0001-01-01T00:00:00</time>
      </trkpt>
      <trkpt lat="43.78159" lon="7.25223">
        <ele>549</ele>
        <time>0001-01-01T00:00:00</time>
      </trkpt>
      <trkpt lat="43.78169" lon="7.25208">
        <ele>539</ele>
        <time>0001-01-01T00:00:00</time>
      </trkpt>
      <trkpt lat="43.78187" lon="7.2518">
        <ele>541</ele>
        <time>0001-01-01T00:00:00</time>
      </trkpt>
      <trkpt lat="43.78213" lon="7.25128">
        <ele>540</ele>
        <time>0001-01-01T00:00:00</time>
      </trkpt>
      <trkpt lat="43.78219" lon="7.25114">
        <ele>539</ele>
        <time>0001-01-01T00:00:00</time>
      </trkpt>
      <trkpt lat="43.78221" lon="7.25098">
        <ele>538</ele>
        <time>0001-01-01T00:00:00</time>
      </trkpt>
      <trkpt lat="43.78223" lon="7.25089">
        <ele>537</ele>
        <time>0001-01-01T00:00:00</time>
      </trkpt>
      <trkpt lat="43.78223" lon="7.25084">
        <ele>537</ele>
        <time>0001-01-01T00:00:00</time>
      </trkpt>
      <trkpt lat="43.78224" lon="7.25075">
        <ele>539</ele>
        <time>0001-01-01T00:00:00</time>
      </trkpt>
      <trkpt lat="43.78224" lon="7.25065">
        <ele>540</ele>
        <time>0001-01-01T00:00:00</time>
      </trkpt>
      <trkpt lat="43.78225" lon="7.25058">
        <ele>540</ele>
        <time>0001-01-01T00:00:00</time>
      </trkpt>
      <trkpt lat="43.78225" lon="7.2505">
        <ele>541</ele>
        <time>0001-01-01T00:00:00</time>
      </trkpt>
      <trkpt lat="43.78225" lon="7.25034">
        <ele>541</ele>
        <time>0001-01-01T00:00:00</time>
      </trkpt>
      <trkpt lat="43.78224" lon="7.25025">
        <ele>541</ele>
        <time>0001-01-01T00:00:00</time>
      </trkpt>
      <trkpt lat="43.78223" lon="7.25014">
        <ele>540</ele>
        <time>0001-01-01T00:00:00</time>
      </trkpt>
      <trkpt lat="43.78222" lon="7.25001">
        <ele>540</ele>
        <time>0001-01-01T00:00:00</time>
      </trkpt>
      <trkpt lat="43.78219" lon="7.24991">
        <ele>541</ele>
        <time>0001-01-01T00:00:00</time>
      </trkpt>
      <trkpt lat="43.78217" lon="7.24984">
        <ele>542</ele>
        <time>0001-01-01T00:00:00</time>
      </trkpt>
      <trkpt lat="43.78212" lon="7.24975">
        <ele>543</ele>
        <time>0001-01-01T00:00:00</time>
      </trkpt>
      <trkpt lat="43.78211" lon="7.24965">
        <ele>543</ele>
        <time>0001-01-01T00:00:00</time>
      </trkpt>
      <trkpt lat="43.78211" lon="7.24964">
        <ele>543</ele>
        <time>0001-01-01T00:00:00</time>
      </trkpt>
      <trkpt lat="43.78207" lon="7.24951">
        <ele>544</ele>
        <time>0001-01-01T00:00:00</time>
      </trkpt>
      <trkpt lat="43.78205" lon="7.24943">
        <ele>544</ele>
        <time>0001-01-01T00:00:00</time>
      </trkpt>
      <trkpt lat="43.78202" lon="7.24933">
        <ele>545</ele>
        <time>0001-01-01T00:00:00</time>
      </trkpt>
      <trkpt lat="43.78197" lon="7.24929">
        <ele>546</ele>
        <time>0001-01-01T00:00:00</time>
      </trkpt>
      <trkpt lat="43.78194" lon="7.24924">
        <ele>547</ele>
        <time>0001-01-01T00:00:00</time>
      </trkpt>
      <trkpt lat="43.78188" lon="7.24916">
        <ele>544</ele>
        <time>0001-01-01T00:00:00</time>
      </trkpt>
      <trkpt lat="43.78181" lon="7.24908">
        <ele>546</ele>
        <time>0001-01-01T00:00:00</time>
      </trkpt>
      <trkpt lat="43.78173" lon="7.249">
        <ele>546</ele>
        <time>0001-01-01T00:00:00</time>
      </trkpt>
      <trkpt lat="43.78166" lon="7.24893">
        <ele>559</ele>
        <time>0001-01-01T00:00:00</time>
      </trkpt>
      <trkpt lat="43.78158" lon="7.24889">
        <ele>559</ele>
        <time>0001-01-01T00:00:00</time>
      </trkpt>
      <trkpt lat="43.78148" lon="7.24883">
        <ele>560</ele>
        <time>0001-01-01T00:00:00</time>
      </trkpt>
      <trkpt lat="43.78139" lon="7.24876">
        <ele>560</ele>
        <time>0001-01-01T00:00:00</time>
      </trkpt>
      <trkpt lat="43.78127" lon="7.2487">
        <ele>562</ele>
        <time>0001-01-01T00:00:00</time>
      </trkpt>
      <trkpt lat="43.7812" lon="7.2487">
        <ele>563</ele>
        <time>0001-01-01T00:00:00</time>
      </trkpt>
      <trkpt lat="43.78112" lon="7.2487">
        <ele>564</ele>
        <time>0001-01-01T00:00:00</time>
      </trkpt>
      <trkpt lat="43.78104" lon="7.24874">
        <ele>566</ele>
        <time>0001-01-01T00:00:00</time>
      </trkpt>
      <trkpt lat="43.78098" lon="7.24873">
        <ele>566</ele>
        <time>0001-01-01T00:00:00</time>
      </trkpt>
      <trkpt lat="43.78092" lon="7.24875">
        <ele>567</ele>
        <time>0001-01-01T00:00:00</time>
      </trkpt>
      <trkpt lat="43.78085" lon="7.24877">
        <ele>568</ele>
        <time>0001-01-01T00:00:00</time>
      </trkpt>
      <trkpt lat="43.78083" lon="7.24877">
        <ele>568</ele>
        <time>0001-01-01T00:00:00</time>
      </trkpt>
      <trkpt lat="43.7808" lon="7.24877">
        <ele>584</ele>
        <time>0001-01-01T00:00:00</time>
      </trkpt>
      <trkpt lat="43.78075" lon="7.24873">
        <ele>584</ele>
        <time>0001-01-01T00:00:00</time>
      </trkpt>
      <trkpt lat="43.78069" lon="7.24875">
        <ele>585</ele>
        <time>0001-01-01T00:00:00</time>
      </trkpt>
      <trkpt lat="43.78064" lon="7.24876">
        <ele>585</ele>
        <time>0001-01-01T00:00:00</time>
      </trkpt>
      <trkpt lat="43.78056" lon="7.24873">
        <ele>586</ele>
        <time>0001-01-01T00:00:00</time>
      </trkpt>
      <trkpt lat="43.78048" lon="7.24873">
        <ele>587</ele>
        <time>0001-01-01T00:00:00</time>
      </trkpt>
      <trkpt lat="43.78043" lon="7.2487">
        <ele>588</ele>
        <time>0001-01-01T00:00:00</time>
      </trkpt>
      <trkpt lat="43.78039" lon="7.2487">
        <ele>588</ele>
        <time>0001-01-01T00:00:00</time>
      </trkpt>
      <trkpt lat="43.78033" lon="7.24873">
        <ele>589</ele>
        <time>0001-01-01T00:00:00</time>
      </trkpt>
      <trkpt lat="43.78025" lon="7.24873">
        <ele>590</ele>
        <time>0001-01-01T00:00:00</time>
      </trkpt>
      <trkpt lat="43.78016" lon="7.24874">
        <ele>592</ele>
        <time>0001-01-01T00:00:00</time>
      </trkpt>
      <trkpt lat="43.78011" lon="7.24873">
        <ele>592</ele>
        <time>0001-01-01T00:00:00</time>
      </trkpt>
      <trkpt lat="43.78004" lon="7.24868">
        <ele>592</ele>
        <time>0001-01-01T00:00:00</time>
      </trkpt>
      <trkpt lat="43.77996" lon="7.24866">
        <ele>606</ele>
        <time>0001-01-01T00:00:00</time>
      </trkpt>
      <trkpt lat="43.77991" lon="7.24866">
        <ele>606</ele>
        <time>0001-01-01T00:00:00</time>
      </trkpt>
      <trkpt lat="43.77987" lon="7.24869">
        <ele>607</ele>
        <time>0001-01-01T00:00:00</time>
      </trkpt>
      <trkpt lat="43.77986" lon="7.24869">
        <ele>607</ele>
        <time>0001-01-01T00:00:00</time>
      </trkpt>
      <trkpt lat="43.77981" lon="7.24865">
        <ele>607</ele>
        <time>0001-01-01T00:00:00</time>
      </trkpt>
      <trkpt lat="43.7798" lon="7.24865">
        <ele>607</ele>
        <time>0001-01-01T00:00:00</time>
      </trkpt>
      <trkpt lat="43.77972" lon="7.24865">
        <ele>608</ele>
        <time>0001-01-01T00:00:00</time>
      </trkpt>
      <trkpt lat="43.77971" lon="7.24864">
        <ele>608</ele>
        <time>0001-01-01T00:00:00</time>
      </trkpt>
      <trkpt lat="43.77963" lon="7.24865">
        <ele>610</ele>
        <time>0001-01-01T00:00:00</time>
      </trkpt>
      <trkpt lat="43.77961" lon="7.24862">
        <ele>610</ele>
        <time>0001-01-01T00:00:00</time>
      </trkpt>
      <trkpt lat="43.7796" lon="7.24861">
        <ele>610</ele>
        <time>0001-01-01T00:00:00</time>
      </trkpt>
      <trkpt lat="43.77958" lon="7.24859">
        <ele>610</ele>
        <time>0001-01-01T00:00:00</time>
      </trkpt>
      <trkpt lat="43.77955" lon="7.24857">
        <ele>610</ele>
        <time>0001-01-01T00:00:00</time>
      </trkpt>
      <trkpt lat="43.77952" lon="7.24857">
        <ele>611</ele>
        <time>0001-01-01T00:00:00</time>
      </trkpt>
      <trkpt lat="43.77949" lon="7.24857">
        <ele>611</ele>
        <time>0001-01-01T00:00:00</time>
      </trkpt>
      <trkpt lat="43.77946" lon="7.24855">
        <ele>612</ele>
        <time>0001-01-01T00:00:00</time>
      </trkpt>
      <trkpt lat="43.77942" lon="7.24848">
        <ele>612</ele>
        <time>0001-01-01T00:00:00</time>
      </trkpt>
      <trkpt lat="43.7794" lon="7.24844">
        <ele>612</ele>
        <time>0001-01-01T00:00:00</time>
      </trkpt>
      <trkpt lat="43.77937" lon="7.24838">
        <ele>613</ele>
        <time>0001-01-01T00:00:00</time>
      </trkpt>
      <trkpt lat="43.77934" lon="7.24835">
        <ele>613</ele>
        <time>0001-01-01T00:00:00</time>
      </trkpt>
      <trkpt lat="43.7793" lon="7.24836">
        <ele>614</ele>
        <time>0001-01-01T00:00:00</time>
      </trkpt>
      <trkpt lat="43.77927" lon="7.24837">
        <ele>615</ele>
        <time>0001-01-01T00:00:00</time>
      </trkpt>
      <trkpt lat="43.77921" lon="7.24838">
        <ele>616</ele>
        <time>0001-01-01T00:00:00</time>
      </trkpt>
      <trkpt lat="43.77918" lon="7.24839">
        <ele>616</ele>
        <time>0001-01-01T00:00:00</time>
      </trkpt>
      <trkpt lat="43.77914" lon="7.24841">
        <ele>621</ele>
        <time>0001-01-01T00:00:00</time>
      </trkpt>
      <trkpt lat="43.77911" lon="7.24842">
        <ele>622</ele>
        <time>0001-01-01T00:00:00</time>
      </trkpt>
      <trkpt lat="43.77908" lon="7.24846">
        <ele>623</ele>
        <time>0001-01-01T00:00:00</time>
      </trkpt>
      <trkpt lat="43.77902" lon="7.24854">
        <ele>626</ele>
        <time>0001-01-01T00:00:00</time>
      </trkpt>
      <trkpt lat="43.77901" lon="7.24855">
        <ele>627</ele>
        <time>0001-01-01T00:00:00</time>
      </trkpt>
      <trkpt lat="43.77893" lon="7.24862">
        <ele>629</ele>
        <time>0001-01-01T00:00:00</time>
      </trkpt>
      <trkpt lat="43.77885" lon="7.24866">
        <ele>630</ele>
        <time>0001-01-01T00:00:00</time>
      </trkpt>
      <trkpt lat="43.77879" lon="7.24868">
        <ele>631</ele>
        <time>0001-01-01T00:00:00</time>
      </trkpt>
      <trkpt lat="43.77876" lon="7.24869">
        <ele>631</ele>
        <time>0001-01-01T00:00:00</time>
      </trkpt>
      <trkpt lat="43.77871" lon="7.24871">
        <ele>632</ele>
        <time>0001-01-01T00:00:00</time>
      </trkpt>
      <trkpt lat="43.77868" lon="7.24872">
        <ele>632</ele>
        <time>0001-01-01T00:00:00</time>
      </trkpt>
      <trkpt lat="43.77863" lon="7.2487">
        <ele>633</ele>
        <time>0001-01-01T00:00:00</time>
      </trkpt>
      <trkpt lat="43.7786" lon="7.24865">
        <ele>633</ele>
        <time>0001-01-01T00:00:00</time>
      </trkpt>
      <trkpt lat="43.77858" lon="7.24855">
        <ele>632</ele>
        <time>0001-01-01T00:00:00</time>
      </trkpt>
      <trkpt lat="43.77857" lon="7.24853">
        <ele>633</ele>
        <time>0001-01-01T00:00:00</time>
      </trkpt>
      <trkpt lat="43.77855" lon="7.2485">
        <ele>633</ele>
        <time>0001-01-01T00:00:00</time>
      </trkpt>
      <trkpt lat="43.77852" lon="7.24851">
        <ele>633</ele>
        <time>0001-01-01T00:00:00</time>
      </trkpt>
      <trkpt lat="43.77849" lon="7.24852">
        <ele>633</ele>
        <time>0001-01-01T00:00:00</time>
      </trkpt>
      <trkpt lat="43.77842" lon="7.24857">
        <ele>634</ele>
        <time>0001-01-01T00:00:00</time>
      </trkpt>
      <trkpt lat="43.77837" lon="7.24859">
        <ele>634</ele>
        <time>0001-01-01T00:00:00</time>
      </trkpt>
      <trkpt lat="43.77832" lon="7.2486">
        <ele>642</ele>
        <time>0001-01-01T00:00:00</time>
      </trkpt>
      <trkpt lat="43.77829" lon="7.24862">
        <ele>642</ele>
        <time>0001-01-01T00:00:00</time>
      </trkpt>
      <trkpt lat="43.77827" lon="7.24863">
        <ele>642</ele>
        <time>0001-01-01T00:00:00</time>
      </trkpt>
      <trkpt lat="43.77822" lon="7.24865">
        <ele>643</ele>
        <time>0001-01-01T00:00:00</time>
      </trkpt>
      <trkpt lat="43.77819" lon="7.24867">
        <ele>643</ele>
        <time>0001-01-01T00:00:00</time>
      </trkpt>
      <trkpt lat="43.77813" lon="7.24871">
        <ele>644</ele>
        <time>0001-01-01T00:00:00</time>
      </trkpt>
      <trkpt lat="43.77807" lon="7.24873">
        <ele>644</ele>
        <time>0001-01-01T00:00:00</time>
      </trkpt>
      <trkpt lat="43.77803" lon="7.2487">
        <ele>644</ele>
        <time>0001-01-01T00:00:00</time>
      </trkpt>
      <trkpt lat="43.77796" lon="7.24868">
        <ele>644</ele>
        <time>0001-01-01T00:00:00</time>
      </trkpt>
      <trkpt lat="43.7779" lon="7.2487">
        <ele>644</ele>
        <time>0001-01-01T00:00:00</time>
      </trkpt>
      <trkpt lat="43.77782" lon="7.24875">
        <ele>645</ele>
        <time>0001-01-01T00:00:00</time>
      </trkpt>
      <trkpt lat="43.77772" lon="7.24886">
        <ele>647</ele>
        <time>0001-01-01T00:00:00</time>
      </trkpt>
      <trkpt lat="43.77761" lon="7.24894">
        <ele>650</ele>
        <time>0001-01-01T00:00:00</time>
      </trkpt>
      <trkpt lat="43.77752" lon="7.24898">
        <ele>652</ele>
        <time>0001-01-01T00:00:00</time>
      </trkpt>
      <trkpt lat="43.7774" lon="7.249">
        <ele>654</ele>
        <time>0001-01-01T00:00:00</time>
      </trkpt>
      <trkpt lat="43.7772" lon="7.24908">
        <ele>653</ele>
        <time>0001-01-01T00:00:00</time>
      </trkpt>
      <trkpt lat="43.77695" lon="7.2492">
        <ele>666</ele>
        <time>0001-01-01T00:00:00</time>
      </trkpt>
      <trkpt lat="43.7768" lon="7.24918">
        <ele>663</ele>
        <time>0001-01-01T00:00:00</time>
      </trkpt>
      <trkpt lat="43.77663" lon="7.24904">
        <ele>654</ele>
        <time>0001-01-01T00:00:00</time>
      </trkpt>
      <trkpt lat="43.7765" lon="7.24906">
        <ele>654</ele>
        <time>0001-01-01T00:00:00</time>
      </trkpt>
      <trkpt lat="43.77639" lon="7.24906">
        <ele>653</ele>
        <time>0001-01-01T00:00:00</time>
      </trkpt>
      <trkpt lat="43.77626" lon="7.24905">
        <ele>652</ele>
        <time>0001-01-01T00:00:00</time>
      </trkpt>
      <trkpt lat="43.77613" lon="7.24906">
        <ele>653</ele>
        <time>0001-01-01T00:00:00</time>
      </trkpt>
      <trkpt lat="43.77601" lon="7.24906">
        <ele>654</ele>
        <time>0001-01-01T00:00:00</time>
      </trkpt>
      <trkpt lat="43.77584" lon="7.24912">
        <ele>659</ele>
        <time>0001-01-01T00:00:00</time>
      </trkpt>
      <trkpt lat="43.77566" lon="7.24917">
        <ele>665</ele>
        <time>0001-01-01T00:00:00</time>
      </trkpt>
      <trkpt lat="43.77553" lon="7.24923">
        <ele>667</ele>
        <time>0001-01-01T00:00:00</time>
      </trkpt>
      <trkpt lat="43.77536" lon="7.24928">
        <ele>667</ele>
        <time>0001-01-01T00:00:00</time>
      </trkpt>
      <trkpt lat="43.7752" lon="7.24932">
        <ele>665</ele>
        <time>0001-01-01T00:00:00</time>
      </trkpt>
      <trkpt lat="43.77503" lon="7.24937">
        <ele>664</ele>
        <time>0001-01-01T00:00:00</time>
      </trkpt>
      <trkpt lat="43.77481" lon="7.2494">
        <ele>665</ele>
        <time>0001-01-01T00:00:00</time>
      </trkpt>
      <trkpt lat="43.77462" lon="7.24943">
        <ele>667</ele>
        <time>0001-01-01T00:00:00</time>
      </trkpt>
      <trkpt lat="43.77448" lon="7.24941">
        <ele>666</ele>
        <time>0001-01-01T00:00:00</time>
      </trkpt>
      <trkpt lat="43.77434" lon="7.24938">
        <ele>665</ele>
        <time>0001-01-01T00:00:00</time>
      </trkpt>
      <trkpt lat="43.77425" lon="7.24946">
        <ele>666</ele>
        <time>0001-01-01T00:00:00</time>
      </trkpt>
      <trkpt lat="43.77415" lon="7.24951">
        <ele>668</ele>
        <time>0001-01-01T00:00:00</time>
      </trkpt>
      <trkpt lat="43.77412" lon="7.24954">
        <ele>669</ele>
        <time>0001-01-01T00:00:00</time>
      </trkpt>
      <trkpt lat="43.77402" lon="7.24958">
        <ele>670</ele>
        <time>0001-01-01T00:00:00</time>
      </trkpt>
      <trkpt lat="43.77395" lon="7.24956">
        <ele>670</ele>
        <time>0001-01-01T00:00:00</time>
      </trkpt>
      <trkpt lat="43.77386" lon="7.24954">
        <ele>670</ele>
        <time>0001-01-01T00:00:00</time>
      </trkpt>
      <trkpt lat="43.77375" lon="7.24956">
        <ele>670</ele>
        <time>0001-01-01T00:00:00</time>
      </trkpt>
      <trkpt lat="43.77363" lon="7.24958">
        <ele>671</ele>
        <time>0001-01-01T00:00:00</time>
      </trkpt>
      <trkpt lat="43.77358" lon="7.2496">
        <ele>671</ele>
        <time>0001-01-01T00:00:00</time>
      </trkpt>
      <trkpt lat="43.77355" lon="7.24961">
        <ele>671</ele>
        <time>0001-01-01T00:00:00</time>
      </trkpt>
      <trkpt lat="43.77349" lon="7.24962">
        <ele>672</ele>
        <time>0001-01-01T00:00:00</time>
      </trkpt>
      <trkpt lat="43.77344" lon="7.24964">
        <ele>673</ele>
        <time>0001-01-01T00:00:00</time>
      </trkpt>
      <trkpt lat="43.7734" lon="7.24963">
        <ele>672</ele>
        <time>0001-01-01T00:00:00</time>
      </trkpt>
      <trkpt lat="43.77331" lon="7.24961">
        <ele>672</ele>
        <time>0001-01-01T00:00:00</time>
      </trkpt>
      <trkpt lat="43.77328" lon="7.2496">
        <ele>672</ele>
        <time>0001-01-01T00:00:00</time>
      </trkpt>
      <trkpt lat="43.77323" lon="7.24959">
        <ele>672</ele>
        <time>0001-01-01T00:00:00</time>
      </trkpt>
      <trkpt lat="43.77309" lon="7.24962">
        <ele>672</ele>
        <time>0001-01-01T00:00:00</time>
      </trkpt>
      <trkpt lat="43.77299" lon="7.24964">
        <ele>672</ele>
        <time>0001-01-01T00:00:00</time>
      </trkpt>
      <trkpt lat="43.77288" lon="7.24966">
        <ele>673</ele>
        <time>0001-01-01T00:00:00</time>
      </trkpt>
      <trkpt lat="43.77274" lon="7.24967">
        <ele>673</ele>
        <time>0001-01-01T00:00:00</time>
      </trkpt>
      <trkpt lat="43.77253" lon="7.2497">
        <ele>675</ele>
        <time>0001-01-01T00:00:00</time>
      </trkpt>
      <trkpt lat="43.77234" lon="7.24975">
        <ele>674</ele>
        <time>0001-01-01T00:00:00</time>
      </trkpt>
      <trkpt lat="43.77217" lon="7.24981">
        <ele>674</ele>
        <time>0001-01-01T00:00:00</time>
      </trkpt>
      <trkpt lat="43.77204" lon="7.24983">
        <ele>674</ele>
        <time>0001-01-01T00:00:00</time>
      </trkpt>
      <trkpt lat="43.77187" lon="7.24986">
        <ele>676</ele>
        <time>0001-01-01T00:00:00</time>
      </trkpt>
      <trkpt lat="43.77166" lon="7.24986">
        <ele>678</ele>
        <time>0001-01-01T00:00:00</time>
      </trkpt>
      <trkpt lat="43.77149" lon="7.24989">
        <ele>676</ele>
        <time>0001-01-01T00:00:00</time>
      </trkpt>
      <trkpt lat="43.77132" lon="7.2499">
        <ele>674</ele>
        <time>0001-01-01T00:00:00</time>
      </trkpt>
      <trkpt lat="43.77119" lon="7.24989">
        <ele>673</ele>
        <time>0001-01-01T00:00:00</time>
      </trkpt>
      <trkpt lat="43.77102" lon="7.24989">
        <ele>675</ele>
        <time>0001-01-01T00:00:00</time>
      </trkpt>
      <trkpt lat="43.77085" lon="7.24991">
        <ele>678</ele>
        <time>0001-01-01T00:00:00</time>
      </trkpt>
      <trkpt lat="43.7707" lon="7.24987">
        <ele>677</ele>
        <time>0001-01-01T00:00:00</time>
      </trkpt>
      <trkpt lat="43.77055" lon="7.24972">
        <ele>673</ele>
        <time>0001-01-01T00:00:00</time>
      </trkpt>
      <trkpt lat="43.77044" lon="7.24963">
        <ele>672</ele>
        <time>0001-01-01T00:00:00</time>
      </trkpt>
      <trkpt lat="43.77028" lon="7.24959">
        <ele>672</ele>
        <time>0001-01-01T00:00:00</time>
      </trkpt>
      <trkpt lat="43.77019" lon="7.24965">
        <ele>674</ele>
        <time>0001-01-01T00:00:00</time>
      </trkpt>
      <trkpt lat="43.77015" lon="7.2497">
        <ele>675</ele>
        <time>0001-01-01T00:00:00</time>
      </trkpt>
      <trkpt lat="43.77009" lon="7.24974">
        <ele>676</ele>
        <time>0001-01-01T00:00:00</time>
      </trkpt>
      <trkpt lat="43.76999" lon="7.24979">
        <ele>675</ele>
        <time>0001-01-01T00:00:00</time>
      </trkpt>
      <trkpt lat="43.7698" lon="7.24988">
        <ele>675</ele>
        <time>0001-01-01T00:00:00</time>
      </trkpt>
      <trkpt lat="43.76956" lon="7.24998">
        <ele>672</ele>
        <time>0001-01-01T00:00:00</time>
      </trkpt>
      <trkpt lat="43.76939" lon="7.25003">
        <ele>680</ele>
        <time>0001-01-01T00:00:00</time>
      </trkpt>
      <trkpt lat="43.76923" lon="7.25011">
        <ele>678</ele>
        <time>0001-01-01T00:00:00</time>
      </trkpt>
      <trkpt lat="43.76904" lon="7.25023">
        <ele>672</ele>
        <time>0001-01-01T00:00:00</time>
      </trkpt>
      <trkpt lat="43.76878" lon="7.25032">
        <ele>671</ele>
        <time>0001-01-01T00:00:00</time>
      </trkpt>
      <trkpt lat="43.76847" lon="7.25036">
        <ele>669</ele>
        <time>0001-01-01T00:00:00</time>
      </trkpt>
      <trkpt lat="43.76841" lon="7.25038">
        <ele>669</ele>
        <time>0001-01-01T00:00:00</time>
      </trkpt>
      <trkpt lat="43.76825" lon="7.25047">
        <ele>662</ele>
        <time>0001-01-01T00:00:00</time>
      </trkpt>
      <trkpt lat="43.76809" lon="7.25043">
        <ele>662</ele>
        <time>0001-01-01T00:00:00</time>
      </trkpt>
      <trkpt lat="43.76794" lon="7.25032">
        <ele>662</ele>
        <time>0001-01-01T00:00:00</time>
      </trkpt>
      <trkpt lat="43.76774" lon="7.25036">
        <ele>661</ele>
        <time>0001-01-01T00:00:00</time>
      </trkpt>
      <trkpt lat="43.76764" lon="7.25039">
        <ele>660</ele>
        <time>0001-01-01T00:00:00</time>
      </trkpt>
      <trkpt lat="43.76737" lon="7.25051">
        <ele>653</ele>
        <time>0001-01-01T00:00:00</time>
      </trkpt>
      <trkpt lat="43.76728" lon="7.25054">
        <ele>652</ele>
        <time>0001-01-01T00:00:00</time>
      </trkpt>
      <trkpt lat="43.7671" lon="7.25051">
        <ele>651</ele>
        <time>0001-01-01T00:00:00</time>
      </trkpt>
      <trkpt lat="43.76703" lon="7.25052">
        <ele>650</ele>
        <time>0001-01-01T00:00:00</time>
      </trkpt>
      <trkpt lat="43.76683" lon="7.25047">
        <ele>649</ele>
        <time>0001-01-01T00:00:00</time>
      </trkpt>
      <trkpt lat="43.76677" lon="7.25057">
        <ele>649</ele>
        <time>0001-01-01T00:00:00</time>
      </trkpt>
      <trkpt lat="43.76667" lon="7.25078">
        <ele>647</ele>
        <time>0001-01-01T00:00:00</time>
      </trkpt>
      <trkpt lat="43.76654" lon="7.25089">
        <ele>642</ele>
        <time>0001-01-01T00:00:00</time>
      </trkpt>
      <trkpt lat="43.76644" lon="7.25092">
        <ele>640</ele>
        <time>0001-01-01T00:00:00</time>
      </trkpt>
      <trkpt lat="43.7663" lon="7.25093">
        <ele>639</ele>
        <time>0001-01-01T00:00:00</time>
      </trkpt>
      <trkpt lat="43.7661" lon="7.25096">
        <ele>638</ele>
        <time>0001-01-01T00:00:00</time>
      </trkpt>
      <trkpt lat="43.76605" lon="7.25098">
        <ele>637</ele>
        <time>0001-01-01T00:00:00</time>
      </trkpt>
      <trkpt lat="43.76592" lon="7.251">
        <ele>637</ele>
        <time>0001-01-01T00:00:00</time>
      </trkpt>
      <trkpt lat="43.76568" lon="7.2511">
        <ele>632</ele>
        <time>0001-01-01T00:00:00</time>
      </trkpt>
      <trkpt lat="43.76555" lon="7.25118">
        <ele>631</ele>
        <time>0001-01-01T00:00:00</time>
      </trkpt>
      <trkpt lat="43.76546" lon="7.25124">
        <ele>631</ele>
        <time>0001-01-01T00:00:00</time>
      </trkpt>
      <trkpt lat="43.76537" lon="7.25128">
        <ele>631</ele>
        <time>0001-01-01T00:00:00</time>
      </trkpt>
      <trkpt lat="43.76518" lon="7.25124">
        <ele>630</ele>
        <time>0001-01-01T00:00:00</time>
      </trkpt>
      <trkpt lat="43.76503" lon="7.25116">
        <ele>629</ele>
        <time>0001-01-01T00:00:00</time>
      </trkpt>
      <trkpt lat="43.76496" lon="7.25113">
        <ele>623</ele>
        <time>0001-01-01T00:00:00</time>
      </trkpt>
      <trkpt lat="43.76476" lon="7.25109">
        <ele>622</ele>
        <time>0001-01-01T00:00:00</time>
      </trkpt>
      <trkpt lat="43.76463" lon="7.25112">
        <ele>621</ele>
        <time>0001-01-01T00:00:00</time>
      </trkpt>
      <trkpt lat="43.76452" lon="7.25113">
        <ele>620</ele>
        <time>0001-01-01T00:00:00</time>
      </trkpt>
      <trkpt lat="43.76432" lon="7.25122">
        <ele>620</ele>
        <time>0001-01-01T00:00:00</time>
      </trkpt>
      <trkpt lat="43.76416" lon="7.25129">
        <ele>610</ele>
        <time>0001-01-01T00:00:00</time>
      </trkpt>
      <trkpt lat="43.76403" lon="7.25136">
        <ele>610</ele>
        <time>0001-01-01T00:00:00</time>
      </trkpt>
      <trkpt lat="43.76395" lon="7.25141">
        <ele>610</ele>
        <time>0001-01-01T00:00:00</time>
      </trkpt>
      <trkpt lat="43.76381" lon="7.25155">
        <ele>609</ele>
        <time>0001-01-01T00:00:00</time>
      </trkpt>
      <trkpt lat="43.76368" lon="7.25169">
        <ele>617</ele>
        <time>0001-01-01T00:00:00</time>
      </trkpt>
      <trkpt lat="43.76359" lon="7.25178">
        <ele>615</ele>
        <time>0001-01-01T00:00:00</time>
      </trkpt>
      <trkpt lat="43.7635" lon="7.25178">
        <ele>613</ele>
        <time>0001-01-01T00:00:00</time>
      </trkpt>
      <trkpt lat="43.76341" lon="7.25175">
        <ele>610</ele>
        <time>0001-01-01T00:00:00</time>
      </trkpt>
      <trkpt lat="43.76336" lon="7.25164">
        <ele>604</ele>
        <time>0001-01-01T00:00:00</time>
      </trkpt>
      <trkpt lat="43.76336" lon="7.25162">
        <ele>604</ele>
        <time>0001-01-01T00:00:00</time>
      </trkpt>
      <trkpt lat="43.76332" lon="7.25159">
        <ele>598</ele>
        <time>0001-01-01T00:00:00</time>
      </trkpt>
      <trkpt lat="43.76328" lon="7.25161">
        <ele>598</ele>
        <time>0001-01-01T00:00:00</time>
      </trkpt>
      <trkpt lat="43.7632" lon="7.25155">
        <ele>593</ele>
        <time>0001-01-01T00:00:00</time>
      </trkpt>
      <trkpt lat="43.76313" lon="7.25148">
        <ele>589</ele>
        <time>0001-01-01T00:00:00</time>
      </trkpt>
      <trkpt lat="43.76316" lon="7.25138">
        <ele>588</ele>
        <time>0001-01-01T00:00:00</time>
      </trkpt>
      <trkpt lat="43.76315" lon="7.25129">
        <ele>586</ele>
        <time>0001-01-01T00:00:00</time>
      </trkpt>
      <trkpt lat="43.76314" lon="7.25124">
        <ele>585</ele>
        <time>0001-01-01T00:00:00</time>
      </trkpt>
      <trkpt lat="43.76315" lon="7.25118">
        <ele>584</ele>
        <time>0001-01-01T00:00:00</time>
      </trkpt>
      <trkpt lat="43.76307" lon="7.25115">
        <ele>582</ele>
        <time>0001-01-01T00:00:00</time>
      </trkpt>
      <trkpt lat="43.76296" lon="7.25114">
        <ele>581</ele>
        <time>0001-01-01T00:00:00</time>
      </trkpt>
      <trkpt lat="43.76287" lon="7.25116">
        <ele>580</ele>
        <time>0001-01-01T00:00:00</time>
      </trkpt>
      <trkpt lat="43.76282" lon="7.25111">
        <ele>579</ele>
        <time>0001-01-01T00:00:00</time>
      </trkpt>
      <trkpt lat="43.76274" lon="7.25106">
        <ele>576</ele>
        <time>0001-01-01T00:00:00</time>
      </trkpt>
      <trkpt lat="43.76273" lon="7.25098">
        <ele>574</ele>
        <time>0001-01-01T00:00:00</time>
      </trkpt>
      <trkpt lat="43.76267" lon="7.25098">
        <ele>573</ele>
        <time>0001-01-01T00:00:00</time>
      </trkpt>
      <trkpt lat="43.76261" lon="7.25094">
        <ele>569</ele>
        <time>0001-01-01T00:00:00</time>
      </trkpt>
      <trkpt lat="43.76262" lon="7.25085">
        <ele>567</ele>
        <time>0001-01-01T00:00:00</time>
      </trkpt>
      <trkpt lat="43.76257" lon="7.25078">
        <ele>557</ele>
        <time>0001-01-01T00:00:00</time>
      </trkpt>
      <trkpt lat="43.76259" lon="7.25067">
        <ele>557</ele>
        <time>0001-01-01T00:00:00</time>
      </trkpt>
      <trkpt lat="43.76267" lon="7.25054">
        <ele>555</ele>
        <time>0001-01-01T00:00:00</time>
      </trkpt>
      <trkpt lat="43.76264" lon="7.25048">
        <ele>554</ele>
        <time>0001-01-01T00:00:00</time>
      </trkpt>
      <trkpt lat="43.7625" lon="7.25047">
        <ele>553</ele>
        <time>0001-01-01T00:00:00</time>
      </trkpt>
      <trkpt lat="43.76245" lon="7.25041">
        <ele>538</ele>
        <time>0001-01-01T00:00:00</time>
      </trkpt>
      <trkpt lat="43.76245" lon="7.25037">
        <ele>537</ele>
        <time>0001-01-01T00:00:00</time>
      </trkpt>
      <trkpt lat="43.76248" lon="7.25031">
        <ele>536</ele>
        <time>0001-01-01T00:00:00</time>
      </trkpt>
      <trkpt lat="43.76241" lon="7.25029">
        <ele>535</ele>
        <time>0001-01-01T00:00:00</time>
      </trkpt>
      <trkpt lat="43.76239" lon="7.25023">
        <ele>534</ele>
        <time>0001-01-01T00:00:00</time>
      </trkpt>
      <trkpt lat="43.76238" lon="7.25021">
        <ele>534</ele>
        <time>0001-01-01T00:00:00</time>
      </trkpt>
      <trkpt lat="43.76228" lon="7.25016">
        <ele>533</ele>
        <time>0001-01-01T00:00:00</time>
      </trkpt>
      <trkpt lat="43.76226" lon="7.25008">
        <ele>532</ele>
        <time>0001-01-01T00:00:00</time>
      </trkpt>
      <trkpt lat="43.7622" lon="7.25003">
        <ele>531</ele>
        <time>0001-01-01T00:00:00</time>
      </trkpt>
      <trkpt lat="43.76212" lon="7.25001">
        <ele>530</ele>
        <time>0001-01-01T00:00:00</time>
      </trkpt>
      <trkpt lat="43.76205" lon="7.24999">
        <ele>512</ele>
        <time>0001-01-01T00:00:00</time>
      </trkpt>
      <trkpt lat="43.76203" lon="7.24996">
        <ele>511</ele>
        <time>0001-01-01T00:00:00</time>
      </trkpt>
      <trkpt lat="43.76196" lon="7.24993">
        <ele>510</ele>
        <time>0001-01-01T00:00:00</time>
      </trkpt>
      <trkpt lat="43.76193" lon="7.24993">
        <ele>510</ele>
        <time>0001-01-01T00:00:00</time>
      </trkpt>
      <trkpt lat="43.76185" lon="7.24992">
        <ele>510</ele>
        <time>0001-01-01T00:00:00</time>
      </trkpt>
      <trkpt lat="43.76186" lon="7.24986">
        <ele>509</ele>
        <time>0001-01-01T00:00:00</time>
      </trkpt>
      <trkpt lat="43.76184" lon="7.24971">
        <ele>507</ele>
        <time>0001-01-01T00:00:00</time>
      </trkpt>
      <trkpt lat="43.76179" lon="7.24967">
        <ele>506</ele>
        <time>0001-01-01T00:00:00</time>
      </trkpt>
      <trkpt lat="43.76174" lon="7.24968">
        <ele>506</ele>
        <time>0001-01-01T00:00:00</time>
      </trkpt>
      <trkpt lat="43.7617" lon="7.24962">
        <ele>505</ele>
        <time>0001-01-01T00:00:00</time>
      </trkpt>
      <trkpt lat="43.76175" lon="7.24954">
        <ele>503</ele>
        <time>0001-01-01T00:00:00</time>
      </trkpt>
      <trkpt lat="43.76183" lon="7.2494">
        <ele>500</ele>
        <time>0001-01-01T00:00:00</time>
      </trkpt>
      <trkpt lat="43.76184" lon="7.24927">
        <ele>497</ele>
        <time>0001-01-01T00:00:00</time>
      </trkpt>
      <trkpt lat="43.76188" lon="7.2492">
        <ele>497</ele>
        <time>0001-01-01T00:00:00</time>
      </trkpt>
      <trkpt lat="43.76188" lon="7.24914">
        <ele>484</ele>
        <time>0001-01-01T00:00:00</time>
      </trkpt>
      <trkpt lat="43.76179" lon="7.24909">
        <ele>484</ele>
        <time>0001-01-01T00:00:00</time>
      </trkpt>
      <trkpt lat="43.76173" lon="7.24901">
        <ele>483</ele>
        <time>0001-01-01T00:00:00</time>
      </trkpt>
      <trkpt lat="43.7617" lon="7.249">
        <ele>483</ele>
        <time>0001-01-01T00:00:00</time>
      </trkpt>
      <trkpt lat="43.76154" lon="7.24898">
        <ele>473</ele>
        <time>0001-01-01T00:00:00</time>
      </trkpt>
      <trkpt lat="43.76149" lon="7.24896">
        <ele>472</ele>
        <time>0001-01-01T00:00:00</time>
      </trkpt>
      <trkpt lat="43.76151" lon="7.24879">
        <ele>469</ele>
        <time>0001-01-01T00:00:00</time>
      </trkpt>
      <trkpt lat="43.76149" lon="7.24872">
        <ele>467</ele>
        <time>0001-01-01T00:00:00</time>
      </trkpt>
      <trkpt lat="43.76131" lon="7.24874">
        <ele>466</ele>
        <time>0001-01-01T00:00:00</time>
      </trkpt>
      <trkpt lat="43.76129" lon="7.24875">
        <ele>466</ele>
        <time>0001-01-01T00:00:00</time>
      </trkpt>
      <trkpt lat="43.76116" lon="7.24877">
        <ele>465</ele>
        <time>0001-01-01T00:00:00</time>
      </trkpt>
      <trkpt lat="43.76104" lon="7.24881">
        <ele>464</ele>
        <time>0001-01-01T00:00:00</time>
      </trkpt>
      <trkpt lat="43.76097" lon="7.24885">
        <ele>464</ele>
        <time>0001-01-01T00:00:00</time>
      </trkpt>
      <trkpt lat="43.76097" lon="7.24885">
        <ele>464</ele>
        <time>0001-01-01T00:00:00</time>
      </trkpt>
      <trkpt lat="43.76084" lon="7.24887">
        <ele>464</ele>
        <time>0001-01-01T00:00:00</time>
      </trkpt>
      <trkpt lat="43.7608" lon="7.24889">
        <ele>455</ele>
        <time>0001-01-01T00:00:00</time>
      </trkpt>
      <trkpt lat="43.76067" lon="7.24895">
        <ele>455</ele>
        <time>0001-01-01T00:00:00</time>
      </trkpt>
      <trkpt lat="43.76058" lon="7.24901">
        <ele>455</ele>
        <time>0001-01-01T00:00:00</time>
      </trkpt>
      <trkpt lat="43.7604" lon="7.24902">
        <ele>453</ele>
        <time>0001-01-01T00:00:00</time>
      </trkpt>
      <trkpt lat="43.76026" lon="7.24899">
        <ele>451</ele>
        <time>0001-01-01T00:00:00</time>
      </trkpt>
      <trkpt lat="43.7602" lon="7.24896">
        <ele>451</ele>
        <time>0001-01-01T00:00:00</time>
      </trkpt>
      <trkpt lat="43.76021" lon="7.24888">
        <ele>450</ele>
        <time>0001-01-01T00:00:00</time>
      </trkpt>
      <trkpt lat="43.76019" lon="7.24879">
        <ele>449</ele>
        <time>0001-01-01T00:00:00</time>
      </trkpt>
      <trkpt lat="43.76009" lon="7.2487">
        <ele>448</ele>
        <time>0001-01-01T00:00:00</time>
      </trkpt>
      <trkpt lat="43.76003" lon="7.24853">
        <ele>445</ele>
        <time>0001-01-01T00:00:00</time>
      </trkpt>
      <trkpt lat="43.75997" lon="7.24833">
        <ele>436</ele>
        <time>0001-01-01T00:00:00</time>
      </trkpt>
      <trkpt lat="43.7599" lon="7.24818">
        <ele>429</ele>
        <time>0001-01-01T00:00:00</time>
      </trkpt>
      <trkpt lat="43.7599" lon="7.24813">
        <ele>428</ele>
        <time>0001-01-01T00:00:00</time>
      </trkpt>
      <trkpt lat="43.7599" lon="7.24795">
        <ele>424</ele>
        <time>0001-01-01T00:00:00</time>
      </trkpt>
      <trkpt lat="43.75991" lon="7.24782">
        <ele>423</ele>
        <time>0001-01-01T00:00:00</time>
      </trkpt>
      <trkpt lat="43.75992" lon="7.24772">
        <ele>422</ele>
        <time>0001-01-01T00:00:00</time>
      </trkpt>
      <trkpt lat="43.75996" lon="7.24769">
        <ele>422</ele>
        <time>0001-01-01T00:00:00</time>
      </trkpt>
      <trkpt lat="43.75991" lon="7.24762">
        <ele>422</ele>
        <time>0001-01-01T00:00:00</time>
      </trkpt>
      <trkpt lat="43.75965" lon="7.24763">
        <ele>419</ele>
        <time>0001-01-01T00:00:00</time>
      </trkpt>
      <trkpt lat="43.75949" lon="7.24772">
        <ele>418</ele>
        <time>0001-01-01T00:00:00</time>
      </trkpt>
      <trkpt lat="43.75939" lon="7.24798">
        <ele>419</ele>
        <time>0001-01-01T00:00:00</time>
      </trkpt>
      <trkpt lat="43.75931" lon="7.24816">
        <ele>419</ele>
        <time>0001-01-01T00:00:00</time>
      </trkpt>
      <trkpt lat="43.75922" lon="7.24849">
        <ele>425</ele>
        <time>0001-01-01T00:00:00</time>
      </trkpt>
      <trkpt lat="43.75921" lon="7.24854">
        <ele>426</ele>
        <time>0001-01-01T00:00:00</time>
      </trkpt>
      <trkpt lat="43.75914" lon="7.2488">
        <ele>420</ele>
        <time>0001-01-01T00:00:00</time>
      </trkpt>
      <trkpt lat="43.75908" lon="7.24908">
        <ele>425</ele>
        <time>0001-01-01T00:00:00</time>
      </trkpt>
      <trkpt lat="43.75906" lon="7.24912">
        <ele>425</ele>
        <time>0001-01-01T00:00:00</time>
      </trkpt>
      <trkpt lat="43.75898" lon="7.24931">
        <ele>429</ele>
        <time>0001-01-01T00:00:00</time>
      </trkpt>
      <trkpt lat="43.7588" lon="7.24953">
        <ele>429</ele>
        <time>0001-01-01T00:00:00</time>
      </trkpt>
      <trkpt lat="43.75871" lon="7.24963">
        <ele>429</ele>
        <time>0001-01-01T00:00:00</time>
      </trkpt>
      <trkpt lat="43.75867" lon="7.24967">
        <ele>429</ele>
        <time>0001-01-01T00:00:00</time>
      </trkpt>
      <trkpt lat="43.75857" lon="7.24973">
        <ele>429</ele>
        <time>0001-01-01T00:00:00</time>
      </trkpt>
      <trkpt lat="43.75854" lon="7.24978">
        <ele>429</ele>
        <time>0001-01-01T00:00:00</time>
      </trkpt>
      <trkpt lat="43.7585" lon="7.24987">
        <ele>429</ele>
        <time>0001-01-01T00:00:00</time>
      </trkpt>
      <trkpt lat="43.75844" lon="7.24992">
        <ele>428</ele>
        <time>0001-01-01T00:00:00</time>
      </trkpt>
      <trkpt lat="43.75837" lon="7.24994">
        <ele>428</ele>
        <time>0001-01-01T00:00:00</time>
      </trkpt>
      <trkpt lat="43.75823" lon="7.24999">
        <ele>423</ele>
        <time>0001-01-01T00:00:00</time>
      </trkpt>
      <trkpt lat="43.75814" lon="7.25002">
        <ele>428</ele>
        <time>0001-01-01T00:00:00</time>
      </trkpt>
      <trkpt lat="43.75803" lon="7.25005">
        <ele>427</ele>
        <time>0001-01-01T00:00:00</time>
      </trkpt>
      <trkpt lat="43.75785" lon="7.25021">
        <ele>427</ele>
        <time>0001-01-01T00:00:00</time>
      </trkpt>
      <trkpt lat="43.75777" lon="7.25029">
        <ele>427</ele>
        <time>0001-01-01T00:00:00</time>
      </trkpt>
      <trkpt lat="43.75763" lon="7.25038">
        <ele>427</ele>
        <time>0001-01-01T00:00:00</time>
      </trkpt>
      <trkpt lat="43.7576" lon="7.25039">
        <ele>427</ele>
        <time>0001-01-01T00:00:00</time>
      </trkpt>
      <trkpt lat="43.75751" lon="7.2505">
        <ele>428</ele>
        <time>0001-01-01T00:00:00</time>
      </trkpt>
      <trkpt lat="43.75739" lon="7.2506">
        <ele>425</ele>
        <time>0001-01-01T00:00:00</time>
      </trkpt>
      <trkpt lat="43.75736" lon="7.25062">
        <ele>425</ele>
        <time>0001-01-01T00:00:00</time>
      </trkpt>
      <trkpt lat="43.7572" lon="7.25075">
        <ele>425</ele>
        <time>0001-01-01T00:00:00</time>
      </trkpt>
      <trkpt lat="43.75713" lon="7.25084">
        <ele>435</ele>
        <time>0001-01-01T00:00:00</time>
      </trkpt>
      <trkpt lat="43.75702" lon="7.25092">
        <ele>435</ele>
        <time>0001-01-01T00:00:00</time>
      </trkpt>
      <trkpt lat="43.75691" lon="7.25103">
        <ele>435</ele>
        <time>0001-01-01T00:00:00</time>
      </trkpt>
      <trkpt lat="43.75681" lon="7.25112">
        <ele>435</ele>
        <time>0001-01-01T00:00:00</time>
      </trkpt>
      <trkpt lat="43.75674" lon="7.25121">
        <ele>436</ele>
        <time>0001-01-01T00:00:00</time>
      </trkpt>
      <trkpt lat="43.75668" lon="7.25128">
        <ele>436</ele>
        <time>0001-01-01T00:00:00</time>
      </trkpt>
      <trkpt lat="43.75656" lon="7.25137">
        <ele>431</ele>
        <time>0001-01-01T00:00:00</time>
      </trkpt>
      <trkpt lat="43.75645" lon="7.25145">
        <ele>431</ele>
        <time>0001-01-01T00:00:00</time>
      </trkpt>
      <trkpt lat="43.75631" lon="7.2515">
        <ele>430</ele>
        <time>0001-01-01T00:00:00</time>
      </trkpt>
      <trkpt lat="43.75612" lon="7.25157">
        <ele>429</ele>
        <time>0001-01-01T00:00:00</time>
      </trkpt>
      <trkpt lat="43.75601" lon="7.25166">
        <ele>428</ele>
        <time>0001-01-01T00:00:00</time>
      </trkpt>
      <trkpt lat="43.75595" lon="7.25174">
        <ele>433</ele>
        <time>0001-01-01T00:00:00</time>
      </trkpt>
      <trkpt lat="43.75581" lon="7.25177">
        <ele>430</ele>
        <time>0001-01-01T00:00:00</time>
      </trkpt>
      <trkpt lat="43.75571" lon="7.25181">
        <ele>430</ele>
        <time>0001-01-01T00:00:00</time>
      </trkpt>
      <trkpt lat="43.75558" lon="7.25186">
        <ele>431</ele>
        <time>0001-01-01T00:00:00</time>
      </trkpt>
      <trkpt lat="43.75544" lon="7.2518">
        <ele>431</ele>
        <time>0001-01-01T00:00:00</time>
      </trkpt>
      <trkpt lat="43.75538" lon="7.2519">
        <ele>431</ele>
        <time>0001-01-01T00:00:00</time>
      </trkpt>
      <trkpt lat="43.75529" lon="7.25205">
        <ele>432</ele>
        <time>0001-01-01T00:00:00</time>
      </trkpt>
      <trkpt lat="43.75519" lon="7.2522">
        <ele>432</ele>
        <time>0001-01-01T00:00:00</time>
      </trkpt>
      <trkpt lat="43.75506" lon="7.25239">
        <ele>432</ele>
        <time>0001-01-01T00:00:00</time>
      </trkpt>
      <trkpt lat="43.75495" lon="7.25256">
        <ele>433</ele>
        <time>0001-01-01T00:00:00</time>
      </trkpt>
      <trkpt lat="43.75489" lon="7.25249">
        <ele>431</ele>
        <time>0001-01-01T00:00:00</time>
      </trkpt>
      <trkpt lat="43.7549" lon="7.25232">
        <ele>430</ele>
        <time>0001-01-01T00:00:00</time>
      </trkpt>
      <trkpt lat="43.7548" lon="7.25221">
        <ele>429</ele>
        <time>0001-01-01T00:00:00</time>
      </trkpt>
      <trkpt lat="43.75461" lon="7.25223">
        <ele>429</ele>
        <time>0001-01-01T00:00:00</time>
      </trkpt>
      <trkpt lat="43.75431" lon="7.25224">
        <ele>429</ele>
        <time>0001-01-01T00:00:00</time>
      </trkpt>
      <trkpt lat="43.75409" lon="7.25232">
        <ele>429</ele>
        <time>0001-01-01T00:00:00</time>
      </trkpt>
      <trkpt lat="43.75385" lon="7.25254">
        <ele>429</ele>
        <time>0001-01-01T00:00:00</time>
      </trkpt>
      <trkpt lat="43.75373" lon="7.25276">
        <ele>430</ele>
        <time>0001-01-01T00:00:00</time>
      </trkpt>
      <trkpt lat="43.75359" lon="7.25293">
        <ele>430</ele>
        <time>0001-01-01T00:00:00</time>
      </trkpt>
      <trkpt lat="43.75338" lon="7.25299">
        <ele>429</ele>
        <time>0001-01-01T00:00:00</time>
      </trkpt>
      <trkpt lat="43.75325" lon="7.253">
        <ele>428</ele>
        <time>0001-01-01T00:00:00</time>
      </trkpt>
      <trkpt lat="43.75311" lon="7.25307">
        <ele>428</ele>
        <time>0001-01-01T00:00:00</time>
      </trkpt>
      <trkpt lat="43.75293" lon="7.25302">
        <ele>427</ele>
        <time>0001-01-01T00:00:00</time>
      </trkpt>
      <trkpt lat="43.7528" lon="7.253">
        <ele>427</ele>
        <time>0001-01-01T00:00:00</time>
      </trkpt>
      <trkpt lat="43.75275" lon="7.25299">
        <ele>427</ele>
        <time>0001-01-01T00:00:00</time>
      </trkpt>
      <trkpt lat="43.75266" lon="7.25296">
        <ele>427</ele>
        <time>0001-01-01T00:00:00</time>
      </trkpt>
      <trkpt lat="43.75256" lon="7.25294">
        <ele>427</ele>
        <time>0001-01-01T00:00:00</time>
      </trkpt>
      <trkpt lat="43.75234" lon="7.2531">
        <ele>425</ele>
        <time>0001-01-01T00:00:00</time>
      </trkpt>
      <trkpt lat="43.75229" lon="7.25321">
        <ele>425</ele>
        <time>0001-01-01T00:00:00</time>
      </trkpt>
      <trkpt lat="43.7522" lon="7.25345">
        <ele>425</ele>
        <time>0001-01-01T00:00:00</time>
      </trkpt>
      <trkpt lat="43.75207" lon="7.25351">
        <ele>424</ele>
        <time>0001-01-01T00:00:00</time>
      </trkpt>
      <trkpt lat="43.75203" lon="7.25353">
        <ele>424</ele>
        <time>0001-01-01T00:00:00</time>
      </trkpt>
      <trkpt lat="43.75182" lon="7.25365">
        <ele>424</ele>
        <time>0001-01-01T00:00:00</time>
      </trkpt>
      <trkpt lat="43.75167" lon="7.25378">
        <ele>423</ele>
        <time>0001-01-01T00:00:00</time>
      </trkpt>
      <trkpt lat="43.75159" lon="7.25386">
        <ele>418</ele>
        <time>0001-01-01T00:00:00</time>
      </trkpt>
      <trkpt lat="43.75149" lon="7.25405">
        <ele>418</ele>
        <time>0001-01-01T00:00:00</time>
      </trkpt>
      <trkpt lat="43.75131" lon="7.25439">
        <ele>416</ele>
        <time>0001-01-01T00:00:00</time>
      </trkpt>
      <trkpt lat="43.75126" lon="7.25453">
        <ele>416</ele>
        <time>0001-01-01T00:00:00</time>
      </trkpt>
      <trkpt lat="43.75115" lon="7.2548">
        <ele>415</ele>
        <time>0001-01-01T00:00:00</time>
      </trkpt>
      <trkpt lat="43.75108" lon="7.25505">
        <ele>418</ele>
        <time>0001-01-01T00:00:00</time>
      </trkpt>
      <trkpt lat="43.75096" lon="7.25522">
        <ele>418</ele>
        <time>0001-01-01T00:00:00</time>
      </trkpt>
      <trkpt lat="43.75073" lon="7.25528">
        <ele>412</ele>
        <time>0001-01-01T00:00:00</time>
      </trkpt>
      <trkpt lat="43.75056" lon="7.25528">
        <ele>412</ele>
        <time>0001-01-01T00:00:00</time>
      </trkpt>
      <trkpt lat="43.75039" lon="7.25532">
        <ele>411</ele>
        <time>0001-01-01T00:00:00</time>
      </trkpt>
      <trkpt lat="43.7502" lon="7.25538">
        <ele>411</ele>
        <time>0001-01-01T00:00:00</time>
      </trkpt>
      <trkpt lat="43.75015" lon="7.25538">
        <ele>411</ele>
        <time>0001-01-01T00:00:00</time>
      </trkpt>
      <trkpt lat="43.75006" lon="7.25541">
        <ele>411</ele>
        <time>0001-01-01T00:00:00</time>
      </trkpt>
      <trkpt lat="43.74992" lon="7.25546">
        <ele>407</ele>
        <time>0001-01-01T00:00:00</time>
      </trkpt>
      <trkpt lat="43.74974" lon="7.25544">
        <ele>407</ele>
        <time>0001-01-01T00:00:00</time>
      </trkpt>
      <trkpt lat="43.74963" lon="7.25543">
        <ele>407</ele>
        <time>0001-01-01T00:00:00</time>
      </trkpt>
      <trkpt lat="43.74951" lon="7.2555">
        <ele>407</ele>
        <time>0001-01-01T00:00:00</time>
      </trkpt>
      <trkpt lat="43.74947" lon="7.25552">
        <ele>407</ele>
        <time>0001-01-01T00:00:00</time>
      </trkpt>
      <trkpt lat="43.74936" lon="7.2555">
        <ele>407</ele>
        <time>0001-01-01T00:00:00</time>
      </trkpt>
      <trkpt lat="43.74923" lon="7.25555">
        <ele>408</ele>
        <time>0001-01-01T00:00:00</time>
      </trkpt>
      <trkpt lat="43.74911" lon="7.25556">
        <ele>407</ele>
        <time>0001-01-01T00:00:00</time>
      </trkpt>
      <trkpt lat="43.74891" lon="7.2556">
        <ele>406</ele>
        <time>0001-01-01T00:00:00</time>
      </trkpt>
      <trkpt lat="43.74876" lon="7.25563">
        <ele>406</ele>
        <time>0001-01-01T00:00:00</time>
      </trkpt>
      <trkpt lat="43.74865" lon="7.2556">
        <ele>406</ele>
        <time>0001-01-01T00:00:00</time>
      </trkpt>
      <trkpt lat="43.74856" lon="7.25559">
        <ele>406</ele>
        <time>0001-01-01T00:00:00</time>
      </trkpt>
      <trkpt lat="43.74835" lon="7.25564">
        <ele>407</ele>
        <time>0001-01-01T00:00:00</time>
      </trkpt>
      <trkpt lat="43.74822" lon="7.25565">
        <ele>406</ele>
        <time>0001-01-01T00:00:00</time>
      </trkpt>
      <trkpt lat="43.74807" lon="7.25566">
        <ele>405</ele>
        <time>0001-01-01T00:00:00</time>
      </trkpt>
      <trkpt lat="43.74804" lon="7.25567">
        <ele>405</ele>
        <time>0001-01-01T00:00:00</time>
      </trkpt>
      <trkpt lat="43.74784" lon="7.2557">
        <ele>404</ele>
        <time>0001-01-01T00:00:00</time>
      </trkpt>
      <trkpt lat="43.7477" lon="7.25571">
        <ele>404</ele>
        <time>0001-01-01T00:00:00</time>
      </trkpt>
      <trkpt lat="43.74757" lon="7.25574">
        <ele>405</ele>
        <time>0001-01-01T00:00:00</time>
      </trkpt>
      <trkpt lat="43.74747" lon="7.25574">
        <ele>404</ele>
        <time>0001-01-01T00:00:00</time>
      </trkpt>
      <trkpt lat="43.74729" lon="7.25577">
        <ele>403</ele>
        <time>0001-01-01T00:00:00</time>
      </trkpt>
      <trkpt lat="43.74712" lon="7.25585">
        <ele>409</ele>
        <time>0001-01-01T00:00:00</time>
      </trkpt>
      <trkpt lat="43.74702" lon="7.25593">
        <ele>409</ele>
        <time>0001-01-01T00:00:00</time>
      </trkpt>
      <trkpt lat="43.7468" lon="7.25598">
        <ele>407</ele>
        <time>0001-01-01T00:00:00</time>
      </trkpt>
      <trkpt lat="43.74673" lon="7.25603">
        <ele>407</ele>
        <time>0001-01-01T00:00:00</time>
      </trkpt>
      <trkpt lat="43.74661" lon="7.25609">
        <ele>405</ele>
        <time>0001-01-01T00:00:00</time>
      </trkpt>
      <trkpt lat="43.74647" lon="7.25607">
        <ele>404</ele>
        <time>0001-01-01T00:00:00</time>
      </trkpt>
      <trkpt lat="43.74639" lon="7.25608">
        <ele>404</ele>
        <time>0001-01-01T00:00:00</time>
      </trkpt>
      <trkpt lat="43.74631" lon="7.25612">
        <ele>404</ele>
        <time>0001-01-01T00:00:00</time>
      </trkpt>
      <trkpt lat="43.74624" lon="7.25616">
        <ele>404</ele>
        <time>0001-01-01T00:00:00</time>
      </trkpt>
      <trkpt lat="43.74601" lon="7.25623">
        <ele>404</ele>
        <time>0001-01-01T00:00:00</time>
      </trkpt>
      <trkpt lat="43.74588" lon="7.25619">
        <ele>403</ele>
        <time>0001-01-01T00:00:00</time>
      </trkpt>
      <trkpt lat="43.74574" lon="7.25622">
        <ele>399</ele>
        <time>0001-01-01T00:00:00</time>
      </trkpt>
      <trkpt lat="43.74566" lon="7.25618">
        <ele>398</ele>
        <time>0001-01-01T00:00:00</time>
      </trkpt>
      <trkpt lat="43.74557" lon="7.25626">
        <ele>398</ele>
        <time>0001-01-01T00:00:00</time>
      </trkpt>
      <trkpt lat="43.74546" lon="7.25652">
        <ele>399</ele>
        <time>0001-01-01T00:00:00</time>
      </trkpt>
      <trkpt lat="43.74533" lon="7.25682">
        <ele>402</ele>
        <time>0001-01-01T00:00:00</time>
      </trkpt>
      <trkpt lat="43.74532" lon="7.25686">
        <ele>402</ele>
        <time>0001-01-01T00:00:00</time>
      </trkpt>
      <trkpt lat="43.74526" lon="7.25706">
        <ele>403</ele>
        <time>0001-01-01T00:00:00</time>
      </trkpt>
      <trkpt lat="43.74523" lon="7.25714">
        <ele>403</ele>
        <time>0001-01-01T00:00:00</time>
      </trkpt>
      <trkpt lat="43.74515" lon="7.25721">
        <ele>403</ele>
        <time>0001-01-01T00:00:00</time>
      </trkpt>
      <trkpt lat="43.74495" lon="7.25735">
        <ele>397</ele>
        <time>0001-01-01T00:00:00</time>
      </trkpt>
      <trkpt lat="43.74478" lon="7.25751">
        <ele>397</ele>
        <time>0001-01-01T00:00:00</time>
      </trkpt>
      <trkpt lat="43.7447" lon="7.25761">
        <ele>396</ele>
        <time>0001-01-01T00:00:00</time>
      </trkpt>
      <trkpt lat="43.74466" lon="7.25767">
        <ele>395</ele>
        <time>0001-01-01T00:00:00</time>
      </trkpt>
      <trkpt lat="43.74456" lon="7.25783">
        <ele>394</ele>
        <time>0001-01-01T00:00:00</time>
      </trkpt>
      <trkpt lat="43.74447" lon="7.25798">
        <ele>393</ele>
        <time>0001-01-01T00:00:00</time>
      </trkpt>
      <trkpt lat="43.74445" lon="7.25801">
        <ele>393</ele>
        <time>0001-01-01T00:00:00</time>
      </trkpt>
      <trkpt lat="43.74436" lon="7.25812">
        <ele>391</ele>
        <time>0001-01-01T00:00:00</time>
      </trkpt>
      <trkpt lat="43.74434" lon="7.25815">
        <ele>391</ele>
        <time>0001-01-01T00:00:00</time>
      </trkpt>
      <trkpt lat="43.74426" lon="7.2583">
        <ele>387</ele>
        <time>0001-01-01T00:00:00</time>
      </trkpt>
      <trkpt lat="43.74421" lon="7.25844">
        <ele>387</ele>
        <time>0001-01-01T00:00:00</time>
      </trkpt>
      <trkpt lat="43.74419" lon="7.25853">
        <ele>388</ele>
        <time>0001-01-01T00:00:00</time>
      </trkpt>
      <trkpt lat="43.74419" lon="7.25877">
        <ele>389</ele>
        <time>0001-01-01T00:00:00</time>
      </trkpt>
      <trkpt lat="43.74418" lon="7.25884">
        <ele>388</ele>
        <time>0001-01-01T00:00:00</time>
      </trkpt>
      <trkpt lat="43.74424" lon="7.25897">
        <ele>387</ele>
        <time>0001-01-01T00:00:00</time>
      </trkpt>
      <trkpt lat="43.74425" lon="7.25898">
        <ele>386</ele>
        <time>0001-01-01T00:00:00</time>
      </trkpt>
      <trkpt lat="43.74433" lon="7.25917">
        <ele>382</ele>
        <time>0001-01-01T00:00:00</time>
      </trkpt>
      <trkpt lat="43.74434" lon="7.25923">
        <ele>382</ele>
        <time>0001-01-01T00:00:00</time>
      </trkpt>
      <trkpt lat="43.74434" lon="7.25931">
        <ele>382</ele>
        <time>0001-01-01T00:00:00</time>
      </trkpt>
      <trkpt lat="43.74432" lon="7.25934">
        <ele>382</ele>
        <time>0001-01-01T00:00:00</time>
      </trkpt>
      <trkpt lat="43.74435" lon="7.2594">
        <ele>383</ele>
        <time>0001-01-01T00:00:00</time>
      </trkpt>
      <trkpt lat="43.74436" lon="7.25951">
        <ele>383</ele>
        <time>0001-01-01T00:00:00</time>
      </trkpt>
      <trkpt lat="43.74442" lon="7.25974">
        <ele>381</ele>
        <time>0001-01-01T00:00:00</time>
      </trkpt>
      <trkpt lat="43.74458" lon="7.25992">
        <ele>383</ele>
        <time>0001-01-01T00:00:00</time>
      </trkpt>
      <trkpt lat="43.7446" lon="7.25997">
        <ele>383</ele>
        <time>0001-01-01T00:00:00</time>
      </trkpt>
      <trkpt lat="43.7447" lon="7.26028">
        <ele>373</ele>
        <time>0001-01-01T00:00:00</time>
      </trkpt>
      <trkpt lat="43.74474" lon="7.26039">
        <ele>373</ele>
        <time>0001-01-01T00:00:00</time>
      </trkpt>
      <trkpt lat="43.74491" lon="7.26075">
        <ele>370</ele>
        <time>0001-01-01T00:00:00</time>
      </trkpt>
      <trkpt lat="43.74502" lon="7.26093">
        <ele>368</ele>
        <time>0001-01-01T00:00:00</time>
      </trkpt>
      <trkpt lat="43.74535" lon="7.26129">
        <ele>364</ele>
        <time>0001-01-01T00:00:00</time>
      </trkpt>
      <trkpt lat="43.74542" lon="7.26137">
        <ele>363</ele>
        <time>0001-01-01T00:00:00</time>
      </trkpt>
      <trkpt lat="43.74556" lon="7.26156">
        <ele>361</ele>
        <time>0001-01-01T00:00:00</time>
      </trkpt>
      <trkpt lat="43.74566" lon="7.26165">
        <ele>359</ele>
        <time>0001-01-01T00:00:00</time>
      </trkpt>
      <trkpt lat="43.74566" lon="7.26171">
        <ele>349</ele>
        <time>0001-01-01T00:00:00</time>
      </trkpt>
      <trkpt lat="43.74566" lon="7.26177">
        <ele>349</ele>
        <time>0001-01-01T00:00:00</time>
      </trkpt>
      <trkpt lat="43.74563" lon="7.2618">
        <ele>348</ele>
        <time>0001-01-01T00:00:00</time>
      </trkpt>
      <trkpt lat="43.74562" lon="7.26181">
        <ele>348</ele>
        <time>0001-01-01T00:00:00</time>
      </trkpt>
      <trkpt lat="43.74559" lon="7.26187">
        <ele>347</ele>
        <time>0001-01-01T00:00:00</time>
      </trkpt>
      <trkpt lat="43.74556" lon="7.26189">
        <ele>347</ele>
        <time>0001-01-01T00:00:00</time>
      </trkpt>
      <trkpt lat="43.74553" lon="7.26196">
        <ele>346</ele>
        <time>0001-01-01T00:00:00</time>
      </trkpt>
      <trkpt lat="43.74551" lon="7.26199">
        <ele>345</ele>
        <time>0001-01-01T00:00:00</time>
      </trkpt>
      <trkpt lat="43.74543" lon="7.26204">
        <ele>345</ele>
        <time>0001-01-01T00:00:00</time>
      </trkpt>
      <trkpt lat="43.74546" lon="7.2622">
        <ele>343</ele>
        <time>0001-01-01T00:00:00</time>
      </trkpt>
      <trkpt lat="43.74551" lon="7.26234">
        <ele>342</ele>
        <time>0001-01-01T00:00:00</time>
      </trkpt>
      <trkpt lat="43.74561" lon="7.26235">
        <ele>341</ele>
        <time>0001-01-01T00:00:00</time>
      </trkpt>
      <trkpt lat="43.74564" lon="7.26234">
        <ele>341</ele>
        <time>0001-01-01T00:00:00</time>
      </trkpt>
      <trkpt lat="43.74586" lon="7.26254">
        <ele>335</ele>
        <time>0001-01-01T00:00:00</time>
      </trkpt>
      <trkpt lat="43.74583" lon="7.26274">
        <ele>330</ele>
        <time>0001-01-01T00:00:00</time>
      </trkpt>
      <trkpt lat="43.74592" lon="7.26289">
        <ele>326</ele>
        <time>0001-01-01T00:00:00</time>
      </trkpt>
      <trkpt lat="43.74608" lon="7.26294">
        <ele>326</ele>
        <time>0001-01-01T00:00:00</time>
      </trkpt>
      <trkpt lat="43.74628" lon="7.26293">
        <ele>326</ele>
        <time>0001-01-01T00:00:00</time>
      </trkpt>
      <trkpt lat="43.74648" lon="7.26294">
        <ele>326</ele>
        <time>0001-01-01T00:00:00</time>
      </trkpt>
      <trkpt lat="43.74638" lon="7.26307">
        <ele>324</ele>
        <time>0001-01-01T00:00:00</time>
      </trkpt>
      <trkpt lat="43.74626" lon="7.26315">
        <ele>323</ele>
        <time>0001-01-01T00:00:00</time>
      </trkpt>
      <trkpt lat="43.74636" lon="7.26332">
        <ele>322</ele>
        <time>0001-01-01T00:00:00</time>
      </trkpt>
      <trkpt lat="43.74646" lon="7.26331">
        <ele>322</ele>
        <time>0001-01-01T00:00:00</time>
      </trkpt>
      <trkpt lat="43.74656" lon="7.26337">
        <ele>313</ele>
        <time>0001-01-01T00:00:00</time>
      </trkpt>
      <trkpt lat="43.7465" lon="7.2635">
        <ele>310</ele>
        <time>0001-01-01T00:00:00</time>
      </trkpt>
      <trkpt lat="43.74646" lon="7.26366">
        <ele>307</ele>
        <time>0001-01-01T00:00:00</time>
      </trkpt>
      <trkpt lat="43.74659" lon="7.26367">
        <ele>307</ele>
        <time>0001-01-01T00:00:00</time>
      </trkpt>
      <trkpt lat="43.74667" lon="7.26371">
        <ele>308</ele>
        <time>0001-01-01T00:00:00</time>
      </trkpt>
      <trkpt lat="43.74693" lon="7.26384">
        <ele>307</ele>
        <time>0001-01-01T00:00:00</time>
      </trkpt>
      <trkpt lat="43.74735" lon="7.26383">
        <ele>307</ele>
        <time>0001-01-01T00:00:00</time>
      </trkpt>
      <trkpt lat="43.74762" lon="7.26389">
        <ele>310</ele>
        <time>0001-01-01T00:00:00</time>
      </trkpt>
      <trkpt lat="43.74776" lon="7.26394">
        <ele>310</ele>
        <time>0001-01-01T00:00:00</time>
      </trkpt>
      <trkpt lat="43.74789" lon="7.26398">
        <ele>311</ele>
        <time>0001-01-01T00:00:00</time>
      </trkpt>
      <trkpt lat="43.74824" lon="7.26411">
        <ele>311</ele>
        <time>0001-01-01T00:00:00</time>
      </trkpt>
      <trkpt lat="43.74863" lon="7.26425">
        <ele>304</ele>
        <time>0001-01-01T00:00:00</time>
      </trkpt>
      <trkpt lat="43.74891" lon="7.2643">
        <ele>306</ele>
        <time>0001-01-01T00:00:00</time>
      </trkpt>
      <trkpt lat="43.74917" lon="7.26447">
        <ele>314</ele>
        <time>0001-01-01T00:00:00</time>
      </trkpt>
      <trkpt lat="43.74924" lon="7.26463">
        <ele>311</ele>
        <time>0001-01-01T00:00:00</time>
      </trkpt>
      <trkpt lat="43.74932" lon="7.2648">
        <ele>308</ele>
        <time>0001-01-01T00:00:00</time>
      </trkpt>
      <trkpt lat="43.74959" lon="7.26512">
        <ele>299</ele>
        <time>0001-01-01T00:00:00</time>
      </trkpt>
      <trkpt lat="43.74989" lon="7.26534">
        <ele>300</ele>
        <time>0001-01-01T00:00:00</time>
      </trkpt>
      <trkpt lat="43.74996" lon="7.26538">
        <ele>300</ele>
        <time>0001-01-01T00:00:00</time>
      </trkpt>
      <trkpt lat="43.75028" lon="7.26543">
        <ele>303</ele>
        <time>0001-01-01T00:00:00</time>
      </trkpt>
      <trkpt lat="43.75034" lon="7.26543">
        <ele>303</ele>
        <time>0001-01-01T00:00:00</time>
      </trkpt>
      <trkpt lat="43.75043" lon="7.26546">
        <ele>303</ele>
        <time>0001-01-01T00:00:00</time>
      </trkpt>
      <trkpt lat="43.75046" lon="7.26549">
        <ele>302</ele>
        <time>0001-01-01T00:00:00</time>
      </trkpt>
      <trkpt lat="43.75046" lon="7.26554">
        <ele>301</ele>
        <time>0001-01-01T00:00:00</time>
      </trkpt>
      <trkpt lat="43.75043" lon="7.26558">
        <ele>301</ele>
        <time>0001-01-01T00:00:00</time>
      </trkpt>
      <trkpt lat="43.75039" lon="7.26562">
        <ele>300</ele>
        <time>0001-01-01T00:00:00</time>
      </trkpt>
      <trkpt lat="43.75035" lon="7.26567">
        <ele>300</ele>
        <time>0001-01-01T00:00:00</time>
      </trkpt>
      <trkpt lat="43.75028" lon="7.26573">
        <ele>299</ele>
        <time>0001-01-01T00:00:00</time>
      </trkpt>
      <trkpt lat="43.75018" lon="7.26585">
        <ele>287</ele>
        <time>0001-01-01T00:00:00</time>
      </trkpt>
      <trkpt lat="43.74998" lon="7.26609">
        <ele>283</ele>
        <time>0001-01-01T00:00:00</time>
      </trkpt>
      <trkpt lat="43.74973" lon="7.26638">
        <ele>277</ele>
        <time>0001-01-01T00:00:00</time>
      </trkpt>
      <trkpt lat="43.74968" lon="7.26643">
        <ele>276</ele>
        <time>0001-01-01T00:00:00</time>
      </trkpt>
      <trkpt lat="43.74953" lon="7.26664">
        <ele>274</ele>
        <time>0001-01-01T00:00:00</time>
      </trkpt>
      <trkpt lat="43.74949" lon="7.2668">
        <ele>258</ele>
        <time>0001-01-01T00:00:00</time>
      </trkpt>
      <trkpt lat="43.74944" lon="7.26696">
        <ele>256</ele>
        <time>0001-01-01T00:00:00</time>
      </trkpt>
      <trkpt lat="43.74937" lon="7.26712">
        <ele>254</ele>
        <time>0001-01-01T00:00:00</time>
      </trkpt>
      <trkpt lat="43.74932" lon="7.26725">
        <ele>251</ele>
        <time>0001-01-01T00:00:00</time>
      </trkpt>
      <trkpt lat="43.74923" lon="7.26754">
        <ele>238</ele>
        <time>0001-01-01T00:00:00</time>
      </trkpt>
      <trkpt lat="43.74914" lon="7.2677">
        <ele>229</ele>
        <time>0001-01-01T00:00:00</time>
      </trkpt>
      <trkpt lat="43.74904" lon="7.26783">
        <ele>223</ele>
        <time>0001-01-01T00:00:00</time>
      </trkpt>
      <trkpt lat="43.74892" lon="7.26798">
        <ele>220</ele>
        <time>0001-01-01T00:00:00</time>
      </trkpt>
      <trkpt lat="43.74885" lon="7.2681">
        <ele>218</ele>
        <time>0001-01-01T00:00:00</time>
      </trkpt>
      <trkpt lat="43.74874" lon="7.26827">
        <ele>215</ele>
        <time>0001-01-01T00:00:00</time>
      </trkpt>
      <trkpt lat="43.74871" lon="7.26832">
        <ele>214</ele>
        <time>0001-01-01T00:00:00</time>
      </trkpt>
      <trkpt lat="43.74868" lon="7.26833">
        <ele>213</ele>
        <time>0001-01-01T00:00:00</time>
      </trkpt>
      <trkpt lat="43.74858" lon="7.26837">
        <ele>203</ele>
        <time>0001-01-01T00:00:00</time>
      </trkpt>
      <trkpt lat="43.74859" lon="7.26857">
        <ele>203</ele>
        <time>0001-01-01T00:00:00</time>
      </trkpt>
      <trkpt lat="43.74857" lon="7.26866">
        <ele>203</ele>
        <time>0001-01-01T00:00:00</time>
      </trkpt>
      <trkpt lat="43.74856" lon="7.26902">
        <ele>200</ele>
        <time>0001-01-01T00:00:00</time>
      </trkpt>
      <trkpt lat="43.74851" lon="7.26948">
        <ele>199</ele>
        <time>0001-01-01T00:00:00</time>
      </trkpt>
      <trkpt lat="43.74844" lon="7.26977">
        <ele>199</ele>
        <time>0001-01-01T00:00:00</time>
      </trkpt>
      <trkpt lat="43.74839" lon="7.27027">
        <ele>201</ele>
        <time>0001-01-01T00:00:00</time>
      </trkpt>
      <trkpt lat="43.74836" lon="7.27043">
        <ele>201</ele>
        <time>0001-01-01T00:00:00</time>
      </trkpt>
      <trkpt lat="43.74831" lon="7.27084">
        <ele>198</ele>
        <time>0001-01-01T00:00:00</time>
      </trkpt>
      <trkpt lat="43.7483" lon="7.27095">
        <ele>200</ele>
        <time>0001-01-01T00:00:00</time>
      </trkpt>
      <trkpt lat="43.74827" lon="7.27109">
        <ele>201</ele>
        <time>0001-01-01T00:00:00</time>
      </trkpt>
      <trkpt lat="43.74832" lon="7.27141">
        <ele>197</ele>
        <time>0001-01-01T00:00:00</time>
      </trkpt>
      <trkpt lat="43.74831" lon="7.27163">
        <ele>190</ele>
        <time>0001-01-01T00:00:00</time>
      </trkpt>
      <trkpt lat="43.74825" lon="7.27182">
        <ele>191</ele>
        <time>0001-01-01T00:00:00</time>
      </trkpt>
      <trkpt lat="43.74807" lon="7.27202">
        <ele>193</ele>
        <time>0001-01-01T00:00:00</time>
      </trkpt>
      <trkpt lat="43.748" lon="7.27209">
        <ele>193</ele>
        <time>0001-01-01T00:00:00</time>
      </trkpt>
      <trkpt lat="43.74796" lon="7.27211">
        <ele>193</ele>
        <time>0001-01-01T00:00:00</time>
      </trkpt>
      <trkpt lat="43.74794" lon="7.27216">
        <ele>193</ele>
        <time>0001-01-01T00:00:00</time>
      </trkpt>
      <trkpt lat="43.74796" lon="7.27221">
        <ele>193</ele>
        <time>0001-01-01T00:00:00</time>
      </trkpt>
      <trkpt lat="43.74796" lon="7.27225">
        <ele>192</ele>
        <time>0001-01-01T00:00:00</time>
      </trkpt>
      <trkpt lat="43.74793" lon="7.27232">
        <ele>192</ele>
        <time>0001-01-01T00:00:00</time>
      </trkpt>
      <trkpt lat="43.74787" lon="7.27243">
        <ele>192</ele>
        <time>0001-01-01T00:00:00</time>
      </trkpt>
      <trkpt lat="43.74782" lon="7.27251">
        <ele>188</ele>
        <time>0001-01-01T00:00:00</time>
      </trkpt>
      <trkpt lat="43.74781" lon="7.27253">
        <ele>188</ele>
        <time>0001-01-01T00:00:00</time>
      </trkpt>
      <trkpt lat="43.74779" lon="7.27258">
        <ele>188</ele>
        <time>0001-01-01T00:00:00</time>
      </trkpt>
      <trkpt lat="43.74771" lon="7.27268">
        <ele>188</ele>
        <time>0001-01-01T00:00:00</time>
      </trkpt>
      <trkpt lat="43.7477" lon="7.27269">
        <ele>188</ele>
        <time>0001-01-01T00:00:00</time>
      </trkpt>
      <trkpt lat="43.74765" lon="7.27275">
        <ele>188</ele>
        <time>0001-01-01T00:00:00</time>
      </trkpt>
      <trkpt lat="43.74755" lon="7.27291">
        <ele>186</ele>
        <time>0001-01-01T00:00:00</time>
      </trkpt>
      <trkpt lat="43.74741" lon="7.27301">
        <ele>192</ele>
        <time>0001-01-01T00:00:00</time>
      </trkpt>
      <trkpt lat="43.74734" lon="7.27298">
        <ele>193</ele>
        <time>0001-01-01T00:00:00</time>
      </trkpt>
      <trkpt lat="43.74718" lon="7.273">
        <ele>196</ele>
        <time>0001-01-01T00:00:00</time>
      </trkpt>
      <trkpt lat="43.74713" lon="7.27304">
        <ele>197</ele>
        <time>0001-01-01T00:00:00</time>
      </trkpt>
      <trkpt lat="43.74706" lon="7.27303">
        <ele>198</ele>
        <time>0001-01-01T00:00:00</time>
      </trkpt>
      <trkpt lat="43.74704" lon="7.27302">
        <ele>199</ele>
        <time>0001-01-01T00:00:00</time>
      </trkpt>
      <trkpt lat="43.74693" lon="7.27309">
        <ele>200</ele>
        <time>0001-01-01T00:00:00</time>
      </trkpt>
      <trkpt lat="43.74681" lon="7.27313">
        <ele>202</ele>
        <time>0001-01-01T00:00:00</time>
      </trkpt>
      <trkpt lat="43.74678" lon="7.27313">
        <ele>202</ele>
        <time>0001-01-01T00:00:00</time>
      </trkpt>
      <trkpt lat="43.74667" lon="7.27316">
        <ele>203</ele>
        <time>0001-01-01T00:00:00</time>
      </trkpt>
      <trkpt lat="43.74664" lon="7.27317">
        <ele>217</ele>
        <time>0001-01-01T00:00:00</time>
      </trkpt>
      <trkpt lat="43.74659" lon="7.27317">
        <ele>218</ele>
        <time>0001-01-01T00:00:00</time>
      </trkpt>
      <trkpt lat="43.74658" lon="7.27319">
        <ele>217</ele>
        <time>0001-01-01T00:00:00</time>
      </trkpt>
      <trkpt lat="43.74663" lon="7.27326">
        <ele>212</ele>
        <time>0001-01-01T00:00:00</time>
      </trkpt>
      <trkpt lat="43.74667" lon="7.27327">
        <ele>204</ele>
        <time>0001-01-01T00:00:00</time>
      </trkpt>
      <trkpt lat="43.74672" lon="7.27326">
        <ele>203</ele>
        <time>0001-01-01T00:00:00</time>
      </trkpt>
      <trkpt lat="43.74691" lon="7.2734">
        <ele>192</ele>
        <time>0001-01-01T00:00:00</time>
      </trkpt>
      <trkpt lat="43.74698" lon="7.27346">
        <ele>190</ele>
        <time>0001-01-01T00:00:00</time>
      </trkpt>
      <trkpt lat="43.74702" lon="7.27349">
        <ele>188</ele>
        <time>0001-01-01T00:00:00</time>
      </trkpt>
      <trkpt lat="43.74707" lon="7.27351">
        <ele>187</ele>
        <time>0001-01-01T00:00:00</time>
      </trkpt>
      <trkpt lat="43.74707" lon="7.27356">
        <ele>187</ele>
        <time>0001-01-01T00:00:00</time>
      </trkpt>
      <trkpt lat="43.74705" lon="7.2737">
        <ele>187</ele>
        <time>0001-01-01T00:00:00</time>
      </trkpt>
      <trkpt lat="43.74704" lon="7.27374">
        <ele>187</ele>
        <time>0001-01-01T00:00:00</time>
      </trkpt>
      <trkpt lat="43.74702" lon="7.27378">
        <ele>187</ele>
        <time>0001-01-01T00:00:00</time>
      </trkpt>
      <trkpt lat="43.74701" lon="7.27383">
        <ele>187</ele>
        <time>0001-01-01T00:00:00</time>
      </trkpt>
      <trkpt lat="43.74694" lon="7.27392">
        <ele>188</ele>
        <time>0001-01-01T00:00:00</time>
      </trkpt>
      <trkpt lat="43.74691" lon="7.27402">
        <ele>189</ele>
        <time>0001-01-01T00:00:00</time>
      </trkpt>
      <trkpt lat="43.74687" lon="7.27414">
        <ele>190</ele>
        <time>0001-01-01T00:00:00</time>
      </trkpt>
      <trkpt lat="43.74677" lon="7.2742">
        <ele>190</ele>
        <time>0001-01-01T00:00:00</time>
      </trkpt>
      <trkpt lat="43.74672" lon="7.27427">
        <ele>189</ele>
        <time>0001-01-01T00:00:00</time>
      </trkpt>
      <trkpt lat="43.74666" lon="7.27433">
        <ele>200</ele>
        <time>0001-01-01T00:00:00</time>
      </trkpt>
      <trkpt lat="43.7466" lon="7.27454">
        <ele>201</ele>
        <time>0001-01-01T00:00:00</time>
      </trkpt>
      <trkpt lat="43.74656" lon="7.27483">
        <ele>195</ele>
        <time>0001-01-01T00:00:00</time>
      </trkpt>
      <trkpt lat="43.74647" lon="7.27502">
        <ele>186</ele>
        <time>0001-01-01T00:00:00</time>
      </trkpt>
      <trkpt lat="43.74631" lon="7.27525">
        <ele>191</ele>
        <time>0001-01-01T00:00:00</time>
      </trkpt>
      <trkpt lat="43.74628" lon="7.27528">
        <ele>191</ele>
        <time>0001-01-01T00:00:00</time>
      </trkpt>
      <trkpt lat="43.74619" lon="7.27542">
        <ele>192</ele>
        <time>0001-01-01T00:00:00</time>
      </trkpt>
      <trkpt lat="43.74619" lon="7.27544">
        <ele>192</ele>
        <time>0001-01-01T00:00:00</time>
      </trkpt>
      <trkpt lat="43.74604" lon="7.27562">
        <ele>194</ele>
        <time>0001-01-01T00:00:00</time>
      </trkpt>
      <trkpt lat="43.74594" lon="7.27582">
        <ele>197</ele>
        <time>0001-01-01T00:00:00</time>
      </trkpt>
      <trkpt lat="43.74586" lon="7.276">
        <ele>188</ele>
        <time>0001-01-01T00:00:00</time>
      </trkpt>
      <trkpt lat="43.74574" lon="7.27621">
        <ele>197</ele>
        <time>0001-01-01T00:00:00</time>
      </trkpt>
      <trkpt lat="43.7457" lon="7.27629">
        <ele>195</ele>
        <time>0001-01-01T00:00:00</time>
      </trkpt>
      <trkpt lat="43.7456" lon="7.27641">
        <ele>194</ele>
        <time>0001-01-01T00:00:00</time>
      </trkpt>
      <trkpt lat="43.74543" lon="7.27656">
        <ele>195</ele>
        <time>0001-01-01T00:00:00</time>
      </trkpt>
      <trkpt lat="43.74533" lon="7.27643">
        <ele>198</ele>
        <time>0001-01-01T00:00:00</time>
      </trkpt>
      <trkpt lat="43.74531" lon="7.27634">
        <ele>199</ele>
        <time>0001-01-01T00:00:00</time>
      </trkpt>
      <trkpt lat="43.74511" lon="7.27625">
        <ele>202</ele>
        <time>0001-01-01T00:00:00</time>
      </trkpt>
      <trkpt lat="43.74497" lon="7.27638">
        <ele>214</ele>
        <time>0001-01-01T00:00:00</time>
      </trkpt>
      <trkpt lat="43.74487" lon="7.2764">
        <ele>214</ele>
        <time>0001-01-01T00:00:00</time>
      </trkpt>
      <trkpt lat="43.74484" lon="7.27645">
        <ele>213</ele>
        <time>0001-01-01T00:00:00</time>
      </trkpt>
      <trkpt lat="43.74483" lon="7.27646">
        <ele>213</ele>
        <time>0001-01-01T00:00:00</time>
      </trkpt>
      <trkpt lat="43.74485" lon="7.27668">
        <ele>199</ele>
        <time>0001-01-01T00:00:00</time>
      </trkpt>
      <trkpt lat="43.74481" lon="7.27683">
        <ele>200</ele>
        <time>0001-01-01T00:00:00</time>
      </trkpt>
      <trkpt lat="43.74479" lon="7.27693">
        <ele>199</ele>
        <time>0001-01-01T00:00:00</time>
      </trkpt>
      <trkpt lat="43.74469" lon="7.27709">
        <ele>199</ele>
        <time>0001-01-01T00:00:00</time>
      </trkpt>
      <trkpt lat="43.74457" lon="7.27721">
        <ele>199</ele>
        <time>0001-01-01T00:00:00</time>
      </trkpt>
      <trkpt lat="43.74446" lon="7.2773">
        <ele>200</ele>
        <time>0001-01-01T00:00:00</time>
      </trkpt>
      <trkpt lat="43.74442" lon="7.27733">
        <ele>200</ele>
        <time>0001-01-01T00:00:00</time>
      </trkpt>
      <trkpt lat="43.74436" lon="7.27746">
        <ele>200</ele>
        <time>0001-01-01T00:00:00</time>
      </trkpt>
      <trkpt lat="43.74435" lon="7.27754">
        <ele>191</ele>
        <time>0001-01-01T00:00:00</time>
      </trkpt>
      <trkpt lat="43.74444" lon="7.27772">
        <ele>187</ele>
        <time>0001-01-01T00:00:00</time>
      </trkpt>
      <trkpt lat="43.74449" lon="7.27784">
        <ele>185</ele>
        <time>0001-01-01T00:00:00</time>
      </trkpt>
      <trkpt lat="43.7445" lon="7.27787">
        <ele>185</ele>
        <time>0001-01-01T00:00:00</time>
      </trkpt>
      <trkpt lat="43.74453" lon="7.27804">
        <ele>183</ele>
        <time>0001-01-01T00:00:00</time>
      </trkpt>
      <trkpt lat="43.74459" lon="7.2782">
        <ele>181</ele>
        <time>0001-01-01T00:00:00</time>
      </trkpt>
      <trkpt lat="43.74462" lon="7.27833">
        <ele>180</ele>
        <time>0001-01-01T00:00:00</time>
      </trkpt>
      <trkpt lat="43.74466" lon="7.27846">
        <ele>169</ele>
        <time>0001-01-01T00:00:00</time>
      </trkpt>
      <trkpt lat="43.74457" lon="7.27858">
        <ele>169</ele>
        <time>0001-01-01T00:00:00</time>
      </trkpt>
      <trkpt lat="43.74452" lon="7.2787">
        <ele>168</ele>
        <time>0001-01-01T00:00:00</time>
      </trkpt>
      <trkpt lat="43.74442" lon="7.27881">
        <ele>168</ele>
        <time>0001-01-01T00:00:00</time>
      </trkpt>
      <trkpt lat="43.74436" lon="7.27874">
        <ele>169</ele>
        <time>0001-01-01T00:00:00</time>
      </trkpt>
      <trkpt lat="43.74432" lon="7.27867">
        <ele>170</ele>
        <time>0001-01-01T00:00:00</time>
      </trkpt>
      <trkpt lat="43.74421" lon="7.27867">
        <ele>171</ele>
        <time>0001-01-01T00:00:00</time>
      </trkpt>
      <trkpt lat="43.74419" lon="7.27866">
        <ele>171</ele>
        <time>0001-01-01T00:00:00</time>
      </trkpt>
      <trkpt lat="43.74406" lon="7.27864">
        <ele>177</ele>
        <time>0001-01-01T00:00:00</time>
      </trkpt>
      <trkpt lat="43.74398" lon="7.27865">
        <ele>177</ele>
        <time>0001-01-01T00:00:00</time>
      </trkpt>
      <trkpt lat="43.74393" lon="7.27867">
        <ele>177</ele>
        <time>0001-01-01T00:00:00</time>
      </trkpt>
      <trkpt lat="43.7439" lon="7.27872">
        <ele>177</ele>
        <time>0001-01-01T00:00:00</time>
      </trkpt>
      <trkpt lat="43.74384" lon="7.27875">
        <ele>176</ele>
        <time>0001-01-01T00:00:00</time>
      </trkpt>
      <trkpt lat="43.74381" lon="7.27875">
        <ele>177</ele>
        <time>0001-01-01T00:00:00</time>
      </trkpt>
      <trkpt lat="43.74371" lon="7.27888">
        <ele>176</ele>
        <time>0001-01-01T00:00:00</time>
      </trkpt>
      <trkpt lat="43.74367" lon="7.27897">
        <ele>175</ele>
        <time>0001-01-01T00:00:00</time>
      </trkpt>
      <trkpt lat="43.74365" lon="7.27901">
        <ele>175</ele>
        <time>0001-01-01T00:00:00</time>
      </trkpt>
      <trkpt lat="43.7436" lon="7.27905">
        <ele>175</ele>
        <time>0001-01-01T00:00:00</time>
      </trkpt>
      <trkpt lat="43.7436" lon="7.27906">
        <ele>175</ele>
        <time>0001-01-01T00:00:00</time>
      </trkpt>
      <trkpt lat="43.74359" lon="7.27913">
        <ele>175</ele>
        <time>0001-01-01T00:00:00</time>
      </trkpt>
      <trkpt lat="43.74357" lon="7.27922">
        <ele>167</ele>
        <time>0001-01-01T00:00:00</time>
      </trkpt>
      <trkpt lat="43.74344" lon="7.27942">
        <ele>166</ele>
        <time>0001-01-01T00:00:00</time>
      </trkpt>
      <trkpt lat="43.7434" lon="7.27955">
        <ele>164</ele>
        <time>0001-01-01T00:00:00</time>
      </trkpt>
      <trkpt lat="43.74341" lon="7.27967">
        <ele>163</ele>
        <time>0001-01-01T00:00:00</time>
      </trkpt>
      <trkpt lat="43.74342" lon="7.2797">
        <ele>163</ele>
        <time>0001-01-01T00:00:00</time>
      </trkpt>
      <trkpt lat="43.74344" lon="7.27979">
        <ele>162</ele>
        <time>0001-01-01T00:00:00</time>
      </trkpt>
      <trkpt lat="43.74345" lon="7.2798">
        <ele>162</ele>
        <time>0001-01-01T00:00:00</time>
      </trkpt>
      <trkpt lat="43.74352" lon="7.27988">
        <ele>161</ele>
        <time>0001-01-01T00:00:00</time>
      </trkpt>
      <trkpt lat="43.74351" lon="7.28001">
        <ele>154</ele>
        <time>0001-01-01T00:00:00</time>
      </trkpt>
      <trkpt lat="43.74342" lon="7.28014">
        <ele>154</ele>
        <time>0001-01-01T00:00:00</time>
      </trkpt>
      <trkpt lat="43.7434" lon="7.28027">
        <ele>151</ele>
        <time>0001-01-01T00:00:00</time>
      </trkpt>
      <trkpt lat="43.7434" lon="7.28044">
        <ele>149</ele>
        <time>0001-01-01T00:00:00</time>
      </trkpt>
      <trkpt lat="43.74329" lon="7.28058">
        <ele>155</ele>
        <time>0001-01-01T00:00:00</time>
      </trkpt>
      <trkpt lat="43.7431" lon="7.28072">
        <ele>154</ele>
        <time>0001-01-01T00:00:00</time>
      </trkpt>
      <trkpt lat="43.74306" lon="7.28077">
        <ele>154</ele>
        <time>0001-01-01T00:00:00</time>
      </trkpt>
      <trkpt lat="43.74303" lon="7.28082">
        <ele>154</ele>
        <time>0001-01-01T00:00:00</time>
      </trkpt>
      <trkpt lat="43.74298" lon="7.28089">
        <ele>144</ele>
        <time>0001-01-01T00:00:00</time>
      </trkpt>
      <trkpt lat="43.74298" lon="7.28102">
        <ele>143</ele>
        <time>0001-01-01T00:00:00</time>
      </trkpt>
      <trkpt lat="43.74299" lon="7.28116">
        <ele>141</ele>
        <time>0001-01-01T00:00:00</time>
      </trkpt>
      <trkpt lat="43.74287" lon="7.28139">
        <ele>139</ele>
        <time>0001-01-01T00:00:00</time>
      </trkpt>
      <trkpt lat="43.74276" lon="7.28162">
        <ele>138</ele>
        <time>0001-01-01T00:00:00</time>
      </trkpt>
      <trkpt lat="43.7427" lon="7.28176">
        <ele>130</ele>
        <time>0001-01-01T00:00:00</time>
      </trkpt>
      <trkpt lat="43.74256" lon="7.28214">
        <ele>128</ele>
        <time>0001-01-01T00:00:00</time>
      </trkpt>
      <trkpt lat="43.74245" lon="7.28244">
        <ele>132</ele>
        <time>0001-01-01T00:00:00</time>
      </trkpt>
      <trkpt lat="43.74238" lon="7.28256">
        <ele>129</ele>
        <time>0001-01-01T00:00:00</time>
      </trkpt>
      <trkpt lat="43.74226" lon="7.28284">
        <ele>126</ele>
        <time>0001-01-01T00:00:00</time>
      </trkpt>
      <trkpt lat="43.74211" lon="7.28308">
        <ele>125</ele>
        <time>0001-01-01T00:00:00</time>
      </trkpt>
      <trkpt lat="43.74212" lon="7.28321">
        <ele>125</ele>
        <time>0001-01-01T00:00:00</time>
      </trkpt>
      <trkpt lat="43.74209" lon="7.28326">
        <ele>125</ele>
        <time>0001-01-01T00:00:00</time>
      </trkpt>
      <trkpt lat="43.74187" lon="7.28346">
        <ele>118</ele>
        <time>0001-01-01T00:00:00</time>
      </trkpt>
      <trkpt lat="43.74181" lon="7.28352">
        <ele>118</ele>
        <time>0001-01-01T00:00:00</time>
      </trkpt>
      <trkpt lat="43.74166" lon="7.28366">
        <ele>119</ele>
        <time>0001-01-01T00:00:00</time>
      </trkpt>
      <trkpt lat="43.74164" lon="7.28376">
        <ele>118</ele>
        <time>0001-01-01T00:00:00</time>
      </trkpt>
      <trkpt lat="43.74163" lon="7.28389">
        <ele>117</ele>
        <time>0001-01-01T00:00:00</time>
      </trkpt>
      <trkpt lat="43.74172" lon="7.28406">
        <ele>116</ele>
        <time>0001-01-01T00:00:00</time>
      </trkpt>
      <trkpt lat="43.74163" lon="7.28417">
        <ele>116</ele>
        <time>0001-01-01T00:00:00</time>
      </trkpt>
      <trkpt lat="43.74152" lon="7.28445">
        <ele>109</ele>
        <time>0001-01-01T00:00:00</time>
      </trkpt>
      <trkpt lat="43.74141" lon="7.28467">
        <ele>105</ele>
        <time>0001-01-01T00:00:00</time>
      </trkpt>
      <trkpt lat="43.74136" lon="7.2848">
        <ele>104</ele>
        <time>0001-01-01T00:00:00</time>
      </trkpt>
      <trkpt lat="43.74121" lon="7.28501">
        <ele>95</ele>
        <time>0001-01-01T00:00:00</time>
      </trkpt>
      <trkpt lat="43.7412" lon="7.2851">
        <ele>94</ele>
        <time>0001-01-01T00:00:00</time>
      </trkpt>
      <trkpt lat="43.74112" lon="7.28533">
        <ele>93</ele>
        <time>0001-01-01T00:00:00</time>
      </trkpt>
      <trkpt lat="43.74104" lon="7.28534">
        <ele>92</ele>
        <time>0001-01-01T00:00:00</time>
      </trkpt>
      <trkpt lat="43.74084" lon="7.28538">
        <ele>92</ele>
        <time>0001-01-01T00:00:00</time>
      </trkpt>
      <trkpt lat="43.74076" lon="7.28539">
        <ele>86</ele>
        <time>0001-01-01T00:00:00</time>
      </trkpt>
      <trkpt lat="43.74068" lon="7.28542">
        <ele>86</ele>
        <time>0001-01-01T00:00:00</time>
      </trkpt>
      <trkpt lat="43.74064" lon="7.28544">
        <ele>85</ele>
        <time>0001-01-01T00:00:00</time>
      </trkpt>
      <trkpt lat="43.74062" lon="7.28559">
        <ele>84</ele>
        <time>0001-01-01T00:00:00</time>
      </trkpt>
      <trkpt lat="43.74065" lon="7.28569">
        <ele>83</ele>
        <time>0001-01-01T00:00:00</time>
      </trkpt>
      <trkpt lat="43.74068" lon="7.28572">
        <ele>83</ele>
        <time>0001-01-01T00:00:00</time>
      </trkpt>
      <trkpt lat="43.74067" lon="7.28575">
        <ele>83</ele>
        <time>0001-01-01T00:00:00</time>
      </trkpt>
      <trkpt lat="43.7406" lon="7.28576">
        <ele>83</ele>
        <time>0001-01-01T00:00:00</time>
      </trkpt>
      <trkpt lat="43.7406" lon="7.28586">
        <ele>76</ele>
        <time>0001-01-01T00:00:00</time>
      </trkpt>
      <trkpt lat="43.74061" lon="7.28587">
        <ele>76</ele>
        <time>0001-01-01T00:00:00</time>
      </trkpt>
      <trkpt lat="43.74071" lon="7.28598">
        <ele>76</ele>
        <time>0001-01-01T00:00:00</time>
      </trkpt>
      <trkpt lat="43.74063" lon="7.28599">
        <ele>75</ele>
        <time>0001-01-01T00:00:00</time>
      </trkpt>
      <trkpt lat="43.74053" lon="7.28607">
        <ele>73</ele>
        <time>0001-01-01T00:00:00</time>
      </trkpt>
      <trkpt lat="43.74041" lon="7.28631">
        <ele>70</ele>
        <time>0001-01-01T00:00:00</time>
      </trkpt>
      <trkpt lat="43.74034" lon="7.28639">
        <ele>70</ele>
        <time>0001-01-01T00:00:00</time>
      </trkpt>
      <trkpt lat="43.74001" lon="7.28697">
        <ele>63</ele>
        <time>0001-01-01T00:00:00</time>
      </trkpt>
      <trkpt lat="43.73999" lon="7.28705">
        <ele>62</ele>
        <time>0001-01-01T00:00:00</time>
      </trkpt>
      <trkpt lat="43.73976" lon="7.28714">
        <ele>61</ele>
        <time>0001-01-01T00:00:00</time>
      </trkpt>
    </trkseg>
  </trk>
</gpx>